GFSWCAN_sfc_wetblb_000.txt.gz
Wetbulb
49.72 49.69 49.63 49.71 49.77 49.83 49.76 49.98 49.93 50.13 50.45 50.45 50.45 50.69 50.78 51.08 50.79 48.11 46.12 48.88 46.35 42.55 43.19 44.13 44.74 40.45 40.96 41.15 38.95 42.82 44.29 46.62 49.29 45.22 42.53 41.25 40.83 44.07 45.88 48.03 47.09 47.48 45.77 44.16 44.02 41.52 39.29 55.29 54.87 50.98 51.72 53.64 55.77 56.25
50.31 50.12 50.09 49.87 49.67 49.62 49.58 49.55 49.49 49.87 50.00 50.34 50.34 50.45 50.66 50.86 50.57 49.73 44.61 48.11 48.86 42.81 42.32 46.36 46.99 47.53 46.62 46.57 41.70 39.28 39.65 43.14 46.88 44.00 45.92 45.47 45.15 46.25 44.44 43.73 50.60 47.32 50.05 49.04 48.70 47.21 52.72 54.84 53.76 53.96 54.53 53.65 55.46 55.71
50.42 50.10 49.98 49.90 49.68 49.37 49.57 49.66 49.70 49.91 49.73 50.13 50.15 50.08 50.24 50.64 50.27 49.65 45.70 45.23 44.43 41.53 41.20 40.30 42.19 46.93 47.67 47.93 47.94 40.46 41.93 44.08 45.14 45.91 43.19 46.85 44.75 47.26 45.20 46.15 48.21 52.74 55.06 50.88 50.13 53.06 54.80 55.71 55.54 56.16 56.33 55.88 56.38 57.45
49.91 50.04 49.71 49.66 49.70 49.42 49.19 49.13 49.17 49.55 49.60 49.64 49.53 49.87 50.06 50.59 50.19 50.10 44.74 45.87 44.09 42.53 35.95 39.34 47.87 44.34 48.39 47.35 47.41 46.41 44.14 44.58 44.77 44.52 41.01 42.68 44.07 47.53 45.93 48.39 49.30 52.21 52.13 52.01 51.20 54.05 54.06 54.80 55.03 55.64 56.87 57.58 57.20 57.35
49.66 49.45 49.68 49.47 49.00 49.13 49.02 48.80 49.00 49.17 49.33 49.21 49.49 50.08 49.96 50.70 50.98 48.66 46.55 46.53 46.95 43.87 38.03 38.12 44.45 46.64 47.53 47.98 48.75 48.59 45.17 42.90 42.88 40.47 39.22 39.64 45.64 45.55 45.15 47.91 47.32 50.80 51.41 49.73 48.40 52.90 52.15 52.35 54.54 55.88 53.57 54.05 54.71 54.07
49.57 49.44 49.66 49.27 49.35 49.50 48.92 48.84 48.66 48.78 49.31 49.47 49.47 49.93 49.96 50.83 51.21 46.09 44.19 46.15 47.59 45.27 38.43 35.78 44.27 44.26 46.05 47.18 46.69 45.04 46.18 44.61 43.60 39.50 39.97 42.01 45.06 45.37 42.20 41.79 46.87 52.73 54.06 53.96 52.85 54.46 54.05 55.01 54.69 53.71 52.93 53.36 54.12 52.59
49.64 49.46 49.27 49.36 49.33 49.16 49.05 48.96 48.83 48.84 49.31 49.13 49.59 49.95 50.40 50.73 45.39 43.05 42.52 47.54 48.84 45.77 40.89 39.16 39.78 44.41 47.11 45.26 46.23 44.32 44.79 44.68 42.63 39.37 39.76 40.07 41.54 44.11 43.82 41.15 44.51 49.46 49.82 51.34 54.64 51.09 47.98 49.78 48.38 52.42 54.26 55.09 54.33 53.82
49.74 49.60 49.25 49.19 49.11 49.05 49.33 48.94 48.80 48.74 48.82 49.10 49.86 50.31 50.64 50.64 48.06 41.73 46.35 48.71 47.20 42.58 41.00 37.49 39.23 40.96 44.52 41.06 41.98 46.08 42.72 43.40 42.74 40.74 40.66 40.20 42.07 40.03 40.38 43.90 45.07 47.74 50.06 50.12 50.16 50.39 48.95 50.10 50.82 50.90 52.23 52.62 51.17 50.55
49.57 49.29 48.94 48.79 48.92 48.94 49.02 48.80 48.21 48.51 48.66 49.00 49.72 50.43 46.39 43.32 40.20 43.38 53.44 51.29 46.46 42.95 37.52 39.87 36.50 36.18 43.24 41.99 43.85 44.20 45.18 40.58 44.10 39.70 39.08 40.66 39.62 40.49 39.70 44.27 46.79 47.50 47.32 46.50 49.40 49.35 49.51 48.69 48.55 49.39 50.06 50.04 48.50 48.31
48.76 48.76 48.59 48.65 48.88 48.83 48.88 48.64 47.86 48.42 49.19 49.49 45.51 43.15 38.64 43.39 53.44 51.05 43.17 41.31 41.35 41.93 39.85 37.27 40.90 37.14 40.28 41.15 40.38 42.78 42.89 40.81 38.63 41.70 43.36 44.12 42.54 46.43 46.98 46.48 47.35 48.33 48.73 48.91 47.69 46.85 47.45 47.14 47.88 49.12 49.12 49.62 49.36 49.09
48.75 48.74 48.65 49.07 49.19 49.05 49.25 49.07 48.41 49.03 48.51 42.22 40.49 41.66 47.39 51.71 42.45 40.16 36.45 37.67 39.63 37.51 39.36 39.05 38.69 37.19 44.15 40.03 40.36 42.32 39.57 40.54 37.26 41.22 40.87 41.88 42.85 46.66 49.18 49.45 50.47 50.99 51.18 50.16 49.63 48.34 47.84 47.31 48.31 48.33 48.94 49.84 49.90 49.27
48.57 48.62 49.31 49.54 49.71 48.94 50.03 49.26 49.06 45.32 45.29 45.72 45.10 46.30 45.53 41.62 37.75 34.29 33.26 38.00 38.02 35.68 39.44 38.69 39.36 42.41 43.46 44.56 41.73 42.48 39.51 40.71 36.41 43.24 41.43 41.78 47.28 48.93 50.15 51.02 51.36 50.89 51.75 51.45 51.80 50.56 50.87 51.44 50.76 50.04 49.37 49.74 51.25 51.25
48.70 48.59 49.28 49.48 49.52 50.06 49.78 49.23 49.19 49.34 48.96 46.89 43.71 39.94 38.91 35.84 25.75 31.56 28.54 33.73 35.18 39.47 39.23 39.82 39.15 40.57 42.18 42.25 41.64 40.54 38.72 36.60 42.48 39.89 42.24 45.24 48.42 50.58 50.58 50.95 50.82 51.39 52.14 52.40 52.42 52.71 52.59 53.06 53.19 52.03 51.49 52.35 52.77 53.46
48.64 49.25 49.26 49.39 49.50 49.50 49.61 49.26 49.37 48.62 45.65 40.87 37.35 31.04 33.01 30.15 34.46 34.85 36.50 39.57 42.44 41.36 41.08 42.04 40.44 40.25 41.42 40.07 40.62 37.39 40.36 40.88 37.53 37.71 40.16 44.16 46.00 48.35 48.97 50.22 49.79 50.17 51.46 51.88 51.99 52.78 53.49 53.49 53.07 53.62 53.64 53.27 53.82 52.44
49.22 49.25 49.49 49.53 49.81 49.99 49.51 49.45 49.26 46.87 42.52 38.54 38.53 30.84 35.30 39.00 39.91 42.58 43.03 42.27 43.03 42.29 40.98 40.79 41.29 41.53 39.48 38.89 39.90 39.28 38.53 37.62 40.17 40.74 44.31 46.73 46.69 48.33 48.86 50.31 49.34 48.68 49.89 50.82 52.24 52.43 52.76 52.71 52.22 51.79 52.28 51.60 52.31 51.79
49.22 48.49 47.84 49.48 49.78 49.58 49.57 48.56 45.79 46.36 41.84 39.26 38.56 36.63 39.73 38.99 40.08 40.74 39.48 40.66 43.11 41.97 41.34 40.91 38.49 37.77 38.59 38.01 37.79 37.68 38.35 37.95 41.02 44.13 45.51 47.36 47.98 48.45 47.85 48.95 49.80 50.20 49.50 49.70 50.16 51.60 51.69 51.56 50.55 50.33 51.71 52.18 51.78 52.38
48.83 43.75 49.39 49.70 49.53 49.35 48.88 45.95 44.09 42.01 40.23 39.33 37.39 41.18 42.43 40.88 40.30 39.76 40.92 40.28 43.14 40.56 37.93 39.14 35.67 35.13 39.53 35.79 36.67 41.24 39.28 42.42 43.57 44.65 46.23 46.84 47.26 48.41 48.91 49.68 50.08 50.05 49.39 49.49 49.93 50.62 50.43 51.12 51.70 51.08 48.82 50.47 52.02 52.40
42.96 47.05 50.07 49.28 47.75 46.79 43.83 43.59 43.11 40.46 36.02 38.16 37.23 39.68 41.40 41.32 41.47 42.76 42.03 43.37 41.89 40.93 40.79 38.87 40.78 36.23 34.44 36.19 37.81 42.68 44.16 45.48 45.92 45.97 46.39 47.00 47.76 49.05 50.05 49.27 49.78 49.54 49.88 50.02 49.12 49.45 50.07 48.29 47.77 48.86 48.95 50.59 50.92 52.83
46.00 46.98 49.60 49.97 48.05 44.62 41.55 41.45 41.58 35.15 37.61 40.15 41.07 42.03 41.74 41.75 42.64 44.75 42.39 43.17 42.51 42.94 41.25 39.74 38.21 37.05 37.39 40.26 40.51 41.64 42.31 43.72 44.09 45.84 47.34 47.78 48.12 48.83 49.26 49.33 51.12 49.37 48.45 49.57 48.74 48.13 48.52 48.97 47.89 47.74 48.29 49.88 49.47 49.98
48.91 48.78 49.14 49.59 48.72 43.07 41.37 37.44 43.30 38.38 37.18 38.92 40.48 40.37 39.50 38.91 40.50 40.52 41.68 43.00 40.47 39.41 37.85 38.79 39.32 40.75 42.24 42.92 43.27 43.40 44.32 45.70 45.41 44.74 45.16 46.96 48.83 49.70 48.69 48.22 47.92 50.89 49.07 48.45 47.80 46.24 45.89 47.00 48.17 49.74 50.07 49.26 48.69 47.95
47.37 48.07 48.04 46.90 44.92 44.59 43.19 41.36 39.66 40.10 39.84 38.22 40.73 40.68 39.57 40.10 38.87 40.22 41.01 43.28 38.33 36.76 36.68 40.79 41.11 43.10 44.85 45.54 46.19 45.92 45.82 46.35 45.16 45.75 45.28 46.94 50.37 49.14 49.84 50.34 48.37 47.73 47.19 46.66 46.39 46.32 45.38 45.35 46.20 45.81 45.91 47.52 48.56 49.15
47.70 50.11 45.72 47.26 42.86 42.00 39.86 42.76 39.76 42.24 38.02 37.75 38.30 39.74 38.52 38.30 39.12 39.28 41.48 39.17 38.58 38.88 40.90 41.64 42.12 43.54 43.61 43.77 45.56 47.74 50.34 51.12 48.95 49.04 48.73 49.36 48.89 48.97 48.42 49.40 48.53 49.61 49.26 50.13 48.29 46.31 44.76 44.93 45.63 46.34 46.08 46.30 45.83 45.99
48.71 46.68 43.38 42.90 38.50 37.02 36.17 42.61 40.54 39.66 36.96 38.18 39.79 36.99 36.42 39.58 40.31 41.28 38.20 40.36 40.04 42.43 43.44 43.81 44.11 44.71 45.32 47.27 49.88 51.51 51.80 50.78 49.23 49.44 50.55 51.15 52.34 50.68 49.70 50.17 49.96 49.04 48.75 48.90 46.48 46.21 44.33 44.70 45.25 45.15 45.22 45.76 45.58 45.60
48.11 41.94 39.18 38.33 38.18 34.61 40.21 37.91 39.71 39.22 40.05 38.00 35.29 33.56 36.29 39.07 40.97 38.87 36.64 39.37 42.42 44.89 46.38 47.30 48.60 48.75 48.77 49.23 49.31 49.84 50.45 50.70 50.52 49.97 49.94 49.70 48.70 48.54 47.75 45.93 43.63 43.41 44.39 45.08 45.35 45.29 45.58 45.83 45.39 46.10 46.64 46.20 45.97 45.09
37.20 37.20 37.16 34.30 37.52 35.74 36.19 37.35 37.52 37.12 35.06 36.73 33.88 34.30 36.61 40.71 37.33 38.00 40.17 43.06 46.02 46.98 48.25 49.35 48.56 47.72 47.12 47.50 48.47 49.42 51.25 50.74 49.63 49.72 50.13 50.41 46.95 44.41 45.47 42.88 40.79 41.13 42.72 42.77 42.15 42.11 42.06 42.85 43.48 43.89 44.43 44.72 44.58 45.45
33.19 37.75 36.11 37.61 36.59 36.48 37.15 35.77 36.50 37.61 38.40 38.18 38.52 42.01 39.92 39.14 40.02 37.32 40.76 43.99 45.55 46.51 46.60 47.49 47.73 47.57 48.75 49.61 48.85 49.83 47.84 49.38 49.34 43.98 45.54 45.02 41.86 40.53 39.22 38.66 38.25 39.45 42.12 40.95 40.60 41.49 42.56 42.66 42.41 42.74 42.42 43.06 41.67 42.80
39.18 41.53 41.32 43.35 44.20 42.70 43.38 45.17 44.47 42.46 40.59 39.17 40.52 42.25 41.53 38.14 39.12 43.10 45.58 46.81 48.52 49.25 51.07 50.13 50.62 50.89 48.49 49.50 46.83 47.19 46.60 45.43 44.69 43.66 43.16 43.12 42.16 41.86 41.43 39.48 38.27 39.62 41.53 42.42 41.45 41.39 41.61 41.44 41.20 41.41 41.15 41.69 43.26 44.85
44.88 47.80 43.28 45.19 46.64 46.88 42.07 42.09 41.43 40.08 41.14 42.68 42.58 39.83 39.67 40.82 41.91 45.29 46.00 50.43 51.09 51.08 50.14 51.03 50.14 47.76 46.68 44.77 44.66 44.79 44.08 43.87 44.25 43.54 42.97 42.92 41.86 41.52 41.45 40.71 40.20 40.48 40.66 41.27 41.11 40.81 41.09 40.46 40.42 40.50 40.61 42.07 42.28 43.00
46.41 46.44 46.95 42.22 44.08 45.16 43.51 41.38 41.00 42.20 43.46 42.65 40.88 40.92 42.14 45.52 47.68 48.70 49.65 48.02 47.78 47.54 45.80 45.09 45.22 45.61 45.00 44.68 44.83 43.72 43.09 42.17 41.21 40.20 38.96 37.52 37.69 38.14 39.57 39.61 39.34 39.56 39.28 39.30 39.97 40.52 41.13 40.48 39.84 39.30 39.37 41.42 41.56 41.56
45.27 47.53 45.88 46.00 44.48 42.46 45.34 45.39 43.86 45.36 46.04 46.55 47.01 46.61 46.27 46.85 48.19 49.21 48.18 47.84 46.98 46.00 45.39 44.39 44.31 44.44 42.21 41.34 40.92 42.09 42.69 42.46 41.58 39.43 37.13 36.54 37.22 38.39 38.79 38.99 38.86 38.90 38.75 39.54 39.68 39.80 40.23 39.37 38.72 38.18 38.02 37.58 37.67 37.23
48.83 47.68 47.15 46.60 44.80 47.00 48.96 49.03 48.00 47.35 46.89 47.74 48.07 45.87 45.38 46.17 48.35 49.93 49.50 48.37 48.57 47.78 45.43 43.69 43.31 42.79 41.86 40.95 40.52 39.86 38.55 41.07 41.62 40.23 39.42 38.60 38.10 38.72 38.77 38.43 38.51 38.95 39.83 40.02 39.56 39.12 38.58 37.79 37.75 37.26 37.41 37.39 37.52 36.74
47.79 46.29 45.90 45.22 46.60 49.12 51.02 49.84 46.36 46.87 47.70 46.57 45.99 48.94 48.49 47.83 44.50 46.23 48.64 47.76 46.09 44.05 44.56 43.42 42.35 42.13 42.71 42.21 42.49 42.08 40.75 40.05 39.81 39.44 38.83 38.62 38.40 38.40 37.93 37.50 37.34 38.92 39.48 39.49 38.93 37.97 37.30 36.55 37.01 37.05 36.94 37.07 36.83 36.28
48.38 48.90 48.42 48.86 47.47 46.14 47.61 47.15 46.53 46.26 46.53 46.14 47.14 48.28 49.54 48.58 45.51 47.23 49.60 49.21 45.87 44.19 43.35 43.23 43.10 43.15 42.73 42.61 42.03 41.16 40.69 40.46 39.56 39.17 39.36 38.84 38.24 37.88 37.01 37.10 37.89 39.28 37.84 36.30 36.06 35.75 35.22 34.87 35.63 35.30 35.01 35.26 35.99 36.73

GFSWCAN_sfc_wetblb_003.txt.gz
Wetbulb
50.32 50.30 50.27 50.23 50.15 49.94 49.87 49.74 49.77 49.84 49.97 50.05 50.15 50.22 50.35 50.43 50.62 46.38 42.49 45.90 43.93 42.35 41.28 43.28 43.59 40.22 39.93 38.64 35.25 40.79 41.12 45.19 44.84 43.57 43.40 43.10 39.98 44.89 46.37 48.38 44.98 44.18 45.29 45.38 44.41 41.59 40.15 53.90 53.25 49.53 50.68 51.19 52.55 53.71
50.12 50.40 50.28 50.49 50.32 50.03 49.84 49.65 49.74 49.41 49.39 49.66 50.20 50.26 50.43 50.62 50.73 49.34 42.32 46.62 48.23 42.86 40.59 44.36 45.88 47.03 45.57 44.44 40.38 40.56 38.71 42.92 43.84 42.14 42.90 43.80 44.38 43.52 43.26 43.70 51.13 45.91 49.48 47.16 46.49 44.12 50.18 52.56 51.92 53.85 53.18 53.58 52.68 54.65
50.18 50.26 50.13 50.13 50.05 49.92 49.89 49.49 49.52 49.47 49.46 49.49 49.77 50.03 49.82 49.96 50.28 49.18 44.40 42.69 44.16 39.93 39.90 37.67 40.57 45.29 45.70 46.69 46.58 38.64 41.26 44.03 44.52 44.03 42.96 45.57 44.66 45.18 42.11 44.50 48.07 51.93 53.38 48.14 48.52 48.92 51.42 52.20 52.98 53.47 53.55 53.34 54.21 54.91
50.38 50.17 49.94 49.60 49.70 49.91 49.69 49.65 49.29 49.17 49.19 49.37 49.77 49.81 49.83 50.11 50.18 49.53 45.35 43.13 45.06 42.15 36.93 37.03 46.38 44.59 47.87 45.01 45.08 44.96 42.85 44.60 44.82 45.15 42.33 44.43 44.47 46.14 43.79 45.85 45.88 50.61 53.00 49.84 48.89 51.91 52.16 51.15 52.11 53.12 53.02 53.82 54.06 55.04
49.87 49.73 49.91 49.27 49.47 49.67 49.32 49.27 48.86 48.80 48.94 49.31 49.02 49.54 50.03 49.94 50.70 48.14 44.01 44.01 46.38 42.39 36.09 36.84 43.25 45.47 45.28 44.72 45.00 45.03 43.61 42.88 43.14 41.06 41.20 41.75 45.15 44.18 43.13 47.19 45.56 47.85 51.15 48.31 46.09 52.18 49.69 49.72 52.01 53.48 51.91 52.01 52.54 52.72
50.17 49.30 49.80 49.33 49.28 49.68 49.51 49.22 48.78 48.35 48.58 49.23 49.24 49.46 49.86 49.88 50.14 44.21 43.34 45.60 47.83 47.44 40.02 34.51 41.62 43.19 43.48 43.89 42.87 41.50 43.06 42.52 42.82 40.47 40.79 42.34 46.23 46.01 41.53 41.53 46.90 47.60 52.71 53.18 51.43 53.45 52.12 52.17 53.26 53.98 52.41 52.57 52.35 51.64
49.97 50.16 49.84 49.57 49.52 49.56 49.51 49.15 48.83 48.35 48.63 49.28 49.27 49.60 50.12 50.34 45.57 41.24 40.92 45.84 47.65 45.45 40.35 38.25 37.48 42.76 44.57 42.45 42.61 41.12 41.22 42.61 41.46 40.04 40.00 39.55 41.92 43.97 41.79 39.99 44.22 48.00 51.15 51.44 52.52 51.12 48.90 50.78 49.38 50.76 51.69 51.74 51.19 50.62
49.70 49.78 49.34 49.27 48.69 49.18 49.13 49.10 48.65 48.44 48.60 48.57 49.26 49.84 50.32 50.27 48.03 41.26 44.75 48.62 47.47 41.45 41.05 36.24 35.97 38.39 41.68 38.97 38.88 42.00 39.74 40.59 40.93 40.30 40.42 40.31 41.00 43.18 40.14 42.08 44.44 46.83 48.78 48.48 48.77 50.22 49.40 49.42 49.44 49.14 49.70 49.44 48.29 48.22
49.40 49.16 48.93 48.61 48.40 49.10 48.66 48.50 48.15 48.50 48.16 48.52 49.09 49.54 44.74 42.96 39.60 41.62 51.61 49.82 44.70 41.85 37.61 37.95 35.45 34.69 41.54 38.99 40.03 41.57 43.11 38.92 42.19 38.40 39.88 44.45 41.44 38.72 41.23 41.52 44.43 46.16 45.24 45.78 47.81 48.65 48.92 48.43 48.11 49.04 49.22 49.33 47.73 47.77
48.84 48.63 48.54 48.53 48.51 48.68 48.71 48.53 47.90 48.34 48.78 49.13 44.02 42.86 37.44 43.30 52.13 49.45 42.27 39.31 39.70 40.86 39.14 36.31 38.65 35.56 38.43 39.62 39.10 41.58 40.83 38.89 37.17 39.25 45.19 44.84 44.25 44.39 45.25 45.37 46.34 47.39 47.62 47.20 45.71 45.50 46.01 46.00 46.65 47.32 47.38 48.13 47.99 48.15
48.80 48.73 48.61 48.69 48.99 49.07 49.11 48.68 48.00 48.55 46.55 41.40 40.05 40.96 45.08 49.21 41.75 40.93 38.46 38.27 38.28 36.68 38.19 38.93 37.30 35.56 41.68 39.06 39.59 41.80 38.71 38.01 36.14 39.45 42.85 44.01 43.38 45.15 47.72 47.84 48.31 48.76 49.33 48.85 48.67 48.11 48.07 48.00 48.01 48.07 47.60 47.78 49.11 50.30
48.74 48.83 49.22 49.51 49.39 49.28 49.21 48.89 48.90 45.07 45.96 45.28 43.94 45.12 43.96 40.76 36.81 33.89 32.26 36.43 36.54 35.51 38.24 38.26 38.49 38.58 41.51 42.99 40.68 41.70 38.97 38.63 35.08 41.46 42.55 41.35 45.86 48.44 48.77 49.21 48.94 49.16 50.62 50.57 50.89 50.25 50.95 51.25 50.86 49.20 49.42 49.16 50.26 50.65
48.94 49.44 49.36 49.48 49.22 49.42 49.31 48.89 49.42 49.28 48.63 45.91 41.38 37.76 37.02 33.19 24.49 30.40 30.69 32.35 33.23 38.14 38.79 39.61 38.25 39.29 41.15 41.39 40.15 39.84 38.86 37.45 42.72 41.49 41.59 43.83 47.11 49.60 49.64 49.54 48.96 49.77 51.05 51.11 51.19 51.51 51.97 51.87 52.29 51.68 51.18 51.74 51.89 51.49
49.29 49.67 49.35 49.40 49.59 49.44 49.17 48.70 48.53 48.15 45.20 40.16 35.81 28.79 32.12 30.15 35.17 35.92 37.83 39.35 41.08 41.85 40.68 40.93 40.16 39.70 40.40 39.41 39.30 37.94 39.58 41.32 39.34 37.71 40.23 45.03 46.73 47.66 49.52 49.76 47.75 47.91 49.47 50.06 50.42 51.36 51.56 50.66 50.57 51.40 51.52 50.58 50.05 50.21
49.44 49.40 49.20 49.42 49.87 49.40 48.95 48.91 48.88 46.71 41.31 36.08 36.41 32.64 36.18 39.47 39.91 42.72 44.08 41.39 42.29 41.65 41.20 39.67 40.57 40.20 38.40 38.32 39.57 38.63 37.84 37.89 40.19 40.32 44.70 46.01 46.03 46.64 46.57 47.69 47.26 47.72 47.59 47.93 48.75 49.55 50.07 50.01 49.34 48.82 49.82 50.04 49.98 50.15
48.81 47.53 47.87 49.59 49.11 48.83 49.02 46.78 44.40 43.63 39.85 37.95 38.81 37.30 39.27 38.14 38.62 39.86 40.83 40.35 42.85 40.92 40.38 40.10 37.58 36.35 36.98 36.40 37.32 38.08 38.14 37.40 40.30 42.98 44.42 44.91 44.85 45.94 46.52 47.69 48.08 48.57 47.91 47.42 47.41 48.28 48.55 48.14 48.46 49.21 49.61 49.24 50.67 50.66
47.19 43.35 49.42 49.10 48.84 48.51 48.15 43.42 42.64 41.00 38.35 38.00 38.32 42.07 41.41 39.21 39.06 40.00 41.25 41.84 42.96 40.72 38.28 38.48 35.52 34.84 37.23 34.58 37.48 41.14 39.66 41.78 43.96 43.98 44.15 43.86 44.19 45.50 47.09 47.75 48.11 48.08 47.95 47.77 47.55 47.61 47.65 48.93 47.54 46.99 46.79 48.14 49.77 50.31
43.70 45.92 50.07 49.59 48.30 45.80 42.81 42.94 41.37 39.85 36.93 40.17 38.93 40.17 40.16 41.01 40.06 40.22 41.52 41.39 41.32 39.43 39.10 37.97 39.54 37.40 36.70 37.00 38.46 41.90 43.27 42.29 43.50 43.96 44.82 45.10 45.48 46.39 47.61 46.39 47.44 47.58 47.29 47.50 47.54 47.68 47.06 46.15 46.38 45.97 45.74 47.69 49.24 52.68
44.81 46.14 49.28 49.43 48.09 43.71 39.92 40.77 40.44 37.41 39.12 38.31 39.38 39.65 39.90 40.23 40.52 41.38 40.77 41.90 40.33 40.90 39.20 38.53 37.49 36.10 39.88 42.22 39.80 40.06 40.62 42.20 42.70 43.86 45.37 46.59 46.30 47.05 47.75 47.69 47.65 46.95 46.83 46.63 46.52 47.03 46.49 46.37 45.69 45.92 46.11 46.27 47.12 48.54
48.33 48.44 49.65 49.80 48.46 40.21 39.01 36.85 41.77 37.44 35.71 37.66 39.14 39.06 39.44 37.56 38.50 38.54 40.49 41.07 38.72 38.09 37.67 37.79 37.98 39.28 40.23 41.17 41.70 42.45 43.31 44.06 43.69 43.05 43.13 44.44 46.53 47.80 47.52 47.37 47.54 47.00 46.30 46.30 46.06 44.58 44.72 44.75 45.36 46.45 47.48 47.36 47.14 47.73
47.70 47.33 49.12 47.37 43.33 42.61 39.91 38.82 37.38 37.95 37.72 36.29 37.89 38.10 37.95 39.09 39.00 38.92 38.33 40.10 37.01 34.73 35.61 39.31 41.11 42.54 42.87 43.22 44.08 43.90 43.80 44.05 43.61 44.33 43.83 44.36 48.70 48.04 47.83 47.75 47.21 46.64 45.22 46.84 45.60 45.65 43.48 43.65 43.53 44.44 44.45 45.91 46.93 48.05
46.03 49.73 45.29 45.97 41.57 39.86 37.99 41.76 37.29 38.94 36.25 36.07 36.45 37.74 36.43 36.68 36.92 36.73 38.39 37.28 36.79 37.96 38.66 40.04 40.22 41.17 42.17 42.41 43.36 45.66 48.91 49.99 49.19 48.04 46.02 47.83 48.06 48.79 48.76 48.68 47.00 46.66 45.55 44.07 43.54 42.55 41.81 42.63 43.17 43.77 43.34 43.51 43.85 44.31
48.33 45.97 42.73 41.87 37.46 35.06 33.42 40.06 39.07 37.85 34.37 36.03 38.30 35.60 34.85 39.27 38.77 38.82 35.49 36.35 38.00 39.75 41.27 42.90 44.75 45.23 44.25 45.73 48.22 49.08 50.15 50.19 48.22 48.13 48.44 48.85 49.91 47.29 44.38 42.63 41.30 39.81 38.92 39.78 40.30 40.66 41.16 41.83 42.98 43.41 44.17 44.34 43.97 43.86
47.83 41.55 37.81 38.04 37.72 34.08 38.66 36.51 37.55 38.04 37.45 36.55 34.32 33.96 36.66 38.87 41.37 39.33 37.39 39.90 42.12 44.43 45.68 47.02 48.93 49.08 49.17 49.56 48.49 48.45 49.08 48.44 47.14 47.64 48.23 48.47 45.31 39.51 38.40 37.64 38.29 38.55 38.41 38.33 38.47 39.84 40.91 41.51 40.80 41.47 42.16 42.41 42.05 41.65
38.17 38.47 37.89 34.20 37.61 35.98 36.45 37.40 37.76 37.33 35.54 37.39 34.74 35.33 37.54 40.74 38.01 38.64 39.95 42.72 44.31 46.09 47.16 48.79 48.51 48.04 47.34 47.48 47.94 47.18 47.59 46.82 46.98 44.07 40.68 44.44 41.89 38.94 37.44 37.62 37.97 37.90 38.44 38.11 37.86 38.50 39.26 40.20 39.96 40.27 40.56 40.08 39.76 39.96
33.43 36.71 36.04 37.57 36.12 36.38 36.59 35.54 35.92 37.03 37.93 37.14 36.59 40.75 38.54 40.11 39.07 38.18 40.06 44.57 44.74 45.20 46.28 46.63 46.18 45.97 45.81 45.64 45.73 44.30 43.07 44.58 41.03 39.19 38.79 38.65 39.16 38.00 36.46 35.86 35.60 36.62 38.72 37.63 37.34 38.23 39.12 39.48 39.37 39.91 39.64 40.47 41.12 43.27
36.40 39.13 40.70 40.42 39.52 39.11 39.54 41.93 40.83 38.56 38.77 37.56 38.14 41.02 40.38 37.22 38.74 41.99 44.91 45.75 46.99 48.67 47.94 47.41 47.39 46.84 44.95 42.95 43.27 42.19 40.65 40.14 39.90 39.90 39.72 38.14 38.83 39.60 38.86 37.01 35.94 37.36 38.68 39.55 38.50 38.54 39.00 38.70 38.52 38.90 39.43 41.91 42.03 41.90
42.14 43.90 41.29 41.82 41.21 42.93 40.95 41.17 40.92 39.54 40.64 41.96 42.10 39.05 38.42 39.39 40.31 43.75 44.62 46.27 46.48 45.69 45.51 46.76 46.34 44.57 41.92 40.25 40.19 41.34 41.19 40.36 41.20 40.14 39.60 39.14 38.12 37.69 38.02 38.14 38.08 38.44 37.55 37.72 38.05 38.91 38.35 38.22 37.95 37.89 37.83 40.09 40.41 41.19
42.90 45.73 45.22 41.58 42.29 41.41 40.46 39.09 38.97 40.43 42.00 41.34 39.90 39.81 41.40 43.97 45.78 45.77 45.98 44.78 44.04 44.26 42.49 41.80 41.84 41.51 40.79 40.69 40.66 39.59 39.14 38.92 38.93 36.35 35.64 35.22 35.23 36.49 37.41 37.40 37.21 37.01 36.24 36.73 38.68 38.88 39.02 38.13 37.37 37.05 37.22 37.27 38.78 39.96
42.78 44.97 43.54 43.62 41.40 40.17 42.27 41.50 41.92 43.12 44.87 44.71 45.02 44.27 44.26 45.14 46.29 46.28 45.30 44.47 42.54 40.93 40.47 40.50 39.89 40.17 38.91 38.84 38.39 39.50 39.19 38.56 38.24 36.95 34.64 34.44 35.03 35.86 36.29 35.96 35.63 35.95 36.88 37.96 37.58 37.51 38.16 37.29 36.71 36.79 37.31 36.77 36.07 35.52
45.55 46.18 45.47 43.60 41.86 44.08 45.23 47.07 45.57 44.13 44.67 44.79 45.18 45.22 43.77 44.27 46.10 46.09 45.02 43.39 42.76 42.43 41.63 40.03 39.37 38.98 38.72 38.37 37.55 36.84 35.74 37.45 37.09 37.16 36.69 35.43 35.35 35.60 35.80 35.66 35.05 35.46 36.76 36.89 36.34 35.47 35.38 35.67 35.83 35.52 35.71 36.08 36.86 36.40
47.70 46.53 45.00 42.97 43.52 47.09 49.08 47.50 45.93 46.23 46.44 46.37 46.37 48.86 49.31 48.42 45.53 45.16 46.69 46.15 44.00 41.18 40.58 39.45 38.85 38.94 39.13 38.15 37.93 37.53 37.37 36.20 37.21 36.77 36.65 36.42 35.87 35.67 35.71 35.38 35.77 36.39 35.83 35.52 35.14 34.39 34.24 34.90 34.55 34.49 34.20 34.19 34.56 34.84
46.24 47.15 48.20 47.23 44.92 44.89 45.72 45.54 45.05 46.60 47.97 47.16 47.39 48.83 49.16 45.68 42.03 47.28 50.56 48.64 45.42 40.73 38.67 39.72 40.36 38.49 38.05 37.64 37.34 36.91 37.15 36.61 36.51 36.68 36.66 36.47 36.18 35.79 34.59 34.30 35.58 35.27 33.79 32.90 32.15 31.64 30.86 30.79 32.06 30.96 30.42 30.41 30.76 31.59

GFSWCAN_sfc_wetblb_006.txt.gz
Wetbulb
50.45 49.80 49.89 50.30 50.66 50.57 50.73 50.56 50.24 49.95 49.97 49.71 49.77 50.16 50.44 50.27 50.02 47.51 42.52 46.13 43.00 39.15 39.68 42.55 42.74 39.64 39.52 38.62 35.49 39.41 39.43 43.83 44.06 41.39 41.06 40.40 38.92 43.33 44.02 46.67 45.58 45.31 45.18 44.53 43.44 41.31 39.11 51.76 52.26 47.80 51.13 51.82 53.15 54.28
50.29 50.38 50.30 50.14 50.35 50.50 50.46 50.27 50.07 49.92 49.82 49.37 49.95 49.93 49.95 49.82 49.77 49.04 42.12 43.30 47.87 41.35 39.96 43.92 44.24 45.53 44.60 44.03 40.08 40.03 36.72 39.25 45.31 41.14 41.93 42.63 42.62 42.91 42.67 43.36 50.38 45.68 48.78 45.35 45.27 43.98 49.71 51.73 49.86 52.15 53.81 53.97 53.84 52.93
50.12 50.23 50.48 50.39 50.35 49.95 49.99 49.85 49.94 50.02 49.55 49.24 49.46 50.07 49.78 49.52 49.71 48.60 42.96 41.09 41.58 41.46 40.06 39.26 39.47 44.39 46.64 46.63 47.25 37.45 40.76 43.10 44.08 44.03 41.74 43.33 42.68 44.98 41.21 44.07 47.57 51.27 51.14 48.28 47.73 49.39 49.72 49.88 51.72 52.08 52.83 52.34 53.28 54.08
49.49 49.59 49.57 49.30 49.80 49.82 49.73 49.77 49.58 49.47 48.90 49.13 49.45 49.45 49.57 49.59 49.97 49.18 44.61 43.58 44.66 41.27 36.02 36.71 44.39 42.30 46.42 45.14 45.89 45.95 43.80 43.48 43.39 44.43 41.22 41.67 41.77 45.42 43.42 46.84 46.66 49.06 51.21 48.60 46.97 49.63 51.71 50.77 51.93 52.79 52.40 52.66 52.51 52.80
49.10 49.36 49.70 49.03 49.72 49.56 49.41 49.72 49.69 49.17 48.42 48.60 49.14 49.05 49.52 49.84 50.00 48.47 44.32 44.83 44.34 40.37 35.98 36.62 41.89 43.86 44.55 43.97 44.44 44.49 42.11 40.70 40.33 38.63 40.81 41.09 43.69 42.91 44.04 47.32 46.32 47.56 48.09 46.35 44.35 49.95 49.64 48.83 52.15 54.63 51.57 51.56 52.38 51.52
49.49 49.55 49.98 49.70 49.51 49.51 49.64 49.40 49.17 48.88 48.30 48.39 48.88 49.57 49.59 49.71 49.24 41.81 41.10 43.72 45.09 45.77 41.17 33.79 39.31 40.88 43.89 42.77 42.73 41.24 41.62 41.48 41.53 37.46 38.69 43.56 44.05 45.29 44.39 44.07 46.80 49.16 53.10 51.26 48.06 49.29 50.13 50.77 51.82 52.54 49.89 49.84 50.85 50.49
49.55 49.97 49.97 49.58 49.50 49.49 49.47 49.23 48.89 48.56 48.09 48.74 49.17 49.15 49.68 49.74 44.15 39.83 40.12 45.35 48.03 45.65 40.33 35.45 35.23 41.47 43.14 42.26 42.50 41.29 40.73 41.34 40.06 37.67 39.23 41.91 42.00 46.13 43.86 41.02 45.91 48.13 50.67 51.55 52.31 51.88 48.23 49.34 48.05 50.09 50.60 50.89 50.89 50.34
49.34 49.73 49.01 48.87 48.54 48.65 48.97 48.56 48.24 48.05 48.21 47.97 48.56 49.23 49.82 50.07 47.22 41.64 44.49 48.76 47.82 41.70 40.44 34.00 35.41 37.53 41.25 38.83 38.75 40.97 38.98 38.71 38.56 39.29 39.73 40.73 44.66 46.46 41.91 45.01 46.72 49.26 49.73 49.48 50.09 51.03 49.28 50.01 50.19 50.12 50.18 50.52 49.58 48.78
49.45 49.00 48.91 48.56 48.43 48.99 48.73 48.18 48.08 47.88 47.61 48.19 48.77 48.80 43.83 42.51 38.79 42.95 50.87 48.96 43.48 39.78 36.34 38.43 35.89 34.54 40.68 37.89 39.27 40.73 40.29 36.11 38.67 39.43 42.97 44.72 42.90 41.10 44.13 44.31 46.31 46.89 46.67 47.10 49.32 50.26 49.87 49.11 49.00 49.17 48.50 47.96 47.52 48.55
49.12 48.81 48.62 48.55 48.49 48.42 48.49 48.09 47.84 47.99 48.42 47.78 42.74 41.71 38.54 42.57 50.82 49.13 41.67 37.79 38.11 38.44 37.66 34.91 38.17 34.60 37.97 39.41 38.64 39.12 38.35 36.35 33.87 38.21 45.72 44.33 44.10 46.79 47.32 47.70 48.02 48.04 48.03 48.42 46.61 46.34 47.06 47.20 47.93 48.04 47.93 48.36 49.18 49.96
48.84 48.81 49.05 49.06 48.61 48.81 48.78 48.14 48.31 48.34 46.36 42.03 40.83 40.78 44.49 48.28 41.31 39.59 38.02 37.47 37.26 35.79 37.69 38.73 37.49 35.67 41.55 38.51 38.48 40.84 36.68 35.59 34.71 39.19 42.26 43.48 42.69 45.48 47.92 48.39 48.92 49.69 49.86 48.83 48.78 48.34 48.44 48.72 48.86 48.57 49.57 50.05 50.10 50.63
49.40 49.38 49.28 49.08 49.23 49.07 48.85 49.17 48.99 45.95 45.43 44.75 43.99 44.52 42.64 39.96 35.70 33.85 31.88 34.74 36.12 35.71 39.29 37.91 37.60 38.13 39.72 40.47 38.88 40.20 37.04 36.95 33.42 41.76 41.69 40.94 45.50 47.05 48.12 48.49 48.96 49.19 50.17 50.26 50.97 50.68 51.24 51.23 50.92 50.70 50.75 51.06 51.18 51.84
49.78 49.56 49.41 49.45 49.34 49.33 49.16 48.77 48.93 48.85 48.17 43.31 39.83 35.42 34.82 32.48 30.44 32.46 31.84 35.49 34.28 38.75 40.04 38.49 36.08 40.11 41.25 40.16 39.61 39.58 37.65 34.94 42.94 41.99 40.42 43.35 47.34 48.45 48.45 47.70 48.24 49.77 50.59 50.41 51.41 52.17 51.26 50.76 51.41 51.12 50.76 51.04 50.61 51.16
49.54 49.69 49.73 49.56 49.30 49.16 48.86 49.02 48.72 47.26 42.50 37.52 36.17 32.66 34.74 31.76 36.88 37.87 38.16 38.17 41.03 41.58 41.05 39.23 39.53 39.28 40.04 39.63 39.31 37.91 38.73 41.93 38.39 38.07 38.46 44.80 47.02 48.12 47.89 47.93 47.54 47.63 48.44 49.20 49.85 50.12 50.02 50.08 50.03 50.20 50.23 50.62 50.11 50.14
49.20 49.60 49.31 49.10 49.29 48.89 48.89 49.19 49.21 44.43 40.06 36.88 36.89 32.53 34.74 39.52 41.78 42.09 42.60 41.04 42.36 43.09 41.53 40.51 40.36 39.72 38.53 39.18 39.24 40.28 38.49 37.44 40.21 40.51 44.15 46.91 46.87 47.37 47.15 48.12 47.75 47.84 47.71 47.14 48.17 48.36 49.19 49.10 48.58 48.76 50.18 49.79 51.42 51.04
48.07 46.63 46.07 49.46 49.20 49.06 48.76 47.21 43.91 43.16 39.98 39.62 39.64 38.58 40.30 38.81 38.99 40.80 40.62 40.73 42.85 41.03 41.16 39.91 37.22 36.00 35.56 37.21 38.66 38.30 38.10 35.90 40.94 44.19 45.49 45.89 45.85 46.43 46.59 47.59 48.17 48.32 47.83 47.29 47.36 47.97 48.13 47.80 48.09 47.78 48.90 49.62 50.78 51.21
47.21 41.90 48.81 49.86 49.55 49.40 47.90 42.85 42.04 40.47 39.53 39.58 38.76 41.80 40.46 39.14 38.37 39.87 40.74 40.48 42.04 39.69 37.40 38.57 35.83 34.76 37.39 37.78 38.02 41.41 39.72 41.85 44.08 44.54 44.62 44.39 44.21 45.05 45.92 46.77 47.33 47.26 47.03 47.13 47.20 47.62 48.06 48.63 48.03 47.31 46.83 48.56 51.45 52.71
42.08 44.30 48.38 49.49 48.74 44.80 42.65 42.18 40.43 39.24 38.20 40.09 38.59 39.77 41.69 39.59 37.93 39.12 41.01 41.36 40.29 40.04 39.92 38.07 39.89 38.24 37.35 36.86 38.51 41.55 41.55 42.78 42.82 43.14 44.52 45.43 46.01 46.46 47.46 46.64 47.31 47.30 46.66 46.83 46.78 47.32 47.39 46.83 46.42 46.25 46.66 47.44 48.75 51.48
44.13 45.68 48.90 49.83 48.06 41.78 40.24 40.09 40.02 35.02 36.69 37.98 39.35 39.61 38.41 38.87 39.35 39.78 40.16 42.23 40.34 40.93 39.76 39.62 37.91 38.07 38.15 40.14 39.59 40.43 41.14 42.26 42.86 43.61 44.53 45.67 46.75 48.07 49.12 47.85 47.92 49.00 48.31 46.79 46.22 45.71 46.67 46.94 46.17 45.75 46.86 47.40 47.52 48.31
49.40 49.66 49.78 50.38 47.64 39.52 37.30 35.69 40.47 36.12 34.82 36.95 37.20 37.20 37.95 37.50 38.43 39.72 40.14 40.93 37.92 37.73 37.67 37.79 37.85 39.36 39.98 41.28 42.00 42.83 43.72 44.31 43.81 43.62 43.39 45.86 47.97 49.07 48.93 47.62 47.46 47.40 46.80 46.76 46.25 44.55 45.27 45.45 45.32 45.40 46.64 47.31 47.98 48.13
46.64 46.45 49.24 46.61 42.36 40.01 38.02 36.67 35.70 36.12 36.16 34.87 35.99 36.12 36.23 38.26 38.16 37.33 37.00 39.06 37.07 34.63 37.88 40.23 41.34 42.43 43.25 43.49 43.97 44.27 44.37 44.35 44.01 44.90 45.78 46.53 49.00 49.37 48.25 48.81 47.39 46.59 45.50 44.26 43.46 42.58 42.18 42.43 43.03 44.60 45.07 45.29 45.54 46.15
44.08 49.37 42.93 43.88 39.20 38.05 36.17 38.21 35.58 37.34 35.16 35.08 35.41 36.24 34.76 35.46 36.52 35.50 36.82 36.65 36.38 38.03 38.95 39.85 40.33 41.06 41.88 42.32 43.25 45.28 46.84 48.28 48.81 48.24 45.33 46.73 47.25 48.32 46.38 44.19 41.65 39.53 39.22 39.61 40.48 40.70 41.29 42.14 43.15 44.45 44.98 45.16 44.75 45.69
47.01 44.72 41.00 40.16 35.35 33.11 32.57 38.30 35.59 35.90 32.81 34.45 35.08 33.05 33.13 37.17 37.56 38.43 34.96 35.55 37.63 39.54 41.12 42.71 45.29 46.50 45.40 46.00 48.00 49.14 50.22 50.31 49.40 48.72 48.43 48.68 47.68 42.36 39.56 39.11 38.93 39.07 38.60 38.81 39.40 40.15 40.90 40.31 41.67 42.48 43.23 43.96 43.61 43.22
46.87 40.75 37.15 35.00 34.43 34.33 38.45 36.90 38.01 37.68 36.48 36.88 35.50 33.90 36.31 37.19 41.09 40.41 38.88 41.54 43.58 45.47 47.12 47.82 49.16 48.59 49.20 49.08 47.36 46.71 47.09 47.59 46.37 44.86 45.61 45.18 38.85 38.35 39.02 39.04 39.28 39.22 39.10 39.02 39.06 39.42 40.44 41.26 39.97 41.66 42.03 42.01 42.16 41.76
35.52 34.69 35.25 32.15 33.61 35.45 35.01 36.71 37.79 37.48 35.95 37.46 34.68 34.44 38.05 41.00 38.60 39.16 39.78 42.80 43.97 44.65 46.10 46.91 46.85 46.82 46.60 46.50 46.09 45.19 44.50 46.14 44.68 39.44 40.60 45.20 39.78 38.46 38.55 38.77 38.82 39.20 39.54 39.08 38.44 38.85 39.60 40.52 40.65 41.24 42.01 43.07 43.67 44.28
34.17 34.85 34.50 34.43 32.81 34.44 33.77 35.56 35.45 34.76 37.26 35.49 37.14 39.51 38.47 39.75 39.86 39.12 40.62 43.78 45.42 45.54 46.34 45.93 45.51 44.71 42.38 42.99 41.70 40.41 40.32 39.86 39.89 39.80 39.70 39.86 39.56 39.25 38.24 37.75 37.14 37.92 39.99 39.51 38.64 38.86 39.84 40.57 40.41 40.86 42.81 43.42 40.93 43.33
36.45 40.05 40.89 38.65 38.23 37.64 38.15 39.34 40.29 37.45 37.28 36.87 37.67 38.71 38.91 36.09 38.23 41.53 44.32 45.42 44.93 45.86 46.94 46.69 45.88 42.73 41.43 40.29 40.45 40.65 40.36 40.21 40.52 40.14 39.39 39.23 39.54 40.16 39.60 38.54 38.04 38.49 39.31 40.00 39.68 39.43 39.88 39.87 39.48 39.86 40.25 43.33 43.55 43.09
42.44 42.57 40.59 40.51 40.08 40.99 39.59 40.27 40.32 39.35 40.28 41.69 41.49 39.10 38.87 39.36 39.36 43.50 44.31 46.05 45.42 44.07 42.93 42.43 41.53 41.03 40.49 40.41 40.36 40.94 41.61 40.95 41.26 40.92 40.52 40.16 39.31 38.92 39.17 39.13 38.95 37.44 38.24 38.64 39.12 40.33 40.25 39.76 39.00 39.15 38.96 38.41 40.75 42.99
42.21 44.21 43.52 39.77 40.58 41.52 41.29 39.02 38.74 39.75 41.17 41.54 39.84 39.55 40.97 44.34 44.81 43.99 44.55 42.74 42.90 43.76 42.08 41.19 41.06 40.94 40.98 40.97 40.57 39.40 38.74 38.41 38.31 36.94 36.22 35.47 35.75 37.40 37.82 37.93 37.49 37.85 38.04 39.37 38.18 38.71 39.36 38.63 38.45 38.78 38.68 38.57 39.17 40.52
42.77 43.79 42.12 42.33 40.63 39.93 42.17 41.53 40.82 42.54 43.14 43.92 43.90 43.58 43.05 42.95 43.98 44.78 43.69 43.27 42.39 40.55 39.76 39.78 38.57 38.23 37.38 37.23 37.26 37.91 37.50 36.87 36.05 35.89 34.73 34.56 35.24 36.34 36.77 37.00 36.73 36.78 38.23 38.50 37.87 38.41 38.19 38.42 37.55 38.08 37.81 37.84 37.91 37.67
45.53 45.15 43.52 43.02 41.45 43.00 45.68 47.66 46.07 45.62 45.90 45.47 46.23 44.83 43.68 44.19 45.41 48.05 46.62 43.60 42.21 42.17 40.59 38.73 38.18 37.69 37.14 36.67 36.00 35.56 34.92 36.98 36.53 36.97 37.23 36.59 36.35 36.48 37.11 36.88 36.93 37.58 37.69 37.04 36.30 36.33 36.42 35.68 35.28 34.77 34.34 33.84 34.14 34.26
45.45 45.41 45.03 42.86 43.68 46.86 47.68 44.82 43.62 44.82 46.38 47.12 47.81 48.30 47.44 45.64 43.06 46.29 48.44 47.32 43.89 40.44 39.82 38.67 36.78 35.20 35.90 36.08 36.35 36.29 35.73 35.37 36.08 36.22 36.39 36.69 36.29 35.71 35.67 35.69 35.48 35.62 34.77 33.68 33.21 32.82 32.48 33.11 32.82 31.53 31.18 31.01 30.96 31.14
44.30 44.83 45.47 44.71 44.09 44.74 45.60 44.50 45.16 45.34 47.02 46.28 46.35 47.63 46.98 44.53 42.02 47.23 52.06 49.35 44.19 40.03 38.15 37.14 36.50 35.71 35.22 34.99 34.78 34.92 35.23 35.54 35.41 35.00 34.77 34.60 34.06 33.46 33.37 33.32 33.93 33.58 32.76 31.98 31.64 31.56 31.09 30.67 30.51 30.25 30.27 30.27 30.44 30.70

GFSWCAN_sfc_wetblb_009.txt.gz
Wetbulb
49.83 49.69 49.86 50.36 50.47 50.14 49.97 50.55 50.66 50.49 50.28 50.10 50.12 49.89 49.97 49.80 50.03 48.36 46.33 47.58 43.82 38.84 39.35 40.91 41.35 38.55 40.80 40.88 36.71 40.14 39.89 44.18 46.90 46.57 46.95 46.82 45.58 49.40 49.29 51.79 50.09 48.67 46.92 45.67 48.23 46.21 44.74 53.98 54.86 53.04 56.15 58.23 58.89 59.41
49.70 49.64 49.55 49.80 50.23 50.51 50.32 50.35 50.22 50.11 50.01 50.23 50.08 49.50 49.05 49.12 49.27 49.35 44.40 47.39 47.99 42.06 39.74 44.55 44.30 45.26 44.57 44.13 41.46 41.80 40.12 40.16 43.98 44.10 47.16 47.36 48.37 50.23 49.18 46.04 53.48 47.37 50.37 48.06 49.34 48.92 53.41 54.25 53.48 56.90 60.09 58.78 59.64 60.56
49.42 49.58 49.55 49.53 49.58 49.39 49.90 50.11 50.09 50.03 50.02 49.83 49.50 49.31 49.24 49.10 49.02 49.04 45.83 45.33 44.22 40.49 40.53 40.95 40.18 45.23 47.63 46.65 47.42 38.75 41.98 44.99 47.45 48.12 46.58 46.88 46.68 51.13 48.90 50.02 49.94 52.61 55.38 50.89 50.09 51.30 51.53 53.56 55.02 55.85 56.86 56.80 58.56 60.49
49.58 49.44 49.43 49.56 49.80 49.32 49.76 49.67 49.77 49.95 49.17 48.68 49.05 49.37 48.81 48.86 49.20 49.39 47.31 47.08 45.33 41.76 35.53 38.44 46.87 44.63 49.08 47.99 46.85 46.27 45.76 46.62 46.00 47.82 46.45 45.61 46.73 50.79 50.16 51.18 51.95 50.48 51.53 50.92 50.79 50.98 52.52 53.18 54.45 55.33 55.89 56.30 56.24 57.14
49.64 49.53 49.51 49.91 50.07 49.48 49.79 49.57 49.91 49.12 48.46 48.48 48.73 49.05 48.94 48.94 49.27 50.23 48.31 46.79 47.18 40.95 35.67 36.81 43.18 47.04 48.18 47.09 45.93 46.40 45.26 43.32 42.64 44.02 43.31 43.29 48.41 48.65 50.68 52.48 46.86 48.84 48.95 49.58 49.32 52.50 53.36 52.93 54.23 54.16 52.45 52.88 55.07 55.45
49.71 49.76 49.93 50.10 49.31 49.48 49.66 49.36 49.16 48.47 48.23 48.19 48.65 48.90 49.16 49.42 48.77 45.87 41.04 45.88 47.98 47.10 38.28 35.40 44.18 44.25 46.97 46.14 45.60 44.87 44.83 43.54 43.29 44.16 43.82 45.93 48.29 49.96 49.85 46.28 47.39 50.30 52.44 54.03 50.81 53.62 52.49 52.69 52.62 54.22 53.28 53.86 54.25 53.59
49.55 49.86 49.49 48.94 49.10 49.05 49.12 49.19 48.63 48.23 48.11 48.46 48.72 48.90 49.34 49.81 48.08 42.62 39.29 43.72 47.60 47.67 40.10 37.30 38.40 45.62 47.30 46.18 45.43 44.77 45.14 45.04 45.71 44.39 42.81 47.00 48.07 51.44 47.83 42.23 46.91 50.63 51.86 52.62 53.56 52.77 50.15 51.22 50.22 52.44 52.14 53.56 53.22 53.49
49.55 49.40 49.20 48.85 48.79 49.15 49.00 48.88 48.63 48.05 48.11 47.91 48.36 49.08 49.40 49.59 48.23 43.88 46.49 48.92 47.99 41.94 41.44 36.09 37.44 42.46 47.02 44.74 43.89 46.53 44.52 44.46 44.87 45.12 47.54 47.28 49.63 49.90 43.16 46.15 48.57 50.35 50.70 50.70 51.27 52.37 51.70 53.05 52.04 51.18 52.15 53.17 52.52 52.25
49.38 49.05 48.90 48.84 48.98 48.85 48.58 48.31 48.35 47.73 47.53 48.11 48.84 48.21 46.79 45.47 41.78 43.97 50.44 49.45 48.55 42.89 37.76 39.07 37.37 38.81 47.20 44.18 44.61 45.46 45.77 41.97 46.12 48.23 48.32 49.46 46.62 42.30 45.47 46.51 47.78 48.51 48.27 49.42 50.56 51.20 51.35 51.07 51.08 51.44 52.76 53.07 52.48 52.69
48.91 48.95 48.97 49.31 49.44 49.14 49.06 48.50 48.30 48.58 48.44 47.35 45.91 43.72 40.66 45.05 50.16 49.82 47.73 42.21 41.51 42.64 41.60 37.24 41.36 38.65 43.27 45.19 44.43 44.45 45.39 43.65 44.07 46.67 50.76 45.48 43.59 48.91 49.36 49.66 50.17 49.91 49.79 49.98 49.06 48.80 50.27 50.40 51.21 52.37 52.30 53.04 53.96 54.01
49.79 49.80 49.40 49.03 49.31 49.27 49.35 49.07 49.31 48.94 47.80 45.89 42.59 42.09 46.75 48.72 45.86 43.98 40.33 39.39 40.63 38.99 41.46 41.52 41.75 40.23 46.24 42.35 42.96 45.41 42.74 43.74 42.46 45.19 46.13 43.53 42.48 46.75 50.08 50.73 51.43 52.17 52.17 52.48 52.45 52.31 53.10 53.29 52.57 52.51 52.81 54.29 55.40 56.05
49.71 49.66 49.72 49.57 49.51 49.27 49.10 49.20 49.29 47.56 46.74 45.95 45.76 47.48 46.17 43.21 40.88 37.40 37.17 39.17 38.85 37.95 43.14 41.96 43.00 43.47 44.54 45.28 43.81 45.32 42.77 43.57 39.78 48.71 45.52 40.35 45.51 49.22 49.99 50.13 51.64 52.43 53.58 54.11 54.38 53.14 53.20 53.35 53.80 53.80 53.68 54.30 54.64 55.52
49.83 49.66 49.56 49.55 49.40 49.35 49.40 49.31 49.32 49.39 48.84 47.25 43.16 39.70 38.99 38.72 34.13 34.50 35.02 37.63 38.79 43.00 44.08 43.38 42.15 44.19 47.24 45.59 44.60 44.76 41.76 41.32 47.89 43.82 40.22 43.93 48.41 49.47 50.11 50.72 50.75 52.24 53.08 53.06 52.70 53.18 53.40 53.36 53.80 53.74 53.75 55.00 55.62 55.53
49.36 49.57 49.40 49.62 49.60 49.55 49.44 49.50 49.50 48.56 45.67 40.80 38.24 33.99 36.25 35.21 36.65 38.50 38.89 40.28 43.71 44.57 44.13 42.84 42.54 43.21 45.76 43.79 44.65 41.61 43.49 45.23 40.82 37.77 37.45 45.36 47.81 49.02 50.87 51.32 51.22 50.96 51.62 51.44 51.95 52.78 52.58 52.47 52.64 53.42 54.31 54.92 55.46 55.39
48.29 48.54 48.81 49.06 49.77 49.61 49.59 49.23 48.39 47.87 43.50 39.17 37.17 32.17 34.03 39.53 42.28 43.50 44.58 43.61 45.00 45.92 44.49 44.30 44.53 44.01 43.50 43.34 44.22 43.34 40.77 38.43 40.16 39.49 42.97 48.23 49.54 50.70 50.86 51.65 51.73 51.68 52.10 52.07 52.27 52.30 52.43 52.63 53.09 53.18 54.03 55.21 56.17 56.32
48.55 47.22 47.30 49.26 49.98 49.88 49.22 48.28 46.96 46.87 43.80 40.88 41.13 38.94 41.24 40.43 41.18 42.47 43.07 42.92 45.26 43.88 46.52 45.61 42.12 40.14 39.11 42.44 40.92 39.47 38.59 35.61 41.35 45.31 48.01 49.56 50.12 50.43 50.96 51.57 51.72 52.10 52.42 52.41 52.96 52.54 52.96 53.39 53.09 53.27 54.13 55.21 55.90 56.55
47.10 46.39 48.50 48.85 49.60 49.22 47.70 46.73 46.27 43.35 42.16 41.48 40.51 43.93 42.87 41.98 41.20 42.48 43.45 43.57 45.67 44.71 41.78 43.38 39.49 37.35 42.34 40.45 39.56 42.57 38.00 41.52 45.48 47.97 49.35 50.03 50.64 50.83 51.50 51.95 51.83 51.88 51.97 51.98 52.44 53.10 53.55 53.57 53.35 53.48 53.49 54.57 53.89 54.44
46.10 47.61 48.14 49.41 50.06 47.07 46.86 46.41 44.35 43.12 40.01 42.44 40.47 41.73 42.69 44.03 42.58 43.68 43.60 44.80 43.81 43.65 44.16 41.76 44.35 40.59 39.33 37.48 38.29 42.46 45.12 47.57 48.49 48.82 50.14 51.15 51.61 52.09 52.31 51.68 52.14 52.60 52.86 53.09 52.94 53.03 53.76 54.00 53.97 53.01 54.06 54.20 54.30 55.12
48.65 49.56 49.98 50.31 49.20 46.70 43.17 43.67 43.78 39.16 40.63 41.73 42.49 42.94 43.05 43.44 44.28 44.57 44.80 45.36 44.38 45.04 45.05 44.25 41.45 39.37 39.93 43.75 43.98 45.91 47.10 47.75 47.61 48.60 48.67 50.06 51.59 52.30 52.73 53.03 52.79 53.05 51.78 51.87 52.57 52.16 52.32 52.92 52.62 52.77 53.46 54.32 53.81 54.15
49.60 49.71 50.18 50.19 49.25 45.57 41.94 42.80 45.14 41.61 39.67 41.55 41.88 41.23 41.70 42.85 43.81 44.29 44.39 43.80 42.51 45.34 43.78 42.21 42.02 44.05 44.97 46.29 47.35 47.61 47.90 48.64 48.62 48.39 48.22 50.17 51.66 52.30 52.54 51.88 51.69 51.88 51.54 51.63 51.03 45.98 50.69 51.20 51.27 51.44 51.70 51.69 52.43 52.07
48.74 49.24 49.68 48.96 47.14 45.30 43.95 42.27 41.92 41.91 42.06 41.45 42.05 42.15 42.06 43.61 42.79 41.77 42.38 43.39 44.13 41.47 42.65 44.96 45.79 47.29 47.90 48.14 48.43 48.76 49.74 49.70 49.53 50.07 49.82 49.05 50.22 51.67 49.89 48.45 47.95 46.87 45.28 45.86 46.92 47.14 46.56 47.29 48.73 50.13 51.00 50.95 51.33 51.99
47.72 49.45 47.26 47.12 43.32 42.51 42.86 43.55 41.75 42.76 41.44 41.42 41.98 42.48 41.16 40.20 41.20 42.63 42.63 42.77 42.59 43.84 45.00 45.55 46.60 47.03 48.31 49.58 50.00 49.92 50.28 50.83 51.82 51.35 47.14 48.66 49.95 48.53 46.37 45.68 45.77 45.00 44.96 44.90 45.35 45.33 46.12 46.89 46.98 48.08 48.27 48.55 47.69 49.45
48.59 47.11 45.33 43.82 39.80 38.34 37.82 43.73 40.63 41.64 38.51 39.59 40.94 39.12 39.25 40.98 43.20 45.84 41.77 42.09 42.01 44.31 46.40 46.66 48.22 50.12 49.74 51.57 52.79 52.77 53.02 52.89 52.58 52.79 52.40 52.85 50.26 45.81 44.88 45.23 45.75 45.04 44.44 44.51 45.51 45.40 45.25 42.93 45.76 46.39 47.42 47.76 47.98 48.08
47.65 43.58 40.42 38.64 39.35 36.72 41.26 39.87 41.24 40.03 40.09 38.46 36.94 35.21 37.62 39.28 43.74 43.15 40.55 44.15 48.24 48.59 50.33 50.43 52.12 52.95 52.88 51.52 49.97 49.54 50.21 52.09 50.38 49.82 52.10 48.09 45.33 44.78 46.08 46.12 46.24 45.74 45.18 45.37 45.07 44.80 45.07 45.89 42.81 46.18 46.52 46.66 47.50 47.96
38.19 37.57 39.00 33.99 38.58 38.07 38.22 38.67 39.43 39.77 38.22 39.66 38.33 40.14 41.39 43.12 42.32 42.95 42.85 46.89 48.96 49.89 51.00 51.26 51.17 50.64 48.42 46.92 47.12 46.92 47.67 47.02 46.48 47.01 49.44 49.02 47.21 46.33 46.51 46.79 46.56 45.62 45.67 44.45 43.67 43.76 44.30 45.43 45.28 45.22 45.37 45.91 46.29 45.64
36.00 40.07 36.58 39.96 40.46 38.49 40.25 39.11 39.75 39.28 40.04 39.48 40.86 43.54 43.29 42.87 41.10 40.30 45.40 48.81 49.65 49.45 49.61 49.41 47.10 45.91 45.05 45.90 45.48 45.68 46.25 47.27 47.90 46.52 46.87 46.55 46.62 45.59 45.05 43.80 43.61 44.29 45.57 44.96 44.15 43.39 43.99 44.55 44.35 43.87 43.80 43.83 41.28 43.94
38.43 42.62 44.94 44.00 43.09 42.33 42.18 43.29 44.11 42.06 40.49 40.84 42.70 42.98 43.08 39.65 40.25 45.18 49.62 49.75 49.12 49.09 48.77 47.53 46.67 45.37 45.02 44.94 45.71 46.22 47.12 46.77 46.08 45.36 45.91 46.15 46.12 45.93 44.70 43.18 42.35 43.35 44.50 44.56 44.86 44.27 43.74 43.81 43.73 43.61 43.46 44.27 44.15 44.20
43.94 43.90 42.39 45.44 42.73 43.12 42.63 43.98 42.86 42.37 43.40 45.61 44.59 41.68 41.21 41.63 40.80 44.86 45.58 46.10 46.52 46.64 46.12 45.71 45.64 45.68 45.11 44.77 44.20 43.67 44.02 44.84 46.68 46.61 46.73 46.31 45.25 44.53 43.95 44.35 44.60 37.84 42.60 44.26 44.09 45.01 44.28 43.55 43.20 43.10 42.87 42.68 43.05 44.52
43.81 47.33 45.46 44.37 43.53 44.52 44.85 44.22 43.42 45.17 47.03 46.75 44.09 42.52 43.27 43.35 43.44 44.48 45.30 46.21 46.72 45.70 44.00 42.88 43.13 44.55 44.61 45.22 43.98 43.00 42.51 42.25 41.30 39.77 39.14 39.51 40.68 42.17 43.55 44.04 44.15 44.10 44.54 44.49 37.80 39.67 41.17 41.04 40.83 40.83 41.01 41.27 41.60 42.13
47.31 48.88 46.18 45.86 44.30 45.06 48.04 47.92 47.11 47.72 47.82 47.39 45.20 44.73 45.35 46.78 48.47 48.78 46.25 44.74 43.87 42.70 43.15 42.63 42.25 42.08 41.07 41.04 41.19 42.00 42.53 41.93 41.43 39.89 38.08 37.90 39.01 41.68 42.35 42.20 42.37 42.52 42.51 41.89 41.27 41.05 38.02 39.62 38.61 39.33 38.31 37.92 37.74 37.12
50.48 50.14 47.43 47.24 46.82 48.05 49.63 52.06 50.46 50.13 48.77 46.87 47.41 45.29 45.07 46.37 47.88 49.97 49.42 47.56 44.86 43.46 42.55 41.19 40.02 39.80 39.31 38.57 38.26 37.99 37.76 40.11 40.90 41.13 40.76 41.33 40.81 40.50 39.95 39.69 40.09 40.05 39.30 38.67 38.01 37.26 36.73 36.59 36.47 35.69 35.08 34.45 34.37 34.03
50.25 48.31 48.03 46.20 48.36 51.86 51.99 49.74 48.96 47.86 48.01 44.24 44.11 46.67 46.74 45.50 43.02 45.70 50.25 48.45 45.36 42.13 39.72 39.76 38.75 37.44 39.08 39.61 39.70 39.54 36.12 38.39 37.66 37.76 37.58 37.78 37.73 37.73 38.07 38.03 38.08 37.82 37.15 36.59 36.08 35.66 34.88 34.10 33.74 33.51 33.37 33.12 33.38 33.54
49.16 50.18 49.82 48.97 48.66 48.19 49.87 49.40 48.70 46.53 46.74 44.92 46.24 47.30 46.76 45.30 42.58 48.57 47.78 45.27 42.56 41.56 41.11 40.17 39.00 39.20 38.75 38.65 38.38 38.11 37.10 37.85 35.76 33.77 34.21 33.72 33.27 33.63 36.14 36.17 36.25 36.02 35.36 34.67 34.48 34.17 33.57 33.20 33.00 32.84 32.88 32.88 32.90 33.13

GFSWCAN_sfc_wetblb_012.txt.gz
Wetbulb
50.44 50.22 50.21 50.09 49.92 50.07 50.14 50.49 50.92 50.77 50.60 50.59 50.64 50.47 50.38 49.94 48.96 49.08 47.07 49.23 44.13 39.27 39.93 43.35 44.34 40.68 39.47 39.43 39.26 43.05 41.15 44.51 45.10 45.40 45.64 46.89 47.39 49.67 49.50 52.93 52.44 51.49 50.60 49.92 51.42 49.24 47.31 56.40 56.88 53.87 58.18 62.60 62.73 63.29
49.95 50.10 50.05 50.06 49.86 49.86 49.84 49.72 50.30 50.44 50.15 50.53 50.42 50.21 49.77 49.36 48.78 48.65 44.39 50.68 50.77 42.67 40.43 46.76 47.68 48.29 46.83 45.60 42.58 42.94 41.95 42.54 43.68 44.30 47.90 49.74 49.81 52.67 50.77 46.81 56.57 50.83 54.10 52.15 53.26 53.12 56.31 57.61 54.89 58.12 61.44 62.83 63.49 63.85
50.05 50.07 50.11 50.07 49.86 49.95 50.00 49.46 50.27 50.09 50.23 50.04 49.72 49.63 49.61 49.14 49.06 48.86 46.66 48.15 45.61 41.48 40.21 42.93 44.08 49.31 50.66 49.27 49.96 41.81 43.66 45.13 46.11 48.08 44.86 47.34 46.73 53.38 49.79 51.05 53.72 55.80 58.52 55.00 54.45 55.08 55.80 56.62 57.74 58.85 60.65 62.10 63.75 64.91
49.97 49.85 50.13 50.47 50.25 50.33 50.32 49.73 49.84 49.90 49.81 48.79 48.86 49.03 49.48 49.08 48.82 48.92 46.82 49.64 46.73 42.14 37.08 42.28 49.76 47.65 50.96 51.00 48.75 48.61 47.68 48.03 46.63 47.84 46.08 45.96 47.71 53.81 52.88 54.62 54.82 54.52 56.41 55.58 54.07 54.59 54.62 54.88 56.81 58.10 58.89 60.42 60.63 61.99
49.84 49.86 49.97 50.48 50.16 49.74 49.70 49.79 49.79 49.16 48.66 48.69 48.75 49.08 49.33 48.84 48.27 49.54 50.58 49.70 48.22 42.17 37.15 40.36 46.53 50.63 51.25 49.49 49.16 48.81 47.21 43.81 43.84 43.84 43.83 44.63 50.72 51.21 54.71 53.97 47.53 49.95 52.28 54.59 52.56 54.54 55.30 53.22 53.89 55.11 56.28 57.04 58.02 58.60
50.14 50.32 50.05 49.45 49.53 49.64 49.54 49.56 49.21 48.64 48.77 48.88 48.78 49.42 49.32 49.05 48.47 47.76 42.45 46.33 48.20 49.42 40.52 35.01 47.76 48.05 50.69 50.55 48.76 47.72 48.15 46.14 43.95 45.40 44.75 44.89 50.05 51.16 49.81 45.52 47.70 52.21 55.17 55.64 56.72 54.64 53.49 53.64 54.89 55.74 54.61 55.66 57.35 57.84
50.08 49.93 49.72 49.18 49.47 49.60 49.66 49.41 48.87 48.56 48.46 48.74 48.75 48.83 49.34 49.51 48.52 44.42 42.62 47.04 47.82 49.64 38.66 37.10 42.45 50.26 50.10 49.36 49.05 48.34 49.46 48.36 46.45 46.34 43.36 43.39 46.39 51.94 46.39 43.44 48.74 51.74 54.46 54.25 54.28 53.15 50.64 52.59 50.43 52.90 54.42 55.81 55.54 57.02
49.60 49.45 49.35 49.30 49.39 49.20 48.96 48.95 48.91 48.72 48.33 48.18 48.38 48.91 49.33 49.54 48.73 45.48 49.35 48.93 48.95 43.45 41.43 37.23 39.50 44.97 50.49 47.53 45.25 49.00 45.98 46.64 46.54 46.82 46.46 44.88 50.48 48.80 43.21 47.26 49.72 50.86 52.53 51.25 51.88 52.70 52.68 53.30 53.93 53.38 54.63 54.32 54.40 54.51
49.99 49.93 49.80 49.94 49.82 49.68 49.27 48.90 48.98 48.95 48.94 49.06 49.11 48.52 49.25 47.38 45.06 47.58 49.63 50.51 48.48 43.10 37.89 39.50 37.91 39.34 50.69 49.00 48.45 46.77 46.53 41.86 48.52 44.27 48.05 49.99 46.23 42.60 45.86 47.32 48.96 50.65 50.32 49.90 51.08 51.92 51.98 51.20 51.53 52.47 54.63 54.66 55.41 54.58
50.21 50.11 49.74 49.70 49.91 49.51 49.60 49.76 49.90 49.70 49.46 49.07 49.06 47.31 43.66 49.18 50.19 50.68 47.32 44.28 43.63 43.95 43.35 40.33 45.93 41.95 46.81 49.77 46.26 46.18 46.75 42.76 42.29 48.04 52.02 44.29 43.57 47.89 49.87 50.53 50.58 50.03 50.70 51.50 48.61 47.98 49.11 50.83 51.50 52.08 52.71 54.55 56.09 55.79
50.09 50.06 50.12 49.83 49.55 49.72 49.81 49.49 49.53 49.78 50.28 48.23 44.31 44.71 49.93 51.24 49.53 47.07 42.40 40.06 41.48 40.19 44.49 44.98 45.77 43.22 49.87 45.61 46.36 49.04 45.79 46.83 40.49 46.20 44.98 42.45 40.97 46.32 50.76 51.39 52.91 53.07 52.81 52.69 52.75 53.15 53.87 53.05 52.94 54.14 53.90 55.73 56.62 57.63
50.17 49.95 49.81 49.95 49.76 49.57 49.88 49.69 49.63 49.17 47.96 47.18 46.89 48.31 49.54 47.91 45.63 40.51 40.83 43.40 40.36 40.71 46.64 45.19 45.25 46.76 47.44 49.95 47.51 49.03 45.79 47.07 41.25 50.79 46.71 39.12 43.66 49.07 50.87 51.01 52.82 54.22 53.92 54.19 54.87 53.66 53.61 53.96 54.13 54.19 55.48 55.31 56.89 57.91
49.55 49.73 49.85 50.08 49.94 49.99 49.86 49.80 49.58 49.47 49.63 50.73 46.87 43.77 43.48 43.53 36.27 36.50 35.30 38.37 39.87 45.57 47.46 47.58 45.55 47.49 49.62 49.43 48.97 49.26 44.15 43.58 51.49 45.77 41.72 43.75 48.53 50.13 50.93 51.21 52.11 54.69 53.40 53.61 53.12 53.88 53.87 54.17 55.39 55.84 54.85 56.67 56.85 56.88
49.23 49.25 49.16 49.58 49.78 49.90 50.18 50.26 50.15 49.26 48.03 43.59 40.17 33.20 34.57 36.60 38.64 39.77 40.60 41.99 46.49 47.77 48.18 48.55 47.85 47.30 50.26 48.16 48.45 43.55 47.68 49.99 42.35 39.68 38.64 45.37 48.54 50.61 51.33 51.88 51.47 52.44 53.34 52.45 53.12 53.53 53.50 54.41 54.26 55.63 57.00 57.60 56.81 57.78
49.17 49.13 49.00 49.30 49.34 49.94 50.47 49.45 48.47 52.40 47.53 40.03 38.69 32.30 36.71 40.78 43.48 45.49 47.25 47.36 48.90 49.31 48.60 48.89 49.12 48.29 47.47 46.32 47.36 46.15 43.08 39.41 40.26 39.09 44.02 50.24 50.79 51.75 52.39 52.59 52.92 53.24 53.95 53.56 54.09 54.27 54.09 54.30 54.45 55.14 56.84 58.58 58.69 58.95
49.32 48.94 50.35 48.85 49.61 50.28 50.02 50.35 52.58 52.49 47.68 45.53 43.47 40.48 43.62 42.79 43.65 45.05 45.89 46.50 49.66 49.28 50.60 48.94 45.48 43.42 43.58 45.51 42.45 41.09 39.73 36.09 41.09 45.02 47.97 50.98 53.09 53.62 53.44 54.06 54.57 54.46 54.71 55.07 55.31 55.29 55.40 55.73 55.43 55.83 56.69 57.26 58.35 59.17
49.53 49.58 49.83 50.00 50.16 50.46 48.93 51.14 51.49 47.22 46.70 43.78 43.64 47.03 46.10 45.57 44.35 45.29 46.20 46.78 50.39 49.36 45.97 46.94 42.22 41.49 47.02 42.21 39.56 40.39 36.46 39.33 46.08 49.07 52.81 53.78 52.89 53.19 54.56 55.07 55.27 55.61 55.93 55.91 56.13 56.24 56.48 57.15 57.04 55.76 55.60 56.65 56.85 57.86
49.99 51.34 50.64 50.03 50.69 51.69 53.33 51.71 49.36 46.66 42.54 45.51 43.08 44.13 46.46 47.46 46.14 46.64 47.79 48.59 48.35 47.68 47.78 44.94 47.10 40.91 39.11 37.20 38.93 43.91 46.53 49.39 51.19 51.86 52.82 53.59 54.45 55.65 55.77 55.79 56.31 56.40 56.24 56.56 56.85 56.85 56.82 56.59 55.03 54.20 55.97 56.94 56.64 55.81
49.73 50.74 50.11 50.38 50.40 49.96 47.56 48.16 49.20 42.99 43.80 45.45 45.45 46.69 46.87 47.19 48.79 48.95 49.23 49.32 49.42 50.34 50.35 46.91 42.52 40.23 41.75 45.18 45.29 46.95 48.43 50.09 50.52 52.71 53.39 55.14 56.41 56.37 56.42 56.64 56.38 56.13 55.93 55.57 53.84 54.15 55.26 55.89 55.13 54.88 54.80 54.93 54.29 54.87
49.87 50.26 50.20 50.51 50.53 49.64 44.64 46.91 50.75 45.16 42.53 44.39 46.52 45.69 46.85 46.56 48.47 49.15 49.23 49.37 49.90 48.40 45.79 43.01 43.14 45.23 46.32 48.21 49.96 50.48 51.30 52.42 52.85 53.12 52.33 55.02 54.81 55.28 54.63 53.95 52.96 53.77 53.31 53.46 52.39 48.09 52.88 52.96 53.38 54.17 54.30 54.19 54.13 54.16
50.85 51.90 51.02 51.29 51.14 49.89 48.06 46.27 46.35 46.89 45.82 44.81 46.70 46.62 46.39 48.11 47.26 47.34 47.12 49.67 47.00 45.68 44.20 46.87 47.71 49.49 51.96 51.56 51.46 51.63 52.51 52.99 52.59 53.14 53.13 52.76 52.03 51.99 51.28 51.29 51.62 50.90 49.95 49.73 49.89 50.06 48.83 49.79 50.85 51.31 52.14 52.35 52.54 53.34
51.90 50.14 50.98 51.51 48.12 47.33 48.09 48.35 45.86 47.47 46.31 46.41 46.10 46.87 45.21 44.80 45.65 46.35 47.64 46.24 45.76 46.11 48.25 49.97 51.23 52.76 53.38 52.97 53.61 54.58 54.73 54.79 55.94 55.61 48.99 51.70 53.32 52.01 50.41 49.92 50.14 49.30 48.89 48.75 48.87 48.65 48.94 49.46 49.24 49.45 50.07 50.39 49.75 51.77
50.15 50.17 50.28 48.32 44.29 42.58 42.23 48.69 44.09 43.85 40.61 43.11 46.27 43.87 41.98 42.95 45.78 48.17 43.71 46.96 47.62 52.11 52.80 53.87 53.79 55.04 54.25 54.12 53.96 53.84 54.64 53.75 53.84 54.63 55.90 55.35 51.40 48.38 49.02 49.43 49.51 48.38 47.97 48.35 49.23 48.53 48.11 44.86 47.93 48.16 49.32 49.54 49.78 50.32
48.55 46.77 44.67 44.08 44.29 42.02 47.45 45.30 48.05 46.61 45.53 42.23 40.50 40.27 41.97 44.44 48.54 45.09 43.65 47.23 51.24 54.19 54.38 53.26 53.52 51.36 50.98 51.73 49.06 49.07 49.74 50.61 50.31 51.02 52.07 51.03 50.58 49.71 50.55 50.02 50.08 49.72 48.81 49.04 48.62 48.11 48.11 47.88 44.54 48.10 47.96 47.87 48.59 48.95
41.29 40.46 43.31 38.24 44.38 43.90 43.60 44.40 44.37 45.56 42.28 44.34 42.87 44.50 45.86 48.00 44.27 43.90 43.57 48.21 51.64 51.84 50.99 50.47 50.00 49.57 48.29 48.41 48.91 49.03 50.56 49.29 48.29 48.44 49.90 50.42 50.11 50.43 50.44 51.64 50.87 49.77 49.02 47.36 46.71 46.60 46.65 47.11 47.34 47.13 46.96 46.71 46.97 46.69
38.16 45.00 41.04 46.28 47.42 44.99 45.51 44.16 45.11 44.72 45.01 44.30 45.45 49.31 49.87 47.40 42.65 42.13 46.06 49.32 49.94 48.94 48.55 48.24 47.91 47.23 46.92 47.51 46.39 46.15 46.67 48.30 48.35 47.15 48.14 49.13 48.86 48.01 47.39 46.77 46.55 47.21 48.33 47.40 46.21 45.55 45.67 46.22 46.33 46.16 46.05 45.72 42.51 45.24
42.63 47.52 50.57 51.29 48.96 47.55 47.92 49.73 49.01 47.40 44.32 44.13 47.28 46.70 46.87 41.20 41.89 45.77 48.32 48.53 46.59 48.42 49.50 49.69 49.07 47.89 46.80 46.66 47.15 47.29 47.35 47.65 48.07 47.67 49.03 48.43 48.08 47.74 46.53 44.97 44.19 45.53 46.88 46.99 46.92 46.22 45.63 45.65 45.68 45.54 45.33 45.98 46.16 45.92
49.87 49.51 47.40 50.27 48.96 50.18 46.06 47.59 45.64 44.46 46.21 50.25 48.78 43.70 42.52 42.77 41.03 46.25 46.75 48.56 47.60 48.26 49.14 48.76 49.00 48.52 47.58 46.87 46.59 46.16 45.87 46.19 46.78 47.13 47.19 48.07 47.97 47.50 46.75 46.46 46.90 39.74 46.29 46.38 45.88 46.06 45.24 44.89 44.37 43.82 42.77 42.38 42.60 42.84
49.84 53.17 50.35 48.59 48.84 49.64 49.52 48.07 47.60 48.87 50.27 49.97 47.34 45.36 43.30 44.20 45.54 46.02 46.93 47.45 48.62 47.36 45.80 44.72 45.06 46.90 46.59 46.52 46.60 46.30 45.11 43.76 41.94 40.45 40.05 40.66 41.75 43.09 45.26 45.29 45.40 45.54 45.49 44.97 36.68 40.39 41.92 41.20 41.87 41.35 41.54 41.73 41.98 42.34
51.15 54.66 49.93 48.77 47.69 47.43 50.93 52.45 50.15 50.79 49.90 48.55 47.61 46.15 46.29 47.76 48.92 50.94 49.46 47.93 46.91 45.86 46.23 45.01 44.10 43.61 43.00 42.94 42.41 42.65 44.05 43.44 42.82 40.85 38.95 38.96 39.81 42.18 42.53 42.21 42.04 42.28 42.46 42.16 41.68 41.75 38.82 39.97 40.02 41.19 40.01 39.64 39.52 38.47
54.48 54.05 51.13 50.75 49.46 51.72 52.30 52.38 51.78 51.47 50.21 47.86 46.94 45.06 44.47 46.69 48.64 51.36 50.42 49.29 47.63 47.30 46.04 44.92 44.69 43.61 42.23 41.40 40.54 39.61 39.25 41.49 41.26 40.68 39.93 40.54 40.69 40.40 40.41 40.67 41.08 41.04 40.83 40.20 39.87 39.34 38.58 38.08 38.05 37.66 37.19 36.29 35.84 35.62
53.40 51.44 50.69 48.01 50.06 53.75 53.27 52.50 50.06 47.31 45.41 46.70 47.21 49.62 48.59 47.58 45.72 49.87 49.16 48.97 47.39 45.93 41.87 43.84 42.30 41.34 42.03 42.28 41.97 41.43 36.98 40.36 39.08 38.64 37.35 37.45 37.42 38.02 39.02 39.46 39.54 39.46 39.07 38.54 38.42 37.98 37.46 36.72 36.13 34.79 34.58 34.84 35.30 35.32
52.44 51.76 51.23 50.24 49.37 48.31 52.28 51.98 49.80 46.80 47.92 47.69 48.33 50.13 50.09 47.84 44.56 48.92 49.05 47.58 45.58 44.65 43.73 43.44 43.17 42.72 41.92 41.33 40.79 40.70 39.20 40.87 36.85 33.39 33.87 32.80 32.37 33.26 37.01 37.69 37.75 37.82 37.59 37.50 37.38 37.13 36.00 34.90 34.05 34.89 34.96 34.62 33.62 34.22

GFSWCAN_sfc_wetblb_015.txt.gz
Wetbulb
51.09 51.02 50.97 51.07 50.84 50.73 50.56 50.45 50.47 50.40 51.08 51.25 51.04 51.09 51.14 50.80 50.62 50.16 49.07 51.92 45.45 39.78 40.17 44.58 45.40 42.17 41.96 41.96 38.70 41.71 44.03 44.34 44.27 41.53 41.89 42.97 42.88 46.24 46.65 50.52 50.79 49.07 49.69 49.30 51.13 48.51 46.18 59.87 59.70 55.63 59.91 63.42 64.09 64.67
51.03 50.99 50.67 50.80 50.85 50.88 50.80 50.79 50.56 50.23 51.00 50.62 50.87 50.80 50.72 50.29 50.06 49.72 44.92 50.11 49.04 41.88 42.11 48.37 48.70 49.29 47.18 47.40 44.44 44.60 43.18 41.74 46.00 44.25 46.04 45.42 45.20 49.52 49.15 44.70 54.46 49.81 53.46 51.48 52.92 52.47 60.20 61.10 60.80 62.21 63.00 64.06 64.64 65.33
51.06 51.04 51.02 51.15 51.19 51.43 50.82 50.77 50.36 50.49 50.49 50.66 49.92 49.84 49.75 50.01 50.02 49.56 46.85 49.23 46.72 41.97 42.18 44.69 44.76 50.64 52.05 50.61 50.52 42.50 45.67 47.18 46.77 48.30 44.65 45.77 44.02 49.34 48.12 49.31 53.55 53.19 58.66 55.80 57.16 58.37 58.72 60.02 61.94 62.82 64.02 63.65 65.88 67.12
51.19 50.83 51.02 51.02 50.30 50.41 50.41 50.43 50.49 50.26 50.23 49.68 49.45 49.34 49.36 49.98 49.61 49.17 46.77 49.57 46.45 42.64 36.81 42.72 50.90 49.13 52.06 52.45 50.76 49.81 46.98 51.02 49.37 46.79 44.10 45.47 44.34 51.53 48.57 50.42 54.75 50.44 54.24 57.78 57.22 58.20 59.01 59.51 60.60 61.80 62.32 63.37 63.83 64.14
51.11 50.99 51.09 50.62 50.31 50.26 50.30 50.23 50.19 49.91 49.57 49.40 49.33 49.40 49.96 49.32 47.89 49.07 49.44 49.17 49.50 41.56 36.98 41.59 48.19 51.94 52.55 51.15 50.48 50.06 48.75 47.68 44.76 43.34 42.54 43.81 49.34 49.53 52.25 53.04 46.02 50.70 50.82 52.70 53.04 58.74 58.89 57.27 58.90 60.59 59.25 59.62 60.87 61.41
50.74 50.60 50.72 50.62 50.72 50.52 50.23 50.21 49.87 49.72 49.31 49.20 49.51 49.64 49.44 49.51 49.30 48.16 43.86 48.59 49.36 49.25 41.15 37.58 48.50 49.67 52.50 51.46 50.87 50.16 49.45 47.60 47.18 42.81 44.22 46.29 51.10 49.44 47.64 45.21 49.33 52.84 55.55 58.56 56.83 59.93 57.87 57.67 57.42 57.52 56.48 57.77 58.29 58.96
50.65 50.60 50.62 50.77 50.60 50.50 50.16 49.74 49.79 49.63 49.27 49.10 48.95 48.95 49.21 49.67 49.35 45.92 43.22 46.24 50.13 49.93 39.91 37.09 40.89 48.92 52.83 52.31 51.21 50.82 51.34 48.24 46.52 43.28 45.19 46.29 47.00 45.43 46.51 43.76 50.02 52.25 55.76 56.99 58.52 57.14 53.86 55.42 54.17 56.52 56.78 57.28 56.74 58.18
50.87 50.87 50.59 50.55 50.63 50.24 50.07 50.15 50.35 49.96 49.72 49.55 49.66 49.69 50.01 50.25 49.40 45.90 49.20 49.54 49.64 44.00 41.81 37.32 39.69 46.42 52.39 48.18 47.01 51.48 48.34 47.91 46.25 46.92 46.68 44.91 46.16 48.68 43.35 48.12 49.99 51.71 53.60 53.42 55.10 56.58 56.29 55.32 54.72 55.85 55.36 55.47 55.70 56.37
50.70 50.76 50.64 50.52 50.40 50.23 50.55 50.64 50.66 50.51 50.80 50.92 50.79 50.36 50.36 48.26 45.40 50.59 49.96 50.12 50.25 43.89 36.91 36.22 35.47 38.86 51.45 46.73 49.05 49.16 49.53 43.33 48.57 43.81 42.66 44.39 43.85 41.51 46.22 47.08 48.00 49.56 49.76 50.58 52.82 52.38 52.13 51.55 51.53 52.65 53.80 54.46 52.97 55.89
50.65 50.42 50.50 50.40 50.37 50.46 50.40 50.56 50.62 50.28 50.21 51.12 50.61 46.15 43.84 49.65 49.53 52.03 48.50 44.41 42.89 43.55 42.40 39.01 46.12 43.65 47.70 48.17 46.67 46.15 46.73 42.99 38.95 42.90 48.24 43.83 42.40 47.94 49.71 50.18 50.92 51.11 50.91 50.92 48.34 48.80 49.98 51.11 52.09 51.78 52.63 54.93 56.26 55.56
50.25 50.26 50.49 50.55 50.64 50.65 50.57 50.63 50.60 50.18 51.48 50.89 47.70 46.66 50.95 53.40 51.04 47.17 42.32 41.10 42.76 40.05 44.53 46.19 47.13 45.96 49.88 44.99 44.26 47.75 45.02 45.05 39.47 44.56 44.45 41.16 38.57 46.68 50.72 51.44 52.59 52.84 52.84 52.58 52.99 53.05 52.32 52.55 52.84 53.39 53.73 55.01 56.08 57.80
50.04 49.90 50.00 50.08 50.54 50.49 50.46 50.47 50.67 51.33 50.32 48.03 47.60 49.24 50.60 48.30 45.01 40.87 40.02 42.70 42.17 40.41 45.49 46.42 47.64 49.23 49.38 50.52 47.33 47.05 44.48 44.15 39.47 47.36 43.29 37.23 43.70 49.08 50.68 51.16 52.53 53.72 53.29 53.75 53.55 51.66 52.48 54.10 55.22 55.13 56.17 55.88 56.81 58.48
49.76 49.72 49.70 49.80 49.79 50.09 50.32 50.74 50.68 50.55 50.28 51.24 48.20 45.86 45.60 45.87 37.80 37.10 36.53 39.09 40.77 46.45 47.85 48.97 47.36 50.75 51.75 50.55 48.91 47.83 42.66 42.96 50.16 43.69 38.80 41.76 46.99 50.49 52.25 52.25 52.45 54.30 54.40 54.33 54.23 55.04 54.65 55.12 55.55 55.52 56.01 58.10 58.60 58.46
50.25 50.15 49.92 49.72 49.83 50.19 50.64 51.01 50.06 50.47 50.41 45.02 42.96 36.67 39.06 38.30 41.68 44.08 43.73 44.66 49.03 48.86 49.59 49.18 48.17 48.50 51.20 48.17 48.09 42.73 47.04 47.19 41.58 37.61 39.45 45.38 48.31 49.72 52.51 54.36 53.08 53.13 54.32 54.37 54.43 54.62 54.12 54.08 54.99 56.89 58.00 58.02 57.86 58.31
49.80 49.94 50.28 50.59 50.79 50.54 50.77 50.86 49.97 53.62 50.70 44.59 44.30 35.30 40.49 43.98 47.02 46.86 47.65 48.03 50.62 52.04 51.23 49.15 48.58 50.34 48.53 47.19 48.13 47.05 43.54 39.42 39.39 38.96 44.51 48.78 50.03 51.77 52.21 53.01 54.16 54.13 54.00 54.00 54.39 54.74 54.89 55.34 55.82 56.53 57.52 58.17 58.94 59.31
49.67 50.23 52.31 50.51 50.47 50.23 50.30 52.42 55.20 55.06 52.41 49.21 46.06 42.48 45.97 44.70 45.33 47.11 48.34 48.91 52.48 52.37 52.35 50.39 47.77 45.99 44.88 44.55 42.12 38.96 38.12 34.81 39.14 44.60 49.40 52.07 50.63 53.53 54.63 55.09 55.12 55.77 55.49 55.44 55.73 55.28 54.93 55.41 55.92 56.24 56.94 56.95 57.21 58.82
49.55 52.55 50.48 50.42 50.11 50.19 51.92 53.41 54.80 49.46 48.58 44.91 44.12 48.29 47.13 45.94 45.81 48.46 49.74 50.27 53.68 51.34 47.94 48.84 43.93 42.17 47.17 42.53 40.46 41.32 37.58 40.40 45.85 47.35 50.87 53.64 53.52 54.94 55.30 55.61 56.02 55.74 55.85 56.34 55.96 56.42 56.64 57.00 56.98 56.34 55.45 56.36 56.97 57.51
51.38 53.10 50.97 50.44 50.98 52.86 56.64 54.50 51.50 48.67 43.84 46.59 44.78 46.62 48.39 49.20 48.48 49.71 51.05 52.23 51.60 50.92 50.34 46.75 48.55 44.19 41.82 38.83 40.56 44.70 47.42 49.98 53.02 54.24 55.28 55.92 56.16 56.62 56.51 55.70 56.01 56.46 56.15 56.64 56.46 57.51 57.45 56.76 55.40 54.66 56.28 56.62 56.89 56.59
50.94 51.34 50.43 50.65 51.31 50.99 50.18 50.49 51.48 45.40 46.75 47.68 48.46 49.34 49.25 49.71 51.86 52.35 52.75 53.34 53.72 53.50 51.80 48.73 45.01 42.38 42.86 45.92 46.82 48.94 50.38 52.79 53.50 55.18 56.04 56.77 57.20 56.42 56.29 56.64 56.70 56.52 55.94 55.22 55.45 54.48 55.03 56.50 54.91 54.67 54.90 55.75 54.62 54.77
49.75 50.44 50.67 51.03 51.90 52.48 47.35 49.60 53.45 48.10 45.31 47.29 49.16 48.17 48.65 48.75 50.72 51.81 51.94 51.53 51.06 49.81 47.19 44.12 44.62 46.98 47.68 50.25 51.71 51.97 53.36 55.28 55.71 53.12 53.53 53.71 54.33 54.70 54.44 54.20 53.67 54.97 54.36 54.86 53.66 49.18 53.84 53.68 53.92 53.73 53.83 53.78 53.98 53.45
52.28 54.08 52.22 53.81 55.27 53.30 51.25 49.39 49.13 49.39 49.37 47.44 49.57 49.03 47.91 50.42 48.93 49.68 49.66 52.55 49.49 48.21 47.04 50.38 51.36 53.44 55.33 56.52 55.99 56.11 55.39 54.74 53.58 54.25 53.22 52.08 53.65 53.93 53.32 53.73 53.92 53.12 52.25 51.99 51.56 51.31 50.34 51.17 51.38 51.61 52.05 52.47 52.85 53.09
53.85 51.42 54.37 55.55 52.61 51.64 51.00 51.86 48.88 50.16 46.92 48.10 49.28 49.82 46.55 44.94 47.06 46.51 51.15 48.79 46.67 48.99 50.64 50.57 53.23 55.37 54.79 54.04 55.60 56.17 55.82 56.21 56.60 54.45 50.47 53.20 53.46 52.00 51.71 52.07 52.00 51.59 51.61 51.07 50.79 50.00 49.94 50.00 50.36 50.35 50.68 50.71 50.07 51.83
51.59 51.84 53.90 53.28 48.94 46.19 46.28 54.42 47.84 48.40 44.75 45.83 49.60 45.46 44.94 46.09 49.32 51.87 46.53 47.71 49.20 52.51 55.68 54.71 54.04 54.25 52.66 52.92 53.42 52.38 54.69 54.01 51.31 51.86 52.19 52.85 52.85 52.89 52.37 52.11 51.84 50.51 49.51 49.89 50.74 49.97 49.46 46.24 48.72 49.43 50.31 49.81 50.10 50.61
48.44 50.12 48.43 48.51 49.64 45.30 52.77 49.70 52.61 50.25 50.84 47.64 47.02 44.17 47.02 48.90 52.21 46.37 43.47 47.42 52.03 54.90 52.92 54.66 52.60 51.23 52.34 52.90 50.33 49.88 50.16 51.10 50.71 51.58 51.49 50.45 50.33 51.13 52.50 52.48 51.80 51.21 50.35 49.97 49.37 48.92 48.83 48.51 45.89 49.08 49.17 48.62 48.92 48.80
44.47 43.69 48.97 42.48 51.61 48.44 46.58 47.18 47.81 49.67 45.04 47.21 45.56 46.57 48.95 51.04 46.16 44.12 43.45 47.92 51.55 49.62 50.15 51.37 51.18 50.42 48.66 48.85 49.02 49.03 50.54 49.21 48.59 48.49 49.74 49.96 49.92 50.20 50.39 51.06 51.25 50.00 50.65 48.82 47.76 47.42 47.75 48.10 48.50 48.46 48.27 48.26 47.41 47.06
40.83 49.62 44.69 49.77 50.45 48.63 48.37 45.52 45.70 46.21 47.78 46.00 46.97 51.67 52.75 50.09 43.79 43.15 44.84 48.37 47.46 49.51 49.50 49.57 48.91 48.66 48.42 48.57 47.26 46.93 47.05 48.72 48.76 47.53 48.76 49.46 48.79 47.55 46.70 46.33 46.28 47.33 48.86 48.16 47.31 46.43 46.46 47.30 47.43 47.39 47.15 46.43 43.00 45.70
44.04 48.61 54.42 56.86 53.40 52.72 50.86 52.98 52.97 50.52 45.55 45.34 48.63 47.78 48.10 42.45 40.38 42.09 45.06 45.41 45.53 48.30 50.20 50.15 49.59 48.06 46.93 47.83 48.54 48.36 47.90 47.88 47.62 47.15 48.54 49.56 49.72 48.99 47.35 45.21 44.54 45.25 47.70 48.11 47.54 46.73 45.62 45.09 44.89 44.88 44.37 45.18 45.35 44.87
52.70 52.84 49.43 52.41 52.95 55.00 49.45 49.10 47.34 46.58 47.40 51.07 49.14 44.93 43.16 41.83 40.12 45.69 46.71 49.42 50.09 49.79 48.45 49.32 49.06 48.63 48.08 47.86 48.07 47.27 46.91 46.79 47.35 47.57 47.62 48.36 48.40 47.70 47.25 46.81 46.68 40.37 46.15 45.75 44.89 45.03 44.25 43.04 42.01 42.33 42.36 42.26 42.97 44.01
52.63 56.05 54.64 50.99 51.33 50.82 50.33 47.94 47.41 50.55 51.85 50.27 47.72 43.37 41.02 44.78 47.31 47.52 48.10 48.04 48.30 47.00 46.42 47.10 46.95 48.26 48.35 48.10 47.20 46.42 45.96 44.49 42.18 40.35 40.04 40.71 41.50 42.54 44.40 44.38 44.30 44.40 44.45 44.28 37.72 40.38 41.98 41.39 41.37 41.23 42.00 42.36 42.40 42.11
52.26 56.00 50.98 50.71 49.47 49.01 51.66 52.89 51.62 52.84 52.37 50.83 49.21 46.04 45.63 46.85 49.06 52.75 52.90 53.03 51.62 49.58 48.88 48.66 48.00 46.65 44.33 43.61 43.08 43.46 44.57 43.74 42.16 39.84 37.21 37.56 39.27 41.68 42.11 42.33 42.55 42.89 43.15 42.97 42.40 42.54 39.57 40.94 41.02 41.91 40.34 39.86 39.39 38.87
53.97 52.39 50.63 51.12 50.70 53.61 53.14 54.10 54.17 53.16 51.62 50.33 50.36 46.59 44.73 47.44 51.75 53.98 51.34 51.33 50.14 49.04 47.78 46.44 45.80 45.04 43.06 42.45 41.65 40.55 39.95 42.78 42.17 40.94 39.22 39.57 40.11 40.33 41.00 41.37 41.60 41.90 41.74 41.48 41.06 40.78 40.13 39.57 39.16 38.11 37.50 36.78 37.14 36.99
53.28 50.79 50.90 47.54 50.46 54.34 54.75 52.98 51.07 50.71 50.91 49.15 48.30 48.05 47.13 46.84 44.96 49.72 49.86 49.31 47.92 46.46 43.76 45.44 43.88 42.71 43.53 43.61 43.27 43.04 37.69 42.57 41.27 40.12 38.20 37.73 38.24 39.25 40.42 40.42 40.66 40.81 40.52 40.70 40.42 40.03 38.83 38.04 37.20 37.08 36.38 36.15 35.67 36.07
52.56 52.04 51.48 50.49 50.73 48.93 53.00 52.67 50.41 48.83 48.81 49.18 49.81 51.68 49.67 48.35 43.98 48.08 51.33 50.23 47.49 46.02 45.42 45.53 45.48 44.93 44.47 43.42 42.91 42.51 41.22 42.50 36.80 33.35 33.23 32.80 32.09 34.02 38.05 39.82 39.96 40.32 39.84 39.71 39.37 38.74 37.65 36.91 36.61 35.97 35.54 35.38 35.34 36.37

GFSWCAN_sfc_wetblb_021.txt.gz
Wetbulb
52.11 52.28 52.47 52.24 52.34 52.05 52.18 52.30 52.09 51.63 51.54 51.59 51.68 51.60 51.21 51.23 51.39 50.53 47.11 50.98 45.53 39.73 40.07 41.93 42.03 39.23 39.90 39.01 34.51 40.05 38.71 38.73 38.01 35.50 34.66 35.22 33.99 37.87 39.82 43.11 43.22 42.92 39.02 41.48 43.92 39.93 38.83 57.09 56.14 51.59 53.45 58.53 60.64 59.86
52.18 52.15 51.98 51.74 51.95 52.18 52.32 52.38 51.98 52.00 52.07 51.24 51.06 50.98 50.75 50.63 50.54 50.38 44.75 50.96 49.92 42.71 41.25 45.12 44.92 46.00 44.15 43.83 41.14 41.05 39.44 38.84 40.98 39.01 39.76 40.42 37.65 40.47 41.73 39.28 46.90 41.67 45.80 45.12 47.09 49.46 55.72 59.40 58.75 59.59 62.53 61.84 62.43 62.99
52.05 51.75 51.73 51.69 51.89 51.95 51.89 51.96 51.73 51.73 51.77 51.13 51.03 51.01 50.73 50.71 50.75 50.02 47.80 48.84 47.58 41.47 39.44 40.78 41.17 46.34 47.98 46.82 47.47 38.22 41.08 43.32 42.85 45.70 41.96 41.84 39.06 44.02 38.85 42.41 45.74 47.77 51.94 48.31 49.61 53.17 55.80 58.06 59.76 62.55 62.07 61.06 61.42 62.87
51.91 52.13 51.92 51.81 51.68 51.74 51.84 51.73 51.69 51.59 51.44 50.97 50.79 50.64 50.68 50.76 51.00 49.38 46.72 49.26 45.74 41.94 35.23 37.47 47.08 44.72 49.36 48.55 47.92 46.36 44.27 45.17 45.47 43.80 40.48 40.77 39.99 46.94 43.37 44.16 45.15 48.22 49.68 49.40 50.25 54.31 54.96 59.03 60.50 60.88 60.90 60.64 60.32 60.16
51.53 51.71 51.65 51.60 51.43 51.78 51.69 51.65 51.61 51.65 51.69 51.42 51.16 50.87 50.53 50.34 50.68 49.61 48.27 48.18 48.03 41.18 35.68 36.76 42.41 46.82 48.68 47.59 47.26 47.92 45.22 44.24 42.27 38.40 41.36 40.99 44.94 45.18 46.83 46.99 45.95 49.13 49.53 48.45 48.82 51.52 52.06 53.38 57.78 59.80 58.57 58.34 58.37 57.58
51.24 51.26 51.13 51.46 51.37 51.47 51.40 51.42 51.53 51.55 51.53 51.70 51.27 51.21 51.31 50.76 50.41 47.35 42.32 48.78 49.99 47.77 39.78 34.28 43.62 44.31 47.68 49.46 49.36 46.72 46.57 45.04 43.45 43.24 42.64 44.32 47.68 45.54 41.60 41.92 47.59 50.02 52.43 54.03 53.34 54.00 53.09 53.51 53.63 55.61 55.14 56.07 57.60 57.22
51.07 51.15 51.23 51.23 51.19 51.25 51.37 51.37 51.55 51.45 51.64 51.77 51.92 51.92 51.85 51.51 48.40 44.17 41.70 46.74 49.01 48.42 40.22 36.03 36.04 45.78 49.74 50.36 46.47 46.63 46.65 45.03 46.80 44.79 42.88 43.04 44.63 47.12 44.63 41.02 48.97 52.10 54.48 54.88 54.99 54.46 52.29 53.14 51.12 53.99 56.28 56.80 57.14 57.74
51.04 51.19 51.04 51.12 51.22 51.22 51.05 50.96 50.96 50.97 51.16 51.59 51.72 51.69 51.77 51.65 49.99 45.40 47.39 48.71 48.88 44.85 42.40 35.28 35.72 42.42 49.30 45.52 43.78 48.39 44.42 46.57 45.66 44.59 44.70 43.59 45.26 46.27 42.76 47.21 49.91 51.71 53.83 53.97 53.72 54.77 54.42 55.25 55.23 54.72 55.03 54.62 53.75 53.90
51.08 51.05 50.96 50.81 50.66 50.78 50.85 50.85 50.97 51.11 51.17 51.54 51.81 51.66 50.39 48.13 45.11 47.71 51.71 49.80 49.74 44.41 37.48 38.06 34.50 36.14 47.59 45.44 47.01 46.45 46.52 41.44 46.53 43.36 42.85 43.12 43.05 40.97 45.51 47.94 48.95 51.17 51.17 50.60 51.85 52.23 51.96 51.04 51.38 52.96 54.17 54.73 53.23 51.94
50.91 50.93 51.01 50.82 50.79 51.03 51.27 51.29 51.31 51.23 51.36 51.58 50.60 48.49 44.70 48.96 53.21 51.63 47.95 42.92 41.71 42.19 40.58 35.22 39.50 35.26 44.19 45.36 44.67 44.51 45.84 42.46 38.01 40.63 45.13 40.63 41.03 46.70 49.23 50.13 50.35 50.71 52.11 52.65 50.25 49.45 49.77 48.97 49.46 50.24 50.23 52.80 54.54 53.60
50.75 50.68 50.76 50.70 50.77 51.06 51.26 51.45 51.15 51.27 51.55 51.67 47.53 46.06 49.18 53.35 49.29 45.22 40.22 38.74 39.43 37.38 39.76 39.29 41.60 37.88 48.26 42.13 42.68 46.06 42.72 41.38 33.12 39.02 40.10 37.24 38.64 44.34 49.25 48.88 50.72 52.11 52.07 52.35 52.73 52.73 52.70 50.15 49.98 50.75 50.79 53.03 55.30 55.57
50.44 50.21 50.25 50.32 50.77 50.98 51.24 51.23 51.22 50.72 49.92 47.68 46.22 49.14 50.15 49.24 46.92 41.44 39.53 38.92 36.03 34.76 43.14 43.52 45.75 47.64 47.74 49.21 43.72 45.35 40.75 40.99 37.28 46.04 39.26 35.01 41.78 47.71 48.85 48.87 49.60 50.95 51.32 51.55 53.15 52.31 53.60 54.15 54.28 54.21 54.55 54.99 55.50 56.76
50.21 50.10 50.16 50.15 50.48 50.60 51.31 51.17 51.12 51.55 51.22 53.07 48.54 47.36 46.66 45.51 38.48 38.76 36.78 38.71 39.19 44.25 46.15 46.78 45.44 47.46 48.29 46.70 44.37 44.26 39.95 40.48 46.69 39.94 34.83 38.40 44.09 46.88 49.78 51.09 50.71 52.23 52.57 52.51 52.94 54.32 54.22 54.76 56.13 55.70 55.02 56.10 56.55 56.38
50.08 50.09 50.06 50.15 50.42 51.23 51.26 51.03 51.36 51.59 50.91 48.10 45.54 37.06 42.37 40.51 41.58 42.02 42.08 43.42 46.44 47.10 47.58 48.31 46.14 46.67 47.44 44.84 44.54 41.75 44.57 43.49 37.69 34.01 35.04 44.42 47.89 49.79 51.04 51.79 51.68 51.73 52.94 52.92 53.61 54.39 54.41 55.03 55.21 55.96 56.51 56.45 56.40 55.99
50.16 50.22 50.05 50.89 51.38 51.34 51.09 50.88 51.32 53.18 51.55 47.97 46.64 36.23 42.82 46.04 47.46 47.29 49.19 48.65 49.65 50.68 50.51 49.63 48.36 47.56 46.24 44.82 44.49 42.27 38.70 35.34 36.52 38.25 43.00 47.33 49.64 50.66 51.07 52.07 52.28 52.01 51.44 51.83 53.29 53.70 53.76 54.55 54.75 54.93 55.70 56.16 56.91 57.01
50.41 50.25 51.95 51.15 51.19 50.97 50.53 52.00 55.28 54.41 54.58 50.46 48.00 44.35 47.28 45.94 45.72 47.31 48.30 47.51 50.68 50.52 50.33 48.90 46.09 42.92 41.46 41.97 38.69 36.47 36.33 33.67 37.99 44.27 47.64 49.39 50.08 51.01 51.64 52.15 52.94 53.67 53.53 52.07 52.12 53.09 55.05 55.04 54.06 53.56 55.05 55.16 56.43 57.26
50.07 48.94 51.81 51.19 50.80 50.46 52.94 53.18 56.33 52.37 48.99 47.02 45.17 49.75 48.34 46.96 46.68 48.53 49.72 49.18 52.45 49.17 43.84 45.72 41.70 40.58 44.48 38.46 36.43 39.17 36.88 41.11 44.71 47.19 49.37 50.28 50.55 51.71 52.73 52.93 54.01 53.95 53.30 52.08 54.02 53.65 53.54 53.34 53.03 54.59 52.35 54.17 53.63 55.45
50.02 53.17 51.90 50.64 50.33 52.12 56.60 55.02 52.37 49.58 45.81 48.09 45.69 48.18 48.35 50.90 48.41 49.69 50.73 52.26 50.42 48.64 47.49 44.63 47.31 41.53 40.46 39.73 41.19 45.45 46.03 47.69 48.54 48.99 50.58 51.18 52.03 53.34 54.25 53.54 54.52 53.50 52.43 52.18 53.31 52.82 52.16 50.68 49.51 50.23 50.54 52.95 52.40 51.43
49.61 50.36 50.18 50.18 50.47 49.65 51.59 52.55 53.87 46.82 46.93 48.48 48.80 50.27 50.76 50.64 52.22 52.42 52.58 52.53 52.60 52.25 49.55 47.30 43.38 41.52 42.32 45.58 45.90 47.67 48.63 48.78 48.60 50.13 51.63 53.58 54.31 53.57 54.43 54.88 54.70 53.78 52.82 50.99 49.76 49.86 49.04 48.28 47.72 47.95 48.46 48.69 49.33 49.79
49.91 50.73 51.29 51.94 51.82 51.79 50.20 51.88 56.45 49.95 45.74 48.68 50.40 48.78 49.87 50.02 51.59 51.10 50.63 50.86 50.12 48.27 44.90 43.67 43.72 45.93 46.40 48.39 50.57 50.13 50.95 51.90 50.75 48.85 50.42 51.35 52.33 52.71 53.18 51.73 51.51 52.00 50.57 49.78 48.50 46.96 47.57 47.24 47.52 47.37 47.80 47.45 47.09 47.64
52.94 54.99 53.78 55.17 55.49 53.93 51.37 50.08 49.56 50.39 48.28 47.59 49.40 50.25 50.08 50.28 48.49 48.31 48.64 51.29 47.88 46.14 44.80 47.94 47.25 48.05 49.55 48.83 48.74 48.67 48.71 53.23 50.78 49.21 49.95 49.59 52.03 52.26 52.49 51.86 51.25 49.74 48.15 47.61 47.23 46.67 45.83 45.54 45.90 46.83 47.65 47.12 47.52 48.38
55.77 53.64 55.44 57.89 54.55 53.77 52.34 55.23 51.33 53.16 51.13 50.35 50.13 50.05 48.42 47.00 46.95 47.66 50.57 47.20 46.72 49.20 49.91 50.37 50.30 49.17 47.32 46.78 46.97 47.32 47.78 50.11 50.12 48.12 46.85 48.62 48.55 48.91 48.99 49.39 49.65 48.05 47.50 47.27 46.62 45.79 45.81 45.87 45.52 46.86 47.07 47.10 47.08 47.35
53.43 53.23 54.92 55.72 51.43 46.22 46.31 56.25 50.90 51.46 47.94 48.67 50.06 47.06 48.20 48.27 49.10 51.79 46.38 48.58 48.81 52.30 51.78 51.67 52.98 52.62 50.91 51.08 48.71 47.37 47.76 47.17 47.34 48.12 47.82 47.84 48.67 48.92 49.33 47.91 46.83 45.32 45.32 46.21 46.84 46.12 45.92 44.53 46.06 46.57 47.42 47.32 47.30 46.83
50.72 52.58 51.20 51.17 50.60 46.03 54.35 50.11 53.02 51.24 51.12 48.93 48.35 45.88 47.69 49.77 53.41 48.31 43.96 45.61 47.44 49.49 48.62 49.05 49.54 48.52 49.06 49.12 47.11 46.30 46.22 46.35 45.74 46.42 46.65 46.45 46.85 46.53 46.50 45.34 45.04 45.13 45.33 46.25 46.15 45.71 45.65 45.83 43.76 44.66 45.24 44.84 44.79 44.24
45.73 45.65 48.14 38.87 52.82 50.54 48.63 48.86 49.00 48.88 46.41 49.12 47.26 46.04 45.08 47.89 44.57 43.80 42.29 43.66 46.15 47.53 48.27 48.72 48.61 48.26 46.15 45.46 46.08 45.86 46.67 45.32 43.74 43.21 45.16 46.63 46.43 45.95 45.25 45.09 43.42 42.94 44.64 44.15 42.62 42.57 43.04 42.85 41.96 41.33 41.56 41.80 41.44 41.81
38.95 51.57 44.60 50.26 48.86 47.82 48.23 46.33 47.81 47.31 47.78 47.07 47.56 49.86 48.54 45.91 41.74 39.49 41.89 44.71 45.68 47.39 47.63 47.79 46.71 46.18 45.42 45.44 44.18 44.03 44.00 44.89 43.60 41.90 42.93 45.57 43.96 42.32 41.29 40.00 39.24 39.71 43.52 43.32 41.80 41.08 41.09 40.68 40.03 40.01 39.93 40.56 39.97 40.87
44.07 45.44 50.76 50.08 48.76 49.78 48.82 50.66 51.34 48.67 46.28 45.54 48.34 47.56 46.19 39.60 38.30 41.79 46.29 49.02 47.95 49.63 50.57 49.81 48.52 46.80 44.80 44.41 45.22 45.24 44.58 43.75 42.25 41.44 43.26 43.69 42.78 42.40 41.53 39.77 38.68 40.14 43.23 42.68 41.96 41.54 39.92 39.40 39.17 39.50 39.85 40.58 40.15 39.80
48.33 49.94 48.43 50.38 49.99 51.61 48.75 48.05 47.00 45.76 45.70 48.88 48.78 43.13 40.92 40.16 40.12 46.01 47.89 50.81 51.08 51.38 50.55 50.43 50.85 47.20 45.20 44.59 44.67 44.20 43.48 42.95 42.34 41.76 41.72 42.11 42.20 41.85 42.22 42.31 42.32 39.64 42.44 41.48 41.54 41.28 40.07 39.71 39.42 39.22 38.91 38.17 38.09 38.80
50.41 53.34 51.35 49.31 50.38 50.39 49.67 47.78 46.71 47.70 48.67 48.00 45.31 42.98 42.85 46.35 48.57 48.39 50.63 51.80 52.44 50.09 47.88 46.29 45.42 45.72 44.68 44.77 44.48 43.90 42.95 41.16 38.04 34.70 33.62 34.30 36.14 37.79 40.87 40.90 40.92 41.07 41.23 41.35 38.64 39.48 40.31 39.95 39.46 38.87 39.12 38.47 38.20 37.99
52.46 54.94 51.58 50.48 48.18 47.40 49.62 51.06 49.43 50.37 50.18 48.83 48.18 47.58 47.67 48.63 50.66 52.86 50.28 49.01 47.18 45.77 45.89 45.80 45.13 43.78 42.00 41.33 40.67 41.35 41.80 40.55 38.71 35.94 33.10 33.42 35.58 38.72 39.74 39.81 40.03 40.50 40.83 40.82 40.52 40.32 39.35 39.60 38.91 38.94 37.90 37.39 36.87 36.45
54.26 53.58 52.05 51.33 49.62 51.58 52.42 53.02 52.71 52.08 51.50 50.01 50.18 47.74 47.01 48.56 50.62 51.45 50.32 49.46 47.73 46.57 44.98 44.02 43.54 43.48 41.98 41.04 40.14 39.05 38.05 39.70 39.14 38.70 37.85 37.87 38.17 38.48 39.05 39.38 39.78 40.05 39.87 39.97 39.43 38.69 37.80 37.42 37.32 36.81 36.57 36.10 36.34 35.97
53.14 51.31 50.20 48.83 50.99 53.85 54.99 52.25 50.68 50.22 49.85 49.51 48.14 48.38 48.48 47.94 46.23 48.79 50.66 48.81 46.26 44.29 43.02 43.53 42.52 41.77 43.11 42.89 42.45 42.30 40.63 39.72 38.86 38.74 38.39 37.96 37.99 38.46 38.89 39.22 39.35 39.12 38.85 38.96 38.70 38.03 37.84 37.13 36.68 36.33 36.14 36.06 36.06 36.01
52.56 51.97 51.88 50.29 51.37 51.95 53.31 52.81 51.29 49.64 49.00 48.41 48.28 48.74 47.75 46.19 43.01 47.32 51.06 49.00 46.47 44.43 43.35 43.84 44.23 44.38 44.29 42.93 42.28 42.28 40.79 40.52 38.13 35.36 34.81 34.47 34.00 34.89 37.04 38.54 38.42 38.63 38.26 38.13 38.25 37.93 37.44 37.04 36.34 36.38 36.37 36.24 36.32 36.53

GFSWCAN_sfc_wetblb_024.txt.gz
Wetbulb
52.22 52.48 52.16 52.07 52.11 52.12 52.34 52.09 52.26 51.76 51.69 51.78 51.67 51.59 51.57 51.19 50.91 45.97 42.96 46.44 43.08 39.34 38.60 40.90 40.13 37.20 36.88 34.71 33.34 34.41 36.32 35.40 33.63 33.71 34.23 32.02 30.86 32.97 34.22 40.62 42.05 40.86 40.60 40.13 41.10 38.88 36.92 52.69 54.09 47.98 50.99 56.71 57.58 58.81
52.18 52.18 52.23 52.21 52.22 52.14 52.22 52.34 52.09 52.11 51.34 51.40 51.24 51.22 51.10 51.16 50.84 49.73 42.81 45.49 46.69 42.10 38.17 43.63 43.34 43.77 42.16 40.99 36.97 35.23 36.47 37.62 38.96 34.45 34.48 36.82 34.81 36.26 34.93 34.90 45.59 40.05 44.36 43.20 43.68 45.31 49.85 55.26 55.79 59.71 61.11 59.91 59.90 60.79
51.95 51.91 52.01 52.13 52.12 51.91 52.00 52.12 51.88 51.94 51.50 51.40 51.44 51.49 51.22 51.09 51.00 49.69 43.47 44.53 45.54 41.33 39.67 38.24 37.37 42.10 44.07 43.53 45.11 36.59 38.31 40.50 40.44 43.22 37.07 36.89 33.56 40.89 35.63 39.21 43.29 46.72 50.42 46.08 46.91 50.89 51.72 51.78 53.75 58.65 59.19 58.23 59.21 60.20
51.68 51.96 51.80 51.67 51.83 51.73 51.72 51.86 51.84 51.84 51.90 51.50 51.71 51.53 51.53 51.32 50.94 50.32 42.54 45.86 45.05 41.42 34.63 35.63 42.64 39.77 44.39 42.95 43.66 43.48 41.59 43.32 42.70 42.44 35.89 33.96 34.13 43.04 39.88 41.89 43.80 46.80 49.01 48.17 48.04 50.62 52.53 52.09 52.67 55.86 57.75 58.00 57.41 57.22
51.19 51.53 51.65 51.55 51.46 51.66 51.76 51.66 51.66 51.84 51.93 51.82 51.69 52.03 52.13 51.67 51.53 48.08 45.17 45.20 47.25 41.36 35.30 36.56 40.99 42.12 43.14 45.20 43.50 43.84 42.23 40.51 38.32 37.00 36.84 36.63 42.06 41.94 44.98 44.88 44.94 48.34 47.59 45.68 46.94 51.25 48.40 50.90 53.62 57.80 55.22 55.12 55.58 55.70
50.92 51.12 51.16 51.26 51.19 51.33 51.49 51.47 51.57 51.55 51.51 51.72 51.84 51.70 51.87 51.89 51.72 42.81 40.11 47.46 48.95 46.98 39.37 34.17 38.48 40.26 43.33 46.21 44.77 42.62 42.56 41.38 40.73 38.60 39.02 42.19 45.92 43.92 39.81 40.98 46.55 49.30 51.07 51.44 51.66 53.31 52.25 54.05 53.98 54.36 53.86 55.01 56.13 55.44
50.99 51.08 51.10 51.18 51.15 51.27 51.22 51.41 51.75 51.79 51.64 51.68 51.79 51.75 51.98 51.70 48.60 42.10 40.02 45.13 48.98 46.66 38.73 35.48 34.86 39.77 46.25 45.49 43.95 41.61 43.59 40.94 42.11 41.80 41.34 42.52 43.41 44.98 43.20 39.84 46.36 50.66 54.29 53.94 55.07 54.73 52.22 53.24 52.07 54.19 53.92 54.60 56.24 56.89
50.84 50.84 50.85 50.93 51.13 51.31 51.18 51.50 51.82 51.93 51.98 51.75 51.68 51.73 51.78 51.57 50.60 46.22 47.58 49.01 48.72 43.17 42.15 34.96 34.56 38.27 47.87 43.54 42.41 45.45 41.27 44.78 44.25 43.06 43.72 42.55 44.18 44.94 40.80 45.42 49.01 52.23 52.57 53.47 54.17 54.67 54.32 54.59 53.93 54.02 54.71 54.31 53.42 53.80
50.74 50.82 50.73 50.77 50.91 50.94 51.22 51.33 51.58 51.92 51.81 51.80 52.04 52.07 49.28 47.18 44.44 46.09 51.33 50.07 48.91 43.89 37.28 36.92 34.67 33.73 45.34 44.76 45.71 45.85 45.34 40.43 45.73 41.67 42.56 43.01 42.09 40.39 45.42 47.29 48.84 50.59 50.41 50.33 51.52 51.53 51.88 51.17 51.35 52.67 53.60 53.46 52.11 51.65
50.49 50.51 50.49 50.57 50.73 50.75 50.79 51.13 51.62 51.68 51.31 51.96 48.46 44.89 41.58 46.26 52.86 51.79 47.16 42.53 41.33 41.69 40.32 33.57 38.52 35.65 40.96 44.66 42.95 42.84 45.03 41.06 37.78 39.94 43.75 39.93 40.42 45.64 47.95 49.80 50.90 51.27 51.46 51.95 48.81 47.92 49.08 49.24 49.55 50.31 51.21 53.67 54.53 54.50
50.50 50.56 50.52 50.66 50.60 50.78 50.78 51.05 51.52 51.53 50.76 45.32 41.60 40.63 45.46 52.98 48.25 45.06 39.14 35.27 36.90 34.66 36.34 34.90 37.58 37.27 45.49 40.95 39.58 44.86 40.24 39.24 33.25 38.26 38.88 37.00 38.61 44.27 48.28 49.13 50.79 52.16 52.40 52.37 52.46 52.15 50.88 50.43 50.81 51.64 52.60 53.97 54.99 55.44
50.51 50.53 50.47 50.42 50.58 50.68 50.85 51.09 51.27 47.21 45.40 45.38 45.66 47.05 45.39 44.61 43.79 41.65 38.41 36.02 33.06 34.19 41.51 41.09 42.28 42.01 45.23 47.84 42.02 42.67 37.32 37.91 36.11 44.78 37.84 34.11 41.50 46.17 47.68 48.38 49.51 50.69 51.81 52.16 52.92 52.70 53.86 54.42 53.70 53.89 54.49 54.49 55.24 56.38
50.18 50.21 50.10 50.28 50.40 50.68 50.91 51.34 51.33 51.08 50.07 47.09 44.22 44.69 41.86 40.40 36.93 38.21 35.02 37.14 39.45 43.41 44.91 45.72 44.95 45.61 46.43 45.57 42.72 42.83 39.29 39.62 45.75 36.63 32.85 37.37 44.31 46.84 48.51 50.34 50.49 51.77 52.28 52.54 52.97 54.18 54.46 54.94 55.38 54.71 54.26 54.61 55.49 55.64
50.09 50.04 50.12 50.10 50.27 50.82 51.42 51.41 51.47 50.04 46.91 43.35 40.96 35.17 38.50 38.13 40.40 41.32 42.34 43.43 46.33 46.41 47.14 47.39 45.73 45.79 46.42 44.49 45.09 40.76 41.61 41.80 36.55 33.74 37.21 45.08 47.97 49.13 50.05 51.52 51.38 51.42 52.63 52.68 53.28 53.97 53.80 53.75 54.14 54.43 54.89 55.50 55.06 54.79
50.18 50.13 50.08 50.10 51.51 51.66 51.33 50.94 51.26 48.38 46.52 42.67 41.14 32.80 38.09 43.01 44.99 46.68 48.21 47.12 48.42 48.21 46.97 46.32 45.86 44.40 42.97 41.88 41.62 41.26 37.98 33.92 34.60 35.52 43.04 47.25 49.25 49.58 49.71 50.50 50.43 49.86 49.80 49.82 51.40 52.07 52.35 52.79 53.01 53.98 55.03 55.45 56.38 55.10
50.48 49.84 49.61 51.41 51.34 50.92 50.39 50.74 50.89 49.58 47.96 45.35 44.38 42.15 44.89 43.36 43.86 46.44 47.13 46.42 49.23 48.35 46.56 45.03 42.67 41.39 40.65 40.14 38.10 36.26 35.64 34.16 39.68 44.21 46.91 48.72 49.20 49.23 50.05 51.12 50.99 50.73 50.40 50.46 50.21 49.53 50.28 50.71 49.47 49.53 51.47 52.24 54.00 53.48
50.01 46.08 50.72 51.09 50.69 50.23 51.38 49.06 50.06 48.04 44.36 44.49 42.07 46.06 44.43 44.82 44.07 45.95 46.65 46.77 49.84 47.15 42.93 42.82 40.55 40.17 43.44 40.17 39.68 40.65 38.40 41.97 44.97 46.51 47.81 48.27 49.00 49.82 50.94 50.34 51.27 50.13 50.24 47.67 47.52 47.30 46.28 46.92 47.24 46.80 46.03 49.31 50.38 52.23
46.35 48.76 50.83 50.37 49.77 49.56 49.63 50.08 47.51 46.42 44.29 44.17 40.83 44.47 45.51 46.11 45.09 45.72 46.91 47.41 46.35 44.43 44.80 42.34 45.32 40.82 39.86 37.06 39.06 43.57 45.84 47.70 48.59 48.71 48.60 49.27 49.93 50.55 51.55 50.32 49.52 48.37 47.15 46.05 45.36 45.37 45.41 44.97 44.75 44.72 45.47 46.56 48.36 47.59
47.27 48.34 49.93 50.47 49.65 47.14 47.39 47.45 47.53 42.70 43.78 44.64 44.62 45.36 45.41 45.77 46.69 48.30 47.98 48.15 47.61 46.58 43.62 43.15 40.23 38.72 39.54 43.40 44.59 46.19 47.03 46.41 46.96 48.18 49.82 50.38 48.91 49.66 48.39 48.75 48.21 44.83 44.25 43.54 43.85 42.59 42.35 41.35 41.25 43.21 44.52 43.19 42.50 44.70
50.34 51.12 51.95 52.34 51.46 47.01 46.44 44.50 48.52 43.53 42.61 45.08 45.66 45.07 45.01 44.64 46.11 47.22 47.44 47.00 45.15 43.01 40.69 38.59 39.78 42.93 40.99 39.55 40.62 44.54 46.67 48.31 43.22 42.24 43.48 46.68 48.59 46.91 46.51 46.29 44.41 42.83 43.27 41.97 41.82 42.12 42.22 42.41 42.73 42.90 42.95 43.39 43.42 42.23
51.08 52.15 53.07 52.03 50.13 48.46 45.95 43.85 44.02 45.00 45.16 43.98 45.17 44.76 44.18 44.89 44.47 44.46 44.66 44.69 43.34 42.38 40.35 40.81 39.49 40.50 42.54 42.22 42.46 42.88 42.36 43.42 40.99 41.72 40.44 41.47 44.36 44.06 45.37 45.69 45.10 44.03 42.83 40.97 40.28 40.45 41.16 40.51 40.72 43.19 42.72 43.17 43.62 43.29
50.76 53.40 50.83 53.62 49.44 49.00 46.31 48.19 45.22 46.29 44.60 44.30 44.04 44.57 42.84 42.04 41.89 42.36 43.59 42.30 41.96 44.90 46.59 45.53 43.94 42.16 41.84 40.90 40.67 41.02 40.68 42.28 42.21 42.79 43.10 42.90 42.38 41.36 41.20 42.28 42.80 41.00 41.25 40.41 40.17 40.16 41.34 42.21 42.62 43.23 43.30 42.12 43.73 42.70
51.29 51.04 50.29 51.47 47.27 41.31 42.62 49.22 45.53 45.53 42.41 43.32 45.03 44.14 44.39 44.51 43.99 46.19 40.68 42.19 43.64 45.42 45.60 44.45 43.92 44.06 42.94 42.90 41.26 40.79 40.43 40.81 40.53 40.62 40.90 40.51 40.83 40.83 40.61 40.78 41.57 41.75 40.10 40.48 40.93 40.74 39.38 39.51 39.84 39.95 40.08 39.97 39.33 40.37
51.55 48.15 47.06 46.41 46.22 40.88 48.74 45.27 47.61 47.65 47.20 45.55 42.91 41.13 42.80 44.07 47.12 43.13 39.57 41.51 44.02 46.21 44.19 43.90 43.79 42.87 41.79 40.11 38.05 39.16 40.12 39.63 39.07 39.57 40.35 40.11 39.14 38.07 38.38 38.26 38.95 39.59 38.21 38.19 39.01 38.56 37.94 37.49 37.75 37.63 38.06 38.30 38.72 37.89
42.48 42.50 45.67 37.36 47.10 45.26 46.14 45.92 46.45 43.92 41.94 44.26 42.51 41.07 40.01 42.18 42.72 41.33 38.54 39.24 41.94 42.35 42.75 43.26 42.87 44.39 38.61 36.97 36.57 37.36 37.88 37.24 36.26 36.36 38.50 38.39 37.30 38.02 36.62 36.21 36.12 37.08 37.13 36.84 36.14 36.14 35.22 35.77 36.11 36.25 36.91 37.58 36.93 36.77
40.20 48.14 43.11 46.04 44.01 43.33 43.36 42.90 43.33 44.98 43.81 42.85 43.33 42.86 42.73 41.11 38.47 36.15 37.29 39.76 40.91 42.00 42.29 41.90 41.03 40.33 37.26 36.38 34.44 34.39 34.14 35.27 36.48 34.85 34.21 36.09 35.97 34.43 33.05 32.44 32.68 34.80 36.58 35.63 35.60 35.35 35.36 35.55 35.81 36.32 36.27 35.88 36.22 35.83
40.18 43.21 45.51 47.50 46.46 45.81 45.07 46.02 46.98 42.93 41.72 42.02 44.38 42.57 40.96 38.58 36.09 38.27 41.75 43.49 44.28 46.45 47.47 46.19 43.08 37.25 36.56 35.62 35.91 35.60 35.35 36.78 34.17 32.56 33.97 34.75 35.42 35.80 34.21 32.79 31.93 33.15 35.94 37.20 36.46 35.69 34.93 35.02 34.90 34.99 34.36 34.19 34.36 34.56
45.58 46.50 44.73 46.85 47.85 48.33 44.65 43.24 42.61 40.26 40.60 42.55 42.72 39.43 38.47 38.46 36.68 41.32 43.10 47.20 48.00 46.31 45.50 41.53 39.89 39.19 37.39 36.16 35.90 35.31 34.40 34.39 34.68 33.67 33.33 33.46 34.00 34.42 34.58 34.76 35.29 37.48 35.69 35.83 35.66 35.53 35.11 34.53 34.36 34.55 34.33 32.93 32.44 33.72
46.54 49.11 49.16 45.60 47.42 46.12 44.80 43.25 41.96 42.06 42.85 41.86 40.29 38.64 38.82 42.07 43.77 44.03 44.85 45.77 43.24 41.74 38.61 37.20 36.37 37.30 36.69 37.30 37.26 35.27 33.73 32.39 31.09 29.14 28.37 27.50 28.75 30.76 34.17 34.96 34.43 35.59 34.68 35.22 37.14 37.43 37.27 35.28 34.68 34.11 34.22 32.87 32.59 32.78
49.72 50.19 46.69 47.39 45.15 43.53 44.80 45.38 43.78 44.52 43.64 43.38 43.62 42.82 42.75 43.35 45.39 46.91 43.51 41.10 39.16 37.23 37.13 37.34 36.30 35.86 34.06 33.51 32.66 32.04 32.65 32.34 31.42 29.45 27.29 27.14 28.38 31.37 32.86 33.13 33.31 34.18 33.84 34.44 33.83 33.67 36.47 34.87 34.37 33.23 33.25 32.02 31.18 30.93
51.45 49.86 48.44 47.15 45.50 46.18 46.97 47.34 46.94 46.27 44.99 43.68 44.38 44.20 43.60 43.40 45.19 46.07 42.43 40.62 39.15 38.15 37.33 36.14 35.65 35.62 34.66 33.74 32.76 30.98 29.26 31.51 32.43 32.44 31.81 31.10 31.22 31.91 32.59 32.89 32.88 33.19 33.16 33.92 33.05 32.68 32.61 32.13 31.65 31.75 32.06 31.91 32.37 32.19
48.07 46.49 45.28 46.05 45.75 48.40 49.12 46.52 45.36 44.97 45.39 43.95 43.41 44.55 44.02 43.72 41.91 44.16 42.96 40.77 38.56 36.62 38.92 37.14 35.07 34.29 34.88 35.00 35.34 34.63 35.71 33.03 32.76 32.89 32.06 31.97 31.98 32.38 32.34 32.43 32.61 33.76 33.93 33.86 33.93 33.24 33.19 32.24 31.62 31.92 31.60 32.37 32.50 33.18
47.41 48.18 47.69 47.14 47.24 47.77 48.88 47.78 47.93 44.74 44.43 44.17 45.07 46.08 46.06 43.73 38.31 41.00 42.47 41.51 38.95 37.39 36.94 37.14 37.47 37.17 36.61 36.33 36.41 35.73 36.16 34.21 34.84 35.39 35.07 34.75 34.08 32.72 30.87 31.88 32.88 33.68 34.01 33.29 33.80 33.95 33.57 33.08 31.99 32.49 32.55 32.54 32.80 32.98

GFSWCAN_sfc_wetblb_027.txt.gz
Wetbulb
52.23 52.28 52.38 52.27 52.48 52.60 52.27 52.17 52.20 51.76 51.58 51.46 51.58 51.78 51.70 51.49 51.34 46.91 43.21 45.05 42.91 38.98 38.62 39.90 40.06 37.08 36.75 35.79 31.75 32.31 32.69 32.87 31.10 30.64 30.68 31.94 29.65 32.54 30.64 35.56 34.68 36.40 37.12 35.36 36.11 35.73 32.48 52.19 52.20 48.48 51.47 56.23 55.81 55.00
51.99 51.87 51.99 52.19 52.13 52.05 52.21 52.34 52.42 52.46 51.97 51.75 51.83 51.87 51.67 51.48 51.37 50.07 42.06 47.02 47.54 41.81 39.75 41.85 42.35 42.32 40.91 40.09 36.66 36.51 33.19 33.57 34.52 32.08 33.45 33.60 32.82 34.59 31.44 30.37 39.16 34.89 40.67 39.13 40.77 41.15 48.57 51.40 53.55 54.05 54.79 55.87 58.02 57.47
51.29 51.49 51.64 51.82 51.76 51.76 51.96 52.21 52.23 52.39 52.41 52.16 51.73 51.79 52.08 52.18 51.64 50.18 45.90 43.41 43.86 40.43 39.67 38.92 37.52 42.18 43.52 43.42 44.51 36.27 37.58 38.09 37.03 42.02 38.13 36.65 33.51 36.43 32.51 34.12 36.35 41.18 45.48 42.73 45.47 48.71 51.31 53.73 54.92 55.03 56.61 54.98 55.74 57.96
51.02 51.24 51.39 51.46 51.54 51.63 51.76 52.00 51.98 52.00 52.16 52.45 52.18 51.89 51.93 52.02 52.29 51.16 44.38 43.25 43.67 41.07 34.34 34.62 42.03 38.03 42.16 41.92 42.16 42.48 40.83 39.64 43.51 42.51 37.75 34.76 33.84 39.09 35.00 37.74 38.42 42.14 44.92 43.31 45.87 49.99 52.06 54.39 53.53 55.17 55.73 55.79 56.27 56.63
50.91 51.16 51.23 51.26 51.29 51.51 51.88 51.78 51.75 51.90 52.15 52.56 52.75 52.43 52.02 51.95 52.04 50.51 45.97 45.63 45.75 40.05 35.12 36.23 40.50 41.54 42.31 41.61 40.86 41.10 40.18 38.74 38.32 37.47 36.83 35.08 38.66 37.74 37.54 37.54 39.84 45.53 43.81 43.01 43.38 50.24 49.88 50.86 53.15 55.01 54.70 54.48 54.99 55.27
50.86 50.89 50.93 51.15 51.19 51.24 51.51 51.67 51.65 51.88 52.13 52.40 52.77 52.75 52.09 51.84 51.76 45.46 39.10 44.56 46.46 46.22 38.75 33.89 37.65 39.12 41.96 42.03 43.43 39.97 39.53 38.18 38.45 37.26 37.35 40.05 42.25 39.53 36.02 33.33 41.46 47.10 49.99 50.12 49.63 52.00 52.82 53.69 54.27 54.83 54.86 55.68 56.14 56.02
50.85 50.79 50.82 51.00 51.08 51.29 51.28 51.26 51.59 51.82 51.91 52.23 52.30 52.51 52.20 51.88 49.82 42.30 39.89 45.33 49.06 47.43 38.67 34.89 35.49 39.84 42.91 44.30 43.38 41.87 40.44 37.72 38.75 38.85 38.84 38.75 39.45 40.85 34.95 36.57 43.04 46.22 50.88 52.23 53.48 53.19 51.43 53.19 52.56 54.17 54.81 55.61 56.19 56.29
50.64 50.76 50.68 50.80 51.08 51.27 51.36 51.35 51.50 51.57 51.98 52.02 52.12 52.40 52.14 51.58 50.64 46.69 48.93 49.20 48.83 43.63 41.10 34.55 34.14 37.12 46.76 42.91 41.33 45.79 38.24 41.20 40.53 41.19 41.82 40.67 43.20 42.97 36.74 43.02 48.53 50.19 52.37 53.88 54.11 54.62 53.81 54.28 53.99 52.98 54.02 54.52 53.24 53.84
50.61 50.80 50.80 50.75 50.85 51.03 51.18 51.23 51.36 51.59 51.86 51.90 52.26 51.95 49.31 47.66 44.51 45.32 51.09 50.21 48.73 43.14 35.26 35.56 33.48 34.48 43.48 42.91 44.57 44.36 44.80 39.36 43.63 40.76 41.88 42.09 38.57 34.19 42.36 46.76 48.15 50.29 50.69 50.54 51.97 52.22 52.33 51.25 50.62 52.05 52.42 52.25 51.71 51.60
50.65 50.49 50.54 50.67 50.79 50.91 50.83 51.04 51.37 51.76 51.64 51.52 46.95 43.37 41.11 44.49 51.64 51.89 46.89 42.39 41.50 41.98 38.19 32.77 37.84 35.26 40.66 43.40 42.76 42.17 43.95 39.95 37.13 40.31 43.50 38.13 39.72 45.20 47.63 48.82 50.30 50.75 51.14 51.68 48.68 48.33 49.41 48.73 49.09 51.28 52.33 53.81 53.26 52.61
50.47 50.39 50.39 50.54 50.68 50.63 50.80 51.00 51.38 51.57 49.23 43.91 41.02 39.43 44.51 51.94 48.24 45.20 38.51 34.28 34.69 32.41 33.48 34.49 34.93 35.70 44.03 39.08 39.03 44.00 38.79 38.28 32.61 37.41 38.62 36.50 35.77 43.87 48.43 48.98 50.55 51.77 51.84 51.90 51.41 51.18 51.10 50.38 50.38 50.65 51.51 53.12 54.17 54.70
50.21 50.34 50.32 50.34 50.50 50.56 50.70 50.88 51.29 48.18 43.93 45.04 46.19 48.26 45.37 42.38 43.10 41.27 39.03 36.98 33.81 34.16 39.94 37.89 39.43 40.13 43.25 46.62 41.26 41.31 35.68 37.21 34.19 43.55 37.55 32.94 37.54 44.95 47.91 49.28 51.09 51.85 52.14 52.76 53.38 53.38 54.30 54.55 54.25 54.25 53.67 53.69 54.49 55.29
50.30 50.32 50.46 50.41 50.57 50.69 51.03 51.37 51.55 51.21 49.61 46.17 42.69 42.82 39.02 39.37 38.34 38.17 34.39 39.97 40.70 44.10 44.84 45.36 44.43 45.09 44.97 44.98 41.89 41.97 39.02 37.78 43.42 35.39 32.26 39.03 44.41 47.95 49.30 50.55 51.20 53.06 53.14 53.24 53.66 54.19 54.78 55.08 55.61 55.06 54.74 55.56 55.83 55.96
50.34 50.46 50.51 50.52 50.42 51.02 51.61 51.35 51.40 49.56 46.41 42.89 39.66 36.50 39.93 38.44 41.22 41.71 42.77 43.82 46.02 46.57 45.41 46.17 44.14 45.32 46.08 43.02 44.01 39.32 40.90 40.76 35.39 32.61 36.56 44.19 46.92 48.69 50.14 50.76 50.71 50.03 51.69 52.45 52.98 52.91 53.29 53.88 54.37 54.80 55.00 54.71 54.34 54.02
50.52 50.66 50.44 49.99 51.24 51.25 51.03 50.94 51.51 47.41 46.37 41.45 43.29 35.23 39.12 43.26 44.02 45.60 45.93 45.96 47.25 47.91 45.29 45.07 44.67 43.67 41.00 40.14 40.91 40.19 37.41 33.32 34.91 36.50 42.63 46.40 48.22 49.31 49.34 49.43 47.70 46.54 45.93 46.00 46.59 46.49 47.32 48.18 50.23 51.49 51.99 51.53 53.13 53.19
50.75 49.76 48.44 50.52 51.12 50.81 50.54 49.97 49.95 48.64 45.85 44.73 43.79 41.90 43.28 42.31 42.60 43.56 43.28 43.18 47.78 47.59 45.20 44.31 42.07 40.33 40.58 40.94 39.08 36.83 34.43 34.07 40.17 44.10 46.76 48.19 48.61 49.46 48.13 47.74 45.80 45.36 44.74 43.99 44.55 45.17 45.33 45.93 46.95 48.12 49.10 49.57 49.10 49.40
49.99 44.93 49.87 50.64 50.38 50.51 50.45 48.75 47.98 46.53 45.72 44.98 43.70 44.32 42.29 42.83 41.41 42.45 43.49 43.21 46.85 45.87 42.02 42.94 39.88 39.49 42.07 38.58 38.09 41.45 39.77 42.66 45.27 46.51 47.76 48.06 48.56 48.72 48.18 46.83 46.10 43.88 43.29 43.84 44.50 44.72 44.40 45.24 45.79 45.16 44.37 46.08 47.15 47.91
44.70 46.75 49.92 50.27 50.02 48.00 48.64 48.48 46.38 46.72 44.45 44.64 41.36 43.32 43.27 43.90 43.26 43.96 44.69 44.95 42.44 40.44 42.58 41.65 43.22 38.24 36.96 37.12 38.20 42.34 44.60 46.12 46.57 46.89 46.20 46.46 46.13 45.67 45.62 44.75 44.43 43.80 41.87 41.59 42.73 43.13 43.34 43.18 42.34 41.82 42.89 45.25 46.02 46.65
46.91 48.41 50.08 50.80 49.67 46.28 46.96 46.71 47.18 43.63 41.61 42.79 43.85 43.34 42.61 43.44 45.21 45.82 45.80 45.63 44.86 42.87 39.69 37.56 36.92 35.91 36.45 40.41 40.13 40.67 41.77 42.67 43.04 43.89 42.86 42.57 44.33 44.96 44.29 43.12 42.27 41.41 40.67 39.70 39.82 39.90 41.27 40.35 39.64 41.05 42.15 43.71 42.72 43.16
50.36 51.33 52.07 52.35 50.67 46.25 43.94 43.01 45.57 42.08 40.38 42.68 43.87 43.06 42.56 42.01 42.99 44.76 44.90 44.46 42.04 38.67 37.40 36.16 38.52 40.21 39.34 37.79 37.33 37.22 38.05 39.33 38.38 39.08 39.66 40.22 41.60 41.89 40.71 40.57 39.61 39.40 40.72 40.98 41.05 41.36 41.58 41.92 42.43 41.61 42.09 41.44 40.96 40.18
49.71 51.58 52.48 50.75 49.49 47.83 44.41 42.49 42.56 42.78 42.56 42.37 43.64 42.92 42.16 42.75 42.25 42.52 42.30 43.75 42.19 40.61 39.27 39.25 37.78 38.18 40.69 39.09 36.73 37.77 38.70 37.93 35.85 35.54 36.11 36.96 39.46 40.06 40.06 40.26 40.46 40.31 39.16 38.53 37.55 37.35 38.11 37.33 38.39 40.58 41.51 41.36 41.04 40.60
47.88 52.04 48.95 51.47 48.25 46.93 44.82 45.41 43.71 44.08 43.26 42.66 43.52 45.06 41.85 41.65 40.39 40.71 40.84 38.94 40.96 42.93 43.29 42.36 40.55 40.42 37.16 36.85 36.61 36.00 35.90 37.61 37.93 39.70 40.21 39.36 37.73 37.90 37.68 38.32 38.36 37.56 37.45 36.73 36.03 34.81 35.07 35.72 36.45 36.84 37.00 37.32 40.94 40.27
49.91 49.81 49.18 49.57 45.76 41.09 42.27 47.57 44.87 45.37 43.43 43.65 43.31 41.03 41.30 43.18 42.46 42.91 38.26 40.94 43.16 45.39 44.21 43.92 44.28 41.37 36.92 36.74 37.71 37.07 36.42 36.48 36.55 36.77 37.31 35.95 35.60 35.61 36.06 36.45 37.41 36.58 36.20 36.04 35.60 35.73 34.82 36.12 35.89 35.44 36.14 37.37 38.12 38.00
50.47 47.02 45.74 44.63 44.59 40.42 46.89 44.11 45.09 44.25 44.32 43.32 40.06 36.15 38.46 42.53 46.84 42.36 35.50 37.25 39.95 41.32 41.18 40.70 39.48 36.83 35.08 34.42 32.88 32.62 33.68 33.48 33.76 34.80 34.62 34.13 33.34 32.85 32.71 32.96 33.46 34.18 34.10 34.28 33.89 33.35 33.56 34.07 35.39 35.58 36.26 35.62 34.95 34.43
41.62 41.86 43.24 36.79 43.40 42.46 43.15 42.99 42.80 42.15 40.51 41.35 39.67 38.65 38.04 42.84 41.98 36.72 33.87 37.00 39.35 40.17 40.61 39.83 37.34 35.51 32.99 31.63 31.34 31.68 32.64 31.97 31.24 31.93 32.13 32.12 32.23 32.21 32.18 32.45 32.39 32.36 33.11 33.17 32.57 32.68 32.41 33.42 34.28 34.61 34.64 34.20 33.77 33.30
37.63 44.27 40.76 43.18 42.12 41.43 41.04 40.96 41.62 41.96 41.27 41.55 40.81 40.54 40.59 38.16 36.22 33.73 35.52 38.25 39.48 40.73 42.18 42.60 35.83 33.22 32.16 31.53 30.39 30.29 30.91 31.22 30.98 31.13 30.68 30.71 31.20 30.58 29.53 29.28 29.27 31.08 32.99 32.50 32.37 33.05 33.39 33.55 33.63 33.41 32.84 33.44 34.82 33.55
37.48 41.11 43.18 45.63 44.15 43.70 42.71 43.27 43.49 39.79 39.06 38.97 39.99 40.12 38.44 34.99 33.09 36.47 40.14 42.19 43.79 45.27 42.03 41.19 35.83 34.31 32.58 31.13 31.39 31.60 30.89 30.31 30.59 30.77 30.38 30.40 30.85 30.59 30.37 29.57 29.16 30.73 32.30 34.42 33.49 33.65 33.18 32.91 32.87 32.41 31.60 31.55 31.90 32.44
43.54 44.26 42.63 44.28 44.38 45.43 42.70 40.71 39.98 38.17 38.62 39.81 40.24 37.24 36.21 35.84 34.53 39.35 41.34 43.15 43.62 42.25 35.82 34.76 34.11 33.83 33.09 32.40 31.86 31.29 30.63 30.21 30.83 30.58 30.29 30.77 30.64 30.88 31.37 31.75 32.39 35.91 33.26 33.99 33.68 33.75 33.17 32.88 32.81 32.61 32.01 30.87 30.51 31.59
44.23 45.84 46.70 43.29 45.50 45.62 43.77 41.63 40.35 40.48 41.07 40.43 38.88 37.30 37.76 40.09 41.87 42.20 42.56 41.97 35.87 35.96 34.22 33.55 32.25 32.78 32.36 31.29 30.81 29.77 29.34 28.99 28.72 26.95 26.10 25.39 26.80 28.97 30.59 31.14 31.54 32.05 31.70 32.12 35.60 35.59 34.73 33.47 32.69 31.99 32.03 30.84 30.36 30.89
46.73 48.57 44.53 45.01 43.66 41.80 44.16 43.60 42.21 42.23 41.42 41.92 41.69 41.13 41.13 41.81 43.55 44.17 39.76 36.41 35.62 34.78 34.49 33.74 32.67 31.85 30.14 29.37 28.73 29.00 29.54 28.74 28.43 27.88 26.16 25.88 27.18 28.81 29.77 30.85 30.92 30.89 30.52 31.37 31.24 31.51 35.18 33.15 33.09 32.06 31.77 30.84 30.39 30.81
48.20 46.76 46.11 45.83 43.88 44.45 45.14 44.76 44.26 43.75 43.33 42.01 42.54 40.94 40.36 41.53 43.18 42.53 37.25 35.73 35.09 34.70 34.21 32.93 32.08 31.50 31.07 29.97 28.89 28.19 27.61 29.95 29.55 30.02 29.61 28.95 28.70 29.41 30.20 30.57 30.48 30.78 31.19 31.45 30.99 30.99 30.94 30.84 30.68 31.07 31.43 31.37 31.99 32.23
46.31 46.52 44.99 43.50 42.97 45.17 45.63 43.58 43.03 43.50 42.95 41.57 41.26 42.66 42.24 41.82 40.17 42.23 39.01 35.92 34.99 34.14 35.80 34.14 32.43 32.17 32.50 32.62 32.58 32.00 34.12 31.23 30.94 31.44 31.32 30.41 30.17 30.25 29.80 29.80 30.21 31.55 31.75 32.25 32.01 31.65 32.17 31.96 31.75 31.49 30.69 31.31 31.48 31.70
43.97 44.22 43.89 45.30 44.07 43.53 44.77 44.72 43.80 43.30 42.29 41.68 42.40 43.14 43.20 41.87 39.23 39.61 39.21 37.57 36.14 35.12 34.48 34.37 34.05 33.62 33.83 33.85 33.62 32.84 33.80 32.14 33.09 34.53 34.70 34.57 33.93 32.24 29.90 29.67 30.67 31.70 31.60 31.67 32.69 32.97 32.78 32.48 31.77 31.95 31.68 31.32 31.13 31.21

GFSWCAN_sfc_wetblb_030.txt.gz
Wetbulb
51.83 51.83 51.82 51.93 52.20 52.28 52.28 52.38 52.52 52.34 52.15 52.19 52.18 52.16 52.38 52.46 52.11 48.15 44.59 43.37 42.89 38.65 38.85 40.30 40.45 36.90 36.91 35.66 31.23 32.75 31.03 31.79 31.68 29.07 28.51 27.49 29.67 30.47 28.87 30.84 30.40 29.41 29.55 29.21 30.36 30.34 29.05 49.36 50.05 47.58 49.33 53.50 54.94 55.17
51.52 51.37 51.60 51.84 52.01 52.08 52.24 52.11 52.20 52.38 52.69 52.73 52.52 52.55 52.46 52.36 52.17 51.31 43.81 45.31 46.87 41.29 39.38 42.14 42.02 42.73 41.37 40.07 36.76 36.79 35.39 32.30 36.86 32.06 33.02 32.66 30.42 32.67 30.25 27.26 35.84 30.46 35.96 34.67 34.17 34.12 43.08 50.75 51.33 53.23 53.95 54.63 55.29 55.19
51.25 51.08 51.43 51.62 51.60 51.70 51.83 52.09 52.24 52.25 52.40 52.63 52.50 52.63 53.23 52.67 52.47 51.53 46.04 46.20 44.15 40.51 36.42 36.06 36.86 41.60 43.25 43.08 43.77 35.37 37.33 38.46 37.82 37.39 33.23 33.83 32.58 35.27 27.20 30.46 34.70 37.64 40.12 38.28 39.94 43.20 47.02 50.81 53.19 53.95 55.63 55.23 55.73 56.38
51.05 51.26 51.48 51.52 51.50 51.48 51.78 51.84 51.99 52.13 52.22 52.67 52.69 52.63 53.16 53.12 52.79 52.31 46.54 46.36 44.52 40.61 33.65 33.42 41.05 37.97 41.12 41.32 41.74 41.91 40.48 40.13 41.08 41.73 37.40 35.22 32.87 37.62 32.78 34.54 34.32 36.48 37.65 36.94 39.02 44.18 49.75 52.04 52.13 52.82 55.43 56.22 55.85 56.21
50.75 51.05 51.13 51.05 51.23 51.44 51.81 51.81 51.97 51.99 52.30 52.43 52.72 52.75 53.04 53.00 52.87 51.30 48.90 46.60 46.96 39.41 33.62 35.55 39.91 40.57 40.67 38.72 40.26 41.15 39.94 38.06 37.00 37.05 36.52 35.63 38.22 36.97 37.31 36.37 33.83 37.30 35.66 34.83 35.83 44.34 47.78 49.23 52.23 53.97 55.22 55.38 56.30 56.07
50.48 50.56 50.76 50.97 51.22 51.45 51.75 51.77 51.90 52.02 52.14 52.37 52.68 52.76 52.80 52.91 52.32 46.65 40.68 44.91 47.30 46.04 38.51 33.76 37.93 40.34 43.06 41.38 38.85 37.82 38.72 38.27 37.90 36.60 36.44 39.35 42.27 37.29 32.79 33.05 38.93 41.75 43.28 44.75 43.62 49.22 50.85 52.72 54.34 55.32 55.41 55.38 55.80 56.27
50.68 50.79 50.84 51.02 51.20 51.39 51.39 51.51 51.61 51.57 51.67 52.07 52.10 52.29 52.34 52.35 49.62 43.29 40.56 45.68 47.75 46.96 38.74 34.40 35.44 39.23 41.60 40.31 41.89 39.38 39.81 38.32 38.18 37.58 36.92 37.11 37.73 39.28 33.00 31.62 38.56 41.31 42.23 45.25 50.00 51.30 51.71 53.14 52.13 54.14 54.96 56.71 57.33 57.60
50.76 50.76 50.90 51.04 51.20 51.22 51.33 51.31 51.37 51.37 51.74 52.11 51.63 52.28 52.46 52.02 50.27 46.65 48.28 49.62 48.76 43.25 40.10 33.85 34.48 35.89 41.63 39.38 38.57 40.63 36.43 37.95 40.03 38.79 41.43 39.53 40.48 38.44 31.72 36.88 40.16 42.97 41.74 44.42 49.95 53.64 53.50 54.01 53.28 53.22 54.56 54.50 54.76 55.27
50.69 50.59 50.65 50.76 50.86 51.11 51.13 51.27 51.37 51.48 51.81 52.04 51.88 52.14 49.11 47.71 45.58 45.69 51.30 51.12 48.60 41.92 34.59 34.95 33.14 32.20 41.07 40.34 42.07 42.79 44.23 39.16 43.67 39.82 40.80 40.73 36.52 32.62 37.88 42.72 46.20 46.62 43.30 44.39 52.65 52.79 52.71 52.43 52.62 52.95 53.24 52.93 52.02 52.51
50.23 50.40 50.50 50.65 50.78 51.00 50.96 51.24 51.45 51.78 51.74 51.22 45.37 41.48 40.60 45.09 51.91 50.48 46.40 41.51 40.63 40.81 37.57 32.26 37.11 34.71 39.66 42.56 42.53 42.06 43.34 39.84 35.96 39.59 43.06 37.69 35.61 42.82 46.13 48.36 49.01 50.81 51.88 51.57 49.25 49.40 51.06 51.12 51.74 52.28 52.81 53.89 53.79 53.32
50.23 50.40 50.65 50.67 50.94 51.01 51.09 51.11 51.38 51.44 48.97 43.46 40.68 38.62 44.91 49.92 48.82 45.42 37.73 35.22 33.70 32.28 33.18 34.43 35.94 35.63 43.11 38.31 39.67 42.79 38.10 37.01 31.91 37.10 37.72 35.04 35.19 42.35 48.38 49.53 51.47 52.59 52.30 51.85 51.97 52.65 51.94 52.14 51.91 52.67 52.83 53.83 54.36 54.35
50.50 50.60 50.19 50.65 50.93 50.94 51.22 51.26 51.43 49.62 44.41 46.18 46.83 48.65 46.75 43.78 43.57 40.78 38.59 37.06 35.13 34.87 38.00 37.24 38.94 38.02 41.12 45.67 40.49 41.05 34.64 35.83 33.20 41.95 36.08 32.28 42.06 46.48 48.58 49.46 51.56 53.03 53.34 53.55 54.13 53.98 54.31 54.46 54.30 53.95 53.80 53.89 54.42 55.43
49.83 50.15 50.38 50.73 50.90 51.20 51.38 51.37 51.30 51.41 49.40 46.83 43.16 41.30 42.12 42.32 37.97 37.84 34.90 38.38 40.92 44.67 44.73 44.36 43.81 44.61 44.10 44.82 41.61 41.65 38.96 37.52 43.44 35.02 31.91 39.90 45.66 47.16 46.60 46.93 46.98 48.13 48.82 52.35 54.15 54.23 53.66 53.06 53.23 53.66 53.82 55.28 56.06 55.95
49.65 50.66 50.73 50.84 50.99 51.55 51.44 51.23 51.52 49.30 45.82 41.31 40.66 35.14 39.51 39.12 40.59 41.21 40.63 41.21 45.03 45.93 44.95 44.87 44.09 43.57 45.36 40.82 41.72 39.37 40.75 40.26 35.15 31.88 35.69 41.97 44.47 45.32 45.07 45.20 44.67 44.46 45.76 47.54 48.97 50.64 50.86 49.14 48.91 49.50 51.73 53.60 54.82 54.17
50.76 50.65 50.47 50.27 50.98 51.15 51.31 51.14 51.36 47.43 44.71 41.63 41.65 35.07 38.32 43.50 44.00 44.09 44.80 43.82 44.92 46.78 44.34 43.59 42.16 41.96 40.95 40.61 41.68 39.25 36.80 32.64 34.22 37.29 41.41 44.82 46.39 45.63 44.06 44.14 43.52 43.73 44.02 44.00 45.46 46.22 48.95 49.17 47.54 46.86 48.41 49.87 49.94 49.40
50.77 49.79 47.73 50.50 50.75 51.23 50.71 49.64 49.55 47.44 45.09 45.22 43.22 39.95 42.45 40.24 40.49 41.58 41.14 40.19 44.14 45.14 45.74 44.79 42.06 39.26 39.55 41.06 38.92 37.69 33.98 33.38 39.49 43.50 46.05 47.46 47.05 45.67 43.81 43.20 42.78 43.37 43.76 43.73 44.00 44.69 44.83 45.14 45.78 46.42 47.09 47.47 47.04 46.31
50.04 44.79 50.03 50.26 50.84 50.76 50.44 48.18 47.06 45.92 44.58 43.68 41.39 41.65 40.53 39.53 39.43 40.47 41.27 40.95 42.39 43.65 40.93 41.97 38.04 38.31 42.17 38.10 35.97 38.86 37.16 39.89 42.64 42.84 43.00 44.07 43.52 43.06 43.04 41.96 41.51 41.71 41.33 42.16 42.40 42.87 43.18 44.97 45.36 44.95 44.32 45.26 45.23 44.85
44.21 46.04 50.03 50.54 50.29 47.93 48.81 46.53 45.97 45.96 41.95 41.83 39.82 41.38 41.33 41.13 40.53 41.93 42.72 43.43 39.38 37.96 40.19 37.92 39.10 36.44 35.78 34.16 34.31 37.86 40.33 42.29 44.07 42.11 40.22 41.06 42.26 41.92 41.38 39.64 40.43 40.53 40.37 40.71 41.48 41.94 41.71 41.92 41.75 41.99 43.00 43.68 43.56 43.39
46.92 48.69 50.29 51.14 50.73 46.30 45.56 45.68 45.55 40.82 41.30 41.40 41.90 41.73 40.98 41.40 42.77 43.36 43.98 44.37 43.00 39.11 37.88 36.04 35.11 34.15 35.00 37.41 37.58 37.06 37.93 38.34 39.22 41.58 39.72 38.85 39.32 39.17 39.82 40.31 39.90 39.24 39.07 38.90 39.50 40.35 41.72 41.59 41.06 41.51 41.82 42.30 40.81 41.18
50.30 50.69 51.78 52.00 50.44 44.69 42.99 42.49 44.21 41.97 39.94 41.55 42.32 41.41 40.21 39.88 40.98 41.98 43.41 43.34 40.74 38.68 35.41 34.03 34.83 36.65 38.65 36.19 35.62 35.10 35.34 36.68 38.06 37.89 36.58 37.72 38.39 38.57 37.38 37.67 37.12 37.13 38.03 38.12 38.10 38.49 38.35 38.99 39.97 41.46 41.33 40.39 39.30 38.46
49.45 50.97 51.93 50.41 49.00 45.36 43.60 41.79 41.74 41.76 41.20 40.99 41.73 41.18 40.75 41.38 40.00 39.34 39.35 40.59 38.96 37.36 36.27 39.58 38.43 37.76 38.59 37.20 35.33 34.30 34.77 34.78 34.23 35.00 35.37 34.77 36.75 37.44 37.90 38.07 38.39 37.82 36.24 35.42 35.20 35.61 36.15 35.02 35.83 37.65 40.50 39.25 38.61 37.83
46.76 51.12 48.46 50.51 47.34 45.74 43.85 44.15 42.75 43.01 42.76 42.28 41.91 42.44 42.76 41.74 39.06 39.43 39.59 40.64 41.40 41.30 40.21 39.25 38.28 36.66 35.03 34.87 34.46 33.90 34.28 36.16 35.87 35.79 36.82 35.61 33.92 34.46 34.65 35.74 36.22 35.21 34.88 34.32 34.42 34.00 34.63 35.07 36.59 37.92 39.06 38.80 38.20 37.56
49.68 48.94 48.39 48.40 44.70 40.36 41.15 45.98 43.32 42.83 40.43 40.58 41.19 39.45 40.10 43.53 43.80 41.80 36.47 37.28 39.17 40.89 39.97 39.02 38.28 35.75 33.62 34.20 34.75 34.44 34.03 33.99 32.96 32.92 34.06 33.19 32.98 32.86 33.52 34.10 34.57 34.47 33.76 33.39 33.85 33.94 34.11 35.68 36.67 36.73 37.16 36.77 36.37 35.63
49.54 46.30 44.82 43.71 43.05 39.51 45.21 42.81 43.81 42.70 42.61 40.80 38.42 35.47 37.47 41.36 45.63 37.55 34.70 36.31 38.77 39.79 39.14 37.91 35.78 33.40 33.09 33.19 31.37 31.10 31.59 31.78 31.74 31.82 31.54 32.39 31.84 31.77 32.24 32.68 33.51 34.12 33.79 33.84 33.84 33.94 34.22 35.14 35.89 36.11 35.74 35.29 34.75 34.14
41.09 42.19 42.21 35.58 41.89 41.47 41.31 41.31 41.35 40.43 38.97 39.79 38.25 37.40 37.51 42.37 39.06 34.84 33.86 36.22 38.19 39.74 40.18 37.37 34.99 33.27 31.61 31.21 30.86 30.80 31.46 31.05 30.66 30.61 30.72 31.32 31.83 32.01 32.03 32.28 32.57 32.62 33.63 33.96 33.48 34.25 34.26 34.85 35.18 35.67 35.81 35.31 34.47 33.89
36.09 42.05 39.99 41.42 40.33 40.67 40.11 39.20 40.01 40.17 39.56 39.80 39.38 39.56 39.09 37.03 35.14 33.50 35.15 37.68 38.77 40.21 40.65 40.23 34.87 31.83 31.10 30.94 30.26 30.55 31.24 30.77 30.96 30.71 30.75 29.97 30.98 31.01 30.36 30.17 30.30 32.04 33.57 33.68 33.98 34.88 34.70 34.63 34.36 34.26 34.05 34.50 34.52 34.08
36.05 40.16 42.04 44.14 43.20 42.57 41.20 41.62 41.47 38.10 37.60 37.76 38.77 39.03 37.42 33.68 32.81 35.52 39.03 40.03 40.57 42.90 41.37 40.47 36.21 33.45 31.99 30.73 30.79 31.20 30.39 30.19 31.06 31.47 31.11 30.60 31.15 31.29 31.43 30.67 30.25 31.62 33.15 34.86 35.42 35.60 34.78 34.40 34.02 33.59 33.19 33.29 33.61 34.06
42.38 42.92 41.71 43.23 43.28 43.99 41.19 39.50 38.76 36.94 37.53 38.72 38.90 36.32 35.58 35.45 33.86 38.03 40.60 42.24 42.20 37.63 34.03 32.84 32.85 33.38 32.13 31.98 31.54 31.67 31.76 30.50 31.01 30.73 30.37 31.57 31.52 31.63 31.82 32.53 32.79 34.84 33.92 35.26 35.27 35.58 35.44 34.84 34.33 33.86 33.23 32.64 32.95 33.93
43.15 44.48 45.11 42.20 44.04 44.42 44.04 40.88 39.45 39.38 40.08 40.13 38.37 36.49 37.27 39.42 40.91 41.43 42.34 41.02 37.81 35.13 34.08 32.95 31.78 31.76 30.90 30.62 30.78 30.27 30.22 29.98 30.61 28.68 28.01 27.65 28.64 30.82 31.70 32.25 32.80 32.97 32.59 34.04 34.85 36.26 36.06 34.79 34.59 34.11 33.95 33.85 33.85 34.74
45.05 46.34 43.22 43.50 42.82 41.19 43.46 43.29 41.96 41.47 40.86 41.68 41.57 41.04 41.28 41.92 42.96 43.72 40.24 35.56 35.02 35.06 34.50 33.54 32.22 31.91 30.82 30.70 30.44 31.12 31.08 30.41 30.06 29.95 28.66 28.70 29.69 31.07 31.20 31.99 32.34 32.31 32.30 33.65 33.71 34.43 35.35 35.24 34.81 35.04 34.93 34.81 34.81 34.60
46.96 46.32 44.55 44.45 43.88 44.14 44.81 44.07 43.70 44.11 42.65 42.18 42.42 40.68 40.59 41.71 42.97 41.92 37.40 35.90 35.28 34.15 33.53 32.62 32.15 32.22 31.74 31.14 30.27 30.12 30.00 31.75 31.23 32.32 31.99 31.35 31.03 31.49 32.08 32.34 32.16 32.91 33.90 33.86 33.80 33.62 33.66 33.46 33.41 33.70 33.94 33.85 33.91 33.74
45.74 45.41 44.72 42.90 42.74 43.81 44.28 42.52 42.33 42.30 42.58 42.06 41.93 42.70 42.80 41.83 40.83 42.78 39.25 35.91 35.08 34.48 35.62 34.35 33.28 32.99 33.54 33.52 33.39 32.62 33.97 32.78 32.79 33.25 34.23 32.66 32.60 32.90 32.10 32.12 32.67 34.05 34.38 34.58 34.54 34.11 34.29 33.72 33.56 33.77 33.36 33.29 33.18 33.37
42.85 42.84 43.18 43.98 41.99 42.09 43.34 43.21 41.68 41.74 41.37 40.42 41.16 42.61 43.81 42.65 40.53 42.29 40.05 38.47 37.49 36.29 35.36 35.17 35.29 35.29 35.34 36.61 35.45 34.79 34.31 34.08 34.26 33.89 34.21 34.29 34.01 33.49 33.10 32.42 33.00 34.15 34.21 34.31 34.55 34.79 34.39 34.12 33.78 33.79 33.44 33.26 33.08 33.66

GFSWCAN_sfc_wetblb_033.txt.gz
Wetbulb
51.65 51.66 51.53 51.68 51.92 52.05 52.16 52.38 52.44 52.57 52.34 52.21 52.42 52.66 52.85 53.08 53.07 51.01 46.40 47.29 45.33 39.17 38.85 40.82 40.79 37.51 37.05 36.65 32.80 35.93 35.56 36.74 35.93 31.08 30.97 31.55 30.98 34.03 32.97 35.52 34.33 34.11 33.01 32.23 33.80 31.66 29.69 47.54 48.52 44.79 53.67 57.15 57.47 58.67
51.44 51.58 51.39 51.51 51.79 51.93 52.03 52.03 52.15 52.24 52.44 52.50 52.31 52.61 53.06 53.39 53.45 52.51 46.56 46.87 47.43 42.05 40.50 44.58 44.62 45.25 43.61 42.65 38.34 37.70 36.54 36.57 38.18 35.10 33.98 33.60 32.99 35.26 33.91 28.95 39.96 33.07 37.41 36.69 37.20 36.94 45.84 48.87 50.13 53.90 56.66 55.65 57.45 59.26
51.20 51.32 51.36 51.48 51.56 51.50 51.80 51.99 52.03 52.32 52.49 52.63 52.46 52.27 53.02 53.37 53.35 52.64 47.85 46.00 45.31 41.16 39.60 40.09 39.63 44.57 46.70 45.64 46.16 35.61 37.90 39.84 38.81 42.09 38.27 36.37 31.58 36.35 30.91 33.01 36.27 39.78 43.92 39.20 39.63 42.05 45.03 46.70 50.57 52.44 57.84 58.28 59.90 60.45
51.13 51.13 51.04 51.04 51.29 51.40 51.69 51.92 52.14 52.18 52.37 52.78 52.50 52.44 52.92 53.50 53.33 53.10 48.74 47.25 45.01 41.11 35.17 38.02 45.05 42.81 46.66 46.35 45.10 44.37 42.30 43.18 42.67 41.14 36.08 35.20 34.26 40.10 34.89 36.89 37.07 39.77 41.66 39.80 39.54 42.43 44.39 46.59 49.32 52.71 55.60 58.15 59.43 59.53
50.72 50.86 51.13 51.08 51.30 51.63 51.88 51.86 51.94 51.94 52.13 52.53 52.43 52.65 53.07 53.07 53.12 52.73 50.91 47.78 47.49 41.27 35.84 36.79 43.33 45.01 45.23 44.58 43.27 43.54 42.04 40.49 38.67 36.70 36.48 35.44 38.10 37.32 38.25 37.39 34.21 40.17 38.98 36.85 35.60 44.08 45.35 47.43 51.09 55.10 56.40 57.11 59.56 57.42
50.71 50.90 50.86 51.04 51.04 51.35 51.64 51.70 51.78 51.97 52.01 52.15 51.97 52.58 52.66 52.70 52.09 48.39 42.72 46.62 48.77 46.48 38.84 33.73 43.12 42.40 44.31 42.54 42.49 41.57 41.27 40.46 39.01 36.76 35.86 38.52 41.28 37.77 34.31 34.16 40.01 42.73 43.90 44.62 42.79 46.17 46.72 49.22 51.72 54.90 56.46 58.62 58.00 57.18
50.83 50.79 50.88 50.94 51.10 51.24 51.31 51.56 51.65 51.81 51.83 52.18 52.16 52.42 52.46 52.33 50.32 44.79 41.28 46.62 48.50 47.85 39.32 34.99 35.39 43.53 44.39 43.40 41.00 39.87 40.81 39.18 38.34 37.33 35.88 36.59 37.73 38.97 33.06 31.04 37.98 41.28 43.11 44.64 46.60 46.70 45.03 47.11 49.37 56.59 57.16 58.71 57.25 58.94
50.46 50.49 50.73 50.79 51.12 51.29 51.35 51.54 51.63 51.61 52.00 51.79 52.14 52.46 52.33 51.25 50.43 46.91 48.86 48.56 48.60 43.44 40.53 34.32 34.41 39.24 45.67 42.93 42.66 42.46 38.69 38.73 38.20 36.82 38.12 36.84 38.58 36.08 30.82 36.70 39.22 41.41 43.30 42.32 43.50 45.48 46.46 50.18 55.84 56.83 56.16 56.81 57.13 58.61
50.24 50.52 50.73 50.61 50.41 50.44 50.92 51.44 51.62 51.85 51.85 52.01 51.41 51.83 50.93 48.67 46.08 47.14 51.86 50.02 48.75 43.21 36.42 35.86 34.05 34.32 43.84 43.23 45.90 43.86 40.47 36.03 40.75 35.52 38.47 40.01 33.93 31.77 36.56 39.41 41.98 47.45 44.22 43.29 44.90 46.24 47.33 51.05 53.34 54.47 55.33 55.75 56.81 58.58
50.43 50.52 50.05 50.01 50.08 50.40 50.57 51.19 51.71 51.99 51.80 50.39 50.01 46.79 44.83 47.14 52.08 50.93 46.16 41.45 40.52 41.06 38.40 33.95 37.96 35.42 40.47 41.99 41.95 41.60 43.23 37.91 34.46 37.86 42.63 34.61 33.03 41.57 45.40 49.78 51.38 49.16 48.57 48.51 47.30 49.47 51.41 50.71 53.35 54.50 54.15 54.96 55.83 56.92
50.24 49.92 49.94 49.82 50.05 50.86 51.41 51.66 52.02 51.75 50.50 49.16 45.67 44.55 48.20 51.40 48.63 45.93 37.61 36.15 35.37 33.42 34.33 34.98 36.47 35.36 43.12 37.74 39.48 41.40 37.69 35.95 32.51 37.50 35.98 33.22 33.57 40.50 44.89 45.85 51.39 53.60 53.66 53.43 53.73 53.45 53.57 53.73 53.35 54.72 56.69 57.08 57.88 58.08
49.92 49.85 49.54 49.74 51.05 51.27 51.69 51.61 51.54 50.78 49.04 48.39 47.57 49.05 48.46 46.60 45.20 42.16 40.04 39.27 36.98 37.10 39.75 37.60 40.11 38.16 40.68 44.69 41.09 42.20 37.14 37.86 35.05 42.52 36.73 32.15 39.57 43.41 43.93 44.74 45.92 49.16 51.11 50.50 50.78 51.61 53.01 54.71 55.31 55.53 55.56 55.02 56.11 57.40
49.70 49.58 50.19 50.82 51.11 51.38 51.55 51.60 51.63 51.51 50.35 49.53 46.15 46.57 45.33 45.31 37.04 37.16 34.20 37.93 39.63 45.03 46.86 45.73 44.91 44.60 45.08 46.48 42.88 42.96 39.63 37.96 44.17 36.28 32.15 36.93 42.44 44.21 44.58 45.95 45.81 46.13 46.55 47.78 50.11 49.38 48.84 49.27 51.01 53.65 54.69 55.84 56.22 55.12
49.24 50.03 50.63 50.87 51.24 51.21 51.62 51.64 51.61 50.58 50.40 46.75 44.14 37.10 41.65 38.75 39.31 39.24 39.91 40.93 45.00 46.82 45.23 47.53 46.06 44.75 46.09 43.98 44.04 39.34 41.18 40.51 36.66 32.51 33.04 39.14 43.80 45.11 44.48 45.45 46.54 45.58 46.15 46.02 46.43 46.55 47.46 47.66 46.93 47.48 48.25 49.67 50.98 50.20
50.05 50.68 50.73 50.92 50.92 51.63 51.71 51.23 51.35 52.79 50.97 46.46 44.70 37.57 41.38 44.55 44.84 45.00 45.97 44.48 45.59 46.11 46.56 46.89 46.65 45.88 44.33 42.97 42.54 39.59 38.64 33.60 34.48 35.93 41.29 45.35 46.80 44.25 42.97 43.49 43.93 44.72 44.91 45.94 46.86 46.10 46.42 46.68 45.96 45.45 46.00 46.39 48.43 48.97
50.86 50.63 51.13 50.45 51.22 51.43 50.89 52.00 53.93 53.67 51.65 48.71 46.45 42.57 44.55 42.80 42.00 42.89 43.41 42.78 45.96 45.73 50.18 48.17 43.86 41.76 40.50 40.41 37.94 35.80 34.53 33.06 37.02 40.60 43.05 44.72 43.74 43.07 42.43 42.67 43.51 44.16 44.34 44.91 45.59 46.26 46.45 46.03 45.68 45.55 46.15 46.42 47.18 48.14
50.34 51.14 50.42 50.48 51.10 51.03 51.09 54.54 54.29 50.22 48.25 46.60 44.46 46.37 45.21 44.41 42.93 43.18 44.02 43.95 46.83 45.89 43.02 43.51 37.22 37.45 42.00 37.17 35.35 36.03 33.71 36.56 40.76 42.09 42.74 42.66 42.41 42.50 43.82 43.05 42.98 43.80 44.83 45.23 45.14 45.76 46.17 46.49 46.99 46.53 44.94 45.21 46.66 46.99
49.50 50.78 50.58 50.70 51.38 51.71 54.05 52.87 51.32 49.12 44.78 46.40 44.42 44.53 45.67 46.17 44.77 44.98 45.70 46.67 44.22 44.09 43.20 39.95 42.38 36.70 34.75 32.34 34.62 39.00 40.31 42.54 44.43 42.97 41.68 42.53 43.66 43.94 43.37 42.88 43.44 43.49 43.44 44.19 44.82 44.98 45.41 45.87 45.12 44.46 45.36 46.36 46.60 46.58
50.01 50.42 50.59 51.15 51.55 52.17 50.47 50.23 51.13 45.92 46.51 47.68 48.01 47.52 46.97 46.91 48.02 48.09 47.82 48.27 47.25 45.69 44.50 41.57 37.10 35.21 35.93 39.80 39.17 40.50 40.77 40.64 41.27 42.50 42.46 43.13 43.17 42.96 43.16 43.28 43.09 42.55 41.82 41.56 42.05 42.88 43.74 43.97 43.77 44.61 45.01 45.68 44.10 44.61
50.25 50.71 51.68 51.98 52.00 50.89 48.59 48.96 50.66 48.52 46.19 47.10 48.23 46.77 46.05 46.30 47.13 47.58 47.14 46.88 45.80 43.30 40.32 38.06 37.70 40.23 40.31 41.02 41.64 41.27 41.27 41.62 42.08 41.93 41.54 42.30 42.91 42.68 41.41 40.96 40.70 42.38 43.06 43.04 42.71 40.66 42.90 43.98 44.34 43.97 42.58 42.53 42.61 42.48
51.84 53.40 52.67 54.00 53.92 51.49 49.76 48.81 48.42 48.40 47.48 47.44 47.19 45.37 45.98 47.20 46.38 45.09 44.97 47.13 43.68 41.86 39.30 42.27 41.04 41.88 42.64 42.68 42.01 41.72 41.65 41.63 40.33 40.45 40.36 40.80 42.00 42.61 42.07 41.94 42.48 42.10 41.01 40.79 40.62 41.14 41.07 42.07 42.77 43.05 42.14 42.08 42.50 42.26
52.55 51.52 54.18 54.83 52.07 50.49 50.19 50.24 49.46 49.35 48.94 48.31 47.50 48.71 47.43 45.90 44.58 45.14 46.44 43.32 42.69 44.65 46.10 44.62 43.44 42.61 42.15 41.36 40.90 40.91 41.39 42.57 42.06 41.19 40.13 40.01 39.08 39.74 40.47 40.87 41.04 40.27 40.15 39.93 40.30 40.64 41.24 42.75 43.31 42.61 41.66 41.05 40.84 40.82
51.60 52.42 53.35 52.60 49.78 45.48 46.06 51.97 48.95 48.84 46.33 46.84 47.68 45.64 46.26 47.15 47.46 47.38 43.21 44.88 45.77 47.20 46.15 44.79 43.63 42.19 40.69 40.58 42.06 41.65 40.93 40.82 39.85 39.62 39.83 40.18 40.48 40.47 40.87 40.80 40.73 39.76 39.20 39.72 41.31 41.43 41.46 39.58 40.71 41.88 41.83 41.59 41.19 40.63
50.41 51.25 49.53 48.43 47.18 42.94 49.77 48.25 49.44 48.72 48.81 46.98 44.69 42.34 44.28 46.92 49.15 44.16 41.15 43.69 46.30 47.24 45.67 44.42 42.39 41.51 41.88 41.35 40.15 39.64 39.54 39.72 40.18 39.75 39.02 39.29 39.13 39.15 39.52 39.79 40.46 40.58 40.11 40.76 40.97 41.09 41.10 40.87 38.97 40.78 40.30 39.73 39.42 38.82
45.34 45.78 46.45 38.96 47.81 46.51 45.41 45.78 46.11 46.18 43.69 45.07 43.53 43.14 44.67 46.85 43.02 40.77 40.09 43.04 45.61 46.61 47.42 45.61 42.83 41.36 40.21 40.39 40.16 40.07 39.53 39.15 38.41 37.77 38.27 38.55 38.91 39.72 39.48 40.08 40.30 40.07 40.74 40.61 39.80 39.56 39.60 40.02 39.75 39.53 39.18 38.57 37.84 37.61
39.79 46.75 44.72 46.61 46.38 46.13 45.83 43.60 44.30 44.04 43.88 44.14 44.11 45.74 45.73 43.58 39.05 37.49 41.86 45.23 46.30 47.27 47.24 46.89 44.85 41.78 40.40 40.30 39.65 39.30 38.87 39.16 39.02 37.81 37.82 37.99 38.01 37.55 36.90 36.67 37.13 38.80 40.32 40.12 40.13 39.89 38.96 39.09 38.66 38.12 37.86 37.40 35.45 37.25
41.48 45.68 48.56 50.16 49.37 48.24 47.15 47.37 47.11 43.95 42.13 42.33 44.81 43.55 42.63 37.44 37.37 41.93 46.52 47.37 47.68 49.24 48.61 45.26 45.91 43.24 42.08 39.75 39.41 39.74 39.76 39.15 38.37 38.15 38.68 38.85 38.74 38.63 37.70 36.31 35.99 37.91 39.56 40.26 41.15 40.54 39.04 38.57 37.91 37.74 37.56 38.13 38.03 37.93
48.39 48.87 47.10 49.46 49.68 49.70 46.25 44.88 43.18 41.67 43.11 45.22 44.86 40.51 39.11 38.93 39.34 45.59 46.77 48.29 48.52 46.61 41.74 41.20 42.17 42.79 41.18 40.34 40.27 40.67 40.07 39.46 38.68 38.32 38.56 39.51 40.26 39.63 38.91 39.36 39.73 35.47 39.23 40.44 40.82 41.23 40.65 39.92 38.89 37.97 37.55 37.56 38.37 39.56
48.45 49.83 49.88 47.35 48.16 48.92 48.97 46.70 45.61 46.63 47.30 46.79 44.55 42.47 43.54 46.65 48.21 47.51 47.99 48.45 45.88 42.27 41.22 40.45 39.54 40.62 39.92 39.63 39.70 40.07 39.80 39.07 37.38 34.99 33.78 34.10 35.53 36.70 38.81 39.04 39.46 39.60 40.02 40.53 35.70 38.01 39.72 39.89 39.37 39.18 38.61 38.94 39.92 41.37
50.20 50.91 48.72 47.54 47.19 46.82 50.11 50.31 49.37 48.67 48.30 49.24 47.92 46.80 47.21 47.45 48.70 49.26 46.30 43.96 43.20 42.94 43.17 41.90 41.02 40.61 40.35 39.92 39.94 39.27 40.17 40.01 39.40 37.58 35.34 34.75 35.79 38.05 38.39 38.38 38.78 39.48 39.50 39.88 40.78 39.42 35.95 39.78 38.46 40.61 39.10 38.90 39.05 39.07
51.43 50.52 49.08 49.04 48.62 50.79 50.43 49.67 48.81 48.90 48.19 47.96 47.95 46.72 46.78 47.48 48.42 48.58 47.47 46.16 44.66 43.28 41.80 40.54 40.57 40.89 40.84 40.74 40.02 38.80 38.71 40.37 39.44 39.05 39.28 39.52 39.40 38.99 39.02 39.02 39.20 39.82 40.00 39.88 39.59 39.47 39.26 38.94 38.52 37.85 37.59 37.15 37.19 37.27
50.60 50.32 49.73 47.97 49.24 49.47 48.97 48.33 48.09 47.43 47.13 46.24 46.83 47.18 46.97 46.79 45.96 48.50 44.70 42.32 41.98 42.01 40.75 41.96 42.09 41.78 42.08 42.55 42.16 41.50 35.17 40.92 40.79 40.50 39.31 39.83 39.76 39.84 39.63 40.04 40.11 39.93 39.75 39.35 39.20 38.89 38.24 37.48 37.31 36.75 36.57 36.26 36.63 37.05
49.41 49.77 49.49 48.92 48.24 46.62 48.33 48.04 46.36 46.07 46.38 45.67 46.39 46.82 47.20 47.00 44.96 47.19 44.56 44.18 44.28 44.31 43.58 43.44 43.14 42.60 42.41 41.94 41.39 41.54 38.21 41.82 39.17 34.81 34.38 34.15 34.03 35.45 38.69 39.99 40.06 40.30 39.38 38.75 38.10 37.98 37.20 36.67 36.71 36.60 36.69 36.38 36.24 36.95

GFSWCAN_sfc_wetblb_036.txt.gz
Wetbulb
51.81 51.93 52.09 52.07 52.18 52.16 52.38 52.48 52.42 52.63 52.57 52.48 52.75 52.97 52.87 53.19 53.33 51.75 48.33 48.79 44.30 39.02 40.76 43.71 43.09 39.41 39.04 38.59 34.60 38.92 38.47 40.17 40.36 35.64 35.39 36.13 34.95 38.89 36.46 39.20 38.05 38.40 36.61 36.74 38.00 36.58 35.03 49.03 48.60 46.22 53.05 55.69 58.20 58.64
51.71 51.81 51.74 51.80 51.91 51.84 52.11 52.20 52.24 52.51 52.76 53.04 52.65 52.80 52.96 53.27 53.37 53.31 47.89 48.47 48.52 42.39 41.47 47.46 47.32 47.35 45.27 42.86 40.11 40.00 38.29 38.26 41.31 38.41 39.27 36.66 36.00 37.82 37.30 33.64 42.80 36.43 40.60 39.29 40.46 40.52 48.03 50.72 50.19 53.22 53.65 53.36 54.83 57.40
51.31 51.25 51.39 51.55 51.66 51.89 51.99 52.26 52.32 52.53 52.80 52.88 52.32 52.79 53.14 53.48 53.41 53.05 49.34 47.13 45.52 41.65 41.12 42.91 44.54 48.79 50.41 49.31 48.64 37.63 39.44 41.05 40.71 43.36 38.59 38.46 33.91 39.32 34.81 36.97 39.08 42.30 45.52 41.49 41.87 44.55 46.10 48.61 50.62 51.88 52.46 52.92 56.05 57.26
51.14 51.40 51.46 51.67 51.71 51.77 51.95 52.20 52.29 52.43 52.60 52.38 52.30 52.80 53.17 53.54 53.50 53.13 49.30 47.60 46.74 42.12 36.29 42.30 48.51 46.14 49.74 48.86 47.57 46.57 43.98 44.07 43.14 43.06 39.35 37.44 36.07 42.40 38.26 40.56 40.00 43.11 44.74 42.49 42.73 45.72 47.31 48.34 49.55 50.91 52.08 52.79 53.15 55.00
51.02 51.36 51.48 51.49 51.49 51.71 51.88 52.04 52.11 52.17 52.08 52.07 52.39 52.84 53.11 53.19 53.05 53.51 51.20 48.60 49.08 43.20 37.98 40.78 46.90 48.94 48.96 48.25 46.00 45.78 43.81 41.58 39.51 38.18 36.56 35.24 38.36 37.60 39.10 40.05 38.99 43.15 41.89 39.89 39.49 46.32 46.58 47.88 50.63 51.99 50.82 50.55 55.31 56.24
51.06 51.05 51.03 51.11 51.28 51.56 51.78 51.84 51.97 51.64 51.50 51.92 52.42 52.76 52.72 52.39 52.69 50.57 45.77 48.27 51.16 47.83 40.37 37.11 46.65 45.32 46.96 45.10 43.50 43.53 43.48 42.38 41.69 38.56 36.78 38.30 41.43 37.34 34.39 34.01 40.42 43.22 44.79 46.10 44.26 48.10 48.81 50.03 51.05 52.31 52.38 53.92 55.55 56.83
50.74 50.72 50.91 51.19 51.10 51.11 51.37 51.28 51.00 51.53 51.89 52.27 52.76 52.82 52.81 51.77 53.07 49.00 45.80 48.78 50.06 49.39 40.60 36.86 40.36 46.98 47.09 45.28 42.60 42.59 43.39 41.54 39.53 35.91 34.89 36.63 37.37 38.17 34.04 30.99 37.70 40.96 43.03 44.03 45.62 45.93 44.84 48.04 48.34 51.45 52.77 54.44 56.19 57.42
50.57 50.65 50.80 50.62 50.69 50.84 50.85 50.91 51.17 51.37 52.17 52.60 52.47 52.54 51.77 50.82 49.96 48.81 50.14 49.42 50.33 44.57 42.41 36.32 39.21 43.46 47.42 42.83 42.30 43.01 38.84 38.61 37.07 34.87 35.71 34.69 36.59 35.46 31.67 36.83 39.93 42.24 43.57 42.66 43.05 44.87 44.80 47.96 49.93 52.08 53.53 55.19 57.11 58.12
50.49 50.81 50.77 50.41 50.32 50.60 50.61 51.26 51.34 52.23 52.52 52.12 52.72 52.26 52.81 50.13 47.29 48.98 50.72 49.73 50.17 44.13 36.97 36.81 35.40 36.24 45.61 43.26 45.72 42.36 40.96 35.05 39.34 34.92 34.81 38.18 34.22 32.41 34.19 39.45 45.86 50.57 49.00 46.21 47.37 44.73 44.76 45.38 48.08 49.05 50.21 56.18 56.32 55.95
50.33 50.63 50.83 50.09 50.15 50.56 50.90 51.71 52.30 52.42 52.13 52.13 52.24 51.62 47.88 48.33 52.02 50.44 46.54 42.39 41.78 41.11 39.40 34.41 38.06 35.67 40.19 41.76 41.32 41.87 42.55 37.53 36.01 38.65 43.07 35.57 34.93 41.13 42.89 45.91 46.81 49.13 49.23 47.44 45.11 44.21 46.10 47.84 47.92 50.72 54.32 55.83 55.51 57.03
50.42 50.39 49.83 49.82 50.17 51.15 51.72 51.92 52.19 51.98 50.83 54.17 53.32 50.52 50.28 52.53 47.84 46.59 41.17 38.35 38.63 35.86 37.57 37.31 38.28 37.24 43.85 38.94 39.63 42.03 38.52 37.97 35.13 41.02 40.07 36.34 34.92 40.69 43.59 45.51 47.72 48.03 48.69 49.00 50.90 51.41 52.94 53.01 52.52 53.24 55.07 55.85 56.64 55.91
50.24 49.78 49.62 50.16 50.97 51.76 51.85 51.82 51.79 54.87 54.79 52.20 51.64 51.02 52.07 48.69 49.23 44.70 41.29 42.50 40.37 40.73 46.82 40.74 42.65 41.28 42.36 44.49 42.81 45.06 41.74 43.20 37.92 45.99 39.02 32.77 39.21 43.98 44.15 44.19 46.40 48.53 48.01 48.06 48.74 48.19 48.80 49.97 53.59 54.58 55.49 54.05 54.38 54.64
49.84 49.63 49.77 50.63 51.28 51.73 51.96 52.13 51.89 51.49 51.92 52.11 49.60 49.77 48.28 46.85 38.09 37.82 35.81 38.71 40.42 47.48 48.06 47.64 46.86 48.13 47.55 47.79 45.89 46.00 42.64 40.79 46.81 39.81 33.14 37.30 44.32 45.80 45.57 45.00 45.31 47.50 48.35 48.11 47.99 48.47 48.37 48.36 47.95 49.19 50.47 52.32 54.26 53.56
49.55 49.76 50.63 51.17 51.42 51.60 52.08 51.86 51.92 52.42 55.29 51.47 46.55 37.73 44.07 42.29 43.26 42.47 42.29 43.09 46.60 47.52 48.97 49.92 49.16 48.76 50.84 46.24 44.06 40.52 42.28 42.92 37.51 32.77 33.44 41.88 44.69 45.69 45.63 46.98 46.85 46.59 46.68 46.76 46.74 46.86 46.74 47.06 47.08 47.50 48.24 49.22 49.86 50.75
49.86 50.79 51.05 52.27 51.48 51.98 52.10 51.53 51.96 58.45 54.79 49.07 48.26 40.02 43.66 46.08 47.90 47.74 48.98 48.88 49.91 50.90 51.06 51.25 51.35 49.62 47.26 44.69 44.67 41.12 39.33 35.84 35.90 35.22 39.53 43.28 44.95 45.47 45.05 46.22 46.66 47.41 47.33 47.60 47.90 47.97 48.34 47.24 46.45 46.72 47.93 49.67 50.38 48.35
51.03 50.98 55.39 50.92 51.55 51.83 51.53 56.06 58.61 58.16 54.47 50.22 48.32 45.49 47.27 46.31 46.21 47.33 47.49 47.41 50.39 50.98 53.61 52.35 47.02 44.24 42.68 42.74 37.87 35.12 35.19 32.41 36.05 40.71 43.34 43.20 43.49 46.17 46.07 47.08 47.47 47.72 47.83 48.04 49.01 49.27 48.95 48.49 47.95 47.98 48.60 48.75 49.00 49.75
50.34 57.19 51.18 51.33 51.44 51.84 52.61 58.59 56.80 52.41 50.66 48.22 47.31 49.58 48.56 47.95 46.92 47.56 48.34 47.80 51.34 49.06 46.21 47.07 39.64 38.36 44.97 39.37 36.91 41.82 37.67 40.19 44.06 43.67 44.26 45.58 45.13 45.76 47.02 46.43 46.92 47.46 47.25 47.97 48.05 49.00 49.30 50.12 50.16 49.40 47.70 49.26 48.72 48.90
56.05 56.67 52.44 51.13 52.20 56.44 59.41 57.61 54.11 50.92 46.60 50.33 47.68 48.59 50.04 50.04 48.80 48.95 49.61 49.87 48.64 47.54 46.54 42.48 45.29 39.76 37.47 34.66 36.84 41.19 43.64 45.67 46.76 46.79 45.34 45.79 46.69 47.55 47.66 46.59 46.40 46.32 46.12 47.02 47.71 48.60 49.14 48.81 48.40 48.31 48.99 49.49 49.39 49.43
53.62 52.97 51.16 51.05 53.02 55.88 55.04 54.05 55.36 48.48 49.57 52.26 51.07 51.80 51.72 50.70 51.24 50.87 50.42 50.58 50.28 49.97 48.66 45.53 40.65 38.89 38.81 41.86 41.48 42.49 43.05 44.23 44.57 46.72 46.77 46.94 46.03 46.75 46.82 47.32 47.21 46.48 46.27 45.95 45.09 45.41 46.90 47.98 47.21 47.80 48.72 48.23 46.42 46.91
50.41 50.69 51.27 52.42 53.60 56.44 51.35 53.46 56.71 52.30 50.39 50.83 51.89 52.01 51.53 50.18 50.56 49.84 49.44 49.10 47.71 46.38 43.55 41.56 40.93 42.53 42.73 43.76 44.39 43.87 44.01 44.61 44.83 44.67 44.96 45.05 46.05 46.51 45.65 45.69 45.37 46.16 45.47 45.41 45.01 42.27 45.70 46.60 47.28 47.52 46.72 45.67 45.80 45.21
53.09 56.69 54.43 56.72 59.99 58.07 55.64 54.91 53.33 53.29 53.73 51.42 53.81 50.68 51.75 53.76 50.22 47.70 46.81 48.88 45.84 43.84 41.91 44.39 44.36 45.29 46.85 46.85 46.25 45.37 44.68 44.57 43.06 43.24 42.91 43.30 44.96 45.09 45.25 45.69 46.12 44.98 43.50 43.22 43.38 43.76 44.00 44.88 45.71 46.19 45.89 45.78 46.00 45.73
58.23 52.63 58.93 59.70 57.21 55.39 56.01 56.80 54.79 55.68 53.77 53.41 53.23 53.53 50.49 48.80 48.02 47.57 49.46 45.80 44.92 45.92 47.17 47.19 46.37 46.24 46.72 45.03 45.22 45.77 45.20 45.39 45.05 44.18 42.61 43.32 43.28 43.41 43.69 43.87 43.57 42.93 42.94 43.01 43.66 43.71 44.30 44.98 45.89 46.18 45.50 45.14 44.35 43.53
53.71 55.70 58.77 57.41 53.46 49.78 49.12 57.96 52.72 53.67 49.67 51.38 53.39 49.23 49.70 50.26 50.11 51.20 46.77 47.67 47.34 49.77 49.71 49.53 48.83 47.86 45.94 46.61 46.33 45.71 45.45 44.49 43.15 42.97 42.79 43.20 44.37 44.22 43.38 43.51 43.68 42.42 41.94 42.69 44.04 43.79 43.44 40.88 43.31 43.94 44.26 44.15 43.94 43.58
50.97 55.65 53.02 52.67 52.38 46.92 54.63 52.35 55.06 53.67 53.41 51.34 49.52 45.63 47.55 49.28 52.68 48.46 44.14 46.31 47.84 51.12 50.03 49.36 48.67 46.23 46.47 46.19 45.02 44.05 43.72 44.13 43.36 43.28 43.20 42.05 41.68 42.31 43.39 43.20 43.57 43.72 43.35 44.10 43.64 43.42 43.41 43.18 40.73 43.18 42.77 42.20 41.87 41.59
47.81 47.86 50.38 40.25 53.29 49.93 47.63 48.51 49.12 49.64 45.43 48.26 46.16 46.41 48.89 51.23 46.77 44.86 42.46 45.66 47.93 47.88 48.81 50.29 49.33 47.70 44.52 44.98 46.22 44.72 44.96 43.48 41.86 41.02 42.55 42.18 41.74 41.98 42.15 42.62 43.34 43.25 43.85 42.69 42.71 42.63 42.18 42.78 42.55 41.93 41.66 40.99 40.42 40.40
41.55 50.44 46.31 50.47 51.52 48.88 49.60 44.58 44.90 44.85 46.54 45.94 47.25 51.40 51.03 47.44 41.39 39.53 44.99 47.38 48.34 48.95 48.28 47.50 45.80 44.91 46.20 45.61 43.36 43.22 42.78 43.82 42.91 41.41 41.76 41.87 41.28 40.24 39.75 39.44 39.91 41.35 43.41 43.35 42.88 42.11 41.78 41.78 41.34 40.56 40.39 39.36 36.52 39.88
44.45 48.67 54.14 56.70 55.08 53.59 51.55 51.97 51.62 47.52 44.05 44.12 48.37 46.92 46.06 39.61 39.70 45.09 48.61 49.58 49.94 51.20 51.58 50.26 48.03 45.81 44.90 45.00 45.43 45.94 44.98 43.95 42.37 41.54 42.64 42.60 42.46 42.25 40.90 39.13 38.62 40.79 42.77 43.32 43.36 42.49 41.42 41.13 40.67 40.56 40.55 41.70 41.63 41.35
53.36 53.06 49.61 53.01 53.32 54.38 49.27 49.30 46.92 44.84 46.81 50.52 49.57 43.58 42.33 42.54 44.75 49.11 50.29 51.10 51.74 52.17 48.67 47.62 47.88 47.74 46.78 45.77 46.14 46.07 45.79 45.53 43.36 43.59 42.99 43.23 45.08 43.53 42.52 42.71 42.84 36.76 41.76 43.02 42.18 42.79 42.27 41.83 41.19 40.85 40.68 40.72 41.05 41.49
52.72 54.96 53.98 50.92 51.93 52.11 51.79 50.14 49.97 52.78 53.67 51.14 48.55 47.96 48.10 51.75 52.62 52.48 52.25 52.42 53.37 50.28 46.85 45.09 44.83 46.46 46.29 46.25 46.58 46.45 45.41 43.81 41.27 38.49 37.68 38.94 39.61 40.38 42.58 42.46 42.66 43.10 43.26 43.26 33.95 37.42 40.67 40.60 40.69 41.06 40.83 40.14 40.22 40.92
53.58 55.84 52.60 50.90 49.64 49.83 53.68 55.22 53.87 55.59 54.60 53.89 53.92 52.28 52.27 53.48 55.03 55.59 52.42 50.03 48.75 48.04 46.76 47.12 46.20 46.39 46.90 45.77 44.59 44.76 46.11 45.49 44.34 41.32 39.13 38.50 39.40 41.96 42.53 42.18 42.05 42.38 42.89 42.88 42.11 41.61 35.97 40.23 40.37 41.42 39.71 39.39 39.56 39.34
57.44 55.26 52.34 53.04 51.53 55.00 55.94 57.03 55.94 54.72 53.81 52.80 53.31 50.49 51.15 53.75 53.82 54.79 52.95 52.72 52.17 48.20 44.32 44.66 46.39 48.10 47.12 45.78 43.55 42.07 41.90 44.51 44.04 43.33 42.93 43.28 43.73 42.86 42.17 42.14 42.59 42.80 42.71 42.14 40.93 40.17 39.86 39.57 40.06 38.61 38.28 37.72 37.64 37.48
55.74 53.50 53.29 50.60 52.39 56.31 55.58 54.04 54.52 53.02 53.67 51.86 52.03 53.20 52.97 52.03 50.10 52.14 49.93 50.56 48.39 45.11 42.94 46.95 48.14 45.33 46.20 46.12 45.67 45.03 34.92 44.20 45.81 45.08 42.94 43.82 43.11 42.98 42.94 42.82 42.64 42.18 41.07 40.38 40.14 39.92 39.25 38.23 38.14 37.33 37.02 37.19 37.26 37.27
53.78 54.04 53.83 52.74 52.46 51.19 53.81 52.38 51.81 50.73 51.74 51.55 52.38 52.82 52.89 51.31 48.20 49.75 49.05 48.76 47.69 48.30 48.24 48.25 47.05 46.91 46.19 45.27 44.75 44.45 41.00 45.09 40.47 34.75 36.01 34.28 32.93 35.87 40.76 43.15 43.00 42.13 40.23 39.54 39.25 39.11 38.29 37.53 37.31 37.21 37.48 37.26 37.17 37.50

GFSWCAN_sfc_wetblb_039.txt.gz
Wetbulb
52.20 52.28 52.23 52.23 52.17 52.23 52.56 52.69 52.73 52.91 52.91 52.79 52.85 52.98 53.45 53.70 53.66 52.36 50.63 50.75 45.01 39.27 41.13 45.06 45.14 40.98 41.23 40.40 38.24 41.46 41.63 42.83 41.33 36.88 36.95 37.13 36.88 39.82 39.15 41.26 40.92 40.51 39.15 39.31 41.45 39.57 38.55 52.55 51.60 49.80 54.27 57.54 57.47 59.09
51.84 51.88 51.94 51.98 52.11 52.25 52.44 52.48 52.57 52.65 52.81 52.66 52.75 53.06 53.26 53.49 53.53 53.41 49.07 50.91 49.31 42.78 43.16 48.84 48.16 48.72 47.14 45.82 42.22 42.85 41.44 41.06 43.05 39.86 41.38 40.56 37.99 40.01 38.88 36.35 44.62 38.59 42.84 41.83 43.13 43.28 51.13 52.83 52.30 54.70 54.96 54.02 54.82 55.80
51.61 51.57 51.70 51.95 52.13 52.13 52.23 52.34 52.48 52.67 52.37 52.64 53.00 53.26 53.43 53.59 53.70 53.29 50.78 48.31 46.55 42.19 41.92 43.04 44.89 49.75 51.35 49.66 49.56 39.46 41.74 43.05 42.06 44.59 40.24 40.64 37.07 41.00 35.80 38.01 41.21 44.73 47.45 43.18 43.95 46.98 48.33 50.17 52.06 52.98 53.64 53.33 54.50 55.08
51.41 51.64 51.80 51.76 51.78 51.92 51.99 51.80 52.15 52.27 52.74 52.57 53.04 53.18 53.49 53.61 53.66 53.26 48.51 48.58 47.85 43.42 37.89 43.63 50.85 47.89 51.33 50.61 49.12 47.95 45.49 45.77 44.79 43.60 41.06 38.49 36.56 43.19 39.09 40.64 41.25 44.07 45.50 44.00 43.87 46.39 48.44 49.60 51.23 52.15 52.58 53.23 53.44 54.44
51.38 51.48 51.52 51.47 51.66 51.79 51.51 51.42 52.16 52.37 52.32 52.55 52.71 53.16 53.53 53.16 52.85 54.84 51.25 50.26 50.51 44.74 39.22 43.05 49.07 50.45 50.60 49.49 47.63 47.35 45.89 44.00 42.34 39.40 37.76 35.65 39.39 38.57 40.17 40.70 40.01 44.84 43.17 41.91 41.56 47.98 48.49 49.56 51.98 53.48 52.47 52.24 53.24 53.72
51.13 51.12 51.10 51.19 51.39 51.85 51.68 52.16 52.14 52.33 52.19 52.37 52.84 53.11 53.22 52.46 53.28 53.26 46.97 50.66 51.63 48.97 41.73 38.21 48.79 47.36 48.03 46.94 45.01 44.28 45.08 43.94 41.93 38.71 37.21 38.83 41.62 38.10 35.28 36.65 41.76 43.91 45.39 46.39 44.67 49.16 49.62 50.70 52.25 52.96 52.46 53.13 53.77 54.81
50.83 50.88 50.99 51.33 51.67 51.16 51.33 51.86 51.92 52.15 52.20 52.65 53.00 53.36 53.10 52.82 53.37 48.57 47.27 49.93 50.94 50.65 41.84 39.33 42.11 46.71 47.17 46.07 43.94 43.30 44.52 42.35 39.22 35.66 35.06 36.64 37.65 38.40 34.91 32.67 40.35 40.97 41.59 42.46 44.78 44.89 43.30 47.26 48.58 52.16 52.99 53.73 53.76 54.37
50.80 50.98 51.16 51.40 51.27 51.54 51.59 51.32 51.68 52.16 52.80 53.06 52.80 52.36 51.75 50.20 50.18 50.38 51.73 50.58 50.94 46.26 43.78 36.77 39.96 43.41 47.24 42.91 41.27 43.01 38.89 38.02 37.36 37.38 36.85 35.59 36.72 35.62 31.83 38.16 38.55 44.43 48.81 49.54 45.84 46.05 44.02 47.16 48.87 48.43 51.85 52.74 52.91 52.81
50.74 50.89 51.05 50.73 50.90 51.22 51.28 51.28 52.19 52.76 52.84 52.08 52.85 52.45 54.03 52.92 49.96 49.80 50.50 49.89 50.45 44.74 38.10 37.89 35.89 37.67 46.17 43.24 45.19 41.68 39.74 35.21 38.61 34.55 36.27 37.12 33.46 32.01 34.55 39.91 42.32 46.31 47.04 48.89 51.37 50.05 48.09 44.70 45.29 49.20 49.99 50.42 52.71 53.45
50.81 50.81 50.46 50.81 50.87 50.92 51.18 51.81 52.78 52.74 51.95 52.70 52.88 51.99 49.78 50.65 51.85 50.64 48.24 46.67 45.08 44.35 43.73 37.57 40.72 38.63 42.76 42.91 42.40 42.64 43.05 40.28 36.32 41.61 42.63 39.45 37.27 43.16 43.47 44.32 45.88 46.52 48.67 49.96 46.63 46.33 45.65 44.37 47.04 49.07 50.30 52.36 51.37 52.81
50.27 50.14 50.33 50.48 50.60 51.01 51.72 52.40 52.60 52.12 52.24 54.64 54.86 53.19 53.49 52.29 48.91 47.65 48.17 45.11 45.27 40.72 45.66 43.09 40.71 40.30 46.70 41.34 41.33 44.90 42.94 43.02 39.73 41.91 40.53 38.19 37.06 42.51 45.37 45.24 46.67 47.26 48.16 48.40 49.46 50.19 49.52 49.91 50.11 51.73 52.19 52.79 53.69 54.38
50.15 50.32 50.50 50.63 50.87 51.78 52.16 52.35 52.40 54.66 57.74 54.58 55.15 56.60 54.58 51.34 50.73 47.26 45.35 47.48 43.91 45.15 50.29 48.07 48.40 46.89 48.74 47.57 44.37 48.56 45.86 46.85 38.43 45.81 40.30 34.19 40.31 45.70 46.04 46.27 46.66 47.58 47.28 48.00 48.66 48.51 50.18 50.35 50.77 52.43 52.78 53.08 53.61 54.02
50.20 49.96 50.29 50.82 51.55 52.00 52.18 52.34 52.15 50.96 52.36 57.65 56.53 52.47 50.57 50.58 41.95 41.03 37.97 40.79 43.02 48.60 49.87 50.04 49.72 51.75 51.50 50.66 49.49 47.73 43.85 42.77 48.27 40.06 34.17 38.65 43.84 46.43 47.51 47.76 48.29 49.20 48.66 48.67 48.40 48.43 48.76 49.12 50.29 49.49 48.94 50.36 50.47 52.54
49.98 50.36 50.92 51.27 51.80 52.28 52.46 52.27 52.33 53.00 54.79 54.32 49.46 40.99 46.61 43.96 44.68 45.12 45.62 46.24 50.00 51.35 51.44 51.21 52.21 52.66 51.64 49.83 48.66 42.13 45.92 45.38 37.79 33.65 33.98 41.40 44.26 46.02 47.86 48.70 47.89 48.20 48.84 49.29 48.17 48.80 48.94 48.75 48.81 49.53 49.43 50.18 50.45 49.61
50.63 51.10 51.31 52.81 52.24 52.44 52.51 52.38 52.35 57.21 56.87 51.06 50.70 42.04 45.97 49.99 50.51 50.73 51.28 50.85 51.78 53.13 52.67 52.27 50.48 50.26 48.95 45.22 46.23 43.20 40.52 36.89 35.73 34.85 40.04 43.63 46.65 47.32 47.81 47.63 47.36 47.49 48.56 48.23 49.45 48.79 48.75 49.08 49.33 49.65 51.00 50.50 49.53 50.36
51.29 51.25 56.68 52.27 52.04 51.92 52.01 56.29 59.03 60.57 56.96 53.42 51.03 48.57 50.68 49.50 49.19 50.01 50.06 49.39 52.31 52.60 53.68 52.86 47.81 45.26 44.73 44.71 40.66 38.54 36.73 35.10 36.92 40.48 44.75 46.32 47.92 48.03 48.20 48.12 47.83 47.43 47.65 48.36 49.30 49.63 49.87 49.98 50.12 50.00 50.18 50.03 50.13 50.59
50.06 59.91 52.12 51.85 51.51 51.71 53.04 60.19 59.60 54.07 53.16 49.55 48.23 53.27 51.54 50.61 49.19 49.44 50.19 49.93 52.77 51.00 47.45 49.31 42.47 41.42 44.94 39.84 37.48 40.78 37.41 40.84 44.63 44.90 46.04 48.75 48.62 48.73 48.59 48.43 47.89 47.61 46.84 46.44 47.94 49.44 49.37 50.56 50.01 49.42 49.06 50.68 50.30 50.74
59.14 59.80 53.25 51.67 52.54 58.09 61.63 59.50 56.58 53.96 49.07 52.28 49.82 50.89 52.28 52.16 50.16 49.91 50.49 51.01 50.14 49.43 48.61 45.24 47.77 42.30 38.75 35.00 36.63 41.37 44.09 45.54 46.24 47.14 46.92 48.85 49.55 49.93 49.25 47.98 48.41 47.99 47.30 46.70 46.30 48.22 49.06 49.01 48.75 48.46 49.64 49.92 49.19 49.51
55.91 54.67 51.70 51.19 53.33 56.71 56.99 56.48 57.58 51.24 51.59 54.21 54.87 53.38 53.03 52.52 52.59 52.15 51.40 51.59 51.43 51.88 50.45 48.56 43.01 41.29 41.21 43.39 43.05 44.09 44.59 44.45 44.50 46.32 47.86 49.37 49.26 49.07 49.09 49.06 48.42 47.72 46.89 46.47 45.96 45.63 48.03 48.98 48.46 48.40 48.51 48.59 47.32 48.01
50.90 51.21 51.68 52.51 53.78 58.68 53.76 55.85 59.13 54.67 51.76 52.53 55.34 52.87 52.22 51.39 53.03 51.46 50.91 50.74 49.52 48.26 45.77 43.44 43.10 44.47 44.72 45.38 46.09 45.42 45.61 45.91 45.44 44.31 45.40 47.23 48.22 48.57 48.46 47.82 46.78 47.57 46.30 46.75 46.90 44.05 47.60 47.42 47.97 48.12 47.84 47.34 47.04 46.23
53.02 57.92 55.76 58.41 62.30 60.18 57.52 56.23 55.51 54.98 55.36 54.10 53.96 52.13 49.78 52.33 52.56 49.63 49.15 51.04 48.22 46.30 44.92 46.88 47.08 48.01 49.12 48.59 48.23 47.39 46.65 46.11 44.95 44.79 43.84 43.87 45.99 47.56 46.96 47.00 46.93 46.34 45.47 45.22 45.42 45.60 45.41 46.27 47.20 47.73 47.02 46.46 46.62 46.48
60.88 53.41 61.19 60.81 59.15 58.04 57.81 59.41 55.77 57.15 55.11 54.65 54.20 53.66 51.66 50.04 49.59 49.22 51.44 48.92 47.49 48.02 48.49 48.42 48.36 48.10 48.28 47.60 47.75 48.07 47.71 47.44 47.63 46.21 43.78 44.57 45.03 45.19 44.95 45.48 45.29 44.60 45.01 45.07 45.52 45.16 44.95 45.17 44.72 46.66 45.85 45.78 46.09 45.61
54.78 57.48 61.01 59.79 55.47 51.66 50.91 60.06 53.65 54.41 50.14 51.25 53.68 49.97 50.37 50.20 51.59 53.12 49.86 50.01 49.89 51.34 50.73 50.43 50.22 50.44 48.95 49.51 49.25 48.81 47.97 46.79 45.37 45.41 45.44 44.76 45.31 45.98 45.42 45.46 45.63 44.66 43.82 44.74 45.82 45.31 45.10 41.53 44.40 44.94 45.34 45.26 45.06 44.67
50.33 58.44 55.73 54.77 54.27 48.83 56.37 53.25 56.42 54.27 53.75 51.38 49.96 46.70 48.42 49.74 52.95 50.54 46.51 48.98 49.65 52.79 51.26 51.13 50.53 48.80 49.29 50.00 47.86 47.06 46.83 46.30 45.36 45.53 45.92 44.18 43.58 44.16 45.27 44.98 45.60 45.44 45.10 45.78 45.63 45.22 45.08 45.06 42.52 44.84 44.49 43.69 44.03 43.54
49.79 49.48 51.69 41.85 54.67 51.28 48.48 48.97 49.59 51.23 46.19 48.85 47.20 47.89 50.03 52.65 47.88 46.76 45.54 48.44 50.69 50.47 50.44 50.85 48.92 48.52 47.49 47.22 46.31 46.64 47.99 45.78 43.95 43.35 45.29 44.35 43.79 44.01 44.19 44.71 45.48 45.18 45.38 44.40 44.27 44.42 44.25 44.60 44.38 43.61 43.43 42.41 41.79 42.77
41.31 52.62 46.99 51.87 52.76 50.39 50.54 46.29 46.81 46.79 48.00 46.82 48.83 52.81 53.59 49.02 44.07 42.11 48.38 50.52 51.38 51.99 51.18 49.82 48.61 47.37 46.80 46.98 45.52 44.91 44.98 46.08 45.05 43.26 43.92 44.22 43.57 42.41 41.69 41.52 41.77 43.20 44.87 45.18 44.60 43.59 43.40 43.54 43.28 42.72 42.77 41.29 37.84 42.05
43.93 49.40 55.11 58.86 55.76 54.99 52.73 53.64 54.33 50.92 46.55 46.14 49.10 48.40 46.97 42.80 42.79 47.49 51.21 52.81 52.52 52.99 53.17 51.94 50.44 48.29 47.23 47.19 48.02 47.58 46.99 46.63 44.85 44.22 45.31 45.13 45.17 45.04 43.45 41.69 41.07 42.59 44.33 45.00 44.64 43.90 42.82 42.62 42.51 42.51 42.46 43.08 43.21 42.63
54.28 54.14 50.84 53.59 54.10 55.18 50.47 51.17 49.04 47.57 48.75 52.77 50.88 45.56 44.78 44.48 45.26 50.60 52.63 54.02 53.24 52.95 53.82 51.82 51.09 49.65 49.04 48.42 47.48 46.94 46.68 47.32 46.58 46.73 47.04 46.03 46.40 45.46 45.08 45.03 45.08 37.97 43.90 44.72 43.38 43.95 43.50 42.86 42.53 42.46 42.21 41.73 41.97 42.97
54.61 55.72 55.04 51.88 53.08 52.49 52.36 50.72 51.20 52.09 54.54 52.04 48.62 47.92 49.67 54.01 55.15 55.01 55.35 55.48 56.19 54.45 51.22 49.81 49.70 50.14 49.72 48.89 47.98 49.04 47.11 45.59 43.26 41.28 40.58 41.45 42.08 43.08 45.14 45.12 44.66 45.04 44.86 43.55 36.15 39.73 41.86 41.45 42.25 42.27 41.70 41.96 42.00 43.59
53.56 58.44 53.76 52.53 50.91 49.84 52.28 55.54 53.72 55.00 55.87 55.16 54.95 54.75 54.22 55.00 57.18 57.64 56.72 55.45 54.24 52.45 52.46 51.24 50.63 48.94 48.30 46.89 45.94 46.24 47.96 47.16 46.16 43.41 41.34 40.96 42.10 44.13 44.43 43.74 43.69 43.95 43.85 44.09 43.44 42.81 37.57 41.02 40.45 42.60 42.10 41.97 41.07 40.96
57.28 56.70 53.26 53.05 51.68 53.35 55.48 55.81 56.20 57.33 56.92 55.28 56.02 53.79 52.56 54.93 56.03 56.07 55.70 55.64 55.52 52.14 50.37 49.75 48.48 50.98 47.72 46.18 45.00 43.89 43.23 46.13 46.27 45.30 44.60 44.61 45.05 44.36 44.08 43.91 43.57 43.19 42.82 42.55 41.86 41.85 42.04 41.38 40.64 40.30 39.96 39.73 39.78 39.67
55.89 53.83 52.78 51.20 52.11 55.92 57.66 54.97 53.49 52.96 54.35 54.44 52.98 54.54 54.85 55.15 51.96 54.42 53.51 54.46 52.36 50.11 47.62 46.77 48.64 47.57 48.11 47.71 47.06 46.33 36.83 46.44 46.70 46.94 45.36 45.24 44.58 44.69 44.59 44.50 44.84 43.88 42.51 42.07 41.75 41.08 40.44 39.50 39.80 38.87 38.38 38.54 38.63 38.97
55.01 54.28 53.05 52.76 52.27 52.27 54.84 53.99 52.18 51.85 52.47 52.63 52.52 53.71 53.68 52.38 49.62 51.62 52.39 51.36 50.44 50.42 50.16 49.42 48.97 48.64 47.76 46.74 46.18 46.34 42.37 46.46 40.38 35.97 36.57 35.28 33.78 36.84 41.66 43.90 43.72 42.74 42.12 41.70 41.50 41.05 40.24 40.02 39.56 39.40 39.33 39.67 39.46 39.21

GFSWCAN_sfc_wetblb_042.txt.gz
Wetbulb
52.53 52.46 52.42 52.50 52.54 52.63 52.77 52.98 53.00 53.08 52.87 52.94 53.08 53.47 53.60 53.75 54.05 52.88 51.02 51.38 45.26 39.99 40.92 44.58 44.81 42.13 42.53 41.99 37.43 42.12 41.05 41.19 41.20 36.90 37.31 37.81 36.39 38.96 39.36 41.08 40.47 40.11 38.21 38.20 41.18 40.09 39.36 52.16 52.33 49.39 54.72 56.22 56.01 57.05
52.36 52.13 52.21 52.40 52.44 52.63 52.67 52.67 52.77 52.67 52.90 52.85 53.10 53.49 53.58 53.76 53.72 53.76 49.14 51.72 50.05 42.76 42.68 47.85 49.01 49.33 47.97 47.04 43.40 42.63 41.10 40.59 41.60 38.61 39.98 38.81 36.88 39.18 39.31 35.13 44.65 38.22 42.35 40.84 42.84 43.24 53.20 53.23 52.30 53.99 54.41 54.37 54.81 54.97
51.97 52.01 52.09 52.18 52.28 52.28 52.32 52.36 52.55 53.00 52.75 53.00 53.27 53.58 53.53 53.72 53.90 53.62 51.71 49.27 47.05 42.78 42.38 44.16 46.16 50.46 51.65 50.63 51.02 41.30 42.88 44.01 42.72 44.76 39.85 39.86 37.10 41.21 35.80 38.31 40.11 43.34 46.73 42.57 43.45 46.57 48.71 50.30 52.25 52.89 53.31 52.80 53.75 54.20
51.67 52.01 51.99 51.86 51.95 52.07 51.76 51.96 52.78 52.69 52.59 52.81 53.20 53.49 53.80 53.86 53.66 53.72 50.27 49.50 48.61 44.07 38.52 44.29 51.77 48.66 52.03 51.18 49.63 48.55 45.78 46.09 45.45 43.68 39.91 38.69 36.54 42.46 38.47 39.94 39.42 42.62 44.17 42.76 42.81 46.51 48.62 49.59 50.71 51.66 52.41 53.10 53.09 53.93
51.37 51.67 51.66 51.64 51.64 51.90 52.27 52.53 52.58 52.43 52.49 52.92 53.37 53.55 53.55 53.49 53.12 54.96 53.40 51.48 50.72 45.21 39.76 42.72 48.68 49.38 49.95 49.43 47.83 47.87 46.48 44.87 43.40 39.17 37.48 36.21 39.49 38.81 40.63 40.78 38.94 43.69 40.80 38.89 39.49 46.31 46.46 47.91 51.14 52.76 52.28 52.16 53.50 53.63
51.28 51.37 51.29 51.38 51.55 51.77 52.10 51.57 51.95 52.14 52.43 52.78 53.35 53.43 53.57 52.64 52.94 52.59 46.45 51.04 52.04 49.91 42.66 38.27 48.52 46.88 47.94 47.00 45.60 44.90 44.61 43.95 42.45 38.12 36.58 38.67 41.40 38.41 34.89 34.52 40.90 42.92 43.28 43.91 41.72 45.73 47.32 48.66 50.35 51.36 51.85 53.01 53.70 53.84
51.15 51.03 51.26 51.56 51.27 51.69 51.48 51.33 51.69 52.21 52.77 53.19 53.24 53.29 53.25 53.22 54.53 49.80 46.69 49.66 51.71 51.53 43.62 40.53 43.26 47.17 47.65 46.24 44.15 44.15 44.53 40.96 38.93 36.97 34.94 35.58 36.21 38.53 34.41 32.52 39.14 40.52 42.11 41.83 42.88 42.90 42.72 45.89 46.35 50.02 51.26 52.45 53.45 54.24
50.72 50.96 51.12 50.83 51.11 51.49 51.13 51.43 52.06 52.80 53.19 53.22 52.69 52.65 51.58 51.10 50.34 49.66 51.85 51.08 51.60 47.28 43.97 38.69 42.23 46.06 48.30 44.17 41.26 43.42 39.52 39.04 38.70 38.05 37.94 35.28 36.26 35.27 31.69 37.44 42.05 43.71 45.86 48.72 50.10 51.15 46.63 48.13 49.83 49.56 50.65 50.64 50.69 51.50
50.73 51.13 51.24 50.61 50.62 50.92 51.12 51.49 52.50 53.21 52.92 52.44 53.11 52.32 54.33 52.76 50.81 50.29 50.95 50.45 52.19 47.89 40.40 43.56 38.52 40.94 50.27 45.83 44.29 42.11 40.22 35.65 39.12 35.84 37.81 36.76 32.42 32.42 36.77 41.54 42.85 43.59 45.10 47.46 51.28 51.10 50.73 48.55 47.18 49.25 49.35 49.88 49.62 50.49
50.93 51.04 50.71 50.65 50.89 50.87 51.47 52.18 53.03 52.94 52.18 53.01 52.96 52.30 49.49 52.97 52.35 51.96 48.95 46.44 47.28 49.26 48.05 44.62 46.03 42.66 48.07 46.42 43.99 43.95 41.50 41.37 37.03 42.37 43.82 40.66 37.13 42.72 44.68 45.22 46.04 45.01 47.51 50.03 47.71 45.75 45.96 45.98 45.78 47.59 48.00 50.06 50.77 51.77
50.91 50.48 50.78 50.37 51.22 51.69 52.04 52.67 52.83 52.46 52.15 54.36 54.56 53.41 54.39 52.19 51.63 49.08 50.14 47.99 49.68 45.21 48.18 46.37 49.03 46.26 50.60 44.49 43.52 46.83 45.93 45.09 41.00 40.99 40.52 38.11 35.47 41.82 45.47 45.75 46.35 47.35 46.81 48.06 49.41 49.81 49.48 50.03 48.43 48.14 49.03 51.54 52.89 53.18
50.63 50.13 49.93 50.66 51.31 51.88 52.38 52.62 52.62 53.58 58.53 55.47 56.70 58.18 55.79 51.45 51.47 48.38 46.08 48.94 47.31 46.25 50.29 49.99 51.94 49.90 50.89 50.56 45.54 48.84 45.58 46.68 38.16 45.31 39.07 33.14 40.56 45.13 46.08 46.39 46.90 47.26 47.39 47.17 48.82 48.59 49.38 49.53 50.00 49.98 50.35 51.37 51.38 51.54
50.29 50.12 50.61 51.06 51.88 52.32 52.73 52.68 52.89 53.29 51.36 59.45 56.60 53.25 52.75 51.85 42.11 43.40 41.55 45.08 45.39 49.91 50.72 50.99 48.03 49.80 53.80 51.96 51.16 48.81 43.24 41.95 47.29 39.61 34.93 39.40 45.15 47.06 47.01 46.86 46.43 47.69 48.09 48.16 48.02 49.15 49.04 49.08 49.04 48.75 48.96 49.83 50.14 50.74
50.70 50.97 51.20 51.53 51.94 52.65 52.73 52.96 52.83 53.42 55.11 55.07 50.42 39.85 47.76 45.67 47.43 47.87 46.37 47.34 50.50 50.96 51.18 52.36 49.16 49.78 50.96 48.15 47.55 41.43 45.29 43.96 37.40 33.68 34.54 41.88 45.21 47.12 48.24 47.14 45.76 44.83 46.52 47.18 48.44 48.83 48.04 47.62 47.94 49.03 49.32 49.54 50.03 49.81
50.93 51.29 51.48 52.79 52.58 52.64 52.78 52.85 53.08 57.41 57.94 52.11 51.62 42.45 47.00 50.38 51.21 51.11 51.56 50.65 51.12 52.77 52.08 51.49 51.91 51.31 47.73 45.12 44.91 43.98 40.23 35.88 35.94 36.00 41.00 45.84 47.30 47.13 47.79 47.99 46.79 45.84 45.60 45.18 47.52 48.56 48.42 48.54 47.30 47.42 48.26 49.08 48.52 48.84
51.33 51.45 57.35 52.33 52.40 52.34 52.15 55.37 56.31 60.51 57.12 53.77 52.15 48.91 51.19 49.56 48.84 49.24 49.15 48.75 51.28 51.65 52.81 52.12 47.91 44.82 43.76 43.82 40.34 38.65 37.09 34.31 39.16 43.05 46.76 47.17 48.67 48.75 48.00 47.39 48.91 47.46 46.50 45.93 45.96 48.03 49.66 48.52 48.09 47.72 48.29 48.01 48.22 48.31
50.29 60.94 52.55 52.28 51.68 51.79 53.29 59.73 60.03 54.39 54.50 51.32 51.33 53.10 52.10 50.67 49.05 49.47 50.14 49.59 52.36 50.42 46.76 48.13 43.11 41.51 45.47 39.82 37.93 41.13 38.54 41.43 43.68 45.73 47.56 49.11 48.59 47.99 48.53 48.21 48.21 48.28 47.42 47.27 46.50 48.46 48.37 50.50 50.47 49.46 48.03 48.91 48.34 48.79
57.75 60.11 53.74 51.96 52.50 58.06 62.18 60.56 57.35 54.51 49.81 52.20 50.38 51.62 53.02 52.69 50.64 50.41 51.10 51.47 50.55 49.23 48.94 45.78 47.48 41.92 39.43 36.49 38.58 42.66 44.18 45.44 45.92 47.10 48.05 49.36 49.54 49.35 49.15 48.68 49.99 48.47 48.25 48.31 47.15 49.06 48.85 48.70 47.87 47.66 48.63 48.28 48.17 48.35
55.62 54.39 52.06 51.59 53.16 56.59 57.27 57.26 58.37 52.03 53.01 54.00 53.48 54.39 53.84 53.37 54.04 52.98 52.35 52.37 52.16 51.94 49.26 47.52 43.46 41.41 41.84 43.97 43.10 44.06 44.64 44.27 44.04 45.85 48.38 50.70 51.35 49.56 49.48 49.01 48.56 48.23 47.52 48.00 47.07 46.71 47.52 49.62 47.61 47.22 47.33 47.64 45.61 45.37
51.08 51.59 52.04 52.68 54.23 59.73 54.57 56.34 60.03 54.74 52.34 52.73 54.21 52.44 52.70 52.48 53.71 52.40 51.99 51.71 50.93 49.03 46.10 44.31 43.84 45.00 44.86 45.84 46.71 45.90 46.24 46.04 45.57 44.18 44.94 45.73 47.13 48.94 49.62 47.70 46.33 47.90 46.81 47.64 46.94 44.64 46.91 46.91 47.25 46.83 46.26 45.72 44.97 44.18
56.04 58.79 55.74 59.11 62.94 60.82 56.58 55.11 56.31 54.84 54.68 52.92 55.27 54.95 52.66 54.06 52.44 50.80 50.42 52.60 49.07 47.03 45.94 47.70 47.61 48.62 50.24 49.49 49.11 48.34 47.64 46.72 45.22 45.14 44.41 43.75 45.58 46.66 46.91 46.74 47.03 46.55 45.73 45.36 45.33 44.98 44.30 44.20 45.29 46.31 45.86 45.80 45.57 44.60
61.76 54.70 61.18 61.67 59.38 58.60 56.91 58.05 55.16 56.76 54.95 53.88 53.14 54.20 50.85 49.93 50.13 50.27 52.28 49.13 48.58 48.65 49.32 49.27 49.20 49.10 48.95 49.06 48.79 49.37 48.91 48.60 48.55 46.89 44.88 45.06 44.26 44.78 45.37 45.80 45.56 45.00 45.08 45.15 45.27 44.82 44.38 44.94 44.84 46.00 45.51 45.49 45.63 44.40
56.54 58.31 61.23 60.36 55.78 51.63 49.62 58.83 54.28 54.26 50.27 51.02 52.25 49.28 49.67 50.24 51.97 54.16 48.71 50.48 50.16 52.04 52.20 51.44 51.51 52.28 51.04 51.33 51.40 50.94 49.82 48.25 45.76 45.64 45.81 45.71 45.39 46.05 45.74 45.93 45.75 44.88 44.03 45.15 46.14 45.51 45.07 42.94 44.79 44.95 45.00 45.10 45.10 44.82
51.86 59.44 56.88 55.31 54.61 47.86 56.17 53.61 55.38 52.82 52.88 50.31 48.87 47.22 48.76 50.86 52.78 49.53 46.75 49.32 49.87 52.17 51.84 52.07 50.79 49.35 50.47 52.59 49.31 47.77 48.03 47.47 45.88 45.79 46.40 45.13 43.66 44.20 45.45 45.32 45.65 45.83 45.16 45.58 45.77 45.72 45.50 45.15 43.54 44.51 43.76 43.09 43.68 43.92
50.25 49.22 51.35 40.98 54.08 52.28 49.89 49.71 49.51 49.76 47.53 49.56 47.62 47.36 49.72 52.50 47.70 46.20 46.47 49.15 50.16 50.23 50.71 51.54 50.24 49.26 47.31 47.43 47.48 47.34 48.81 46.27 44.43 43.74 45.41 45.04 44.25 44.13 44.16 44.78 45.61 45.51 45.58 44.53 44.33 44.46 44.44 44.71 44.44 44.03 43.52 42.88 42.58 42.53
41.29 52.91 46.30 51.90 52.03 50.42 50.66 47.63 48.35 48.59 48.68 47.09 48.45 51.89 52.89 49.55 46.04 44.27 47.35 49.97 50.70 50.64 50.18 49.53 48.46 47.30 47.72 47.74 46.16 45.81 46.01 46.76 45.58 43.81 44.38 44.88 44.18 43.15 42.14 41.83 42.22 42.84 45.00 45.15 44.54 43.61 43.59 43.77 43.53 43.21 43.09 42.54 40.40 42.30
42.86 51.04 54.53 56.66 54.31 53.81 52.43 52.44 53.03 51.66 48.87 47.07 48.97 49.55 47.39 41.81 43.70 48.61 52.09 53.76 52.20 52.94 53.16 53.52 50.62 49.38 47.50 47.79 47.70 47.63 48.48 48.11 46.45 45.73 46.64 46.67 46.49 45.51 44.10 42.53 41.47 42.29 44.18 44.97 44.18 43.59 43.09 43.06 42.93 42.71 42.56 43.08 42.86 42.49
54.32 54.16 50.41 52.57 54.07 53.92 51.54 51.01 48.92 47.80 47.83 51.71 51.02 47.60 45.34 46.38 46.58 51.43 53.61 54.98 54.72 55.11 54.07 51.94 51.44 50.58 49.86 49.40 48.45 47.93 47.31 47.11 47.62 47.37 47.33 46.82 47.70 46.27 46.24 45.71 45.54 38.54 44.46 44.63 43.66 44.04 43.13 42.48 42.40 42.32 42.13 41.69 41.67 42.52
54.29 55.83 55.31 51.91 53.07 53.52 52.79 50.10 51.71 53.88 54.63 52.06 49.89 47.94 49.72 52.67 51.34 54.58 55.26 55.74 55.81 54.69 52.01 50.64 51.19 51.67 50.62 50.75 49.84 49.01 48.49 46.96 44.20 42.01 41.65 41.87 42.59 43.42 45.72 45.38 45.18 45.19 44.87 44.18 36.34 39.66 42.05 41.77 42.41 42.27 42.34 42.67 42.79 43.08
54.55 57.26 54.07 52.43 51.17 51.25 53.82 55.29 54.39 55.70 55.44 54.62 54.60 54.08 54.81 55.37 57.44 57.36 56.32 55.12 54.03 52.38 51.32 51.45 51.62 49.98 48.48 47.38 46.29 46.42 47.06 47.13 46.23 44.20 41.85 41.17 42.43 44.79 45.11 44.55 44.38 44.47 44.64 43.64 43.38 43.37 38.59 41.28 40.91 42.64 41.57 41.98 41.60 41.29
56.40 55.19 53.10 53.45 51.88 53.83 56.08 56.98 56.36 55.33 55.53 55.14 55.15 52.55 52.30 54.70 54.32 55.90 55.63 55.49 53.83 52.47 51.29 49.94 49.56 49.88 47.95 46.36 45.31 44.25 43.32 46.29 47.01 46.44 45.52 45.33 45.30 44.84 44.66 44.10 44.97 44.72 44.41 43.60 43.00 42.50 41.64 41.54 41.24 40.72 40.39 40.07 40.16 40.14
55.82 53.90 53.41 51.27 51.87 54.79 56.65 55.34 54.38 52.77 53.32 52.98 53.23 53.75 54.00 53.32 52.15 53.89 53.82 53.45 52.11 50.36 45.92 48.80 48.11 47.16 48.26 47.55 47.19 46.55 38.04 46.42 45.73 44.84 44.18 43.96 43.76 43.96 44.15 44.23 44.53 44.04 43.38 43.04 42.57 41.55 41.56 41.06 40.62 40.32 40.16 40.07 39.66 40.15
55.20 54.34 54.96 52.88 52.76 52.48 54.24 54.07 52.28 51.88 52.80 52.09 51.97 53.33 52.95 51.84 49.40 51.72 53.41 53.35 51.55 50.17 49.35 49.09 48.90 48.63 48.23 47.52 46.80 46.67 43.96 43.83 39.34 36.25 36.66 35.83 34.70 37.03 42.74 43.09 43.07 43.17 42.44 41.95 41.88 41.31 40.30 40.08 40.01 39.93 40.11 40.19 40.14 40.30

GFSWCAN_sfc_wetblb_045.txt.gz
Wetbulb
52.06 52.70 52.75 52.81 52.89 52.87 52.83 52.95 52.89 52.52 52.83 53.24 53.49 53.76 53.76 53.95 53.94 53.12 50.64 50.72 44.93 39.86 40.88 43.68 44.07 41.34 41.52 41.53 37.49 39.97 38.49 39.80 38.46 34.40 34.36 33.62 34.27 35.44 35.16 37.69 35.53 36.32 35.61 35.14 36.21 36.60 34.50 47.96 48.15 42.95 48.88 51.56 51.59 50.78
51.96 52.47 52.36 52.50 52.67 52.73 52.58 52.61 52.42 52.55 52.91 53.20 53.35 53.53 53.72 53.88 53.90 53.50 48.82 51.83 50.56 42.89 42.69 46.91 46.78 47.76 46.58 46.03 42.29 42.40 39.68 39.05 39.64 35.51 35.62 35.49 33.29 37.13 34.86 31.39 40.08 33.76 37.39 33.83 37.51 37.03 45.91 48.44 47.46 49.97 50.45 49.09 48.95 49.35
52.13 52.02 52.18 52.20 52.26 52.30 52.30 52.09 52.38 52.67 52.89 52.99 53.26 53.74 53.92 54.00 53.96 53.46 50.66 49.11 46.99 42.81 42.86 43.44 44.68 48.83 50.69 49.72 49.94 40.81 42.08 42.32 40.72 42.79 38.30 36.61 33.15 36.65 31.93 33.91 35.23 39.16 42.35 36.27 37.57 41.27 43.29 46.85 47.36 48.14 48.06 48.68 49.55 49.66
51.78 52.10 51.95 52.05 52.03 52.01 51.94 51.89 52.42 52.55 52.67 52.92 53.53 53.98 53.98 53.98 53.55 53.61 50.18 49.55 48.55 44.50 39.06 42.35 50.77 47.63 50.71 50.00 48.87 48.07 46.23 46.08 44.34 42.75 37.15 37.15 34.67 38.37 34.09 35.89 34.75 38.58 40.06 36.28 36.69 40.40 41.62 45.63 45.18 46.41 47.16 48.26 49.91 51.26
51.63 51.73 51.74 51.60 51.75 51.78 51.86 51.95 52.24 52.29 52.74 53.25 53.55 53.68 53.67 53.32 53.37 54.28 52.06 50.59 50.74 45.62 39.29 40.86 46.21 48.18 49.07 48.55 47.24 47.25 45.36 43.56 41.85 37.96 36.86 34.72 38.01 36.97 37.15 37.01 35.96 39.40 36.68 34.68 33.77 39.04 38.85 40.09 43.77 45.63 44.77 45.70 47.74 49.36
51.24 51.25 51.37 51.41 51.65 51.57 51.57 51.85 51.98 52.31 52.77 53.13 53.52 53.82 53.37 53.16 53.26 52.60 45.89 49.55 51.47 49.97 43.39 38.43 47.91 46.90 47.89 47.19 45.49 44.66 44.65 43.19 41.59 37.68 35.78 37.33 40.69 37.11 32.71 31.68 38.17 40.87 41.63 40.82 38.53 42.78 42.76 43.07 44.49 45.97 45.18 46.28 47.30 48.98
51.19 51.09 51.41 51.46 51.37 51.12 51.29 51.61 52.03 52.50 53.04 53.53 53.54 53.20 53.39 53.10 52.55 48.62 46.48 50.22 51.92 52.07 43.80 41.04 44.49 47.03 48.24 46.11 44.88 44.11 43.01 40.71 39.48 36.68 34.74 35.24 36.36 38.20 32.76 30.90 38.16 40.88 42.72 43.72 45.08 46.28 43.98 43.82 42.29 46.60 47.96 48.70 49.69 50.52
50.80 51.00 51.12 51.33 51.17 51.07 51.23 51.55 52.04 52.68 53.39 53.09 52.85 52.72 51.55 50.85 49.32 49.43 50.48 50.84 51.54 47.26 44.87 41.44 43.03 45.27 48.59 44.62 42.29 43.93 40.27 40.56 39.48 37.81 37.99 35.28 36.46 34.54 30.35 35.98 41.34 42.63 44.28 47.71 48.81 49.86 45.65 46.19 46.91 47.92 49.31 49.53 47.82 47.24
50.93 51.15 51.00 50.92 51.24 50.96 51.22 51.75 52.41 53.23 53.08 52.46 53.24 52.91 52.81 50.38 50.85 50.24 52.01 50.55 52.19 47.53 43.10 44.02 40.80 41.13 47.53 45.90 43.87 42.04 41.28 37.38 39.80 36.55 38.00 36.41 32.03 31.85 37.11 40.69 41.83 43.10 42.56 45.34 48.23 48.47 48.19 46.47 47.13 48.99 49.18 48.96 46.86 46.96
51.02 51.25 50.98 50.53 50.50 51.17 51.18 52.32 52.81 52.93 52.51 52.88 51.79 51.80 50.21 51.52 52.12 51.89 49.60 47.09 47.26 47.41 47.46 43.69 46.08 43.78 47.92 45.23 43.88 42.98 41.01 40.04 38.35 42.10 42.85 38.33 37.11 43.58 43.40 43.72 44.47 45.58 44.95 45.57 44.03 44.50 46.78 45.91 45.89 47.24 48.00 47.70 47.36 47.68
50.92 50.52 50.70 50.54 50.79 51.65 51.98 52.79 52.56 52.61 52.26 51.99 52.74 52.88 52.03 52.33 51.41 48.83 48.83 47.66 49.61 42.71 48.96 44.64 47.33 46.34 50.34 44.30 42.95 46.44 43.76 42.93 36.17 40.04 40.15 36.52 35.84 41.74 45.18 43.48 44.92 46.15 47.07 45.78 46.65 47.39 47.28 48.50 48.36 48.17 49.16 50.06 49.75 49.16
50.84 50.98 50.92 51.08 51.55 51.94 52.53 52.83 52.90 51.71 56.94 52.78 52.17 58.22 54.31 51.06 50.14 48.61 46.73 49.41 47.73 44.26 50.81 49.32 48.63 50.08 51.33 49.78 44.19 46.54 43.22 44.02 36.86 43.39 37.30 33.30 39.98 44.32 45.06 44.39 44.02 44.37 46.93 46.69 46.65 46.03 46.89 47.53 47.69 47.74 47.79 47.90 48.80 48.65
50.89 51.04 51.11 51.41 51.80 52.18 52.53 52.90 53.28 53.03 53.08 57.49 54.83 53.99 52.28 50.88 41.40 43.40 41.78 44.68 44.45 49.01 49.29 50.05 49.50 51.39 50.71 51.84 47.98 46.08 42.09 39.97 45.67 37.46 32.84 39.10 43.35 45.11 45.43 44.98 43.77 44.30 44.64 47.20 47.11 46.64 46.53 46.21 47.40 47.69 47.01 47.77 47.26 46.49
50.90 51.17 51.42 51.64 52.02 52.59 52.91 53.25 53.88 53.12 53.20 53.18 52.11 39.25 46.68 46.48 46.15 46.38 45.01 45.39 48.57 48.07 48.25 50.55 50.98 49.79 51.31 47.85 46.38 42.12 44.10 41.61 34.65 32.14 33.62 40.35 43.95 45.23 45.87 46.17 44.40 42.58 43.39 43.52 47.00 46.75 45.81 45.47 45.57 46.85 47.69 47.33 47.51 46.26
51.19 51.26 51.51 52.34 52.77 53.08 53.11 53.51 53.49 54.93 55.20 53.49 51.89 40.12 47.70 50.21 49.61 49.23 49.65 48.95 49.37 50.10 49.90 49.42 50.59 49.30 46.79 44.90 44.13 42.27 38.84 34.53 35.61 35.61 40.53 44.01 45.25 45.67 45.08 45.25 45.28 43.99 43.52 43.17 43.62 46.36 46.66 46.02 45.32 45.51 46.46 46.81 46.90 46.10
51.46 51.61 56.25 52.85 52.53 52.26 52.21 53.63 53.23 56.93 58.48 54.49 53.78 49.11 50.93 48.14 47.55 48.42 48.45 47.58 50.23 50.17 50.76 51.53 47.36 43.83 42.05 41.88 38.82 37.02 35.47 33.81 38.16 43.07 45.48 46.59 46.19 46.40 46.13 46.44 46.08 46.07 45.19 44.12 44.14 45.42 47.27 47.34 46.40 46.27 47.10 46.99 46.49 46.62
50.91 58.11 52.60 52.53 51.89 52.00 52.92 58.57 60.79 57.10 54.20 52.24 50.32 53.44 51.99 50.42 48.49 48.83 49.44 48.62 51.94 49.09 45.83 46.70 41.51 41.16 44.63 38.86 37.16 40.62 38.22 39.83 41.56 45.37 46.90 48.30 46.55 46.81 47.55 47.24 47.43 46.66 45.42 44.96 44.87 46.36 46.44 48.72 47.66 45.84 43.92 44.76 45.41 45.94
54.80 59.20 53.98 52.22 51.77 55.85 63.59 60.17 57.97 54.26 50.38 53.06 51.23 52.03 53.33 53.34 50.88 50.57 51.78 51.64 50.07 47.45 47.43 45.69 47.49 41.31 38.83 36.43 37.13 40.90 42.22 43.22 43.93 44.57 47.32 48.64 48.66 48.05 48.34 47.03 46.79 46.92 45.80 45.32 45.33 47.39 46.26 44.57 44.00 45.10 44.20 43.69 43.05 42.54
53.03 52.91 51.90 51.60 52.17 52.79 58.49 58.37 59.73 52.05 52.28 54.42 54.91 53.66 53.82 54.16 56.28 55.25 53.47 54.46 54.54 53.42 49.93 46.91 43.10 39.86 39.94 42.36 41.75 42.55 43.32 42.82 41.95 43.91 45.87 47.90 49.16 47.74 49.08 48.23 46.11 45.65 46.90 45.21 44.69 44.22 45.87 46.31 43.75 43.70 43.77 42.78 41.42 41.56
51.05 51.35 52.02 52.70 53.70 58.48 56.94 57.35 62.19 55.93 52.61 54.42 56.01 54.17 54.63 54.00 55.74 54.84 53.66 52.37 51.43 50.65 46.83 43.90 43.19 44.40 44.15 45.76 47.16 45.83 45.55 45.53 44.20 42.65 43.34 44.39 44.90 45.26 47.47 46.24 44.86 46.01 44.73 45.82 43.19 42.74 42.55 42.44 43.19 43.90 43.44 42.01 40.54 40.45
56.14 59.14 55.89 56.12 60.94 58.59 58.23 56.19 53.81 54.04 55.44 54.43 54.64 55.94 54.25 55.49 54.22 51.59 51.70 54.06 49.83 47.19 45.62 47.66 47.00 48.75 50.88 49.96 50.16 49.26 48.35 46.90 44.46 43.88 43.45 42.45 44.68 45.13 45.96 45.34 45.57 44.79 43.53 43.07 42.87 42.03 41.77 40.63 41.79 42.79 42.95 41.54 41.64 42.03
60.37 56.22 60.64 62.14 58.99 59.53 57.78 60.28 55.71 57.87 56.00 55.06 54.99 54.27 52.73 51.29 51.96 51.56 53.72 50.52 48.81 49.17 50.02 49.45 50.25 50.06 50.28 50.19 49.42 49.65 49.30 48.48 48.18 47.21 44.65 44.63 42.92 42.80 43.66 44.18 43.90 43.23 43.35 43.41 43.25 42.06 41.99 42.25 41.99 43.18 42.59 42.65 42.22 41.25
56.71 58.09 60.17 60.37 55.39 48.79 47.27 60.57 55.62 56.06 51.76 52.37 54.60 51.06 51.20 52.12 53.21 54.95 49.46 51.39 51.00 53.28 52.83 52.27 52.61 53.05 51.01 52.47 52.76 52.12 50.62 48.68 46.38 45.17 45.07 44.48 44.18 44.54 43.99 44.42 44.43 42.75 41.93 42.90 44.81 44.27 42.79 42.07 42.71 42.31 42.26 42.20 43.05 43.06
53.35 58.11 56.79 55.47 53.64 46.66 56.52 54.45 55.94 54.07 54.02 51.69 50.30 48.30 50.04 51.43 52.33 49.13 47.08 48.15 50.20 52.16 52.32 54.03 52.27 49.82 51.15 51.43 49.30 47.77 47.82 46.26 44.48 44.65 44.71 43.17 42.15 42.55 43.96 43.75 44.08 43.73 43.41 43.79 44.09 44.10 43.91 43.33 42.22 42.15 41.85 42.13 41.98 41.82
48.52 47.95 49.91 38.83 53.50 51.75 50.13 50.74 51.06 50.01 47.21 47.92 48.56 49.76 49.08 48.79 43.93 45.49 45.50 48.88 49.77 49.91 50.87 52.29 50.66 49.50 47.53 47.39 46.87 46.12 47.07 44.75 43.09 42.64 43.40 43.90 43.12 42.70 42.43 43.30 42.32 42.47 43.49 42.51 42.27 42.59 42.63 42.85 42.57 41.89 41.55 41.04 41.48 41.05
40.05 51.89 46.56 52.34 53.09 51.13 49.71 47.41 49.05 43.53 45.67 44.23 47.15 50.94 51.09 47.51 44.27 43.61 46.05 49.07 49.31 50.52 51.19 51.01 49.33 48.08 47.82 49.30 46.03 45.35 45.82 46.15 45.92 43.48 43.90 44.49 43.59 41.73 41.07 40.52 39.62 39.80 42.76 43.18 42.27 41.63 41.93 42.34 41.96 42.22 41.76 41.19 40.20 40.78
40.95 50.51 54.99 57.97 55.02 53.61 52.19 49.26 50.30 48.79 47.30 45.05 46.87 48.87 48.03 44.05 42.12 43.21 48.68 50.38 51.39 53.24 54.91 52.43 50.47 49.56 48.94 48.40 48.21 48.17 48.38 47.88 46.64 46.02 46.03 46.45 45.44 45.10 43.61 41.30 39.80 41.56 43.76 43.21 42.35 42.09 40.99 40.99 41.32 41.27 41.06 41.30 41.19 41.02
54.27 55.86 51.17 53.81 54.27 54.11 47.04 47.31 46.62 47.04 50.31 51.48 50.58 47.50 45.68 46.27 44.28 49.18 52.25 52.17 54.35 54.34 53.28 52.24 52.78 51.36 50.05 50.11 49.29 48.92 48.30 47.78 47.27 47.93 46.80 46.62 46.51 45.63 45.62 44.72 43.93 40.14 42.41 41.53 41.81 42.24 41.23 41.05 40.83 40.99 41.23 40.64 40.56 41.56
54.14 55.79 55.71 52.76 53.74 53.61 51.02 49.73 49.91 51.75 54.46 53.38 49.59 48.56 48.91 50.98 52.69 52.38 53.63 55.08 55.06 53.92 51.74 51.06 50.81 51.89 51.25 49.87 50.56 47.97 46.69 45.81 44.20 42.13 41.12 40.55 41.50 42.47 44.55 44.29 44.13 44.12 43.67 41.93 37.76 39.84 40.85 40.35 40.90 40.79 41.73 41.41 42.05 41.77
54.43 57.10 54.16 53.65 52.10 51.01 53.32 54.84 54.04 55.92 56.84 55.46 55.35 52.83 52.31 52.74 54.73 56.29 55.12 55.16 52.32 50.68 51.39 51.09 50.41 49.44 47.16 45.65 44.86 45.12 45.90 45.98 45.14 42.82 40.46 40.06 41.12 43.63 43.63 43.47 43.75 43.77 43.59 43.38 42.66 42.90 40.14 40.87 41.90 41.90 41.12 40.65 39.99 40.09
56.83 55.43 51.74 52.15 52.66 54.66 55.70 57.00 57.04 55.88 55.58 50.16 51.79 51.19 51.06 52.17 53.43 53.92 54.11 54.26 54.00 52.74 50.65 48.32 47.30 47.32 45.80 44.49 43.75 42.87 41.97 44.45 44.50 43.52 42.98 43.17 42.98 42.77 42.72 43.72 43.79 43.86 43.38 42.85 42.30 41.47 40.95 40.42 40.35 40.05 39.92 39.33 39.50 39.27
55.82 54.65 53.17 51.41 52.51 55.70 58.13 55.13 54.63 53.63 51.90 50.61 48.92 51.01 52.63 50.84 50.04 51.90 52.78 52.41 50.67 48.76 45.57 47.26 45.69 44.68 46.19 46.17 46.24 44.03 41.66 42.16 41.54 41.47 40.67 40.44 40.79 42.12 42.60 42.48 42.79 42.97 42.69 42.21 41.65 40.89 40.63 40.12 39.64 39.60 39.44 39.53 39.87 39.89
55.13 53.93 55.37 53.34 53.23 53.47 54.43 54.09 52.68 52.18 53.27 50.87 50.60 52.51 51.87 51.55 47.16 50.23 54.91 53.79 50.75 48.49 47.84 47.65 47.50 47.56 48.30 46.90 44.11 43.01 41.61 40.74 37.68 36.19 36.38 36.19 36.13 37.96 40.30 40.42 40.96 41.68 41.33 41.20 40.79 40.59 39.89 39.69 39.50 39.82 39.82 39.67 39.64 39.62

GFSWCAN_sfc_wetblb_048.txt.gz
Wetbulb
51.68 51.99 52.33 52.68 52.92 52.90 52.84 52.68 51.97 52.44 52.73 52.75 53.29 53.48 53.81 53.99 53.97 52.15 49.55 49.54 45.27 40.02 40.87 43.38 43.79 41.46 41.28 40.98 36.73 39.63 36.17 35.93 33.44 31.33 32.34 31.71 32.25 34.14 33.46 35.77 34.44 34.00 33.32 31.72 33.34 34.79 33.05 44.32 44.65 38.73 41.42 45.90 46.80 47.40
51.81 52.07 52.23 52.62 52.70 52.61 52.35 52.01 52.37 52.55 51.99 52.69 53.23 53.54 53.93 54.20 53.91 53.24 48.47 51.37 49.91 43.80 43.17 45.61 46.20 47.01 46.15 44.97 42.09 42.33 38.74 37.03 36.23 33.08 33.33 34.11 32.19 34.48 33.13 30.13 37.65 31.74 35.26 34.02 34.23 35.61 43.57 44.93 45.53 47.49 46.12 44.37 44.15 45.47
51.89 52.07 52.17 52.31 52.22 52.17 51.83 52.16 52.39 52.57 52.47 53.00 53.54 54.01 54.30 54.05 54.01 53.26 49.64 48.94 47.07 42.77 41.66 43.13 44.63 49.17 50.21 49.29 49.31 40.44 41.65 42.14 38.77 38.29 34.93 34.96 32.24 33.98 29.53 31.78 34.35 37.19 39.53 34.51 32.95 37.37 39.12 41.59 44.97 44.88 44.77 44.14 44.63 45.99
51.83 52.03 51.98 52.06 51.90 51.69 51.96 51.93 52.28 52.19 52.59 53.09 53.83 54.07 54.03 53.74 53.68 51.51 47.85 48.98 46.64 41.94 34.32 39.58 49.67 44.77 49.76 47.29 48.28 48.01 45.34 44.72 43.72 38.67 33.04 31.77 32.41 36.57 32.06 32.76 33.02 37.14 37.85 35.94 34.83 36.40 39.77 42.76 43.81 43.97 44.80 45.92 45.67 46.29
51.56 51.76 51.80 51.60 51.31 51.66 51.43 51.68 51.95 52.25 52.93 53.52 53.68 53.93 53.54 53.66 53.58 52.72 49.61 47.63 45.85 41.96 34.25 36.65 41.97 42.98 45.36 45.20 44.88 45.17 43.70 42.55 41.07 37.86 34.84 33.20 37.19 35.03 32.83 32.50 34.98 39.14 36.39 34.44 33.83 39.09 39.20 39.55 42.55 45.10 44.83 44.82 45.80 45.31
51.32 51.46 51.41 51.24 51.02 51.18 51.22 51.45 51.98 52.57 52.98 53.33 53.67 53.64 53.35 53.58 53.42 51.82 45.27 47.72 47.89 45.31 37.99 34.24 42.36 45.44 46.51 44.52 43.86 42.18 42.68 41.15 40.08 36.99 35.08 36.67 39.32 36.17 30.77 29.30 38.04 39.54 41.12 43.78 42.79 43.79 42.63 43.06 43.98 45.70 46.09 46.43 47.04 47.00
51.25 51.20 51.40 51.03 51.30 51.09 51.21 51.53 52.09 52.59 53.05 53.42 53.14 52.92 53.13 52.84 48.60 46.28 43.51 47.20 49.69 46.79 41.01 36.48 39.87 44.63 46.05 42.66 42.24 42.24 41.76 39.44 39.18 37.09 35.82 36.10 36.50 37.27 32.00 29.95 36.55 42.67 43.19 44.38 46.51 47.61 43.76 45.16 44.97 47.57 46.36 47.78 49.32 49.81
50.96 51.23 51.36 51.10 50.85 50.85 50.98 51.57 52.56 52.95 53.33 52.94 52.78 52.26 51.19 50.69 49.02 45.58 46.40 49.63 48.63 43.53 40.97 39.48 40.78 43.73 47.40 43.21 40.30 40.12 38.03 39.77 38.64 37.02 38.18 35.42 36.30 33.97 31.63 37.04 41.48 43.04 43.50 43.97 45.82 47.38 45.99 47.37 47.21 46.95 47.95 47.97 48.04 48.62
50.96 51.21 51.04 50.69 50.47 50.61 50.89 51.57 52.63 52.66 52.91 52.87 52.80 52.90 49.78 46.98 45.51 46.09 52.15 50.94 47.00 43.85 40.83 41.91 39.23 39.72 45.57 44.30 42.50 39.75 37.36 36.12 39.23 36.54 38.08 37.59 32.03 31.62 34.66 39.00 40.80 44.20 42.19 42.88 45.48 46.04 47.16 46.94 47.31 47.66 47.48 47.83 46.82 46.06
50.89 51.11 51.27 50.93 51.07 50.61 51.32 52.33 52.68 52.66 52.17 52.47 49.44 47.20 45.72 46.91 53.28 50.93 45.45 44.56 45.23 42.00 40.84 39.84 44.14 42.22 46.77 44.12 42.53 41.16 40.61 39.02 36.82 37.44 40.02 37.22 37.10 42.36 42.82 42.59 42.88 45.22 45.37 45.01 42.60 42.23 44.34 44.88 45.06 45.78 46.15 46.57 45.96 46.13
51.00 51.12 51.37 51.56 51.77 51.93 52.10 52.50 52.74 52.17 51.67 47.31 46.41 46.71 46.88 53.02 46.88 46.08 44.04 39.49 39.92 40.27 41.84 41.05 44.08 43.52 47.92 42.46 41.90 44.32 41.28 38.71 31.83 35.02 34.81 36.10 35.47 40.84 44.56 42.93 42.50 44.01 46.91 45.97 45.63 45.70 45.88 46.25 45.15 44.48 45.10 45.74 45.79 45.81
50.85 50.96 51.20 51.51 51.85 52.10 52.30 52.21 52.46 48.07 49.40 49.28 48.15 50.49 47.94 45.31 43.98 41.82 40.41 41.79 39.95 38.39 43.76 42.97 43.83 46.15 45.38 45.43 41.78 44.40 40.38 39.28 31.69 38.89 33.94 32.74 39.71 42.33 42.17 43.29 42.30 41.34 45.43 45.85 46.63 45.63 45.86 46.50 46.43 45.95 45.28 44.85 44.97 45.37
50.88 51.12 51.31 51.39 51.78 52.18 52.26 52.39 52.65 51.60 51.05 50.34 48.77 47.09 46.79 43.76 36.52 39.53 35.98 37.03 36.97 40.57 41.28 43.94 43.69 45.10 46.26 45.17 43.08 42.05 37.71 36.30 38.89 32.85 32.71 36.59 40.47 41.81 42.02 42.01 42.38 42.05 43.42 46.13 45.61 45.80 45.76 45.71 46.38 44.94 44.41 45.19 45.06 44.94
50.66 51.10 51.28 51.48 51.81 52.10 52.35 53.00 53.36 52.12 48.21 47.63 47.63 35.12 40.25 38.97 40.59 40.20 37.81 37.97 41.49 40.90 41.84 42.04 46.61 43.61 44.60 42.61 39.67 38.32 37.67 36.31 30.95 29.80 31.34 36.25 39.06 40.84 41.66 42.58 41.56 40.64 41.20 42.83 46.13 45.01 44.82 45.01 44.56 45.04 44.93 44.57 43.68 42.99
50.83 51.17 51.37 52.05 52.56 52.71 52.52 52.86 53.20 50.30 50.25 48.53 45.55 37.28 43.60 44.26 42.47 42.59 42.92 41.80 42.85 43.06 42.04 41.94 44.37 41.26 38.91 38.11 37.23 37.32 34.14 30.56 32.47 31.21 34.32 38.43 39.96 40.16 40.59 42.03 41.54 41.60 40.49 40.31 40.96 45.19 45.59 45.31 44.93 44.80 45.23 44.82 44.13 43.68
51.14 51.31 53.40 52.71 52.41 52.14 51.50 52.65 50.72 51.62 52.59 49.76 45.66 41.99 43.44 41.46 40.81 41.43 41.45 40.52 42.80 42.99 43.09 42.17 39.01 37.09 35.62 34.83 34.07 31.98 30.58 23.55 31.60 35.95 38.69 39.67 40.42 40.50 40.35 41.62 42.10 42.75 39.52 40.02 41.14 42.74 44.93 45.16 44.74 45.05 45.83 45.53 45.65 45.01
50.69 51.64 52.72 51.91 51.63 52.04 52.43 53.37 55.13 53.44 50.08 46.93 46.43 45.70 43.96 42.27 41.40 41.79 41.89 41.86 43.50 40.97 37.77 38.40 35.73 34.72 36.69 33.56 32.52 34.45 31.43 32.91 34.73 37.20 39.83 40.84 41.40 40.56 41.56 41.93 42.06 41.53 40.00 39.09 40.37 42.88 42.08 45.29 42.76 41.04 39.63 40.26 41.49 44.54
49.85 53.71 52.63 51.67 51.13 52.26 55.85 52.88 53.70 49.94 48.39 45.27 43.43 44.32 45.92 44.89 42.58 42.51 43.86 43.86 42.08 40.26 39.18 38.44 39.09 35.25 32.88 32.26 31.35 33.97 34.93 35.52 35.61 36.32 37.82 42.16 42.17 41.65 42.46 41.75 41.27 39.42 39.94 39.23 39.65 40.85 41.12 40.16 40.08 39.02 39.13 39.76 39.97 40.45
49.40 49.88 50.80 51.19 50.71 48.85 53.07 53.36 52.16 48.56 49.08 48.51 47.25 45.61 45.47 45.72 46.53 46.02 44.90 44.62 44.82 43.64 41.37 38.92 36.70 33.74 33.26 35.01 35.11 35.85 35.80 35.28 35.22 36.86 38.20 38.45 37.35 37.91 40.10 40.78 39.06 39.42 39.13 37.29 36.81 36.24 36.31 37.35 37.35 39.00 38.54 38.40 37.83 38.73
50.76 51.38 51.75 52.03 52.02 52.41 53.59 50.61 53.45 49.82 49.00 47.52 46.80 45.41 45.14 45.11 46.13 46.20 44.70 43.39 42.77 41.51 39.04 37.32 37.22 37.31 37.24 38.01 38.76 38.35 37.66 37.90 37.05 36.03 36.35 37.99 37.71 38.30 38.32 39.35 37.74 36.98 38.91 36.82 36.38 38.12 35.96 36.54 37.30 37.35 38.18 37.65 37.76 37.48
52.95 56.15 54.38 52.41 52.31 51.36 53.44 49.00 48.08 50.33 47.44 46.47 48.43 47.68 46.46 48.02 46.65 43.42 42.79 44.26 41.04 38.58 38.25 40.18 40.31 40.94 41.61 41.57 41.44 41.31 39.27 39.03 37.42 37.57 36.98 36.50 37.48 36.41 37.97 38.75 38.70 37.06 36.30 35.74 35.21 35.59 36.62 34.67 35.11 36.54 37.36 36.82 37.35 38.03
52.06 55.96 54.26 55.36 54.56 57.23 51.36 52.24 47.82 48.59 47.91 47.44 48.01 48.14 45.51 45.25 45.54 45.21 45.63 42.78 40.49 41.39 42.52 42.51 41.90 42.26 42.78 41.81 41.85 42.39 44.34 42.94 40.29 40.64 40.02 38.32 35.36 36.20 36.09 37.09 37.36 36.55 36.36 35.77 36.81 36.03 35.74 35.43 36.23 36.67 37.69 39.01 39.05 39.36
53.46 54.28 55.04 56.49 53.23 44.69 44.27 51.00 48.09 49.14 46.30 45.72 47.47 44.97 44.53 47.49 48.47 48.63 43.07 44.17 44.01 45.18 45.33 43.96 44.51 44.71 43.19 43.99 44.69 43.69 44.06 41.31 37.92 36.39 36.34 35.37 35.41 36.35 36.79 36.96 36.82 37.06 36.35 37.67 36.91 37.56 37.36 37.82 37.52 37.11 37.66 38.04 38.05 37.83
54.13 53.89 52.74 51.33 48.60 42.08 49.87 48.80 51.07 50.28 48.64 44.68 44.14 43.08 44.06 46.09 46.97 44.19 44.24 44.52 47.52 47.93 46.37 45.65 44.56 41.91 43.20 42.21 40.09 39.23 38.23 37.17 36.62 36.07 35.75 35.62 34.75 35.07 36.22 35.95 35.95 35.94 36.00 37.19 36.91 36.68 36.97 37.71 37.71 36.57 37.21 37.39 37.02 36.30
45.97 45.29 46.01 38.32 47.07 47.18 47.13 47.19 46.96 45.48 43.64 43.84 43.00 42.45 44.29 46.59 41.29 42.09 41.62 42.73 45.72 46.36 47.42 46.41 45.34 41.59 40.17 39.09 37.72 37.47 37.74 37.29 36.28 35.00 35.65 35.72 34.66 34.59 34.67 34.61 34.79 35.00 35.45 36.05 35.93 36.85 36.63 36.92 37.17 36.98 37.33 37.03 36.75 36.47
40.00 47.61 43.54 48.25 48.01 47.18 48.42 45.49 45.88 45.16 44.99 43.83 43.42 45.08 45.61 43.23 41.85 39.49 41.76 46.00 47.30 48.24 47.70 45.61 42.33 40.56 41.89 40.96 37.77 36.77 37.15 37.67 37.56 35.51 35.66 36.37 35.77 35.07 33.54 32.51 32.46 34.09 36.07 35.45 36.07 36.69 37.11 38.36 38.25 37.79 37.28 37.59 37.71 37.26
39.75 45.61 49.03 51.29 49.11 48.73 46.22 48.25 48.02 46.06 45.69 43.74 43.93 46.00 45.97 41.77 41.03 43.12 46.07 47.94 48.01 48.86 47.60 45.94 44.09 42.29 41.01 38.63 39.19 41.59 39.90 38.84 38.42 37.95 38.21 37.65 37.12 37.56 36.58 34.26 33.23 34.55 36.21 37.87 37.44 37.30 36.43 36.75 37.02 37.28 36.55 36.12 36.44 36.89
50.87 50.33 47.64 48.77 50.46 48.78 47.20 46.54 45.05 43.45 45.74 49.33 47.63 42.93 44.36 43.79 42.41 46.52 47.95 50.40 50.18 51.07 46.35 44.98 45.19 44.64 43.56 44.25 43.47 40.48 38.98 40.42 40.78 40.17 40.40 40.75 38.93 38.16 37.56 36.92 36.44 38.36 36.88 37.68 37.78 37.93 38.23 38.31 37.78 37.50 37.53 36.53 36.40 37.15
50.00 51.02 50.18 47.72 50.53 48.20 47.75 46.50 46.16 47.36 49.25 48.60 46.34 43.81 45.72 49.28 49.78 49.24 49.69 49.08 52.24 48.13 43.34 44.03 44.40 45.16 44.02 42.61 41.71 41.38 41.94 41.26 39.54 36.47 35.57 34.37 36.36 36.90 38.22 39.19 38.70 38.29 35.92 36.54 38.15 37.75 38.20 37.68 38.35 36.78 37.13 37.44 38.11 37.83
49.88 52.08 49.28 49.84 47.78 46.97 50.21 50.60 49.38 51.47 49.05 48.79 48.66 47.99 47.74 48.71 50.31 51.75 50.18 46.52 44.10 43.58 43.28 42.36 40.97 41.33 39.82 39.11 38.82 38.41 39.48 38.71 37.49 35.24 32.97 32.25 32.87 35.06 36.33 37.87 38.08 37.90 38.65 38.54 39.14 39.53 39.40 39.86 40.46 38.91 37.33 35.35 34.64 34.50
52.23 51.24 50.35 48.34 47.34 49.25 50.73 52.46 51.55 49.17 48.91 48.65 49.35 46.90 47.94 48.76 48.63 49.88 45.95 45.75 45.06 43.39 41.82 39.76 39.02 38.51 38.18 37.02 36.68 35.20 33.32 35.03 35.64 36.09 35.39 34.41 34.63 35.64 36.17 36.38 36.90 37.60 38.75 39.70 40.26 39.38 37.86 37.69 37.40 37.53 37.46 36.39 35.57 35.15
50.91 50.77 49.62 47.89 48.13 51.16 51.64 50.16 49.01 46.63 47.57 46.82 46.73 49.53 48.61 46.86 45.42 44.57 45.53 44.13 41.80 40.43 41.12 39.32 37.98 37.95 38.58 38.60 38.10 37.37 36.86 34.24 34.06 34.91 35.25 34.75 34.34 34.69 34.60 34.58 35.59 37.88 38.05 37.93 37.15 37.49 38.24 36.89 36.53 36.51 36.63 36.92 36.70 37.34
51.39 50.34 50.29 49.07 47.99 48.06 49.53 49.31 49.42 46.74 47.73 46.60 47.21 48.43 48.86 46.50 42.42 44.59 46.65 45.12 42.36 40.76 39.74 39.66 40.90 40.65 39.08 38.60 37.34 36.43 36.02 34.29 35.37 36.04 36.29 36.25 36.12 35.00 33.31 33.26 35.15 36.60 37.32 36.60 36.83 35.94 35.76 36.41 36.08 36.70 37.44 36.16 36.16 35.24

GFSWCAN_sfc_wetblb_051.txt.gz
Wetbulb
51.83 52.02 52.27 52.58 52.89 52.91 52.60 52.16 51.80 52.24 52.47 52.92 53.40 53.59 53.90 54.10 53.91 51.53 48.64 49.25 45.85 40.56 40.85 43.51 44.02 41.62 41.90 40.76 34.84 39.30 37.21 35.44 34.80 31.26 30.49 30.27 30.90 33.24 32.88 33.98 32.97 32.88 32.02 32.49 34.13 34.81 33.81 43.81 44.36 37.68 39.31 42.87 42.59 42.41
51.91 52.12 52.34 52.53 52.75 52.46 51.74 51.81 52.23 52.56 52.83 52.93 53.32 53.87 54.10 54.24 53.83 52.97 48.32 50.81 49.87 44.28 43.10 43.27 46.24 47.12 46.31 45.86 42.62 41.94 38.93 37.92 36.58 33.01 33.46 34.48 33.21 33.04 32.08 29.21 37.31 31.71 34.07 32.55 33.51 35.14 42.73 42.75 44.49 43.12 44.22 42.84 42.80 42.35
51.91 52.16 52.28 52.30 52.28 51.54 51.55 51.72 52.18 52.43 52.62 53.15 53.61 53.96 54.04 53.89 54.04 52.76 49.17 48.99 47.56 43.00 39.27 39.02 41.76 47.45 48.04 47.65 49.43 40.91 41.41 38.81 37.25 40.16 35.87 35.07 32.41 34.11 30.04 31.30 34.50 36.76 39.33 34.53 34.03 37.56 38.49 41.51 43.60 44.54 44.36 43.77 45.46 45.29
51.75 52.01 51.84 52.14 51.44 51.22 51.30 51.96 52.09 52.46 53.04 53.52 53.79 53.95 53.63 53.93 54.28 51.08 46.21 48.51 45.02 39.31 33.10 38.05 45.84 44.31 47.48 45.78 46.80 47.50 45.13 44.30 39.89 38.36 33.67 32.85 33.24 36.37 34.23 34.76 35.57 37.03 38.30 34.94 35.70 38.38 40.28 42.81 43.84 44.26 44.59 45.93 46.77 47.54
51.59 51.49 51.83 51.61 51.27 51.04 51.42 51.67 51.97 52.42 53.12 52.95 53.69 53.75 53.50 53.56 53.82 50.27 46.17 45.50 44.29 41.56 34.44 35.89 40.19 42.50 44.75 45.09 44.37 44.64 42.89 41.40 39.23 37.22 34.74 33.41 36.90 35.69 34.62 35.09 34.87 38.18 35.37 33.39 34.08 41.25 41.12 40.75 44.23 45.48 44.37 45.03 46.47 47.16
51.02 51.21 51.53 51.27 51.49 51.20 51.14 51.78 51.95 52.65 53.01 53.52 53.57 53.46 53.97 53.73 53.61 49.47 44.08 45.69 46.68 44.23 37.87 36.25 42.28 42.35 43.69 43.51 42.69 41.13 41.76 40.35 38.72 37.13 34.94 36.78 39.21 36.99 32.56 32.02 38.50 41.90 43.11 43.71 42.22 45.83 46.69 45.38 45.85 46.26 45.12 46.11 48.44 47.90
50.99 51.34 51.47 51.07 50.86 50.99 50.82 51.63 52.05 52.56 53.11 53.17 52.83 52.43 52.78 52.73 48.39 46.82 42.62 45.97 48.24 45.42 37.94 36.89 40.96 43.39 45.52 42.22 39.23 39.43 40.21 37.82 38.99 38.03 36.22 36.31 36.18 36.94 32.79 31.62 38.38 42.50 43.21 43.94 46.08 46.64 44.81 47.14 45.34 47.44 48.15 48.78 48.90 49.25
50.86 51.14 51.43 50.87 50.68 51.03 50.77 51.57 52.09 52.05 52.92 52.71 52.41 51.87 51.07 51.15 49.15 45.38 46.04 49.85 47.96 42.41 39.81 37.10 41.80 44.23 44.86 40.92 38.82 37.72 36.40 37.00 37.51 37.24 38.84 36.59 36.33 34.75 28.93 35.95 39.87 43.38 43.17 43.70 44.12 46.32 45.25 46.62 46.98 46.79 47.88 48.56 47.50 48.29
50.97 51.09 51.40 51.60 51.41 51.29 50.95 51.67 52.04 52.16 52.81 52.52 52.51 52.68 48.80 45.71 43.58 45.84 51.63 49.59 45.77 42.51 40.99 41.72 38.71 39.18 45.61 43.58 38.94 38.38 36.79 36.05 37.42 36.23 38.52 38.16 32.79 32.42 35.96 37.16 39.32 42.16 42.24 42.26 44.32 44.67 44.83 43.92 44.28 44.84 44.75 44.49 44.13 44.62
50.78 51.03 51.27 51.55 51.79 51.29 51.35 52.22 52.52 52.43 52.03 52.06 48.76 46.91 44.37 45.89 52.61 50.26 44.53 43.97 45.12 40.82 38.72 39.40 40.43 41.76 43.85 43.71 42.45 41.23 37.50 35.52 36.05 38.49 41.00 37.60 36.41 40.21 41.32 41.53 39.98 42.16 45.12 44.70 42.00 41.84 42.77 43.05 43.63 43.52 43.70 44.33 44.31 44.08
50.77 51.06 51.26 51.61 51.92 51.70 52.20 52.39 52.53 51.95 50.70 46.63 45.36 45.36 46.30 51.70 45.80 45.89 44.09 40.65 40.40 39.76 41.43 38.99 40.38 39.18 47.24 42.15 41.58 43.64 40.59 37.32 30.83 35.01 34.40 34.77 34.39 38.21 41.03 40.96 41.30 40.59 44.49 45.06 45.30 45.25 45.31 44.15 43.74 43.04 42.93 43.31 43.48 44.03
50.71 50.76 51.14 51.39 51.88 51.71 52.33 52.18 52.22 47.97 47.22 48.24 47.43 48.65 46.10 44.28 42.31 40.07 38.66 39.22 38.43 36.69 41.15 41.28 41.74 42.12 43.79 45.34 42.42 42.22 39.61 39.59 31.51 37.69 34.56 30.09 34.30 39.15 40.18 40.81 41.11 39.95 43.67 44.89 44.63 43.62 43.97 43.75 43.00 42.28 42.83 42.90 42.88 43.55
50.62 50.70 51.00 51.46 51.70 52.19 52.31 52.26 52.24 50.94 50.24 48.32 47.16 44.80 45.60 41.92 34.54 36.63 33.88 35.21 35.04 38.29 39.53 40.37 41.13 43.56 45.14 42.74 41.23 40.13 36.11 33.30 36.41 31.06 31.59 34.29 36.54 39.32 39.63 39.93 40.92 40.35 41.53 43.69 43.69 43.92 43.95 43.55 44.03 42.62 41.52 42.89 43.39 42.83
50.33 50.74 51.07 51.46 51.60 52.36 52.36 52.24 52.66 52.07 46.89 46.22 46.36 35.18 39.13 37.86 41.45 41.39 36.94 36.46 39.66 39.46 39.26 38.05 40.87 41.75 41.82 43.13 38.14 34.88 34.99 34.41 28.59 21.04 25.33 33.70 36.75 38.80 39.68 39.90 40.18 40.08 39.37 39.38 43.54 43.00 43.04 43.38 43.15 43.45 43.38 43.43 43.00 42.31
50.43 50.81 51.01 50.75 52.12 52.53 52.32 52.11 52.71 49.29 49.01 47.07 44.24 35.28 42.14 43.24 41.86 41.43 40.83 39.22 40.57 40.39 39.02 40.88 40.15 37.85 35.82 35.94 34.61 34.24 32.05 25.74 27.24 25.86 32.38 36.45 38.23 38.97 38.86 39.52 39.34 39.91 39.69 39.73 40.43 42.99 43.24 43.38 43.44 42.88 43.82 43.92 44.22 44.16
50.62 50.75 52.12 52.37 52.00 51.96 51.48 52.15 50.58 50.00 50.21 48.75 45.89 41.02 41.06 39.28 38.96 39.65 39.76 38.76 39.92 40.04 39.59 38.80 36.57 35.22 33.57 33.31 31.94 30.63 29.31 22.31 28.96 33.33 36.51 37.76 39.88 39.58 38.92 39.63 40.24 40.35 39.25 37.36 39.24 40.24 43.38 43.18 42.78 42.98 44.25 44.54 44.55 44.17
50.20 48.79 52.36 51.51 51.47 51.60 51.83 51.13 52.22 51.37 49.91 45.30 43.09 44.11 41.88 42.07 39.73 39.98 39.95 40.08 39.96 38.68 35.73 36.24 34.10 33.40 34.79 32.18 30.87 32.46 29.96 31.02 33.08 34.20 34.99 37.14 38.70 38.79 39.82 40.19 40.12 39.61 38.28 37.27 38.23 38.61 39.58 41.15 39.51 38.38 37.27 38.40 42.02 44.04
47.65 51.00 52.02 51.08 50.60 50.20 52.54 50.84 51.99 50.52 45.44 44.74 43.18 45.44 43.54 42.81 41.18 40.84 41.80 41.46 40.00 37.84 37.13 36.81 36.72 33.56 31.29 30.65 30.18 32.65 33.74 34.08 34.13 33.91 35.28 37.76 37.40 37.47 39.36 39.30 40.01 36.51 37.32 36.63 35.62 35.40 35.09 36.20 36.56 36.24 35.80 36.67 37.57 37.83
47.84 48.84 50.25 50.78 49.95 47.65 50.82 52.66 50.90 45.85 48.17 45.00 44.77 43.30 43.25 43.98 44.35 43.41 42.77 42.04 42.01 40.46 39.30 36.90 35.25 33.16 32.92 33.87 34.13 34.49 34.53 33.55 33.69 35.13 36.11 36.28 36.03 35.19 36.27 37.40 37.34 37.54 36.22 35.17 33.88 33.54 33.42 33.23 34.81 34.84 34.59 36.40 35.33 36.05
50.11 51.00 51.73 51.78 50.83 50.45 51.94 51.15 50.67 47.21 46.56 44.94 44.36 43.38 43.77 44.27 44.38 44.64 42.99 41.34 40.68 39.57 37.81 36.16 36.56 36.66 36.16 37.05 37.28 36.91 36.41 36.06 35.06 34.14 34.78 36.61 37.36 35.27 35.24 35.48 34.85 35.96 35.66 34.62 34.05 36.04 34.44 34.78 34.37 34.56 34.90 35.50 35.31 35.60
50.56 53.47 52.88 50.99 49.76 49.90 50.95 49.02 45.56 46.98 46.01 44.06 44.92 46.06 46.13 46.87 45.71 42.03 42.13 44.01 39.86 38.54 37.20 38.67 39.45 40.47 40.07 40.07 39.27 38.36 38.27 38.86 37.23 36.26 35.95 35.83 36.27 34.01 34.22 35.08 35.01 34.66 34.96 34.73 34.10 33.49 34.56 33.66 33.40 33.74 34.84 34.74 35.51 36.56
49.49 53.59 52.35 52.41 52.41 53.65 51.16 49.99 46.14 45.81 45.48 45.58 46.09 46.51 44.53 44.85 45.25 45.80 45.50 44.05 41.95 41.63 42.81 41.27 40.95 40.56 41.04 40.29 40.58 40.33 42.93 41.46 38.13 36.35 37.54 36.11 33.23 33.46 33.42 33.76 33.93 34.07 33.95 34.44 34.03 34.11 33.58 33.46 34.02 35.51 35.57 35.53 36.93 36.37
52.19 52.47 53.17 54.58 52.02 43.92 44.10 48.49 45.66 46.47 44.74 46.74 47.47 45.47 43.85 44.26 47.27 47.34 42.10 43.31 44.08 47.14 46.22 44.08 43.82 43.45 41.78 42.44 41.61 42.13 42.52 37.70 34.76 33.61 33.21 32.65 32.74 33.09 33.25 33.27 33.66 34.79 34.78 34.77 34.01 34.21 34.19 35.87 36.51 36.20 36.13 36.00 35.43 34.97
53.12 52.27 50.69 49.79 47.08 42.35 47.63 46.51 48.33 47.11 46.59 43.62 42.16 41.26 43.76 44.38 46.03 43.21 41.87 42.11 44.07 48.20 45.81 45.10 45.95 41.15 43.03 42.24 40.66 37.65 36.46 35.46 34.15 33.02 32.91 33.81 32.90 32.16 31.90 31.95 32.53 33.37 33.33 34.20 34.76 35.36 35.84 35.97 36.41 35.61 35.88 35.68 35.35 34.56
44.81 43.59 44.06 37.23 45.69 45.20 45.17 45.30 44.74 44.69 42.49 43.73 42.58 42.89 44.45 45.77 42.20 40.63 39.71 42.12 43.05 44.93 44.46 43.98 43.10 42.85 39.51 36.22 34.75 34.46 35.08 35.23 34.19 33.69 33.49 33.64 32.53 31.82 32.41 32.30 32.17 32.22 33.29 34.70 34.15 35.30 35.64 36.16 36.49 36.52 35.71 35.17 35.18 34.61
39.99 47.16 42.41 46.48 46.53 45.14 46.89 43.65 43.64 43.06 43.57 43.06 44.01 45.76 46.89 44.86 43.02 40.93 41.39 43.80 44.66 45.13 44.01 45.27 43.58 41.44 38.02 36.22 34.84 34.47 36.69 35.73 34.20 33.08 33.46 33.56 33.48 33.32 31.95 30.83 30.93 32.84 34.00 33.20 33.89 35.15 35.86 36.17 36.18 36.12 36.17 36.67 36.65 36.00
39.92 43.96 45.27 47.85 46.58 46.41 45.35 46.20 46.05 43.71 43.30 42.56 42.89 45.11 45.86 40.99 40.50 41.97 43.87 45.01 45.42 47.22 47.31 46.43 44.17 42.82 38.74 36.56 36.83 38.36 37.27 36.07 35.59 36.56 36.03 35.46 34.99 37.10 35.48 32.97 32.27 33.02 34.62 36.31 36.12 35.95 35.35 35.77 35.63 35.36 35.05 34.86 34.90 35.93
48.95 48.28 45.97 46.63 46.96 47.39 45.41 44.10 43.65 42.88 43.19 45.18 44.73 41.84 41.70 41.51 40.01 43.47 44.33 47.40 49.39 47.64 45.66 43.83 42.64 40.60 37.78 36.14 36.29 37.56 36.45 39.63 39.59 37.49 37.20 35.87 36.20 36.00 36.89 35.40 35.03 36.86 36.62 37.96 36.28 36.38 36.61 36.40 35.68 35.93 35.90 35.50 35.10 35.55
48.07 49.10 48.75 46.44 47.32 46.22 46.10 45.22 44.96 46.70 47.82 45.58 44.01 42.33 43.16 46.07 46.52 46.06 46.79 48.06 47.77 45.30 40.72 40.18 38.39 38.67 40.40 40.17 39.43 38.47 37.06 35.73 35.70 34.38 33.30 31.59 32.37 34.43 34.66 34.70 34.89 35.27 35.66 36.66 38.15 37.44 39.54 37.73 36.88 36.49 36.84 36.85 37.38 35.54
47.30 50.40 48.84 47.40 46.44 45.23 47.61 48.05 47.10 47.95 47.20 46.95 46.98 46.23 46.56 46.55 48.25 48.30 44.47 40.08 38.27 36.42 36.64 38.07 38.68 39.89 37.97 35.48 33.02 33.39 33.72 32.79 33.17 32.85 30.68 29.94 30.75 32.28 35.18 36.24 37.40 37.24 36.01 38.52 38.68 37.55 38.51 37.64 38.50 36.83 35.28 33.83 33.05 33.57
48.34 48.28 47.81 47.31 45.59 46.61 48.10 49.25 48.53 48.34 47.73 47.33 47.13 45.43 46.43 45.88 46.06 46.40 40.21 38.58 37.55 37.76 38.16 35.39 34.55 35.12 34.95 32.32 31.04 30.21 29.67 31.73 33.27 33.63 32.32 31.34 31.25 32.18 33.09 34.71 35.44 36.23 36.85 38.04 36.70 35.77 35.14 34.68 34.75 35.29 35.00 33.94 34.41 34.08
48.33 47.80 46.94 44.84 44.49 47.26 48.45 46.63 45.55 45.05 45.71 45.82 46.05 47.79 46.04 44.84 43.21 40.76 40.96 38.06 37.37 35.98 37.54 36.14 35.09 33.33 33.65 33.51 33.02 32.95 34.23 32.01 32.50 32.69 32.72 31.94 31.74 32.10 32.27 33.87 35.65 36.42 36.24 35.93 35.40 34.78 35.10 33.86 34.12 34.18 33.82 34.46 34.40 34.19
47.81 47.20 47.21 46.45 45.61 45.55 46.87 46.53 45.51 45.02 45.17 44.82 45.77 47.00 46.73 44.11 40.89 41.73 41.38 39.60 38.07 37.13 35.84 35.24 35.94 34.95 34.84 34.90 34.30 33.50 34.09 33.30 34.66 35.89 35.58 35.36 35.13 33.67 32.12 32.75 34.64 35.11 34.72 34.40 34.20 34.51 34.44 34.92 34.02 33.91 33.40 33.17 33.00 33.14

GFSWCAN_sfc_wetblb_054.txt.gz
Wetbulb
52.57 52.25 52.33 52.45 52.36 52.14 52.03 52.05 52.14 52.59 52.84 53.27 53.35 53.89 54.18 54.06 53.89 48.88 45.91 49.31 46.38 41.31 39.93 40.52 44.00 41.65 41.82 40.31 34.16 38.79 37.10 34.16 35.35 31.99 30.68 29.97 30.21 32.42 32.08 33.72 32.00 32.00 30.13 31.64 32.95 31.86 32.44 40.74 42.11 37.62 39.64 41.89 42.27 42.43
52.17 52.23 52.10 52.41 52.31 51.63 51.51 51.74 52.16 52.74 52.90 53.15 53.58 54.07 54.42 54.09 54.11 51.65 46.32 50.54 49.87 44.44 42.16 42.02 43.67 46.17 45.44 45.02 42.86 41.42 38.53 37.84 38.15 33.87 34.40 33.68 32.24 32.56 32.77 29.73 37.17 31.93 34.52 31.27 33.12 33.40 40.18 42.05 41.19 43.21 43.19 41.90 42.38 42.77
51.81 52.05 51.96 52.11 51.72 51.38 51.93 51.63 52.16 52.72 52.93 53.46 54.03 53.98 53.71 53.71 54.26 51.04 47.75 49.02 47.42 42.32 38.62 39.15 40.52 43.04 44.70 43.74 47.22 40.24 41.53 41.09 37.33 39.91 36.47 35.16 32.44 34.02 30.03 31.94 34.91 37.25 38.82 34.55 34.65 38.23 40.45 42.22 44.08 44.81 44.67 43.24 44.66 46.07
51.66 51.71 51.82 51.81 51.71 51.50 51.41 51.83 52.27 52.52 52.99 52.90 53.77 53.96 53.77 54.09 54.40 50.75 45.22 46.59 41.85 38.08 34.27 38.10 44.48 42.08 45.81 44.87 44.92 44.97 43.29 40.82 38.09 36.46 32.02 32.26 33.13 36.44 32.36 33.63 34.73 36.86 37.72 34.02 34.67 39.49 41.49 44.08 45.89 45.59 45.67 45.99 46.62 47.12
51.32 51.51 51.60 51.80 51.49 51.37 51.39 51.79 52.32 52.60 53.13 53.45 53.79 53.89 53.64 53.75 53.30 48.73 45.17 44.48 42.77 42.08 38.03 38.86 40.23 42.92 42.07 42.68 43.38 43.84 42.15 39.95 38.88 35.88 34.22 32.68 36.33 35.25 36.16 35.62 34.04 39.98 36.07 34.05 33.99 41.21 42.35 43.00 46.31 47.57 46.00 45.87 46.73 47.17
51.23 51.29 51.51 51.76 51.23 51.05 51.02 51.66 52.17 52.51 53.00 53.43 53.54 53.89 53.64 53.54 53.08 49.34 43.06 44.67 44.90 43.14 36.99 37.58 43.08 40.56 42.29 42.54 42.94 40.74 41.21 39.88 38.31 36.04 35.18 36.74 39.38 36.63 32.62 31.88 38.49 41.34 42.95 43.53 42.38 46.12 45.80 46.74 47.13 47.40 47.63 48.09 48.71 48.38
50.97 51.17 51.59 51.58 51.54 51.09 51.05 51.52 51.95 52.05 52.90 52.97 52.68 52.65 52.76 52.60 47.82 46.02 43.00 44.86 47.15 43.48 36.97 35.04 41.59 44.54 44.46 39.46 38.16 38.72 39.41 38.78 38.52 38.60 36.61 35.98 36.57 36.75 33.00 31.29 38.18 41.88 42.83 43.65 45.25 44.86 42.78 44.07 42.59 44.77 45.13 47.29 48.96 49.37
50.98 51.29 51.47 51.71 51.84 51.38 51.35 51.44 52.00 51.82 52.43 52.63 52.18 51.41 51.50 51.52 48.72 44.72 45.10 49.46 46.69 41.19 38.61 35.36 39.88 44.56 45.91 39.08 36.77 36.70 35.75 36.22 38.13 37.99 39.03 36.98 37.48 35.70 29.87 37.15 40.07 42.65 42.71 43.34 43.86 44.97 44.32 44.75 44.84 44.44 44.85 45.21 43.85 43.79
50.81 51.17 51.42 51.70 51.64 51.59 51.47 51.54 52.00 51.72 52.57 52.46 52.32 52.37 48.16 45.52 43.10 44.87 51.07 49.22 44.63 42.28 39.17 41.09 38.45 37.02 43.15 42.70 39.29 37.04 35.88 35.06 36.20 36.97 38.50 38.24 33.19 32.47 36.35 39.21 39.54 41.66 42.48 42.90 43.79 43.82 43.99 43.17 43.10 42.92 43.04 42.73 42.07 42.46
50.88 50.96 51.14 51.42 51.77 51.20 51.14 51.58 52.71 52.79 52.06 52.04 47.92 46.15 43.60 44.92 51.69 49.39 43.74 43.76 44.89 43.03 39.24 38.42 40.08 39.13 41.36 41.81 42.53 40.80 36.11 33.57 34.65 38.82 41.08 37.52 35.70 40.15 41.13 40.67 41.05 41.56 44.55 44.53 41.07 40.42 41.47 41.21 41.58 41.95 41.92 42.55 42.60 42.60
50.76 50.75 50.95 51.34 51.43 50.92 50.85 52.08 52.39 51.72 50.28 45.59 44.49 45.04 45.66 50.77 44.97 46.47 43.83 42.02 41.16 39.96 40.90 39.56 41.09 37.81 44.87 42.31 40.03 43.09 38.19 36.52 30.09 35.98 34.12 30.78 27.39 36.74 40.57 39.91 40.86 40.81 44.27 45.25 44.53 43.35 42.64 41.87 41.79 41.52 41.68 42.63 42.62 42.73
50.51 50.59 50.85 51.20 50.81 50.94 50.86 52.03 51.99 47.57 45.79 47.26 46.67 47.40 45.10 43.57 41.67 39.55 37.21 37.17 36.82 36.44 39.15 39.60 40.13 41.13 41.60 44.98 42.60 40.26 40.31 37.49 29.86 36.76 31.32 23.54 32.75 38.06 39.35 40.13 40.64 40.16 42.39 43.72 44.82 43.25 43.07 43.00 42.44 41.43 41.14 41.44 42.64 43.15
50.40 50.45 50.86 51.12 50.62 51.50 52.11 52.05 52.06 50.63 49.55 47.51 46.15 43.50 45.00 40.76 33.43 36.64 32.18 34.02 34.06 37.01 38.12 38.06 37.91 42.06 45.25 41.50 40.44 38.44 35.30 31.85 35.14 30.09 29.65 32.18 35.58 38.16 38.92 40.02 40.16 40.83 40.93 43.98 43.41 44.19 43.79 43.18 43.54 42.59 41.27 42.52 42.88 43.05
50.25 50.45 50.77 50.93 50.51 51.67 52.36 52.18 52.26 51.70 46.02 44.73 44.87 35.98 38.39 36.41 40.68 38.54 36.56 35.90 38.79 37.85 37.99 36.43 37.79 40.08 40.37 40.39 36.26 33.08 33.97 33.32 28.30 19.33 23.17 32.64 35.69 38.26 39.21 40.08 39.77 39.56 40.24 39.51 42.62 43.94 43.69 43.41 42.80 43.38 42.83 42.36 41.98 41.59
50.35 50.50 50.66 50.66 51.20 52.21 52.06 52.10 52.36 48.87 46.88 45.14 43.68 33.24 38.54 41.54 40.29 40.28 39.74 38.33 39.17 38.29 37.27 39.33 37.62 36.27 34.23 34.27 33.32 32.68 30.94 25.92 25.65 25.85 31.10 35.68 37.26 38.30 38.83 39.26 38.95 39.53 39.78 38.31 39.22 42.42 43.63 43.60 43.13 42.40 43.11 43.50 43.06 41.94
50.53 50.60 51.10 51.48 51.59 51.58 51.55 51.85 49.80 48.65 48.47 46.96 45.30 41.20 41.32 38.34 38.32 38.52 38.55 38.36 38.46 37.60 38.00 36.97 35.20 34.14 32.79 32.15 31.42 31.22 29.40 23.25 29.39 32.34 35.58 36.03 38.39 38.90 39.02 39.40 39.64 39.59 38.87 37.60 38.59 40.02 42.73 43.28 42.35 41.78 41.30 41.88 43.46 42.71
49.91 47.87 51.52 50.85 50.82 51.24 51.63 49.32 49.20 49.02 47.86 45.51 42.61 42.04 43.95 39.94 39.91 39.05 38.90 39.43 38.36 37.40 35.20 35.02 33.49 32.32 33.79 31.59 31.32 32.64 30.74 32.16 33.15 33.53 33.95 34.32 36.16 38.52 38.95 39.30 39.68 39.51 38.32 38.20 37.70 38.68 40.77 40.96 39.81 37.73 36.61 37.01 38.49 41.34
45.91 48.70 50.33 50.12 50.03 49.72 49.95 49.01 50.45 49.98 46.39 45.19 42.08 44.79 43.31 41.98 40.69 39.98 40.37 40.40 38.96 36.84 36.74 36.54 36.13 33.05 31.70 30.60 30.18 32.69 33.64 34.66 34.35 33.72 34.25 35.72 36.02 35.82 35.73 35.19 38.63 37.69 37.33 36.62 35.93 35.77 35.79 37.23 36.35 35.39 35.14 36.98 37.24 37.34
47.31 48.28 50.03 50.54 49.59 45.97 48.55 51.02 49.75 44.53 45.51 44.00 44.15 42.07 43.55 42.64 43.86 42.91 41.36 41.52 40.54 39.45 38.71 36.84 35.61 32.51 32.87 33.83 34.19 34.79 34.87 34.19 33.94 34.95 35.33 35.80 35.80 35.84 35.58 36.84 37.57 37.76 36.86 35.66 34.81 34.85 34.80 35.62 35.97 35.22 35.84 36.28 35.88 36.60
50.26 51.07 51.65 51.59 50.57 48.52 49.84 49.86 49.48 45.35 44.27 44.62 42.90 42.48 42.96 43.71 44.80 45.05 44.62 43.18 43.24 41.69 40.28 38.16 37.85 37.78 36.53 36.31 36.55 36.94 36.74 35.70 35.23 34.34 35.16 37.28 36.99 34.62 34.57 34.45 35.57 35.29 35.04 34.44 34.81 36.35 35.44 35.97 35.55 35.73 36.60 36.68 37.13 36.98
49.85 52.16 51.64 49.90 48.36 48.89 49.21 48.42 44.81 45.73 45.47 43.39 43.59 43.84 45.10 46.65 46.58 41.92 41.84 41.96 40.82 40.39 40.32 41.53 42.58 42.00 40.88 40.06 38.81 37.76 37.08 36.49 36.35 36.30 36.27 35.64 36.29 33.58 33.99 34.57 35.09 35.35 35.46 35.49 34.94 35.32 35.93 35.33 34.97 35.93 37.16 37.02 37.36 37.63
48.25 52.68 50.77 51.02 51.10 51.74 49.44 50.30 46.35 44.41 43.66 44.54 45.96 46.45 45.74 44.46 45.75 44.47 43.86 41.89 40.18 40.78 43.63 45.12 44.26 42.96 44.22 41.93 39.37 38.94 40.38 39.17 37.31 35.39 36.58 35.42 33.70 33.52 33.64 33.66 34.88 35.69 36.79 36.64 35.90 35.23 35.98 35.92 36.24 36.78 37.59 37.65 37.67 38.30
51.59 51.29 51.61 53.14 50.32 43.44 43.70 47.20 43.91 44.62 43.04 43.94 44.67 43.04 43.56 43.51 45.47 45.96 42.22 42.75 43.02 45.24 46.72 44.83 45.61 45.25 42.50 41.21 40.47 41.98 40.25 36.48 34.39 33.32 33.57 33.46 33.14 32.92 33.33 33.70 34.23 35.55 35.54 35.54 35.40 35.38 35.89 36.73 37.68 38.00 37.88 37.83 38.03 37.67
51.69 51.01 49.48 48.32 46.79 42.15 47.23 44.65 46.84 45.23 44.53 42.74 41.61 40.00 43.53 44.14 46.58 43.80 41.31 41.69 42.70 44.23 44.82 46.35 44.63 41.31 40.54 41.63 40.66 40.02 38.04 35.69 34.41 33.42 33.35 33.62 33.06 32.74 32.80 33.09 33.87 34.66 34.80 35.01 36.04 36.33 37.53 37.62 37.19 38.07 38.28 37.78 37.07 36.71
43.45 42.78 42.08 35.52 43.89 44.22 43.59 43.87 43.64 43.24 41.58 42.44 41.30 41.80 41.95 44.39 41.21 39.99 38.22 40.35 40.99 43.33 43.41 43.61 45.14 42.40 39.26 37.21 35.77 35.37 35.52 35.31 34.70 34.25 34.11 34.27 33.79 32.55 33.64 34.02 34.58 34.83 35.56 36.99 36.83 37.34 37.66 38.25 38.37 38.28 38.04 37.83 37.38 37.00
38.95 45.59 41.38 44.65 44.90 43.11 44.16 42.36 42.72 42.19 42.47 42.12 42.14 43.87 43.04 40.45 40.24 38.77 39.43 41.51 42.94 44.20 44.11 43.76 43.53 41.16 39.06 37.33 35.55 34.89 36.77 36.26 34.73 34.59 35.09 34.37 34.32 34.28 33.48 34.60 34.11 36.50 36.95 36.71 37.24 37.71 37.81 37.85 37.88 38.19 38.01 38.03 36.85 37.94
39.00 44.01 44.34 45.81 45.16 45.39 43.87 45.07 45.30 43.21 42.80 41.93 41.53 43.14 42.45 38.60 38.32 40.61 42.77 43.64 44.38 47.36 46.49 46.04 44.53 42.15 39.32 36.42 37.32 40.79 40.09 37.43 37.36 37.38 36.69 35.39 35.61 36.06 36.92 36.00 35.14 36.85 37.62 38.90 38.81 37.74 37.96 38.42 38.12 38.22 37.79 37.33 37.68 37.97
46.90 46.77 44.49 45.91 45.82 46.56 44.41 43.20 42.65 41.98 42.28 44.49 43.89 40.95 41.65 40.83 39.50 42.92 44.27 45.94 47.26 46.18 42.67 39.51 37.86 36.60 36.62 37.62 37.75 36.38 36.42 36.33 35.82 35.59 36.44 36.81 36.61 36.26 35.68 36.14 37.52 37.50 39.21 38.40 38.40 38.77 38.77 39.37 39.15 38.54 38.37 37.53 38.14 38.31
46.67 49.02 48.42 46.08 46.33 45.38 45.25 44.72 44.30 45.28 46.67 44.53 42.69 41.49 42.39 45.04 46.46 45.39 45.96 44.75 45.15 40.02 36.49 36.45 35.71 36.47 36.10 35.42 34.95 34.18 34.20 35.34 36.98 35.22 33.85 32.32 32.85 34.69 36.06 37.61 37.95 39.67 39.25 39.40 39.09 39.96 40.23 38.45 39.63 39.79 39.27 39.55 39.85 37.57
45.32 48.02 46.15 46.22 45.22 44.56 46.38 47.22 46.40 46.99 46.92 46.38 46.33 46.13 45.40 45.90 47.08 45.82 40.44 37.71 37.39 36.17 36.12 36.16 35.71 34.75 32.65 33.14 31.94 33.51 33.40 33.14 33.42 33.80 32.37 32.05 32.92 33.38 35.77 37.50 37.35 38.05 40.52 41.61 40.02 38.87 38.32 38.84 38.61 38.69 37.40 36.86 36.88 36.82
47.35 47.33 46.60 46.22 45.31 46.04 47.14 47.60 47.40 47.69 47.42 46.36 46.26 45.35 44.27 44.87 44.71 40.36 38.18 36.06 36.00 35.98 36.00 34.51 33.40 33.27 32.87 32.40 32.03 31.94 31.60 32.83 33.48 33.66 32.93 32.64 33.25 34.96 36.33 36.84 37.42 38.32 38.86 38.86 38.39 37.83 37.42 37.24 36.94 36.81 36.71 36.66 36.54 36.18
46.75 46.78 45.89 44.56 43.88 46.61 47.35 45.57 45.42 44.98 45.60 45.31 45.04 46.42 45.05 44.67 42.21 40.69 38.96 37.26 36.49 35.79 36.68 35.46 34.58 33.72 33.91 33.03 33.22 33.64 34.00 33.15 33.31 33.59 33.98 33.94 34.01 35.18 36.25 36.93 37.67 38.29 37.85 37.34 37.24 37.16 37.25 36.85 36.56 36.08 36.01 36.46 36.41 36.21
47.20 46.20 45.89 44.95 43.96 44.17 45.72 45.63 45.04 44.31 44.71 44.62 45.32 46.03 45.46 44.36 41.23 41.43 40.29 38.67 37.67 36.18 35.42 35.28 34.68 34.08 34.53 34.70 34.53 34.30 34.74 34.90 35.62 35.51 35.67 35.30 34.80 34.28 35.29 35.72 36.74 37.08 36.81 36.25 36.39 36.71 36.61 36.28 35.48 35.63 35.69 35.80 35.82 35.97

GFSWCAN_sfc_wetblb_057.txt.gz
Wetbulb
52.68 52.55 52.48 52.40 52.06 51.79 51.68 52.04 52.48 52.67 52.99 53.18 53.45 53.72 54.13 54.07 53.98 52.35 50.43 51.94 47.82 43.56 45.26 45.08 45.01 42.02 41.85 40.85 36.33 39.63 39.03 38.47 36.55 33.08 32.72 32.43 31.84 33.49 32.35 34.26 32.19 31.06 30.41 30.53 31.30 28.83 27.98 40.07 40.06 39.27 43.11 45.90 45.40 46.97
52.24 52.22 52.13 52.19 51.71 51.54 51.52 51.89 52.46 52.61 52.93 53.45 53.94 53.91 54.03 54.07 54.10 51.68 48.49 51.54 51.04 45.96 44.70 47.70 47.90 47.79 46.23 45.20 42.53 42.73 38.84 38.68 38.47 34.18 34.89 34.71 32.56 33.59 34.56 30.92 36.92 32.79 35.64 34.87 35.71 34.97 39.94 42.44 41.74 44.75 47.55 46.01 45.09 46.46
52.00 52.10 52.05 52.24 51.38 51.48 51.58 51.68 52.30 52.89 53.06 53.35 53.88 53.63 53.60 54.64 54.25 52.41 50.48 50.52 49.48 45.04 44.63 45.29 46.04 48.73 49.71 47.81 49.16 42.17 43.90 42.57 41.39 41.41 37.31 35.37 32.58 33.97 30.36 32.29 34.12 35.97 38.70 34.54 33.82 38.63 40.57 42.99 45.69 47.07 48.53 47.56 46.87 48.38
51.67 51.87 51.85 51.87 51.24 51.21 51.57 51.88 52.40 52.83 53.39 53.53 53.78 54.15 54.00 54.51 54.31 51.89 50.23 50.56 47.97 44.64 41.86 44.25 48.21 47.81 49.04 48.60 47.30 48.18 46.45 44.81 43.31 40.54 37.20 35.25 33.79 37.30 33.62 33.05 33.94 36.93 38.00 35.04 36.10 40.07 41.02 41.84 45.71 47.52 49.16 49.27 48.29 48.99
51.47 51.61 51.65 51.76 51.32 51.17 51.30 51.52 52.11 52.79 52.84 53.49 53.61 53.98 54.09 54.45 52.94 51.55 50.53 50.89 49.24 46.27 42.75 45.89 48.00 47.90 47.65 47.28 45.71 45.90 45.58 43.94 41.79 39.22 36.49 34.20 37.70 35.53 37.29 37.33 34.36 39.24 38.25 35.28 34.89 42.04 42.91 41.77 44.87 46.49 47.49 48.51 49.18 49.10
51.20 51.24 51.51 51.75 51.64 51.09 51.13 51.45 51.94 52.61 52.69 53.19 53.65 54.04 54.06 54.07 52.31 51.77 48.18 50.05 50.12 49.85 44.60 41.08 48.68 46.16 47.27 47.66 46.29 44.85 44.52 43.46 42.40 39.65 37.93 39.76 40.06 38.02 34.78 32.94 37.81 41.50 43.38 43.49 41.21 44.34 43.76 44.32 45.16 45.74 45.51 46.29 46.51 46.08
51.03 51.28 51.41 51.75 51.79 51.50 51.49 51.67 51.76 51.83 52.36 52.84 52.71 52.97 53.20 53.10 53.41 49.94 47.03 49.44 49.25 49.97 44.71 42.26 44.56 46.35 46.75 45.91 45.06 45.69 44.63 43.26 43.34 41.36 40.01 39.29 39.02 39.24 35.61 32.03 38.77 41.94 43.11 43.46 44.73 44.50 42.47 43.42 42.39 44.80 45.23 45.65 46.66 46.28
50.94 51.07 51.48 51.63 51.39 51.49 51.47 51.47 52.06 51.71 51.91 52.72 52.34 51.65 51.78 52.00 50.50 49.50 50.92 50.11 50.05 47.73 45.16 41.68 43.64 46.12 47.82 44.59 42.95 42.81 43.20 43.94 42.38 41.74 43.29 39.71 38.91 38.91 33.12 40.11 41.23 42.95 44.15 43.64 43.66 44.67 43.55 44.32 44.44 44.08 45.30 44.98 43.83 43.83
50.90 51.03 51.34 51.56 51.62 51.47 51.28 51.05 51.55 51.69 51.93 52.46 52.46 52.36 52.18 50.65 49.55 49.97 51.18 51.21 50.25 46.74 43.08 42.51 40.53 42.50 48.79 45.61 44.54 42.37 42.94 40.50 42.27 41.06 41.83 42.01 35.12 33.12 39.24 41.50 41.63 42.15 42.97 42.94 43.55 43.13 42.91 42.51 42.19 42.50 42.71 42.83 42.31 42.63
50.86 50.83 51.06 51.23 51.40 51.09 50.80 50.87 51.91 52.73 52.22 52.05 51.39 50.43 49.60 50.67 51.68 51.60 48.40 44.86 45.84 45.29 44.41 40.60 45.06 42.63 48.29 46.56 45.67 42.54 41.83 40.28 36.60 40.71 43.67 39.87 38.47 42.98 44.36 44.44 44.41 44.85 45.81 45.24 41.85 40.62 40.93 40.89 40.92 41.34 41.57 42.49 42.63 42.83
50.66 50.73 51.05 51.19 51.14 50.86 50.61 50.52 52.20 51.59 50.79 50.78 50.27 49.93 51.14 50.99 50.37 47.95 45.07 43.99 44.24 42.16 44.15 41.86 42.76 43.44 49.24 44.51 45.66 45.58 41.94 40.33 34.51 36.78 37.39 37.66 36.64 41.34 45.33 45.06 45.85 45.11 46.73 45.95 45.35 45.03 44.74 43.61 42.67 41.46 42.07 42.67 43.00 42.98
50.56 50.57 50.69 50.97 50.74 50.65 50.38 50.48 51.96 51.32 51.38 51.26 51.35 51.09 50.48 49.31 47.09 44.53 42.76 43.18 42.51 43.39 46.22 45.60 47.15 44.39 48.55 48.89 45.35 46.95 42.71 41.32 35.30 41.83 38.04 34.18 40.19 44.29 44.76 44.98 45.73 45.95 45.29 46.07 46.24 45.12 45.44 45.01 44.70 43.60 43.11 43.31 43.88 43.96
50.44 50.45 50.55 50.79 50.67 50.89 51.08 51.91 52.09 51.08 51.06 52.31 50.83 49.32 49.21 46.78 40.09 40.75 38.81 42.32 42.02 45.90 46.13 45.98 44.02 48.72 47.07 48.66 46.62 45.13 38.44 37.39 41.68 37.51 33.98 39.47 44.24 44.61 44.95 45.87 45.75 46.25 45.20 46.10 46.68 46.75 46.18 46.12 46.66 45.84 44.39 44.81 45.12 44.62
50.16 50.50 50.73 50.76 50.24 50.11 51.15 52.24 52.16 51.55 51.05 49.39 48.89 39.48 44.33 42.90 44.25 45.37 45.01 45.03 47.41 45.67 45.94 44.41 44.87 47.78 47.88 45.62 43.88 38.88 39.70 39.95 34.51 31.49 33.95 41.90 44.57 45.43 46.01 46.30 45.60 45.30 45.33 44.83 45.54 47.72 47.28 47.41 47.10 47.62 47.64 47.05 45.24 44.31
50.36 50.56 50.98 51.20 51.12 51.79 52.04 52.04 52.11 51.85 51.05 49.07 49.23 41.09 44.31 48.28 47.41 47.79 47.29 46.19 47.84 46.67 45.13 46.08 45.70 44.39 42.87 40.64 41.28 39.10 35.58 32.96 35.22 35.72 40.98 45.04 45.42 44.73 46.41 46.43 45.91 45.81 45.58 45.32 45.62 46.32 47.23 46.60 47.61 46.88 47.11 47.78 47.39 45.81
50.53 51.03 51.93 50.92 51.39 51.81 51.58 52.11 52.53 52.69 52.15 50.47 49.84 48.00 48.94 45.11 47.67 47.32 47.18 47.01 47.62 46.47 45.70 45.11 43.23 41.10 39.65 40.42 37.49 35.77 34.55 33.67 38.03 42.07 44.14 43.93 44.39 45.54 46.72 46.05 46.38 46.45 45.74 45.74 46.02 46.55 47.62 47.12 46.71 44.86 45.11 45.05 46.13 47.30
50.04 52.76 50.71 50.50 50.65 51.59 51.61 52.86 52.36 50.93 50.99 50.06 49.52 51.19 49.35 47.25 46.86 48.15 47.77 48.91 47.05 46.36 43.89 42.99 39.22 38.10 40.55 38.57 36.39 39.00 38.10 40.50 42.08 42.92 43.52 43.84 44.34 44.76 44.60 43.62 44.79 45.97 45.17 46.04 45.30 45.39 46.42 46.67 45.57 44.07 43.41 43.97 44.33 44.95
48.79 51.97 50.13 49.97 50.22 51.53 53.24 52.38 53.27 52.79 50.57 52.73 49.14 51.23 48.54 49.79 48.39 49.04 48.43 48.11 46.89 45.55 44.33 42.18 42.25 39.03 37.35 35.25 36.20 40.30 40.77 41.32 43.33 43.82 43.75 44.39 44.77 45.09 44.23 43.57 44.32 44.92 45.36 44.45 44.68 44.17 44.48 44.98 43.41 43.00 43.37 43.49 43.79 44.50
49.52 50.07 50.27 50.53 49.96 50.77 51.58 53.25 53.20 50.31 51.29 51.82 50.83 50.23 49.54 49.36 49.63 49.69 49.57 48.70 47.07 47.39 44.94 42.81 39.88 37.82 37.88 40.38 40.23 41.67 41.54 42.09 43.01 44.34 44.55 44.94 44.90 44.17 43.85 44.16 44.42 44.97 44.63 44.30 44.69 44.26 44.08 43.75 42.92 43.43 43.65 44.20 43.15 43.71
50.17 51.52 52.30 51.19 51.14 52.31 51.99 54.49 54.75 51.36 49.69 51.85 50.67 50.25 49.67 49.85 51.38 51.46 49.06 48.88 49.05 46.86 43.83 41.15 41.28 42.22 41.94 43.54 42.50 42.62 44.46 45.17 43.99 43.53 44.36 45.24 44.75 43.34 43.62 42.97 43.53 44.07 43.37 43.34 43.96 41.57 44.33 44.22 43.67 43.95 44.03 43.37 43.49 43.09
51.17 53.90 51.65 52.97 52.48 52.64 53.11 53.67 52.99 52.19 51.92 50.83 50.17 50.87 51.67 52.92 51.10 49.57 48.40 48.26 46.83 43.69 42.86 44.50 44.93 45.75 47.42 45.54 44.20 44.64 45.10 45.01 45.68 45.87 43.63 42.63 43.35 42.94 43.22 43.20 43.96 43.35 42.74 43.31 43.94 42.68 42.54 43.41 43.42 44.44 44.25 43.91 44.30 44.40
53.65 52.72 55.17 53.33 54.35 54.64 54.22 56.00 53.18 52.27 50.27 50.71 52.23 51.79 50.98 50.06 49.13 49.51 49.61 47.50 45.70 46.93 48.17 47.60 48.12 48.86 48.70 48.96 48.41 46.39 46.79 46.50 45.89 43.52 40.50 41.58 43.03 42.59 42.30 42.30 43.73 43.49 44.05 43.97 43.35 43.58 43.27 43.65 44.28 44.79 44.05 43.84 43.89 44.28
52.57 53.57 55.68 55.70 53.65 47.96 48.06 53.08 50.25 50.85 48.99 49.73 50.12 48.32 48.73 48.89 49.83 50.56 46.89 47.91 48.58 50.80 50.97 48.59 50.20 50.72 48.37 48.48 47.32 46.96 47.28 45.63 43.79 43.20 42.91 43.05 42.55 42.92 42.97 42.92 43.24 42.48 42.24 43.14 44.05 43.98 43.87 40.17 41.34 44.06 43.97 44.24 44.06 43.85
51.96 54.91 53.04 52.81 51.87 47.51 52.61 50.29 52.10 50.89 50.12 48.46 47.12 45.34 46.95 48.13 50.21 47.25 45.36 47.90 49.30 50.28 48.87 49.69 49.33 49.12 48.95 48.08 48.64 48.07 47.74 45.05 44.00 42.59 43.67 42.68 41.61 41.82 42.18 41.85 42.86 43.43 42.92 43.81 43.83 43.72 44.14 44.18 41.74 44.08 43.87 42.87 42.32 42.12
45.57 46.59 47.00 38.12 48.49 48.57 46.91 47.74 48.29 47.98 45.91 46.66 45.40 45.90 47.55 49.35 45.70 44.63 44.36 47.31 48.51 49.63 50.86 50.66 50.63 50.06 47.22 46.63 46.00 44.10 42.76 43.02 42.41 42.20 43.11 43.07 42.12 40.83 41.28 42.23 42.25 42.43 43.83 43.66 42.92 43.46 43.57 43.36 43.90 43.96 43.07 42.61 41.71 41.63
37.58 48.37 44.41 48.56 49.54 48.24 48.52 46.16 46.32 46.40 46.78 46.10 46.11 49.01 48.98 46.86 43.52 42.17 46.07 48.29 49.65 50.79 51.13 50.71 50.12 49.39 48.15 46.61 46.23 42.14 43.63 45.38 44.83 43.09 43.91 42.85 42.65 42.40 41.06 41.75 41.99 40.82 42.70 43.15 42.55 41.98 42.85 42.91 42.32 41.76 41.61 41.17 37.87 41.95
40.97 47.70 50.89 52.03 50.79 50.32 49.37 50.09 50.11 48.15 46.08 45.94 47.36 46.99 47.07 41.81 41.12 46.05 50.25 50.75 51.36 52.23 52.06 50.34 50.28 48.13 45.30 44.96 45.53 45.61 45.67 45.19 44.56 43.15 43.12 43.57 43.55 43.89 42.77 41.48 39.74 40.93 44.43 43.58 42.16 42.38 42.09 42.08 41.49 41.69 41.74 42.25 42.42 42.38
50.47 50.83 48.35 50.61 50.22 51.89 49.14 48.17 47.25 46.87 47.21 49.56 48.47 44.60 43.80 43.59 44.49 49.90 50.91 51.96 51.96 46.69 43.49 43.15 43.46 43.25 42.21 41.55 42.10 43.44 43.28 43.14 42.64 42.85 43.00 42.37 42.10 42.18 42.76 43.46 44.62 39.61 44.11 43.63 43.62 43.61 43.55 44.13 42.55 42.19 41.84 41.75 42.43 42.25
50.02 53.41 52.72 50.29 50.53 50.21 50.40 49.96 49.74 51.18 51.89 50.19 47.98 46.71 47.36 50.72 52.10 50.78 50.44 48.36 47.49 45.05 43.31 42.31 41.34 42.59 42.11 41.86 41.35 41.31 41.79 42.54 42.34 40.14 39.16 38.91 40.30 39.91 42.94 44.73 44.61 44.55 44.33 44.12 38.04 40.17 42.26 43.57 43.61 43.10 42.72 42.65 42.68 42.97
49.99 52.83 50.99 50.17 49.21 49.53 51.79 52.94 52.22 52.39 52.52 52.17 51.80 51.36 50.99 51.51 50.07 48.27 46.71 45.62 44.63 44.06 43.57 43.20 42.66 42.89 41.36 41.15 39.84 39.18 40.27 40.89 40.91 39.91 38.32 38.34 39.07 41.59 42.72 42.96 43.68 44.21 45.35 44.82 43.77 42.87 38.52 41.81 40.66 42.87 42.22 42.42 43.05 42.90
52.66 52.11 51.25 51.34 50.63 51.50 52.80 52.55 52.48 52.39 51.96 51.23 51.54 50.67 48.89 48.39 47.75 46.01 44.91 44.59 44.08 43.61 42.81 41.54 41.19 42.14 41.60 40.79 40.00 39.09 37.17 39.45 40.12 40.64 41.17 41.94 42.63 42.95 42.92 43.44 44.08 44.30 44.05 43.73 43.24 42.75 42.38 42.10 41.84 41.39 41.00 40.61 40.28 40.43
51.23 51.05 51.05 49.41 49.56 51.33 51.80 51.09 50.58 50.45 50.43 50.12 50.21 50.80 49.35 49.07 45.83 44.66 43.95 44.16 43.94 43.01 40.23 42.12 41.20 39.77 40.90 40.68 40.30 39.71 37.47 39.99 40.39 40.88 41.68 42.39 42.46 42.87 43.35 43.70 43.74 43.50 42.98 42.38 42.51 42.20 41.73 41.10 40.99 40.99 40.76 39.81 39.79 39.89
52.29 51.74 51.24 49.81 48.85 48.36 50.13 49.97 49.24 48.75 49.28 49.01 49.59 49.94 49.20 48.88 46.10 45.60 45.40 45.89 45.86 44.51 43.17 42.85 42.07 41.78 41.70 41.34 40.56 39.97 39.74 40.69 37.86 35.33 35.54 34.96 34.62 37.63 42.17 42.94 42.92 42.65 42.17 41.98 41.83 41.75 40.73 40.16 40.03 39.89 39.68 39.43 39.31 39.20

GFSWCAN_sfc_wetblb_060.txt.gz
Wetbulb
52.99 52.80 52.63 52.32 52.27 52.11 52.13 52.32 52.61 53.04 53.31 53.60 53.96 53.67 54.11 54.45 53.66 54.45 52.36 55.24 51.19 48.33 49.41 49.10 47.93 44.82 45.11 43.81 38.47 43.48 42.27 41.14 38.20 34.88 34.78 34.85 33.72 34.27 34.48 36.41 34.90 33.91 33.36 33.09 34.36 31.65 29.12 44.78 43.60 37.06 41.55 47.04 48.18 49.08
52.57 52.39 52.38 52.24 52.01 52.21 51.96 52.25 52.69 52.83 53.43 53.83 53.98 53.79 54.07 54.77 53.86 53.23 51.89 53.17 53.58 48.20 50.00 52.62 51.64 51.39 49.13 47.61 43.79 45.57 42.66 40.84 39.57 35.69 36.73 36.21 33.90 35.49 34.43 32.06 39.03 33.14 37.48 35.13 36.83 37.63 43.87 44.12 43.15 45.11 45.66 46.10 47.28 47.44
52.27 52.22 52.33 52.33 51.71 51.84 51.67 52.30 52.63 52.87 53.29 53.48 53.81 53.68 54.29 54.80 54.42 53.58 55.42 54.38 51.61 49.60 50.69 50.60 50.68 52.55 53.94 52.16 53.47 43.76 44.82 45.09 42.43 43.16 38.44 37.45 33.36 35.65 33.12 33.87 33.71 34.73 38.43 37.09 35.47 39.93 40.86 43.19 45.43 47.78 48.50 48.12 49.58 49.38
52.00 52.10 52.22 52.04 51.55 51.74 51.49 51.98 52.36 52.92 53.02 53.68 53.50 53.99 54.44 54.80 54.09 53.73 54.80 54.48 52.82 50.50 47.14 48.84 53.23 52.30 53.15 53.27 51.31 50.54 49.63 50.26 47.43 44.35 40.17 37.63 35.23 38.78 34.60 33.89 33.53 34.19 36.14 33.89 34.70 38.58 41.01 42.86 44.61 47.06 48.15 50.19 49.49 50.59
51.61 51.69 51.98 51.92 51.81 51.83 51.44 51.69 52.09 52.54 53.02 53.64 53.66 53.79 54.42 54.74 53.52 54.24 56.35 56.07 55.72 49.93 46.80 49.18 51.79 52.71 52.88 50.71 49.98 50.65 50.16 48.86 48.90 42.45 39.50 37.22 39.33 37.62 39.22 38.92 34.61 39.08 37.63 35.16 34.05 40.31 40.78 41.07 44.24 45.97 45.49 45.99 46.64 46.76
51.24 51.44 51.69 52.01 52.01 51.96 51.49 51.50 51.92 51.87 52.25 53.04 53.15 54.07 54.29 54.40 52.13 53.44 50.72 54.93 55.93 54.62 48.46 47.05 52.67 50.32 51.85 51.99 48.22 49.16 49.48 50.35 49.18 45.75 43.46 42.73 42.69 40.27 35.39 34.27 37.71 41.94 42.80 41.82 39.21 44.09 42.58 43.86 44.71 45.33 44.70 45.94 46.52 45.98
51.19 51.40 51.65 51.95 51.73 51.71 51.44 51.55 51.71 51.77 51.98 52.61 52.36 53.02 53.74 53.62 54.82 52.89 51.50 52.93 52.14 55.35 46.39 46.75 49.41 52.78 49.71 50.05 46.64 48.66 50.34 50.92 49.12 46.99 43.77 43.06 42.67 41.71 37.76 33.18 39.35 42.77 43.22 42.90 44.16 43.36 40.79 42.10 41.53 44.62 45.08 46.07 46.75 46.39
51.00 51.32 51.45 51.74 51.66 51.63 51.59 51.41 51.62 51.62 51.63 52.15 52.79 51.94 52.42 53.05 52.55 52.70 54.99 51.21 53.28 50.34 50.27 44.46 48.85 49.64 52.53 49.73 46.88 45.91 47.92 50.26 48.51 47.60 46.81 43.61 45.40 42.62 35.17 41.66 43.38 44.50 44.40 43.66 43.29 43.92 42.63 43.22 43.60 43.60 45.27 45.80 44.37 44.13
50.92 51.28 51.30 51.50 51.59 51.35 51.39 50.94 51.37 51.57 51.72 52.45 52.73 52.61 54.22 52.87 52.17 53.05 52.29 51.59 54.07 49.20 47.28 47.84 46.37 44.28 53.16 50.48 49.70 47.25 47.56 44.94 49.98 46.81 45.31 45.84 36.80 33.71 41.08 42.79 44.05 45.29 44.81 44.35 45.08 44.45 43.01 41.34 41.72 42.65 42.71 44.05 44.10 43.52
51.05 50.97 51.22 51.40 51.57 51.08 51.17 50.74 51.11 52.55 52.78 52.58 53.34 53.27 50.88 53.87 53.02 52.86 49.61 47.83 48.05 48.39 48.10 44.08 50.80 46.48 52.43 47.66 47.69 45.80 44.12 42.60 39.53 44.39 47.98 43.58 41.56 44.03 45.38 46.34 46.94 47.12 47.01 47.58 44.27 43.02 42.87 41.52 40.51 41.66 41.84 43.17 43.13 43.50
50.84 50.83 50.94 51.18 51.39 50.77 50.78 50.53 51.34 52.06 51.38 54.94 54.49 55.17 55.15 52.58 52.11 49.53 46.66 46.78 48.71 44.94 47.45 47.16 47.81 47.31 53.32 45.92 48.54 51.60 43.34 44.99 39.54 42.48 42.16 41.64 40.08 42.89 45.79 46.78 47.85 48.86 48.86 48.20 47.98 47.38 46.89 45.83 43.79 42.12 42.81 43.25 43.26 43.07
50.57 50.69 50.87 51.06 51.29 50.83 50.40 50.42 51.74 53.72 57.76 54.59 55.24 55.23 56.03 52.19 50.36 48.60 48.91 48.77 47.39 45.73 51.43 48.95 50.30 50.30 51.59 53.61 48.97 50.24 45.78 45.53 36.76 46.16 42.51 36.58 43.21 45.21 45.91 46.25 47.38 48.17 48.07 48.01 48.46 47.85 47.53 47.36 47.29 46.63 45.05 44.05 44.32 44.61
50.41 50.57 50.81 51.04 51.21 50.81 50.58 50.78 51.30 51.82 52.15 56.99 55.03 53.20 53.36 53.14 42.26 43.50 41.94 45.13 46.52 49.62 50.05 49.89 47.77 51.63 49.43 51.01 49.65 48.45 41.20 42.49 47.90 42.57 37.00 42.34 45.37 48.01 48.09 47.75 47.32 48.25 47.88 47.75 47.70 48.30 48.57 47.93 48.25 47.82 46.97 46.89 46.10 45.54
50.28 50.56 50.90 51.23 50.69 50.20 49.84 52.19 52.40 52.28 54.47 53.69 52.36 41.33 48.59 46.58 48.14 48.43 48.04 48.42 51.04 50.77 49.80 49.16 49.23 50.46 50.98 47.85 48.63 41.74 45.04 45.24 39.25 35.17 35.44 43.66 46.24 47.66 49.08 49.11 48.09 47.28 47.04 47.04 47.08 47.99 47.90 47.69 47.38 47.71 47.28 47.97 47.16 46.64
50.48 50.65 51.23 51.98 51.44 52.13 52.32 52.20 52.14 54.29 55.87 52.49 53.21 43.45 48.39 52.18 52.32 52.85 52.57 51.69 52.92 53.63 50.66 49.51 49.84 49.89 45.76 44.47 45.45 43.79 38.90 36.05 37.61 38.61 42.62 45.99 47.54 48.30 48.03 48.35 48.59 47.93 47.43 47.50 47.39 47.50 47.26 47.31 46.89 46.23 47.27 47.11 47.85 48.01
50.60 50.44 55.21 50.80 51.55 52.34 51.64 52.11 53.21 57.24 56.35 53.97 53.22 51.16 52.69 50.93 50.19 51.53 51.76 51.37 54.64 53.60 52.44 50.38 47.03 44.00 43.34 44.14 40.35 37.81 35.18 35.36 39.50 42.99 45.86 47.39 48.45 48.48 47.86 47.86 48.15 49.05 48.30 49.57 47.63 47.72 47.90 47.50 46.39 46.57 47.41 47.10 47.13 47.21
49.96 58.62 50.65 50.67 51.30 52.07 52.24 57.05 56.53 54.01 54.63 52.82 52.41 55.40 54.10 53.01 52.17 52.37 52.56 52.04 54.19 50.59 47.26 46.84 40.93 41.00 45.34 40.22 37.27 40.93 37.06 39.86 42.79 45.64 46.80 47.71 48.09 48.52 48.63 48.26 48.51 49.47 49.60 49.49 48.07 47.53 47.27 48.32 47.37 46.71 45.35 46.77 47.32 47.73
54.07 55.15 50.69 50.21 51.71 52.52 56.77 56.26 56.16 55.34 52.22 54.31 52.17 53.20 56.52 55.32 53.84 53.32 53.33 52.32 51.18 51.54 50.28 45.97 47.38 41.34 39.28 36.49 38.18 40.31 42.45 44.18 46.36 46.18 47.60 48.35 49.30 49.81 48.63 48.18 48.86 48.95 49.65 49.05 47.80 47.90 47.34 47.74 46.66 45.55 46.71 47.10 47.04 47.12
52.27 52.10 50.76 50.65 50.96 56.01 55.77 56.28 56.62 52.43 53.77 54.90 55.33 56.23 56.06 55.30 55.12 55.60 54.37 54.81 54.07 53.93 51.33 49.80 44.00 42.90 39.41 41.72 41.51 42.25 44.34 44.32 45.13 47.25 48.43 50.11 49.41 48.28 48.26 48.34 48.22 49.15 49.18 48.35 48.66 46.06 46.52 46.86 46.12 46.56 46.74 46.83 45.32 46.00
50.10 51.01 52.02 52.24 51.96 57.05 53.36 56.92 60.53 56.05 53.05 54.88 56.35 55.52 55.16 53.30 56.64 56.24 54.41 53.09 54.26 52.33 47.78 45.80 44.66 42.68 42.99 47.01 47.43 48.44 46.88 46.64 47.48 46.39 45.98 46.57 48.36 47.95 47.56 47.07 46.88 48.96 48.42 47.63 47.15 41.25 46.30 45.35 46.65 46.65 46.49 45.87 45.50 44.92
50.75 55.24 51.73 55.40 57.62 57.47 56.33 57.34 56.33 57.44 55.54 54.18 56.26 55.53 56.14 58.10 55.05 53.09 51.76 54.30 50.04 49.12 47.45 49.48 50.26 49.61 50.28 50.42 51.78 51.49 48.59 49.22 48.08 47.25 45.05 45.05 46.42 47.00 47.32 47.56 48.97 49.16 47.78 46.01 45.99 45.87 43.44 44.26 45.56 46.34 46.02 45.78 46.60 47.04
59.54 53.28 59.75 56.98 57.60 58.43 57.89 60.91 57.55 58.78 55.84 55.81 55.58 56.08 55.22 53.63 52.42 51.85 53.78 49.76 48.78 50.00 50.91 52.03 52.47 52.17 51.33 51.54 52.78 52.96 52.35 51.69 51.63 47.36 40.76 43.36 46.27 45.73 45.93 46.43 46.52 46.44 46.43 45.66 46.15 45.60 45.34 45.46 46.34 45.99 46.22 45.14 44.82 46.11
53.43 56.36 59.40 58.50 55.69 52.74 51.19 58.69 53.76 55.18 51.72 53.83 54.88 51.83 52.98 53.09 53.23 55.83 48.18 51.18 51.77 54.64 54.59 52.58 52.37 54.09 53.38 52.84 53.19 51.65 51.57 51.34 49.82 48.11 46.72 47.40 46.53 48.15 47.56 46.63 46.29 44.90 44.39 45.21 46.65 47.17 45.40 41.83 44.92 45.52 45.82 45.39 44.65 44.74
51.52 58.15 55.13 55.63 55.55 50.30 57.42 54.38 56.38 55.22 55.57 53.04 51.32 48.55 50.27 51.38 54.54 52.06 47.48 49.86 51.98 54.58 53.42 53.01 53.96 52.37 52.11 52.24 51.61 51.62 52.07 51.45 50.20 46.89 46.81 46.23 45.83 45.60 47.92 47.43 47.11 46.31 45.92 46.44 46.44 47.99 45.81 44.56 43.56 46.71 44.38 44.02 44.23 43.19
48.16 49.12 50.10 40.66 54.43 51.68 49.92 50.51 51.55 52.47 49.28 50.69 48.92 49.57 51.46 53.84 50.14 47.83 46.20 49.17 51.33 51.51 52.26 52.93 53.02 52.71 50.10 49.85 50.63 50.42 51.85 50.30 48.19 45.89 47.72 47.63 47.85 46.71 45.89 47.10 45.74 46.32 46.90 46.49 45.13 45.07 44.69 46.11 47.49 44.88 43.67 45.01 42.74 42.61
38.02 50.76 46.10 50.76 53.08 51.44 52.78 48.41 49.31 49.70 51.28 49.28 50.39 53.82 54.40 51.51 45.64 43.70 48.09 50.57 51.75 52.88 53.33 53.21 52.58 50.96 49.84 49.33 47.99 48.22 48.54 50.26 49.57 47.66 48.14 49.53 48.32 46.14 44.09 44.03 43.35 42.81 47.31 46.00 44.83 43.92 43.41 45.30 43.35 43.36 43.39 42.46 38.36 43.33
42.03 49.66 54.78 57.72 55.47 55.09 54.01 55.53 55.08 52.51 49.17 48.99 52.50 50.71 50.54 43.91 43.65 48.72 53.54 53.47 53.59 53.87 53.29 52.37 50.47 48.93 47.66 47.04 47.79 48.13 48.68 48.94 47.78 46.72 47.93 48.38 47.73 47.73 46.39 43.76 43.02 44.41 46.04 47.62 46.09 43.74 43.09 44.48 44.37 44.82 45.23 44.72 44.84 44.34
53.09 53.65 50.67 54.00 53.74 56.02 51.93 52.82 51.10 49.93 51.89 54.71 53.48 47.47 45.40 45.35 46.98 52.11 52.86 54.65 53.67 50.43 49.65 49.01 48.27 47.67 46.69 46.43 46.57 46.80 47.29 47.41 47.22 47.15 46.89 46.78 47.12 47.34 47.48 47.08 46.11 39.81 45.90 46.00 45.70 45.60 45.63 44.51 44.02 44.10 44.28 44.51 44.21 44.44
52.54 56.23 55.19 52.46 53.50 54.38 54.09 53.18 54.14 56.47 57.45 55.02 52.51 51.00 50.59 53.35 53.89 53.08 52.38 53.00 50.92 49.52 47.78 46.94 46.75 47.91 46.86 46.20 45.56 45.11 45.05 44.82 44.23 42.37 41.55 42.67 42.99 44.35 47.75 45.63 44.82 45.12 45.12 45.51 36.13 40.43 44.66 45.00 44.91 44.61 43.69 43.51 43.88 44.53
52.77 56.14 53.89 52.39 51.42 52.41 56.15 58.13 57.80 57.47 58.31 57.38 55.94 54.26 53.11 52.11 51.84 53.88 51.87 50.60 49.39 48.48 48.34 48.07 48.01 46.87 44.98 44.19 42.97 42.49 43.93 44.54 44.49 43.47 41.89 41.31 42.61 45.45 46.67 46.80 45.19 45.37 46.83 46.72 44.48 44.35 38.37 42.94 40.94 44.46 43.31 43.05 42.62 43.20
57.36 55.66 53.44 54.63 53.97 57.37 58.11 57.95 57.72 57.30 56.61 55.88 56.70 55.58 51.88 49.20 49.21 51.01 51.58 51.06 49.64 48.47 47.45 46.93 46.54 46.51 44.77 43.69 43.32 41.95 40.51 43.55 44.45 44.83 45.26 45.58 45.63 45.77 46.13 46.53 47.12 46.86 46.44 46.66 45.72 43.88 43.09 42.82 42.49 42.21 42.52 41.56 41.65 42.00
55.83 54.15 54.44 51.84 54.65 57.22 57.04 56.11 55.88 55.38 55.06 53.96 53.81 54.61 52.21 49.97 47.49 48.01 50.11 49.77 48.33 47.53 43.68 46.69 45.76 44.19 44.82 44.18 43.62 43.14 39.68 43.93 44.47 45.19 44.94 45.01 45.00 45.44 46.11 46.43 46.43 46.30 46.13 45.72 45.19 44.43 43.81 42.69 41.95 41.67 41.76 40.71 40.72 40.85
56.07 56.09 55.83 55.50 54.26 52.57 55.23 54.63 53.43 53.20 53.57 53.17 53.39 53.47 52.70 51.74 49.13 49.06 50.03 51.12 50.19 48.31 47.71 47.48 46.86 46.28 45.74 44.62 43.78 43.07 42.12 43.58 39.25 35.49 36.19 35.56 34.95 38.27 45.31 45.80 45.77 45.76 44.96 45.19 44.74 44.16 42.93 42.06 42.14 41.47 41.15 40.63 40.64 40.75

GFSWCAN_sfc_wetblb_063.txt.gz
Wetbulb
53.34 53.09 52.96 52.82 52.55 52.51 52.38 52.71 52.90 53.35 53.67 54.25 54.31 53.93 54.24 54.41 54.00 55.04 55.69 58.29 53.62 52.19 51.61 52.28 51.68 49.01 48.41 46.16 41.71 46.44 42.51 43.66 42.67 37.29 36.56 36.64 35.59 36.12 34.88 38.83 36.69 35.27 35.35 35.03 36.41 33.16 30.10 47.92 47.15 40.73 46.22 48.70 49.34 51.00
52.92 52.80 52.80 52.70 52.41 52.20 52.03 52.59 52.76 53.40 53.61 53.97 54.06 53.82 54.10 54.61 54.36 53.66 56.88 58.38 57.17 52.50 52.83 55.26 54.91 54.17 51.93 50.77 48.13 47.99 43.45 42.66 40.99 37.21 37.64 37.75 35.23 36.96 35.41 34.04 42.30 34.62 38.44 37.57 38.58 38.31 46.33 46.89 45.50 49.10 49.49 47.96 46.98 50.30
52.62 52.51 52.53 52.68 52.29 52.28 51.95 52.36 52.63 53.11 53.60 53.93 54.22 53.64 54.02 54.88 54.69 53.47 57.26 58.04 55.77 53.10 51.54 51.58 50.32 55.58 56.04 54.91 55.05 47.39 47.82 46.96 43.64 45.89 39.96 37.81 34.14 36.72 34.29 34.83 35.23 39.29 39.76 37.66 38.08 42.63 42.32 41.78 46.05 45.99 47.43 48.61 48.43 51.11
52.45 52.41 52.39 52.45 52.18 52.28 52.13 52.30 52.46 52.96 53.19 54.14 53.81 54.17 54.39 54.71 54.71 53.95 57.06 58.25 55.70 53.69 47.84 52.06 56.72 53.81 56.45 55.68 54.02 53.92 50.77 49.94 48.12 46.83 42.17 38.64 36.24 39.90 35.74 34.65 34.32 35.70 35.03 34.87 37.04 39.31 39.49 40.93 43.26 44.30 46.04 48.61 49.01 49.98
52.02 52.04 52.20 52.29 52.27 52.39 52.15 52.07 52.30 52.32 53.27 53.95 53.95 53.85 54.32 54.90 54.72 54.98 57.90 59.20 58.84 52.69 49.28 50.80 55.18 55.68 55.99 55.03 52.55 52.56 51.35 50.71 47.36 43.63 42.19 38.91 40.51 38.44 40.18 39.68 35.05 39.06 36.10 33.96 33.60 38.84 39.12 40.95 43.15 44.31 44.38 45.93 46.99 47.60
51.56 51.46 51.62 52.14 52.25 52.14 51.95 52.03 52.01 52.05 52.72 53.56 53.54 53.99 54.07 54.83 54.07 53.58 53.00 58.30 60.33 57.13 49.50 48.49 57.12 54.38 55.67 54.58 52.50 49.03 52.34 50.02 48.22 48.36 45.75 44.73 44.21 41.01 36.67 35.23 39.73 41.66 42.40 42.26 38.73 42.88 41.78 42.41 43.43 43.98 43.82 46.00 47.37 46.80
51.40 51.40 51.62 52.15 52.17 52.04 51.95 51.76 52.03 51.98 52.40 53.02 53.11 52.83 53.97 54.26 55.67 52.30 51.82 53.90 52.68 56.50 48.92 48.99 49.39 55.77 55.38 54.49 50.57 49.66 50.21 49.65 49.67 48.67 46.94 47.12 44.88 44.23 39.42 34.14 40.69 43.34 43.83 43.42 44.09 42.85 39.41 40.69 40.77 43.03 44.93 45.93 47.04 47.06
51.06 51.25 51.60 51.94 51.94 52.00 51.72 51.84 51.83 52.07 52.21 52.55 53.17 51.64 52.49 53.56 53.29 53.51 56.92 51.67 53.42 52.26 51.48 48.41 47.32 53.46 56.11 51.21 50.88 52.97 50.13 49.50 48.74 47.92 48.86 45.90 45.97 45.10 36.50 43.40 45.07 45.26 44.62 44.08 43.79 43.83 42.54 42.81 43.55 42.67 44.21 44.96 44.26 44.28
50.97 51.20 51.46 51.84 51.86 51.76 51.56 51.75 51.60 51.97 52.11 52.36 53.07 52.82 54.84 53.89 53.09 54.27 53.25 52.58 57.23 52.53 49.16 51.00 47.01 44.24 55.85 54.08 53.06 51.15 52.04 45.25 52.09 49.17 45.52 45.64 40.60 34.68 42.05 42.67 44.24 46.04 45.50 44.54 45.48 45.20 43.97 41.99 41.80 43.21 42.34 41.89 41.99 43.09
50.91 51.02 51.28 51.53 51.62 51.70 51.13 51.55 51.22 51.72 52.70 52.84 54.10 54.42 51.86 54.86 53.25 53.57 53.54 50.69 49.68 50.59 52.22 49.68 51.72 46.92 53.66 51.61 50.96 48.44 50.65 46.71 41.66 45.64 48.71 44.91 43.43 45.25 45.56 46.01 47.07 47.04 47.76 47.77 44.33 43.06 43.37 42.69 42.38 42.12 42.85 43.58 42.38 42.30
50.76 50.85 51.20 51.33 51.70 51.52 51.02 51.35 51.06 52.36 52.61 56.08 56.63 54.81 58.50 53.22 55.09 51.49 49.96 50.15 51.85 48.77 50.70 50.61 51.89 49.54 54.74 49.20 48.88 51.78 49.11 47.00 41.32 43.54 44.39 44.08 41.88 44.78 47.14 46.20 48.32 48.65 48.40 48.39 47.90 47.22 47.41 45.77 44.00 43.87 44.04 43.96 45.08 44.45
50.77 51.01 51.18 51.33 51.59 51.53 51.02 51.13 51.29 54.21 59.69 56.02 55.79 57.66 60.06 53.57 51.72 50.95 50.30 51.53 49.83 47.49 52.52 51.41 51.10 52.21 53.53 55.44 49.95 50.20 46.09 47.83 39.54 47.89 43.07 38.83 45.37 47.80 47.37 46.43 47.70 48.53 48.58 47.75 48.05 47.29 46.92 46.84 46.83 45.92 45.73 45.24 46.47 46.98
50.61 50.87 51.05 51.23 51.43 51.53 51.43 51.24 50.99 52.10 53.13 59.45 57.02 54.08 54.88 54.70 43.84 45.39 43.13 46.77 47.48 51.08 51.72 51.33 49.59 53.56 54.00 54.07 49.36 48.82 43.78 42.05 48.93 41.94 39.43 42.34 46.27 48.00 47.65 47.87 48.56 50.19 48.96 48.97 48.35 48.24 47.76 47.16 47.94 47.65 46.30 47.09 47.10 47.25
50.40 50.74 50.96 51.30 51.22 51.44 50.83 51.20 51.70 52.48 54.64 55.97 54.22 41.84 50.21 47.67 48.82 50.68 49.50 49.15 52.00 52.82 51.54 50.97 49.66 52.04 52.85 49.37 48.53 42.69 45.66 46.01 40.55 37.83 35.59 44.59 47.29 48.05 47.77 47.98 48.64 48.48 48.97 48.25 48.53 48.99 48.08 47.53 47.15 48.37 48.02 48.04 47.71 46.65
50.67 50.81 51.00 52.47 51.80 52.20 51.53 51.16 52.38 56.02 57.64 54.31 54.44 45.47 49.74 52.37 52.90 53.32 54.55 53.05 54.66 53.56 52.45 51.23 50.02 49.28 48.88 45.39 45.46 44.37 41.19 38.10 39.47 37.23 40.95 46.76 49.28 49.49 48.59 47.66 47.57 47.85 48.79 48.93 48.78 47.82 48.29 47.31 47.74 47.34 48.42 48.83 48.13 47.63
50.92 50.15 54.93 51.53 52.01 52.69 52.21 52.47 54.11 59.24 58.13 55.63 54.38 51.63 53.30 50.68 51.33 53.36 54.11 51.17 52.68 52.89 53.62 52.25 47.32 46.07 44.45 46.24 40.82 39.71 38.04 36.24 38.18 42.18 45.41 48.46 48.34 48.94 48.93 48.84 48.84 49.63 49.57 49.07 48.76 48.42 47.96 47.54 47.34 47.40 48.47 48.60 48.56 48.35
49.64 60.18 51.39 51.38 52.39 52.29 52.54 57.10 59.16 56.20 55.73 54.01 53.22 55.05 54.01 53.28 52.88 52.90 53.08 54.20 55.96 52.22 47.49 50.13 43.90 41.37 46.74 42.44 39.92 41.86 39.52 43.27 43.85 45.99 47.56 48.99 49.07 49.12 49.15 49.06 48.72 48.99 49.44 49.31 49.72 48.59 48.25 49.12 48.74 47.37 46.51 48.28 49.04 49.31
56.21 56.17 51.15 50.90 51.38 54.06 58.52 57.36 57.69 56.16 53.33 55.60 52.49 53.49 55.84 56.14 53.98 53.70 55.51 56.90 54.55 51.84 50.80 46.83 49.58 44.52 42.13 37.61 41.08 46.07 46.17 47.01 48.45 47.64 48.35 49.20 50.16 50.42 49.82 48.90 49.03 49.10 49.18 48.60 49.75 49.39 48.84 47.83 47.82 47.30 48.09 48.74 48.12 48.31
53.78 53.38 51.35 50.76 52.57 56.74 57.50 58.31 58.91 53.41 54.74 55.41 56.01 56.41 57.12 56.89 58.42 58.79 58.21 56.98 56.79 55.61 52.35 49.22 45.72 45.27 45.56 46.74 47.86 46.85 46.62 49.54 47.44 47.67 48.69 51.49 50.87 49.37 49.42 49.39 49.20 48.71 49.57 48.50 49.60 46.95 48.08 48.65 47.39 47.51 47.29 47.16 46.10 46.50
50.26 50.74 52.08 51.94 52.08 58.32 55.07 57.16 62.44 56.85 54.08 55.33 57.67 55.62 55.84 56.09 57.93 58.23 55.44 56.59 53.53 52.24 50.15 47.48 46.89 48.37 50.27 50.32 51.44 50.08 49.52 50.31 48.02 46.97 46.90 48.16 49.25 49.28 49.08 48.21 47.50 48.49 49.18 48.89 48.39 44.63 47.46 46.76 49.87 48.07 46.91 46.98 46.47 45.90
49.35 56.17 52.15 55.98 57.08 59.40 57.10 57.12 57.36 58.55 56.61 55.07 57.81 57.02 56.34 57.88 54.99 51.85 52.24 53.87 51.44 49.26 47.21 50.22 50.48 51.34 52.84 52.63 54.40 54.48 52.14 50.78 49.15 48.50 47.31 46.64 48.30 48.93 47.44 48.67 48.38 48.16 47.59 46.95 47.23 46.08 46.75 46.47 47.01 48.20 47.64 46.16 46.38 47.38
60.60 53.20 61.64 58.37 58.24 59.65 58.92 60.82 57.97 59.42 58.03 56.61 57.19 57.16 55.13 53.17 54.22 53.71 55.72 51.72 50.09 49.82 51.78 52.08 52.63 53.97 53.40 52.79 52.87 53.86 54.48 53.70 52.92 49.89 41.68 44.19 46.32 47.00 46.00 46.88 46.63 46.15 46.17 46.84 47.43 46.68 45.89 48.10 48.31 48.32 48.31 48.93 46.63 46.88
53.00 57.99 60.75 59.27 56.65 54.70 52.67 61.73 55.75 57.19 53.24 54.01 55.78 53.10 53.14 53.30 54.20 57.05 50.14 51.83 52.75 54.74 55.45 55.61 54.45 55.01 53.94 54.16 54.13 53.97 54.28 53.43 50.65 50.12 49.52 49.03 47.95 48.94 48.31 47.24 47.11 46.22 45.41 46.53 47.64 46.53 46.12 44.08 45.10 47.80 47.22 48.39 46.84 47.06
52.45 59.30 56.02 56.16 56.37 51.10 58.78 56.04 57.79 56.22 56.77 53.98 52.41 49.99 51.39 52.52 55.68 50.55 47.38 50.30 52.86 54.11 53.42 54.35 54.79 51.97 52.23 51.24 51.13 51.70 53.16 51.51 49.25 49.65 50.70 47.79 47.83 47.06 47.62 47.02 47.37 47.42 47.00 47.17 47.19 47.13 47.02 46.45 44.00 46.65 45.83 46.13 46.05 46.04
50.24 49.05 51.69 42.52 56.52 53.74 52.61 52.17 52.84 53.16 50.18 52.33 50.42 50.16 51.33 55.39 49.87 48.06 47.08 49.55 51.62 52.09 52.93 53.49 52.53 51.58 49.10 49.03 50.01 50.88 52.79 50.42 48.66 47.69 50.08 49.87 48.55 48.66 47.30 47.03 47.06 46.06 47.89 47.11 44.48 45.75 47.40 43.79 44.52 46.34 45.25 44.61 44.76 44.67
42.28 52.00 47.39 52.41 53.25 52.62 52.26 49.46 49.93 50.62 51.78 50.66 51.51 54.70 56.09 51.74 46.00 44.42 48.79 51.07 52.03 53.85 54.10 52.54 51.11 49.53 49.34 49.34 48.15 48.26 49.12 50.77 50.04 48.07 50.42 49.43 47.98 47.02 45.51 45.71 46.07 47.37 48.83 45.99 46.08 45.21 44.92 44.67 46.47 45.05 45.32 43.76 39.67 44.79
44.20 50.89 55.02 58.52 57.13 57.23 54.99 56.85 57.30 53.96 50.53 50.08 52.83 52.18 51.77 44.73 44.71 49.84 54.43 54.37 53.16 52.36 52.27 50.97 49.66 48.15 47.25 47.27 48.49 49.16 49.45 49.62 48.85 47.78 48.93 49.09 49.18 48.74 47.16 44.88 44.27 46.17 47.11 47.06 46.46 45.72 45.56 44.71 45.09 44.59 44.93 44.00 45.38 45.52
53.84 55.03 52.31 55.30 55.36 57.59 53.12 54.03 52.37 50.81 51.59 55.94 55.31 49.19 47.73 47.73 48.84 54.11 54.66 55.01 52.76 52.04 50.60 50.23 49.81 48.84 47.66 47.45 47.53 47.66 48.75 49.52 49.21 49.21 48.89 48.67 48.99 48.45 48.22 47.19 46.40 39.53 46.21 46.47 46.31 46.28 46.29 45.33 45.32 44.68 45.31 44.44 44.62 46.74
53.88 56.28 56.24 53.51 54.97 55.72 55.44 53.86 52.94 56.64 58.75 56.44 52.55 52.52 53.13 55.76 55.98 54.89 54.85 53.91 53.40 52.25 50.12 49.39 50.08 50.54 48.90 48.15 47.22 47.01 46.78 46.70 46.49 44.39 44.01 44.49 44.81 45.53 48.30 47.24 46.79 48.58 46.79 45.92 37.08 41.45 44.95 45.63 45.94 44.74 44.51 44.42 44.79 45.78
54.76 58.23 55.12 53.77 52.72 51.53 55.95 58.09 57.37 60.06 61.13 59.56 58.88 56.94 55.67 54.79 55.75 56.16 54.96 53.33 52.81 51.39 50.32 49.92 49.60 48.95 47.35 47.00 45.25 45.08 46.63 47.11 46.98 46.46 44.32 43.66 44.66 47.36 47.50 47.01 47.64 47.85 48.10 47.38 45.50 45.51 39.45 43.76 42.04 45.92 44.71 45.64 44.97 45.35
59.36 57.62 55.20 54.56 52.90 56.76 58.43 60.65 61.82 61.37 60.07 58.90 59.74 57.41 55.96 53.36 52.03 54.80 54.73 54.78 53.47 52.09 50.16 49.33 48.47 47.89 46.82 46.05 46.18 45.05 43.65 46.51 47.00 47.33 47.52 47.61 47.95 47.84 47.81 48.49 48.41 48.35 47.95 46.98 46.35 45.75 44.42 44.51 44.49 44.52 44.10 43.07 42.86 42.91
56.67 55.25 54.10 52.17 53.84 59.27 60.44 58.51 58.56 57.44 57.69 56.85 56.36 57.56 55.42 52.09 48.32 50.81 54.34 53.63 51.72 51.01 44.96 50.31 47.85 46.36 46.86 46.33 46.18 45.74 40.73 47.09 47.40 47.66 46.85 47.33 47.27 47.59 48.60 48.87 48.93 48.61 48.30 46.06 46.46 46.03 44.37 44.66 44.33 44.71 42.99 42.07 42.20 42.35
55.97 55.50 55.91 54.82 55.39 54.88 57.64 57.00 56.03 55.31 56.61 55.66 56.27 56.37 55.37 53.97 50.72 53.17 54.48 54.36 53.12 52.70 50.71 50.03 49.15 48.49 48.15 47.06 46.34 45.22 44.51 45.82 40.31 36.26 37.11 35.87 34.83 38.51 45.57 48.07 47.99 48.37 47.57 47.50 46.31 45.49 44.42 43.32 43.71 43.13 43.23 42.83 42.29 42.25

GFSWCAN_sfc_wetblb_069.txt.gz
Wetbulb
55.40 54.53 53.65 53.36 53.43 53.05 53.12 53.03 53.18 53.53 53.97 54.44 54.85 55.37 56.06 56.27 56.11 53.83 55.38 58.69 53.78 50.68 51.03 52.64 51.97 48.13 47.57 46.17 42.22 44.57 43.08 42.12 40.17 36.58 35.15 33.73 32.68 34.55 33.63 35.63 34.06 34.24 33.74 30.74 32.38 28.51 26.54 43.67 44.02 37.59 41.39 43.21 43.94 45.09
55.22 54.31 53.30 53.03 53.14 53.01 53.18 53.05 53.01 53.30 53.80 54.23 54.80 55.51 55.54 55.77 55.87 54.85 54.81 59.12 58.84 53.34 51.99 56.13 55.68 55.01 53.75 51.29 47.19 46.50 43.25 42.15 40.96 38.26 37.49 36.57 32.79 34.30 33.06 29.10 37.27 31.81 34.62 31.98 35.39 35.89 41.41 43.46 42.11 43.70 43.88 41.64 43.24 43.41
54.92 53.92 52.93 52.74 52.85 52.97 53.07 53.01 52.97 53.10 53.53 54.11 54.76 55.14 55.22 55.74 55.55 54.74 52.69 56.27 56.45 52.64 51.67 52.61 51.61 55.42 55.76 54.22 53.28 45.06 45.93 46.63 43.93 44.68 40.09 37.93 33.11 36.71 31.20 32.19 32.91 36.71 38.01 34.35 33.26 38.39 37.45 40.88 41.69 42.66 42.71 42.28 43.58 45.31
54.37 53.63 52.85 52.47 52.52 52.87 52.83 53.22 52.85 52.91 53.24 53.99 54.82 55.17 55.05 55.37 55.58 54.98 52.42 55.60 55.77 52.55 47.00 50.08 56.88 54.32 56.96 55.50 54.37 52.56 49.79 49.08 47.94 46.01 41.39 39.49 35.34 39.73 34.42 35.45 33.67 36.86 37.01 34.88 35.00 37.36 38.06 40.05 40.27 41.86 42.06 43.33 43.91 45.29
53.78 53.16 52.41 52.04 52.33 52.58 52.70 52.78 52.87 52.91 53.01 53.58 54.41 54.73 54.72 55.25 55.35 54.64 55.31 57.33 58.82 52.60 46.45 47.96 53.50 55.42 55.85 55.17 53.20 52.41 50.32 47.56 45.49 42.20 41.81 39.44 40.30 38.90 39.86 38.64 34.54 38.02 35.48 33.23 31.95 38.09 37.83 38.00 41.15 42.79 41.11 41.89 43.55 44.61
53.36 52.49 52.10 51.85 52.29 52.58 52.51 52.68 52.72 52.99 52.93 53.30 54.08 54.43 54.80 55.09 54.88 53.21 53.65 56.91 56.28 56.64 49.50 44.85 54.77 53.37 54.11 54.33 53.06 51.39 50.64 49.46 47.41 45.05 44.64 42.86 44.20 40.00 35.84 33.29 39.14 40.33 40.90 41.37 38.15 41.19 41.04 41.52 42.23 43.67 41.39 41.44 42.97 44.15
52.91 52.34 51.79 51.79 52.27 52.56 52.54 52.62 52.64 52.87 53.07 53.07 53.37 54.09 54.19 53.98 52.80 51.68 51.41 53.85 52.87 56.29 48.94 45.99 48.00 52.76 54.71 52.57 51.22 51.45 52.37 49.52 49.11 46.74 44.79 43.66 42.31 42.09 38.42 33.28 40.34 42.71 42.79 42.87 43.05 42.66 39.85 40.93 39.81 43.63 43.52 42.30 42.99 43.67
52.60 51.96 51.33 51.75 52.25 52.60 52.45 52.41 52.42 52.31 52.66 52.81 53.16 53.63 53.92 53.38 52.00 50.75 55.63 54.31 55.13 52.41 50.22 45.30 47.14 50.38 53.80 49.14 47.80 52.03 48.42 48.74 47.89 46.57 46.17 43.72 44.32 41.99 33.83 38.89 43.24 45.43 44.94 43.57 43.81 44.15 42.22 43.06 43.67 43.51 44.35 43.11 41.09 40.83
52.18 51.31 51.20 51.52 52.06 52.41 52.37 52.31 51.70 51.77 51.68 52.45 53.14 53.59 53.22 51.28 51.94 54.71 56.46 55.25 55.71 52.29 46.58 48.55 45.29 43.41 54.56 52.34 51.62 50.08 49.56 44.62 49.26 44.89 44.58 45.25 36.75 31.80 36.29 41.97 43.18 45.15 43.38 43.22 44.44 44.32 43.77 42.61 43.18 43.57 43.31 43.61 41.89 41.42
51.57 50.88 51.01 51.28 51.87 52.29 52.44 52.15 51.33 51.46 51.62 52.72 52.00 51.95 51.30 56.40 55.37 55.45 51.78 49.61 49.21 50.10 49.68 45.99 49.01 44.65 51.17 50.09 48.85 48.64 48.70 44.34 40.19 44.40 47.09 41.54 38.06 43.63 44.93 46.10 45.67 46.50 46.91 46.54 42.69 41.67 42.22 42.71 42.82 43.18 43.03 44.40 44.21 43.18
50.79 50.68 50.99 51.39 51.81 52.09 52.20 52.11 51.14 51.23 51.39 52.79 53.53 52.95 56.17 55.57 55.12 51.78 48.55 47.65 48.61 46.44 48.51 49.81 49.21 45.28 51.25 47.46 47.81 49.60 45.34 45.44 39.04 42.41 41.80 40.87 40.37 43.80 47.74 46.36 47.21 48.58 48.73 47.45 46.88 46.31 46.47 44.68 43.62 43.46 43.62 44.66 44.31 44.39
50.42 50.59 50.89 51.11 51.69 51.89 52.02 52.20 51.22 51.19 56.50 53.06 52.30 54.85 57.51 53.84 51.87 48.48 47.54 49.48 48.29 46.37 46.85 47.34 48.38 52.22 52.32 53.73 47.33 47.46 44.07 44.23 38.51 45.20 41.26 37.00 42.94 45.76 47.53 46.97 47.60 48.26 47.61 48.01 48.73 47.82 47.25 47.02 45.15 44.75 45.32 45.06 44.70 45.56
50.21 50.51 50.94 51.18 51.70 52.17 52.34 52.30 51.36 51.79 52.00 56.41 53.78 53.62 52.63 52.48 43.06 45.29 41.48 45.99 46.71 49.74 50.33 49.13 47.47 49.58 50.81 50.69 47.03 46.50 42.57 41.39 47.00 40.82 37.76 38.14 43.61 46.21 47.07 46.83 48.59 49.34 49.25 48.34 48.72 49.18 47.76 48.49 47.10 45.77 45.45 46.34 45.77 45.63
50.34 50.75 50.99 51.19 52.40 52.27 52.16 51.94 51.04 51.28 50.80 52.75 52.79 39.60 48.79 47.16 49.01 47.80 48.37 49.62 52.79 51.24 50.65 52.23 50.56 48.28 48.45 45.37 46.44 42.07 44.53 43.37 36.24 34.14 35.35 40.07 42.62 45.18 47.02 47.99 47.70 47.83 47.66 47.49 48.11 47.79 47.38 46.23 46.66 47.87 46.36 45.46 45.41 45.57
50.79 51.05 51.37 51.60 52.41 52.29 51.70 51.12 51.19 53.39 53.99 52.74 53.55 41.09 49.06 51.66 52.19 52.47 52.47 52.54 54.08 53.57 51.92 50.11 51.13 48.71 44.65 42.39 46.05 42.60 40.14 35.46 35.47 34.83 40.30 44.91 45.95 46.92 46.62 47.31 46.80 47.66 46.35 47.70 47.65 46.44 46.87 46.21 45.44 46.38 45.87 45.84 46.21 46.45
50.93 50.65 52.03 53.40 53.29 53.34 52.12 50.19 52.10 55.85 56.15 53.93 53.42 50.33 52.43 51.65 48.99 49.01 49.09 50.72 54.24 53.48 55.18 51.84 47.66 44.58 43.42 44.58 41.57 38.93 36.36 33.74 39.08 42.53 44.92 46.56 47.05 47.15 47.50 48.27 48.97 47.68 48.00 46.37 47.00 47.24 47.03 46.07 45.60 45.32 47.58 44.94 45.54 46.89
49.75 55.18 52.62 52.77 53.28 52.91 53.03 54.05 55.39 54.27 53.57 53.03 52.44 54.53 51.83 51.72 51.56 52.18 50.91 54.08 57.90 50.39 48.17 47.19 43.13 42.12 45.66 41.49 39.25 42.89 39.67 42.10 44.84 45.21 46.64 47.43 46.96 47.64 47.94 48.40 47.81 48.07 48.42 47.81 47.69 46.03 46.57 48.09 46.74 45.51 44.66 47.60 45.19 47.55
53.41 53.13 52.37 52.24 52.25 53.91 55.85 53.83 55.68 54.51 51.72 54.30 52.29 54.22 56.16 56.12 55.44 55.56 56.01 55.04 54.16 52.12 49.17 44.66 48.74 43.27 40.56 37.98 39.53 44.17 44.72 46.66 48.43 47.86 48.07 49.35 49.69 48.88 48.36 47.84 48.57 48.78 48.14 47.95 46.96 46.84 46.66 46.56 45.71 43.16 44.95 45.63 45.71 46.72
51.11 50.90 50.93 51.83 51.41 52.23 56.25 56.21 56.34 51.47 53.75 55.19 55.99 54.81 56.37 56.81 57.95 57.75 55.13 56.98 57.07 56.18 51.05 48.37 44.52 42.25 43.60 45.98 45.31 46.00 45.10 47.21 46.52 48.24 48.08 49.68 50.38 49.50 49.20 49.48 48.95 48.35 48.00 46.74 46.13 46.10 44.82 46.62 45.89 44.33 44.45 44.57 43.33 44.32
50.20 50.79 50.77 50.87 50.64 53.07 54.52 56.20 61.04 56.21 53.22 55.62 56.49 54.52 55.63 56.05 56.74 56.09 55.36 54.20 54.00 50.73 48.12 45.81 45.06 47.29 47.87 48.24 50.37 48.75 49.26 49.61 48.92 46.53 45.49 45.76 49.02 48.40 47.80 47.35 46.02 48.77 47.12 47.30 47.00 44.62 45.43 45.68 45.55 45.60 43.21 43.68 43.81 42.41
55.96 53.94 52.10 51.91 52.26 54.07 55.67 56.23 56.43 55.52 55.38 52.31 52.49 52.49 53.55 54.17 51.88 51.33 52.21 55.65 50.62 49.11 46.73 49.04 49.09 51.76 54.06 54.16 51.60 51.58 49.63 51.50 50.26 48.51 46.35 45.62 47.55 47.55 47.57 47.94 47.21 46.53 45.96 46.19 46.51 45.67 45.53 45.10 45.46 45.63 43.93 44.85 43.58 44.44
58.13 53.96 57.58 54.04 55.62 58.06 56.62 58.60 56.28 57.92 54.17 52.83 50.74 52.54 52.31 50.69 50.07 51.19 53.51 51.67 49.75 50.79 52.79 52.51 52.53 53.14 53.74 52.87 51.47 52.48 53.04 53.91 53.40 50.76 46.66 47.47 47.46 46.93 45.82 45.76 45.51 44.57 44.70 44.97 45.51 45.07 44.58 44.72 45.32 45.99 45.17 44.53 44.45 43.85
53.88 56.09 57.90 58.75 55.31 50.36 49.77 60.73 55.86 57.57 51.36 51.55 53.35 51.92 52.12 52.94 52.27 55.08 50.31 52.25 52.93 55.68 55.37 54.74 55.55 56.63 55.08 54.06 52.89 52.33 53.43 53.36 51.51 51.03 50.55 48.66 48.84 47.43 46.06 45.24 45.14 43.97 43.95 44.61 45.17 44.46 43.90 43.54 44.83 45.68 45.80 44.48 44.38 44.27
53.49 56.78 55.52 54.98 53.95 47.79 57.00 55.58 57.34 54.41 50.24 47.21 47.95 48.80 50.69 52.69 53.60 51.23 47.60 50.70 52.18 54.00 54.30 55.73 55.56 53.79 53.88 52.17 51.52 52.23 51.35 52.44 51.71 50.73 50.65 49.46 46.72 46.84 46.84 46.05 46.25 45.84 45.19 45.91 44.21 44.74 45.88 44.47 43.68 44.69 44.83 44.49 43.84 42.85
48.24 47.49 49.47 39.19 54.29 53.24 51.93 50.40 48.47 47.58 48.39 50.15 48.42 49.74 51.93 55.55 49.82 48.31 47.39 49.63 52.02 52.12 53.11 53.96 52.43 50.94 48.22 48.06 49.45 49.00 50.06 48.42 47.64 47.81 47.58 48.42 47.21 46.46 46.34 46.78 46.75 46.33 45.95 44.17 44.07 45.30 44.10 44.40 45.13 44.56 44.47 42.83 43.94 43.61
40.81 51.35 44.43 51.29 51.39 51.36 51.80 49.74 49.98 46.78 48.16 49.56 48.47 49.87 51.61 51.94 47.10 45.53 49.91 51.99 51.01 50.99 50.62 50.30 49.16 48.14 46.79 48.22 46.98 46.58 46.92 48.88 48.92 45.87 46.45 46.87 45.88 44.79 44.14 42.87 41.95 43.11 45.66 45.81 44.39 44.08 44.57 44.14 43.53 43.92 43.71 44.22 41.60 44.25
42.75 48.71 54.05 57.13 54.37 54.59 52.44 54.32 55.09 52.43 50.71 49.75 49.12 47.87 49.81 45.79 45.73 50.78 54.14 53.74 50.62 51.17 52.52 51.40 49.70 47.46 46.68 47.22 48.92 49.59 49.07 49.65 49.22 47.84 48.03 47.15 46.07 45.01 43.55 42.06 41.28 43.08 46.15 46.14 46.10 45.42 44.20 43.83 44.31 43.71 43.64 44.64 44.33 44.22
51.98 53.58 51.10 53.75 54.11 55.03 53.05 53.79 51.22 46.92 48.88 53.29 51.62 47.06 46.70 47.40 48.81 54.87 53.35 53.42 52.36 52.52 50.58 50.11 49.85 48.51 47.53 47.50 47.71 48.02 49.18 49.12 49.93 49.13 47.88 47.45 46.47 45.67 45.65 45.41 44.68 42.00 43.72 43.23 45.54 46.26 45.29 44.84 45.03 44.56 44.07 43.70 43.42 44.77
51.60 53.79 54.23 53.10 53.77 53.60 51.55 51.49 49.97 51.56 53.54 51.98 50.56 49.26 50.65 56.15 55.68 54.79 54.03 53.18 52.48 51.19 49.40 48.99 49.21 49.20 48.41 48.14 48.52 48.18 47.75 47.40 47.79 46.78 44.70 42.52 43.03 44.26 46.74 46.55 44.53 45.02 43.66 42.09 38.67 41.35 43.25 43.22 44.25 44.53 44.94 44.62 44.76 44.72
51.32 54.39 52.88 53.76 52.80 50.16 52.23 53.88 53.65 56.15 56.69 53.12 56.75 55.51 54.65 55.45 56.56 57.19 55.41 55.02 53.75 51.75 50.61 49.64 49.41 49.05 47.33 46.29 45.34 46.06 47.53 47.73 47.17 46.26 44.16 43.17 43.91 45.87 46.68 46.86 46.46 46.30 46.07 44.98 43.77 43.10 40.47 42.56 42.75 45.47 44.48 43.67 43.40 43.21
54.56 54.83 54.37 53.75 50.52 53.14 54.74 55.41 55.69 56.47 56.48 53.75 54.12 55.21 53.95 53.84 55.78 57.87 56.23 57.35 55.32 51.82 50.08 48.52 47.33 47.66 47.12 46.66 46.30 45.03 43.84 46.93 48.76 47.86 47.62 47.45 47.30 47.18 47.58 47.86 47.53 47.23 46.81 46.15 45.48 44.69 44.30 44.12 44.40 44.07 43.61 42.96 42.70 41.88
55.06 55.34 54.29 53.36 51.96 53.47 56.31 54.54 54.24 53.37 55.49 52.56 51.23 54.22 53.34 52.61 51.10 53.84 57.71 56.76 54.29 51.83 46.37 49.40 46.08 45.43 46.93 46.86 47.41 47.65 44.53 46.45 45.35 44.98 46.68 47.01 47.10 47.93 48.30 47.81 47.79 47.21 46.83 46.18 45.81 45.14 45.22 44.42 43.57 43.36 42.78 42.85 42.83 42.62
55.93 55.71 56.24 51.43 53.38 51.43 52.33 52.08 52.42 52.15 52.74 52.25 52.28 54.52 53.59 53.87 51.24 54.67 58.93 59.08 55.46 53.70 50.83 48.76 47.93 47.86 49.31 48.05 46.82 44.77 43.26 42.51 39.00 37.09 37.34 36.84 37.00 39.90 45.48 46.27 46.78 47.74 47.55 46.58 45.68 45.20 44.77 45.04 43.82 43.92 43.43 42.80 43.07 42.78

GFSWCAN_sfc_wetblb_072.txt.gz
Wetbulb
56.32 55.76 54.71 53.48 52.96 53.05 53.13 53.48 53.27 53.40 53.70 54.35 54.83 55.54 56.07 56.05 55.65 50.29 49.75 52.33 47.80 43.99 45.68 48.05 48.24 42.13 42.04 40.47 35.91 39.43 37.45 36.80 34.69 29.81 27.99 24.52 27.27 33.57 30.27 31.34 27.81 29.79 30.01 28.94 27.43 22.99 24.71 40.24 41.51 35.32 39.09 40.42 40.94 41.77
56.28 55.60 54.42 53.17 52.74 52.82 53.23 53.36 53.11 53.40 53.46 54.16 54.82 55.63 55.64 55.51 55.30 53.62 48.51 52.35 52.98 47.37 46.60 50.74 51.70 50.30 49.02 46.95 42.48 40.14 37.56 36.75 36.79 31.96 31.37 27.05 25.45 28.98 25.45 27.57 33.14 30.51 31.72 26.30 32.59 35.45 39.46 41.56 40.62 42.02 41.16 38.14 39.35 40.39
55.92 55.14 54.08 53.02 52.32 52.51 52.96 53.17 53.25 53.15 53.35 53.85 54.65 55.37 55.56 55.22 55.28 53.32 47.04 48.76 49.83 45.53 45.16 45.93 47.33 51.93 48.79 49.23 48.98 40.57 40.47 40.93 38.88 39.28 34.54 31.56 27.56 35.01 28.78 27.43 33.20 33.30 37.09 32.62 30.55 35.35 37.42 39.37 40.33 40.20 41.64 40.35 41.03 41.85
55.68 54.88 54.02 52.78 52.07 52.28 52.84 53.15 53.44 53.09 53.42 53.66 54.40 55.26 55.31 55.14 55.02 54.49 47.18 48.90 49.13 46.79 40.88 43.89 52.06 49.32 52.60 49.35 49.00 47.13 44.84 43.60 42.37 42.60 35.96 33.19 28.95 35.38 29.61 30.97 33.14 32.09 35.17 32.27 33.42 34.83 37.62 39.55 40.48 40.28 41.82 42.01 42.13 43.41
55.24 54.51 53.83 52.61 51.80 52.01 52.86 53.05 53.09 53.01 53.32 53.52 54.11 55.11 55.14 54.94 54.32 51.63 49.42 50.58 52.34 47.36 41.00 42.73 47.20 50.26 50.97 49.53 48.64 47.79 45.41 42.45 40.49 38.01 40.30 37.66 35.51 34.55 35.48 36.80 34.09 38.01 33.16 30.54 27.44 34.03 37.83 38.37 41.33 42.61 41.79 40.91 41.84 41.21
54.88 53.88 53.12 52.16 51.63 52.03 52.70 52.99 52.84 52.74 53.21 53.46 53.93 54.28 54.67 54.42 53.62 49.74 48.06 50.85 51.43 50.42 44.12 39.36 46.41 48.54 48.81 49.23 47.35 46.78 46.22 43.62 42.16 41.57 42.38 41.65 39.66 34.91 33.25 31.92 34.61 36.92 37.81 37.03 34.90 38.47 38.93 39.80 41.92 43.06 42.42 42.67 43.08 42.38
54.32 53.46 52.71 51.89 51.67 52.05 52.59 52.76 52.83 52.93 53.20 53.22 53.40 53.56 53.81 52.96 48.10 46.98 47.14 50.48 51.18 50.15 44.26 41.68 41.89 48.62 50.77 49.08 46.81 46.75 47.67 46.81 43.48 44.03 42.80 38.62 37.61 37.93 29.73 29.10 35.31 38.21 39.59 39.62 40.78 40.36 38.40 40.06 39.50 42.89 43.35 44.12 44.37 43.23
53.80 53.05 52.38 51.28 51.52 52.19 52.55 52.64 52.64 52.46 51.99 52.35 52.96 53.01 52.97 52.97 50.56 46.54 49.47 51.37 50.75 48.66 47.80 41.85 41.90 46.29 49.94 44.90 44.33 48.76 45.82 46.63 45.69 44.20 41.77 40.88 38.92 36.94 33.46 36.31 37.28 40.68 41.06 40.81 41.54 42.67 41.30 41.95 42.03 43.37 44.35 44.06 43.33 42.30
53.22 52.64 51.72 51.04 51.31 51.82 52.28 52.24 52.25 51.96 51.58 51.75 52.58 53.05 49.64 46.82 45.58 49.33 56.02 55.30 53.30 50.01 43.87 44.79 41.24 39.61 48.97 48.68 48.32 47.04 48.55 43.15 47.99 43.67 43.77 42.47 35.29 32.34 36.16 35.84 38.59 42.17 41.62 41.40 42.84 43.13 43.61 42.23 40.78 42.19 43.52 43.50 42.86 42.38
52.72 51.91 50.83 50.68 51.11 51.70 51.85 51.92 52.20 51.45 51.87 52.27 48.57 47.25 45.92 50.59 56.37 55.28 50.90 47.77 47.68 48.10 44.82 42.09 46.02 43.42 47.34 46.25 46.48 46.26 47.07 43.22 39.89 43.78 46.75 40.26 37.50 39.47 39.16 39.90 42.20 43.10 43.37 43.09 39.82 39.62 40.30 40.40 40.94 41.70 41.94 43.17 43.42 43.41
52.08 50.78 50.45 50.68 51.21 51.64 51.69 52.03 51.88 51.45 51.07 47.22 46.89 48.89 52.51 55.91 50.54 50.38 45.17 43.35 46.35 42.27 44.24 44.78 47.22 45.18 48.90 43.21 42.23 47.24 42.67 43.34 37.61 41.54 41.09 38.61 38.19 43.36 45.47 44.06 42.91 45.38 45.75 44.86 44.36 43.54 43.25 42.98 41.65 41.33 41.43 43.37 43.08 43.64
50.74 50.22 50.07 50.48 51.12 51.40 51.59 51.88 51.42 49.55 48.39 48.83 48.03 49.97 50.84 49.35 48.49 45.12 46.11 48.20 46.68 44.50 46.07 45.37 45.64 46.61 48.01 50.72 45.81 46.37 42.44 43.32 36.76 44.61 36.88 32.21 39.23 44.69 45.35 45.17 46.53 46.42 46.67 45.82 47.25 45.22 45.24 46.16 43.59 42.00 41.80 43.04 43.17 43.94
49.95 49.84 50.18 50.58 50.98 51.30 52.17 51.47 51.52 51.15 49.89 49.39 48.26 48.66 49.63 46.95 41.29 44.37 41.98 42.01 44.48 48.12 48.66 47.74 45.18 45.41 48.21 47.87 45.52 43.93 40.75 39.69 43.53 35.39 35.26 38.08 42.76 44.52 44.77 46.03 45.88 47.75 48.21 46.88 47.64 46.67 45.98 46.26 45.06 42.90 42.05 43.66 44.05 44.05
49.76 50.16 50.51 50.81 51.19 52.29 51.26 52.00 51.23 50.45 47.20 46.97 48.59 38.88 45.11 43.09 47.63 46.25 45.42 45.57 48.60 49.47 46.89 47.25 46.55 42.62 43.88 40.72 42.80 39.74 42.11 40.60 34.57 30.88 33.98 36.05 38.89 41.77 43.32 45.02 45.51 44.39 45.52 45.58 45.89 47.32 46.07 44.35 42.78 44.25 44.01 42.80 43.59 44.01
50.21 50.71 50.93 50.55 51.27 52.58 51.64 50.85 50.75 49.05 48.10 47.57 48.47 38.91 45.33 49.86 49.54 49.39 47.92 47.83 49.38 49.09 48.28 44.89 44.69 43.03 41.82 41.22 42.30 38.67 36.73 32.82 31.33 29.17 36.83 38.99 40.11 40.25 41.55 41.84 41.94 42.64 43.42 44.40 44.97 45.69 45.03 45.08 43.35 41.88 42.77 42.97 43.38 43.72
50.58 50.38 49.57 52.53 52.44 52.33 50.32 50.13 48.74 49.67 50.99 49.44 48.08 45.33 48.94 49.08 47.58 46.14 45.71 45.17 49.19 49.38 48.04 45.18 40.96 39.26 38.44 38.50 37.20 35.68 32.55 28.97 33.25 36.54 40.17 43.41 41.72 41.80 41.91 41.83 43.30 44.05 42.77 43.75 44.59 45.60 45.96 44.35 42.80 41.62 42.14 41.72 42.07 43.42
49.84 51.55 52.72 52.28 52.73 52.74 51.44 49.82 49.80 49.41 49.85 49.40 47.16 51.66 51.84 50.81 48.88 47.23 46.11 48.06 48.94 45.09 41.51 41.31 38.64 37.06 39.19 36.51 34.70 36.99 33.71 35.76 38.26 40.01 43.54 42.46 41.84 41.86 41.68 41.72 41.36 43.84 42.62 42.38 42.62 44.21 43.03 44.21 41.99 39.96 40.83 40.68 41.25 42.70
51.33 50.87 52.28 51.55 50.73 51.58 50.70 49.13 51.45 52.49 49.35 49.24 47.36 51.06 52.06 53.25 49.58 48.72 49.32 47.85 46.58 44.03 42.61 40.27 42.60 37.64 35.49 34.11 34.19 37.35 39.73 41.19 41.98 42.16 42.12 43.90 44.52 44.12 42.90 41.30 42.57 43.08 42.59 42.88 42.93 43.54 43.45 44.57 42.18 39.05 38.27 39.83 41.82 41.68
47.96 48.68 50.96 51.46 49.04 48.11 51.20 52.08 51.03 46.96 48.56 49.42 51.68 53.70 52.67 52.60 50.81 48.73 47.97 48.14 48.67 47.36 44.42 42.37 38.72 36.33 36.37 38.88 39.02 40.77 40.31 39.60 40.16 41.61 42.16 46.34 45.36 45.38 43.70 43.33 43.72 42.57 41.66 41.71 40.77 40.90 41.53 43.14 43.48 39.23 39.43 40.06 39.64 39.82
50.22 51.24 50.90 50.53 50.63 47.45 49.76 51.14 54.26 50.79 48.38 50.25 52.01 51.12 52.16 49.95 48.68 47.32 46.90 46.42 45.41 43.45 41.02 39.72 40.05 40.74 41.04 42.07 43.74 43.43 43.53 43.55 41.86 39.66 39.41 40.96 44.32 43.72 43.57 41.09 42.18 41.24 41.17 40.51 40.65 41.79 41.91 44.42 44.41 42.85 42.17 40.01 38.73 39.91
51.41 50.42 50.87 49.13 47.13 48.39 49.95 50.91 52.88 51.84 51.06 47.79 50.64 49.87 48.31 50.10 47.35 45.45 45.29 46.81 42.59 40.70 40.16 42.41 44.08 45.03 45.85 46.06 45.04 44.68 44.41 43.74 42.42 41.90 40.72 40.16 43.20 42.24 42.19 41.97 42.56 41.77 41.34 41.39 40.11 39.95 40.39 40.24 42.21 43.40 42.11 42.24 39.26 40.06
50.84 53.27 50.95 50.38 51.24 53.25 50.06 52.24 48.53 52.80 51.25 50.05 50.24 49.60 48.44 47.16 45.73 45.21 46.99 43.97 41.54 43.33 44.52 44.07 43.41 46.56 46.26 44.36 43.45 45.24 46.17 46.75 45.27 44.54 44.04 42.87 41.34 39.38 40.14 42.44 41.60 40.67 42.90 43.37 43.36 40.42 41.89 41.56 41.28 41.96 42.19 42.08 41.34 41.51
52.70 53.26 53.36 54.95 51.55 46.86 45.52 53.98 50.41 50.80 47.43 46.55 49.48 47.90 48.40 46.76 46.87 49.53 44.84 44.26 44.75 47.05 47.19 46.65 46.85 47.84 47.40 48.05 46.12 45.70 46.72 46.63 44.79 44.52 43.93 41.48 41.17 40.25 39.28 40.24 40.94 41.55 41.31 40.42 41.17 40.92 40.03 40.54 41.80 43.76 42.25 41.22 40.26 39.91
54.39 52.17 52.16 51.48 50.49 43.11 51.58 50.75 51.85 49.76 49.20 46.16 45.88 44.15 46.69 46.37 47.86 46.01 42.76 42.93 45.20 46.87 46.62 46.61 47.59 47.54 47.06 45.56 45.07 45.74 42.79 46.50 45.61 44.42 43.32 43.04 40.43 39.53 39.98 39.53 39.87 40.69 41.43 40.34 40.83 41.28 41.41 40.46 41.43 42.56 42.08 41.02 41.03 38.91
45.65 44.65 46.32 37.98 48.63 49.67 48.55 48.14 47.48 47.12 47.07 47.94 45.96 45.47 47.77 48.26 46.51 44.60 40.75 41.59 44.78 45.00 45.07 42.73 43.15 43.84 43.07 43.78 40.37 38.96 40.72 41.22 41.31 41.95 40.36 42.79 40.48 40.10 40.10 39.14 38.03 38.88 40.91 39.88 39.96 39.66 39.82 40.25 40.58 41.13 40.69 40.19 40.30 39.83
38.04 47.34 43.57 47.75 47.22 46.95 49.66 46.70 46.86 45.62 47.58 47.09 46.72 47.14 47.82 46.49 43.77 41.52 42.16 43.36 42.38 41.98 41.13 40.82 40.17 38.85 38.83 39.45 38.30 37.86 39.04 40.61 41.79 38.84 37.04 39.12 39.70 39.16 36.97 35.82 35.51 36.66 39.65 40.27 39.58 40.13 40.27 40.20 40.30 41.33 40.27 39.99 40.08 40.47
40.34 45.47 48.99 51.11 48.67 51.57 49.93 50.45 51.50 48.43 47.84 47.71 47.25 46.13 46.86 44.60 43.12 44.34 44.95 43.48 42.23 42.35 42.37 41.59 40.96 39.46 38.71 39.02 39.73 40.10 40.62 41.11 40.89 39.92 38.59 38.93 38.26 38.14 37.63 35.50 35.04 36.85 39.42 41.83 41.16 41.11 41.07 40.99 40.64 40.57 40.13 40.44 40.32 40.60
48.18 48.58 46.27 48.17 49.57 50.23 48.74 49.46 48.70 46.63 47.39 48.59 49.68 44.90 45.22 45.50 44.14 47.37 45.52 45.28 44.18 42.93 42.07 41.55 41.39 40.33 39.47 38.60 39.83 41.31 40.40 41.26 41.63 40.84 39.08 37.91 37.59 37.81 38.00 37.68 37.62 38.83 38.50 39.96 40.26 41.16 40.90 40.45 40.56 40.68 40.77 39.15 38.42 39.90
47.70 49.70 48.80 46.75 48.84 49.20 49.04 48.93 48.79 49.35 50.01 50.30 47.98 47.73 47.16 49.77 49.59 45.63 44.25 44.77 44.39 43.23 41.23 40.82 41.31 40.99 40.00 39.98 39.54 39.28 39.98 41.06 39.67 37.06 35.91 34.68 35.01 36.36 37.73 37.01 37.32 36.96 36.05 37.01 38.54 38.56 40.07 39.27 40.43 40.91 40.99 39.99 40.08 39.01
46.35 48.54 46.32 48.13 49.74 48.82 50.74 50.68 50.40 49.86 51.14 51.52 51.45 50.64 49.53 49.33 48.57 48.58 47.19 46.07 44.16 43.07 43.04 42.62 42.51 40.20 38.17 38.10 37.44 38.73 39.53 39.50 39.05 41.86 37.78 35.96 37.12 38.19 39.39 39.19 38.81 37.67 36.99 36.83 36.65 36.75 39.03 38.68 39.53 39.67 39.41 37.92 37.31 37.42
48.30 47.96 47.43 49.76 49.92 51.45 53.19 53.81 52.44 52.12 53.48 52.64 53.36 51.86 50.00 49.24 49.60 49.54 48.19 48.36 45.21 43.40 42.03 39.99 39.52 40.53 40.01 38.35 37.78 37.72 37.11 39.18 40.27 40.90 41.00 39.35 39.31 39.83 39.99 40.08 40.50 40.28 39.39 38.97 38.40 37.88 37.62 38.70 38.26 38.32 37.76 36.75 37.69 37.18
48.32 48.01 47.86 50.38 48.97 51.88 52.75 51.26 51.84 51.36 51.94 51.33 50.69 51.78 51.46 48.78 45.68 47.40 50.68 49.06 45.46 43.03 42.90 40.95 39.73 38.64 39.73 39.84 40.10 39.66 39.85 39.13 38.42 39.88 40.37 39.61 39.37 40.41 40.36 39.63 39.83 40.44 40.52 40.11 39.54 39.06 39.68 39.16 38.15 37.97 37.79 38.02 37.79 37.63
49.77 50.64 51.72 52.62 50.77 49.69 50.57 49.74 50.07 49.71 51.83 49.59 50.05 51.40 52.54 51.13 48.94 49.90 52.05 51.48 49.07 44.76 42.59 40.96 40.88 41.16 41.13 40.78 39.39 37.92 37.62 36.67 36.86 37.07 37.50 37.55 37.64 38.34 38.36 39.17 40.74 41.67 41.27 40.39 39.45 39.65 39.57 39.68 38.70 38.52 38.20 37.94 37.66 37.50

GFSWCAN_sfc_wetblb_075.txt.gz
Wetbulb
55.91 56.13 55.85 54.96 53.53 52.80 53.07 53.20 53.63 53.36 53.61 54.16 54.86 55.42 55.75 55.67 55.47 49.82 49.34 50.31 47.28 42.47 44.35 46.90 47.03 41.44 40.82 39.12 35.08 38.21 35.85 34.86 32.67 27.95 24.94 23.02 22.02 25.98 25.07 29.54 27.38 26.34 27.57 25.82 29.45 21.93 23.01 40.05 39.84 33.60 36.68 37.42 39.14 39.77
55.89 56.11 55.67 54.78 53.40 52.53 52.85 53.28 53.30 53.36 53.59 53.86 54.72 55.37 56.08 55.47 55.29 51.57 47.33 49.31 50.04 46.16 45.59 48.41 50.65 51.10 47.47 45.72 40.66 37.32 36.09 35.04 35.03 29.18 26.18 24.62 31.02 30.57 22.70 18.76 31.58 25.15 29.89 24.55 30.51 29.10 39.59 39.27 38.16 38.99 39.45 36.54 37.36 38.20
55.63 55.73 55.51 54.27 53.10 52.33 52.49 52.97 53.18 53.28 53.38 53.59 54.25 55.12 55.49 55.14 55.14 51.27 45.05 46.28 47.93 44.05 44.25 44.65 45.79 49.93 47.16 47.88 47.02 39.33 38.58 39.36 36.33 37.00 32.56 29.08 23.37 27.40 22.12 24.28 25.80 29.99 37.60 30.52 30.49 31.24 35.27 37.16 38.81 39.08 38.59 38.84 41.21 41.23
55.17 55.63 55.11 54.07 52.97 52.04 52.24 52.91 52.91 53.12 53.16 53.53 53.77 54.55 55.42 55.06 54.67 53.44 46.19 46.64 47.61 44.64 39.49 42.45 49.94 47.09 49.29 47.51 47.65 45.88 43.25 41.04 40.10 38.22 33.81 30.98 26.54 32.45 23.15 26.92 25.62 30.15 36.67 29.73 28.50 32.14 34.18 37.34 38.57 40.82 40.82 42.58 42.27 42.62
55.05 55.39 54.86 53.82 52.60 51.80 52.20 52.60 52.87 53.00 52.94 53.24 53.34 54.04 54.69 54.69 54.00 50.07 47.32 48.35 49.69 46.13 39.95 41.28 45.46 48.33 49.54 47.31 47.41 45.98 44.34 42.50 39.39 37.15 36.03 32.71 33.10 33.04 34.91 35.59 29.62 35.61 33.11 28.47 27.58 32.30 32.78 33.90 38.12 39.90 40.56 41.73 42.89 42.19
54.73 54.83 54.08 53.27 52.04 51.57 52.03 52.47 52.83 52.77 52.76 53.00 53.02 53.57 53.88 53.71 52.38 48.64 46.86 49.69 49.94 48.80 43.08 38.49 44.29 45.60 45.67 46.23 45.84 44.53 43.58 43.10 42.54 39.54 37.94 39.05 37.38 33.85 30.27 31.10 32.97 34.99 35.79 34.67 33.27 35.51 37.00 37.64 39.44 41.12 41.91 42.55 42.51 43.33
54.35 54.59 53.78 52.96 51.76 51.41 51.85 52.35 52.60 52.70 52.68 52.76 53.01 53.04 52.90 52.68 46.94 45.87 45.88 49.04 50.07 48.43 43.20 39.18 39.44 45.45 48.58 44.31 43.92 43.56 44.67 45.22 44.50 42.91 39.44 38.52 39.40 36.55 30.04 25.20 34.70 35.67 38.27 38.04 37.93 37.92 36.26 38.28 37.58 40.46 43.25 43.86 44.93 44.60
54.40 54.20 53.22 52.38 51.30 51.43 51.83 52.15 52.15 52.26 51.94 51.31 52.10 52.52 52.40 52.25 49.75 46.30 48.16 50.47 50.31 48.37 46.46 40.94 39.25 43.60 47.26 42.55 43.93 48.49 45.27 46.03 45.42 44.40 42.87 39.06 39.83 39.04 32.89 36.48 38.18 38.83 39.22 38.65 39.45 40.20 38.94 39.10 40.03 40.35 43.00 43.73 43.47 42.02
54.22 53.43 52.83 51.56 50.75 51.09 51.54 52.04 51.95 51.86 51.49 51.23 51.83 52.46 48.67 46.08 44.16 47.54 55.34 53.76 52.80 49.69 41.70 44.03 40.00 38.62 46.91 46.46 46.40 47.67 48.43 43.12 47.56 43.41 43.29 42.37 34.96 33.15 37.71 38.89 39.11 39.89 39.50 40.49 41.33 41.10 41.12 40.39 41.16 41.37 40.50 41.22 41.41 42.87
53.64 52.85 51.83 50.53 50.54 50.97 51.54 51.76 51.76 51.31 51.20 51.63 47.91 47.18 46.50 47.70 54.39 55.44 49.40 47.41 46.61 47.33 46.03 42.09 42.37 41.83 46.59 46.51 45.73 45.82 46.56 42.61 36.30 42.75 45.42 40.31 37.20 41.84 42.45 40.43 40.20 41.61 42.70 42.87 39.54 38.99 39.87 40.11 40.55 40.67 40.24 40.87 42.36 43.42
52.87 52.04 50.66 50.33 50.52 50.87 51.49 51.41 51.73 50.97 50.63 46.33 45.90 48.06 51.28 54.51 51.07 49.39 43.26 43.19 45.92 41.86 41.12 41.64 43.31 41.88 47.89 40.75 41.54 45.64 40.28 41.25 37.12 40.43 39.66 35.21 34.91 41.70 45.04 45.80 46.07 45.22 44.55 44.16 43.01 42.50 43.39 42.22 41.25 40.90 40.89 41.47 41.98 44.17
51.79 50.52 49.95 50.07 50.61 51.07 51.22 51.22 51.33 47.23 46.76 47.97 47.79 47.83 48.85 48.00 46.57 43.09 42.91 45.55 44.74 43.15 45.99 44.59 43.40 45.12 44.71 47.83 45.52 43.32 41.18 42.13 33.04 43.56 36.81 32.60 38.87 44.13 44.84 45.26 45.86 46.08 46.30 45.93 46.42 45.26 45.87 44.76 44.09 42.62 41.39 40.25 41.76 43.13
50.04 49.59 49.76 50.06 50.60 51.03 51.19 51.52 51.39 50.36 49.08 47.92 47.03 48.24 48.67 45.30 40.65 43.62 41.65 40.09 40.88 47.37 46.61 44.09 42.67 43.75 43.80 44.35 41.41 41.05 39.83 38.34 43.38 37.09 34.85 35.68 40.34 43.34 42.38 43.84 44.84 45.59 46.31 47.62 46.09 46.24 46.19 45.20 45.22 42.90 41.07 41.21 42.69 42.61
49.59 49.92 50.13 50.45 50.82 51.02 51.44 50.86 51.26 50.40 46.01 46.03 46.57 41.29 44.10 41.34 45.41 44.54 43.48 42.69 45.86 47.48 45.23 44.06 43.06 40.82 41.12 38.95 40.80 37.48 37.82 37.28 30.97 29.77 29.03 34.00 36.63 40.25 41.50 42.70 43.26 43.39 44.06 45.09 44.69 45.69 44.79 44.52 43.06 42.77 42.81 42.08 43.96 41.99
49.97 50.24 50.36 50.77 50.93 51.97 50.82 50.67 50.78 49.03 47.48 45.57 46.62 38.38 43.62 47.26 47.94 47.54 46.91 45.31 46.51 47.38 45.20 43.04 41.96 40.75 38.40 37.68 38.68 36.17 33.94 30.31 28.85 27.18 34.53 37.52 38.16 38.77 39.25 40.56 40.41 41.28 42.74 43.27 43.83 43.51 42.97 43.92 43.22 43.01 42.53 42.77 41.10 41.33
50.21 50.58 49.54 51.61 51.99 50.93 50.13 49.74 47.82 47.86 48.78 47.09 45.45 44.74 46.96 47.53 47.86 46.77 45.08 44.25 45.78 45.93 44.82 42.66 38.75 36.88 36.44 36.37 35.26 33.08 30.92 25.84 31.31 34.52 37.65 39.01 40.12 40.09 40.23 41.04 40.67 41.70 42.15 42.41 42.79 42.42 42.25 43.48 42.88 41.74 40.62 40.39 40.48 41.97
50.71 51.68 52.09 52.14 52.09 51.61 50.06 48.72 47.63 47.28 47.68 47.98 45.76 49.00 50.40 49.25 47.59 47.14 44.99 44.95 46.52 42.97 39.11 39.46 36.18 35.12 37.43 34.82 32.67 35.48 32.34 34.03 36.65 38.34 39.56 39.87 40.38 42.37 41.22 41.30 40.53 43.11 42.41 41.89 41.24 40.98 40.81 42.50 41.40 38.54 39.05 39.28 40.38 40.94
50.86 51.08 51.60 51.07 49.03 50.32 48.82 48.72 50.09 51.03 47.77 48.75 47.02 48.93 49.62 49.99 47.75 48.51 48.11 46.32 44.41 42.25 40.58 38.79 39.78 35.65 33.40 32.26 32.84 36.09 36.86 38.04 38.71 39.87 40.73 40.58 42.50 46.34 45.69 41.56 41.93 43.19 42.13 41.60 40.58 40.67 41.33 41.60 41.16 38.86 38.27 40.24 40.34 40.15
47.59 47.85 50.42 50.68 47.95 47.23 48.91 50.15 48.67 44.34 46.68 47.26 50.14 52.25 52.35 51.82 50.64 47.47 46.21 45.92 45.56 44.69 42.92 39.37 37.18 34.89 34.92 36.96 37.31 38.32 37.96 37.80 38.96 39.82 39.92 41.46 42.65 43.92 44.23 41.28 42.57 41.93 40.42 40.19 38.41 38.72 39.33 39.72 39.82 39.48 38.45 40.01 39.44 39.83
50.62 51.14 51.14 50.74 49.57 45.68 47.10 48.59 51.26 47.71 47.00 48.77 49.43 48.77 49.27 49.01 47.95 46.04 44.37 44.28 43.17 40.50 39.49 38.30 38.20 38.61 38.96 40.04 41.04 41.00 41.41 41.06 39.49 38.25 38.35 40.72 40.88 40.89 41.21 39.97 41.16 40.34 38.81 39.12 41.21 41.08 39.57 40.32 39.43 39.39 39.55 39.22 39.25 39.25
49.78 50.17 50.69 48.05 46.01 46.82 47.52 47.64 48.86 49.92 48.71 46.66 48.02 47.64 46.62 48.27 46.11 43.67 43.50 43.86 40.53 39.06 38.97 40.59 41.37 42.64 43.01 43.35 43.00 43.09 41.98 41.64 40.42 40.19 39.69 38.30 39.36 37.17 38.39 40.10 40.47 40.34 40.34 40.43 41.56 42.11 41.92 40.99 41.42 40.33 40.08 39.40 38.56 40.36
47.09 52.01 48.95 48.98 48.71 49.99 46.39 48.82 46.38 50.66 48.72 48.37 48.08 47.41 45.53 45.50 45.18 44.40 44.63 40.68 39.19 40.56 41.93 41.99 41.86 43.79 44.41 43.57 42.04 43.33 44.55 44.34 42.43 41.70 42.23 41.25 37.41 38.74 38.33 38.99 39.39 38.73 39.62 42.73 40.88 41.85 42.25 42.05 41.70 42.14 40.58 41.96 42.19 41.45
51.27 51.55 51.57 51.75 49.41 44.85 44.29 51.68 48.95 48.14 46.20 45.05 46.35 45.09 45.84 45.58 45.06 46.64 42.20 42.67 42.32 43.93 44.72 44.05 43.47 45.25 46.41 47.35 43.40 43.51 44.45 44.66 43.25 42.23 39.56 37.93 37.73 37.73 37.97 38.44 39.56 39.25 38.01 38.03 38.78 38.29 37.93 39.67 41.12 41.55 43.07 41.45 41.12 39.51
51.23 50.14 49.98 49.51 48.82 42.69 48.79 49.38 51.17 48.40 46.10 44.04 43.49 42.55 44.18 45.25 46.16 43.82 42.56 41.63 43.56 45.79 44.91 44.79 45.15 45.29 43.92 43.74 42.90 39.63 38.53 43.25 42.43 41.66 40.06 38.65 37.51 36.80 36.91 37.29 38.00 38.18 37.86 37.79 38.33 38.40 38.60 38.86 40.13 43.05 42.65 43.15 42.95 39.46
43.85 43.45 44.89 37.30 47.12 47.64 47.25 46.57 45.48 45.68 43.85 44.31 43.91 43.97 44.79 45.74 42.40 42.47 41.08 39.99 42.60 44.79 44.04 41.95 43.70 44.05 42.83 41.26 36.53 36.68 37.76 41.64 40.42 39.90 38.57 38.85 37.88 36.43 35.20 35.51 36.05 36.86 38.81 38.80 37.55 38.03 37.49 37.67 38.61 40.38 41.55 40.99 39.91 39.11
37.12 45.52 42.30 46.53 45.60 44.79 45.99 45.42 44.70 43.55 45.20 45.06 45.07 45.72 45.83 44.77 42.79 41.28 40.77 41.02 41.42 41.63 39.75 40.17 39.26 38.83 37.66 36.82 36.40 37.11 38.32 38.25 38.79 38.17 37.29 39.21 38.18 36.08 34.25 34.67 35.10 36.59 38.18 38.42 38.74 38.33 38.62 39.14 39.40 39.37 38.16 39.03 38.78 39.03
38.82 43.37 46.34 48.61 46.30 48.69 47.53 47.91 47.75 46.68 46.45 45.79 45.53 44.60 44.33 41.47 41.91 43.31 42.16 41.13 40.09 40.29 40.40 39.59 39.73 38.95 38.02 36.57 35.89 36.72 37.20 37.01 38.32 37.92 36.36 35.93 37.35 37.47 37.32 35.69 35.13 36.58 37.96 40.05 39.70 39.68 39.08 39.06 39.09 38.69 38.36 38.27 39.00 39.64
46.55 46.23 44.76 45.41 46.09 47.62 46.49 46.43 48.05 46.78 46.43 47.25 47.50 44.37 43.75 43.92 43.23 45.57 42.91 42.62 41.12 39.62 38.84 37.26 37.61 38.50 37.96 38.04 38.25 38.11 37.14 36.10 35.81 35.12 35.45 35.33 34.44 34.09 34.65 36.15 36.21 38.00 37.98 40.00 40.26 39.91 39.91 39.72 39.60 39.19 38.87 37.43 36.88 38.30
44.96 47.54 46.69 44.47 45.72 47.09 47.66 47.49 47.11 47.55 47.22 47.34 45.24 44.49 45.58 47.97 48.91 43.59 42.62 41.34 39.28 40.92 38.38 37.49 35.94 36.10 36.28 36.06 36.89 38.11 39.08 38.64 36.56 34.32 33.18 32.21 32.56 34.62 34.75 34.56 34.92 35.05 35.43 36.94 38.27 38.98 39.42 39.70 39.68 38.81 39.14 37.96 37.18 36.53
43.25 46.66 43.29 44.48 44.72 45.60 50.13 51.29 48.89 48.68 49.25 49.68 49.88 49.47 47.87 47.35 46.85 44.63 43.37 41.60 40.47 40.23 40.78 40.44 38.02 37.41 36.33 37.05 35.60 35.50 36.40 37.16 39.19 38.68 35.51 34.04 34.66 35.84 35.61 35.33 35.61 34.40 33.94 35.33 36.31 35.82 38.39 38.61 38.41 38.08 37.83 36.10 35.52 35.24
44.32 43.91 43.40 43.66 45.83 49.89 51.97 53.75 51.43 50.61 51.45 50.28 51.07 49.55 48.21 47.47 48.03 47.62 45.15 44.64 42.27 40.74 40.29 39.11 38.14 37.11 37.01 36.23 36.48 36.13 35.32 36.90 37.08 39.28 38.64 37.85 36.36 36.67 37.15 36.97 36.91 35.97 35.29 35.19 35.65 35.90 35.94 36.93 36.50 36.75 35.75 35.06 35.53 35.31
43.97 44.23 44.57 44.88 48.32 51.23 51.91 50.76 48.45 48.38 49.11 49.00 48.28 50.18 49.87 47.08 45.56 47.05 48.71 44.02 40.75 39.77 40.13 40.91 40.69 39.29 38.58 37.74 37.05 37.08 38.09 36.93 37.66 38.59 38.69 37.56 37.36 37.88 38.43 38.43 37.97 37.73 37.59 37.76 37.26 36.66 37.66 37.20 36.33 36.04 36.16 36.19 35.83 35.61
47.47 49.18 49.17 48.25 47.43 47.24 49.88 48.53 48.94 48.38 49.12 48.60 48.50 49.94 48.89 48.00 47.24 49.78 50.35 46.14 44.90 44.15 41.57 40.06 39.65 39.72 39.87 39.64 38.35 37.15 36.96 36.71 36.93 37.65 37.89 37.63 37.48 37.09 37.33 37.55 38.44 39.50 39.33 38.09 37.55 37.22 38.18 37.70 36.52 36.56 36.34 36.35 36.04 35.78

GFSWCAN_sfc_wetblb_078.txt.gz
Wetbulb
55.19 55.53 56.09 56.13 55.22 53.30 52.43 52.84 53.14 53.45 53.73 54.26 54.84 55.51 55.62 55.36 55.26 49.97 48.65 48.25 46.46 41.84 42.83 45.90 44.75 40.40 39.78 37.66 34.54 36.86 35.50 33.62 31.32 26.83 24.90 23.32 21.76 26.15 24.30 28.51 27.05 25.42 22.96 27.62 28.52 23.73 22.85 39.74 38.94 34.61 36.19 38.05 38.83 38.99
54.89 55.13 55.69 55.95 54.84 53.07 52.06 52.51 52.87 53.35 53.49 53.94 54.47 55.22 55.22 55.22 55.18 49.77 46.42 46.93 48.70 45.90 44.15 46.91 49.06 48.50 46.59 44.92 39.04 35.90 35.52 33.55 33.21 27.74 27.00 24.51 23.87 26.50 21.75 20.11 30.12 24.40 28.25 25.46 28.19 28.34 36.74 39.01 37.07 39.66 39.11 36.96 37.78 38.14
54.71 54.77 55.27 55.53 54.62 53.09 51.89 52.30 52.68 53.10 53.32 53.53 53.94 54.59 55.24 55.02 55.04 49.74 44.20 44.67 46.76 43.85 43.24 43.63 44.62 46.93 45.87 46.60 45.61 38.70 37.35 37.71 34.58 35.28 30.89 26.79 22.67 26.07 23.50 22.81 25.50 29.31 32.78 26.11 27.79 30.50 33.51 37.17 37.88 39.46 39.36 38.47 39.66 41.32
54.27 54.55 54.87 55.43 54.49 53.01 51.57 52.01 52.64 52.81 53.04 53.37 53.59 53.96 54.75 54.81 54.47 52.17 45.94 45.44 46.72 43.03 38.99 40.77 48.54 45.08 47.36 46.35 45.94 44.68 41.70 39.34 37.90 36.69 31.72 29.03 25.12 30.22 22.33 25.56 24.90 29.33 32.85 29.95 27.33 31.08 33.22 35.93 38.17 38.94 40.03 41.79 42.72 43.14
53.77 54.03 54.79 55.17 54.19 52.80 51.60 51.95 52.35 52.67 52.81 53.10 53.14 53.36 54.02 54.30 53.47 48.37 46.02 46.79 48.16 45.76 39.24 40.95 44.32 46.03 46.82 45.85 45.80 44.06 42.81 40.34 39.16 36.42 33.81 31.83 31.57 31.53 30.80 30.93 26.23 33.04 31.15 27.45 27.28 32.70 33.26 33.96 38.59 39.95 39.36 39.69 41.01 42.81
53.39 53.69 54.35 54.59 53.71 52.12 51.28 51.82 52.27 52.36 52.49 52.78 52.82 53.08 53.24 53.33 51.53 47.98 46.00 48.27 48.70 47.42 42.12 38.12 43.13 44.15 45.50 43.83 44.01 42.04 43.83 43.49 42.62 40.50 38.37 37.96 36.62 33.24 28.00 27.22 32.57 34.01 35.21 34.41 33.63 35.06 35.95 37.75 39.17 40.31 39.70 40.44 42.97 43.35
53.39 53.55 54.38 54.31 53.34 51.62 50.98 51.70 52.08 52.19 52.29 52.25 52.23 52.64 52.54 52.17 46.29 45.11 44.78 48.02 49.27 47.82 42.79 38.87 38.93 44.27 46.21 42.76 42.29 41.74 43.75 44.32 43.70 42.44 41.28 39.31 37.85 37.06 29.54 25.47 34.27 35.30 37.27 36.78 36.99 38.03 36.49 38.02 37.24 40.33 40.94 42.00 43.89 44.94
53.19 53.45 54.22 53.79 52.70 51.19 51.30 51.70 51.79 51.78 51.72 51.26 50.71 52.12 52.22 51.93 49.25 46.14 48.22 50.44 50.37 48.41 46.04 39.93 38.62 41.93 45.30 41.38 39.86 45.70 43.75 45.55 45.39 44.00 43.16 39.99 39.78 39.04 32.45 37.61 37.58 38.59 38.01 38.51 38.70 39.47 38.29 38.95 39.70 39.98 41.11 41.58 41.76 42.21
52.87 53.66 53.56 52.94 51.56 50.73 51.17 51.45 51.69 51.79 51.21 50.18 51.31 52.32 47.80 45.72 44.75 47.57 54.63 53.07 51.99 49.02 41.61 42.95 36.88 36.79 46.97 46.03 46.47 46.94 47.50 42.33 46.76 42.81 42.41 40.99 34.72 32.00 38.01 40.35 40.44 40.85 40.73 41.01 40.97 39.94 39.84 39.32 40.00 40.79 41.09 41.12 40.17 40.47
53.20 53.50 52.87 51.96 50.57 50.54 50.92 51.23 51.47 50.79 50.11 50.92 47.41 46.85 45.73 47.30 53.16 54.06 49.02 46.60 46.77 46.50 45.58 42.47 40.43 40.27 44.59 44.47 44.03 44.64 46.21 41.14 35.53 39.61 43.44 36.55 33.80 42.39 43.30 41.96 43.35 43.07 41.73 42.27 41.17 39.97 39.89 39.92 40.51 41.08 40.76 41.01 40.95 41.16
53.32 52.75 51.97 50.60 50.29 50.44 50.82 51.19 51.22 50.39 50.36 45.47 45.59 45.34 48.85 52.96 50.13 48.46 42.50 42.42 45.51 41.23 39.66 42.52 40.37 39.61 45.74 40.58 42.58 43.51 36.36 36.59 33.99 37.52 36.98 35.20 35.96 40.78 45.33 45.39 45.34 44.98 45.84 45.41 44.08 43.39 42.67 42.13 41.18 41.08 41.31 41.87 41.85 41.89
52.59 51.69 50.45 49.97 50.07 50.61 50.75 50.93 51.17 46.56 45.28 47.43 47.62 47.17 47.59 46.87 45.63 42.46 41.09 46.11 44.86 40.27 42.59 41.81 42.95 44.37 43.27 45.04 44.39 41.51 40.89 38.39 33.19 43.52 37.44 31.91 37.80 43.52 43.25 44.53 45.87 46.51 46.29 45.73 46.00 45.20 44.70 45.63 44.61 42.67 42.72 42.29 41.69 41.82
50.82 49.83 49.48 49.69 50.08 50.40 50.52 51.04 50.79 50.27 48.54 46.81 46.31 48.09 46.47 43.84 39.10 41.82 37.52 38.40 38.54 43.25 44.59 43.49 41.71 43.82 42.12 42.23 41.60 41.22 39.74 36.76 41.99 35.09 34.01 32.83 36.62 41.20 41.02 41.74 43.46 44.73 45.29 45.29 45.86 46.14 45.74 45.86 46.12 45.45 43.81 42.24 41.92 42.33
49.32 49.59 49.74 49.98 50.45 50.49 51.33 50.95 51.36 50.10 44.76 44.36 45.09 42.46 44.39 38.82 42.67 43.17 42.64 42.13 44.48 44.83 44.44 43.02 41.19 40.32 39.25 37.98 38.74 35.46 36.89 36.03 30.15 23.96 28.57 33.57 36.01 39.76 40.83 41.85 42.02 42.46 43.20 43.12 44.37 45.41 45.01 44.97 44.69 44.75 43.54 42.69 42.46 42.26
49.73 50.09 50.10 50.71 51.08 51.46 50.87 50.51 50.56 48.29 45.90 44.07 44.71 37.88 42.68 45.91 46.08 46.87 47.24 44.62 45.35 45.87 44.09 41.51 40.66 39.87 37.45 36.48 36.87 35.25 32.84 29.18 28.46 27.57 32.22 36.86 37.50 38.00 39.09 40.66 40.95 41.11 41.35 42.95 44.74 44.17 43.92 43.55 43.20 43.95 44.04 44.44 42.63 42.00
50.27 50.49 50.20 51.60 51.77 50.59 49.96 49.75 47.30 46.68 47.26 45.25 43.09 41.47 44.61 44.81 45.52 46.17 44.86 43.84 45.02 45.11 42.28 41.14 37.21 35.39 35.23 35.23 34.24 32.84 30.80 25.70 30.82 33.89 36.85 37.53 38.51 39.37 39.57 41.08 41.66 41.14 41.86 43.63 43.66 43.21 43.07 41.89 42.08 43.16 43.08 42.59 42.93 42.61
51.01 50.45 51.58 51.81 51.68 49.84 49.61 47.48 46.24 45.14 44.67 45.53 45.00 46.28 46.48 46.89 46.11 46.14 45.53 44.69 45.93 41.75 37.94 38.29 34.54 33.75 36.36 33.86 32.23 34.68 31.79 33.31 35.55 37.46 38.44 38.37 39.05 39.97 42.56 43.28 44.43 42.51 42.34 42.90 41.76 41.71 41.67 42.69 43.07 42.60 41.62 43.91 43.36 42.18
49.26 50.81 51.48 51.18 49.64 48.59 48.07 49.46 49.22 49.48 46.16 46.80 44.26 46.05 48.07 49.04 46.85 47.56 47.66 45.77 43.71 40.74 39.68 38.27 38.28 33.81 32.96 32.12 32.01 35.25 36.36 37.26 38.01 38.64 39.66 40.02 40.66 42.01 43.50 42.91 43.60 42.93 42.77 41.43 41.11 41.40 42.01 41.78 42.34 42.45 42.84 42.95 43.36 42.12
46.91 48.53 50.22 50.54 47.46 46.31 47.23 48.82 47.19 42.46 44.92 46.03 46.89 48.98 49.12 49.33 48.74 47.54 45.15 44.65 43.20 42.84 41.68 37.73 36.33 34.12 34.28 36.09 36.56 37.52 37.83 37.35 38.32 39.78 39.79 40.76 44.15 44.13 42.46 42.29 41.96 41.80 40.86 40.05 39.14 39.47 40.18 40.24 39.41 39.96 41.71 43.54 43.71 42.83
50.87 51.01 51.31 50.86 48.54 43.90 44.77 46.42 49.11 45.28 45.21 46.94 47.73 46.47 47.48 46.56 47.37 44.13 43.15 44.09 42.20 39.59 38.46 37.59 37.36 37.73 38.03 39.26 39.56 40.43 40.73 40.57 39.32 39.00 38.89 39.23 40.62 39.98 39.98 39.82 40.07 40.59 40.75 41.48 41.39 42.27 41.42 42.74 42.66 42.02 42.38 43.58 43.25 43.22
49.22 49.96 50.26 47.35 45.17 45.98 45.91 45.93 47.34 48.29 47.23 45.92 46.22 45.74 45.35 46.42 45.66 42.86 42.81 41.87 39.45 38.49 37.88 39.38 40.14 41.00 41.47 42.04 42.23 42.39 41.66 40.90 40.50 40.32 40.05 39.22 38.54 38.01 39.42 39.73 40.26 41.69 42.63 42.38 42.57 42.81 43.45 42.78 42.60 42.87 42.50 42.05 42.13 43.76
46.12 51.51 48.99 48.99 47.44 47.35 44.70 46.24 44.12 47.07 46.76 46.54 45.95 45.84 44.02 43.94 44.17 43.87 43.24 40.78 39.22 40.22 40.59 41.07 41.14 42.15 43.09 42.75 41.92 42.55 43.76 42.95 41.85 41.39 41.85 40.85 37.71 38.21 38.79 39.63 41.71 39.84 41.40 42.91 41.37 41.16 42.18 42.39 41.16 42.48 42.94 44.15 43.94 44.25
50.59 50.82 50.10 50.38 48.28 43.92 43.00 49.48 46.51 46.89 44.84 44.07 44.48 43.37 44.38 44.97 44.73 45.23 41.41 41.96 41.80 41.87 43.18 42.61 41.98 43.60 44.14 44.45 42.49 43.00 44.15 43.90 42.95 41.30 38.81 38.14 38.02 38.52 38.83 39.47 39.74 38.94 38.29 39.11 39.45 39.70 40.07 40.10 42.20 43.09 43.47 43.39 43.45 42.39
49.96 48.75 48.20 47.43 47.68 41.87 47.73 47.15 48.92 47.05 44.86 42.66 42.03 41.15 42.83 44.57 45.37 42.76 41.11 41.80 43.14 43.81 43.73 45.04 44.89 44.18 43.01 42.64 41.74 38.67 38.32 42.80 42.30 40.70 38.61 38.17 37.75 37.67 37.49 37.87 38.27 38.48 38.69 38.97 39.57 39.78 40.26 39.81 40.21 43.62 44.21 43.89 43.14 42.15
42.20 41.84 44.62 37.06 45.59 46.11 46.05 45.39 44.92 44.44 42.46 42.61 42.63 42.74 43.52 44.81 41.20 41.46 41.43 41.74 41.70 43.45 43.10 42.48 43.99 44.67 43.02 40.99 37.50 37.12 38.25 42.16 41.60 39.36 38.93 38.75 37.51 36.49 36.71 36.90 37.32 38.74 39.68 39.55 38.99 39.24 39.44 39.62 40.67 42.46 42.67 42.06 41.16 41.09
36.24 42.85 41.29 45.27 44.17 43.93 44.20 44.00 44.20 42.65 43.80 43.89 44.35 45.12 44.82 43.71 42.31 41.42 41.58 41.09 42.49 43.49 42.19 42.52 41.54 41.90 38.88 36.97 37.23 38.37 40.39 40.20 40.60 39.55 38.68 38.86 37.68 37.46 36.30 36.26 36.80 38.01 39.58 40.50 39.69 39.76 40.01 40.42 40.33 40.36 40.54 39.91 38.32 39.79
36.87 40.93 44.77 46.85 45.37 45.98 45.40 46.47 46.39 44.68 44.08 43.47 44.58 43.58 43.10 40.63 41.04 43.23 43.05 41.71 40.99 41.60 42.02 42.18 42.71 42.36 38.84 36.81 36.00 36.92 37.34 38.90 40.43 40.10 39.19 39.88 38.76 38.25 38.13 37.26 37.93 38.70 40.04 41.13 41.04 40.89 40.38 40.53 40.50 40.28 40.25 40.73 41.18 40.88
44.80 45.02 43.12 44.04 44.99 46.19 44.73 44.65 45.19 44.67 45.43 46.65 46.08 43.18 43.17 43.22 42.59 44.97 42.81 41.90 40.79 39.81 39.26 38.16 39.15 39.61 38.12 38.15 37.91 37.16 34.88 34.85 35.60 35.73 36.41 36.49 35.66 36.22 37.38 38.20 38.34 37.66 39.88 41.59 41.93 41.66 41.59 41.57 40.98 40.81 40.38 39.95 39.80 40.80
42.53 45.83 45.74 43.62 43.95 44.10 45.88 45.93 46.12 46.98 47.38 46.87 45.52 43.71 44.44 46.66 48.45 44.36 42.45 39.57 38.45 39.70 38.12 37.45 36.48 36.98 36.74 37.04 37.74 36.98 36.84 37.83 36.97 35.67 35.50 34.79 35.25 36.42 36.97 37.65 37.86 37.99 38.82 41.04 38.13 39.50 42.38 41.78 41.44 40.97 40.79 39.70 38.81 39.26
40.53 44.76 43.41 42.94 41.99 41.32 45.59 50.22 49.31 48.37 48.21 48.79 48.75 48.66 47.90 48.04 48.49 43.64 40.02 39.27 40.09 40.43 39.93 38.72 37.86 38.99 37.68 38.45 37.23 36.55 37.04 37.17 39.16 38.23 35.67 35.15 35.93 37.63 36.96 36.89 37.24 37.18 37.42 39.23 39.45 39.69 38.88 40.85 39.80 41.16 40.26 39.36 39.03 38.17
43.38 43.46 42.22 41.25 41.29 45.48 49.95 51.59 50.63 50.36 50.12 49.25 50.21 49.79 48.19 48.65 46.85 44.85 43.07 42.56 41.34 39.49 38.98 37.79 36.90 37.92 38.95 37.93 38.22 37.69 37.29 39.18 37.92 38.92 39.43 38.73 38.02 38.25 38.39 38.22 38.08 37.21 37.27 38.19 38.57 38.72 39.15 39.74 39.71 39.92 39.22 38.95 38.82 37.92
43.13 42.23 42.15 42.15 44.87 49.13 51.47 51.13 50.47 48.34 48.11 47.80 47.17 48.88 48.60 47.89 45.54 45.72 46.48 43.47 41.73 40.66 40.81 41.06 40.13 39.38 39.93 41.08 40.49 40.31 39.16 40.77 40.58 39.52 40.19 39.06 38.86 39.57 39.81 39.14 38.69 38.55 38.71 38.53 38.77 38.95 39.48 40.45 39.46 38.96 38.97 39.53 39.51 39.33
43.36 45.26 46.51 47.15 46.57 46.33 47.94 47.97 48.69 48.28 48.68 47.73 47.22 48.67 48.34 46.99 45.00 48.23 48.97 48.11 46.02 45.48 43.91 43.44 43.40 41.38 40.82 41.02 41.06 40.19 38.68 39.61 38.68 37.33 37.66 37.92 38.07 38.11 38.99 39.02 39.24 40.18 40.28 40.12 39.96 39.63 39.85 40.36 39.72 39.37 39.43 39.15 39.31 39.54

GFSWCAN_sfc_wetblb_081.txt.gz
Wetbulb
55.31 55.29 55.37 55.77 56.27 55.65 53.70 52.52 52.66 53.35 53.76 54.15 54.80 55.31 55.30 55.26 55.37 54.44 53.28 52.96 53.20 50.04 50.23 49.24 49.07 46.31 45.31 45.92 43.84 43.45 42.57 41.64 41.51 38.00 38.15 33.88 35.86 34.60 34.97 36.93 35.89 36.29 35.44 34.58 34.73 33.24 30.61 43.88 42.61 38.75 42.64 43.63 43.75 43.38
55.19 55.15 55.19 55.33 55.95 55.49 53.76 52.31 52.52 53.14 53.51 53.74 54.13 54.86 55.21 55.21 55.14 51.72 53.04 51.62 53.19 52.45 50.49 51.42 53.21 52.50 52.04 51.19 47.10 43.60 43.77 41.85 42.25 39.02 37.54 37.53 36.28 35.56 34.76 33.95 38.65 34.19 37.96 37.70 38.53 38.63 43.44 45.07 43.41 44.68 43.85 42.21 42.88 42.65
54.73 54.81 54.71 54.81 55.41 55.21 53.86 52.19 52.50 52.89 53.31 53.55 53.80 54.41 55.04 54.98 54.80 52.20 51.47 51.63 52.89 51.01 50.63 50.47 50.64 53.13 53.41 53.00 53.23 46.37 44.77 44.72 42.94 44.71 40.98 39.79 36.70 38.22 33.77 35.26 36.70 38.43 39.39 38.52 36.74 40.42 42.11 43.71 44.04 44.02 44.45 43.41 43.87 44.15
54.38 54.59 54.59 54.55 55.07 55.15 53.66 52.18 52.43 52.60 52.89 53.22 53.63 53.69 54.33 54.49 53.84 52.52 52.46 51.78 52.57 49.96 47.12 47.39 52.53 52.12 53.05 52.31 51.52 51.31 47.94 45.69 45.36 45.07 42.11 40.33 38.97 39.16 37.39 36.54 37.16 40.20 39.94 38.09 37.40 38.82 39.88 41.84 43.15 44.06 44.18 44.49 44.12 45.07
53.82 53.93 54.23 54.35 55.19 54.89 53.61 52.08 52.08 52.64 52.59 52.84 53.08 53.28 53.67 53.82 52.73 51.98 52.60 53.14 53.75 51.50 47.26 48.84 51.26 51.63 51.99 51.37 50.30 49.01 48.22 46.43 44.65 42.96 42.26 40.88 40.85 39.31 39.62 39.25 37.69 40.15 39.15 37.64 39.85 43.65 43.03 42.35 44.38 45.12 43.94 43.96 45.28 45.30
53.26 53.42 53.55 53.79 54.62 54.24 52.75 51.60 52.00 52.38 52.24 52.47 52.57 52.76 52.88 52.90 51.35 53.83 51.98 53.71 54.43 53.49 49.92 46.02 49.79 49.54 50.65 49.44 48.78 48.18 48.90 46.69 44.75 42.71 42.39 41.64 43.11 42.49 38.33 36.16 41.54 42.34 43.26 44.53 42.98 43.70 43.52 44.92 46.09 46.25 44.94 45.28 45.74 46.05
52.92 53.21 53.55 53.91 54.60 53.63 52.23 51.33 51.89 52.09 51.82 51.64 51.50 52.15 52.44 52.13 52.35 50.87 50.42 52.71 51.58 53.30 49.77 45.96 45.36 49.68 49.47 48.47 48.31 47.85 48.53 48.43 46.28 44.43 43.38 42.81 40.24 40.18 38.37 34.70 42.20 42.79 43.44 43.54 44.29 43.60 41.44 43.24 43.28 45.67 45.47 46.39 46.81 47.45
52.10 52.99 53.31 53.82 54.38 53.17 51.48 51.43 51.85 51.72 51.56 50.99 50.18 51.37 52.06 51.82 51.19 52.24 54.50 52.07 52.63 51.94 49.96 44.18 44.74 47.72 51.68 47.78 46.15 49.50 46.91 48.12 46.95 45.86 44.22 41.30 40.05 39.71 32.72 39.86 42.06 43.17 42.87 42.59 42.33 43.69 45.30 45.91 45.83 45.22 46.21 46.56 45.92 46.48
51.92 53.01 53.37 53.76 53.29 51.44 50.99 51.39 51.59 51.51 51.02 50.31 50.40 51.97 51.73 51.50 52.30 52.87 54.19 53.28 53.80 52.15 47.46 46.25 43.36 42.86 50.27 50.04 50.07 49.95 48.89 42.87 46.52 42.83 42.17 41.35 33.63 31.99 37.69 41.30 42.55 42.78 40.98 42.85 43.05 44.27 43.98 42.69 44.10 45.67 46.16 46.68 46.12 46.65
52.53 52.85 53.44 52.72 51.14 50.45 50.55 51.21 51.42 50.77 50.40 50.81 51.15 51.50 51.13 53.37 53.64 55.06 52.93 49.37 49.09 50.67 49.88 44.93 47.44 45.29 49.80 49.71 47.13 46.58 42.40 37.77 36.05 40.27 42.82 37.03 36.83 40.96 43.24 43.56 43.53 45.79 45.53 45.64 44.11 43.47 43.90 44.15 45.04 46.10 46.59 47.64 47.80 47.81
52.90 53.06 52.63 51.27 50.57 50.49 50.59 50.91 51.24 50.46 50.27 50.60 51.46 51.06 53.52 53.18 53.32 50.97 47.30 45.86 47.02 45.03 46.47 45.90 46.56 46.38 51.27 45.94 45.35 44.92 41.57 40.68 36.35 39.54 38.77 37.17 37.96 42.62 45.73 44.91 46.55 47.72 47.81 47.45 47.61 48.60 48.24 47.53 47.13 46.92 47.11 47.97 48.00 48.45
52.44 51.86 51.05 50.59 50.32 50.38 50.74 50.65 51.05 49.54 50.68 51.15 50.98 51.32 53.28 51.64 49.31 46.20 45.65 46.99 45.82 45.02 47.16 47.11 48.72 47.25 49.09 50.20 45.21 44.07 42.06 41.66 34.37 44.55 40.41 35.20 42.10 45.90 46.32 45.95 46.41 47.45 47.19 48.11 49.02 48.48 48.95 49.02 49.01 48.88 49.05 48.63 49.11 49.04
50.53 50.05 49.97 49.87 50.06 50.56 50.67 50.79 50.58 50.29 50.59 51.40 50.82 50.41 49.83 48.43 40.02 43.24 42.26 44.99 45.05 47.88 50.06 48.95 48.84 49.24 49.00 49.83 45.20 44.39 40.42 38.41 45.58 40.33 37.67 41.06 44.61 46.73 47.28 47.80 47.39 47.90 48.24 48.83 48.96 50.34 50.45 50.09 50.36 50.07 49.31 49.79 49.53 48.19
48.89 49.28 49.66 50.00 50.41 50.57 50.58 51.29 51.19 50.52 50.29 48.68 48.58 39.94 45.72 44.19 47.31 48.62 48.85 48.70 50.59 50.58 50.26 50.72 49.21 48.69 47.54 45.28 46.15 40.87 42.58 42.78 35.96 33.74 35.29 42.96 45.29 46.67 47.97 48.18 47.36 47.59 48.35 48.46 49.22 49.15 49.33 49.63 49.53 49.75 49.54 49.60 48.26 47.83
49.87 49.99 50.32 51.23 51.43 50.87 50.44 51.10 50.77 50.18 50.46 47.42 48.71 39.61 45.98 50.59 51.43 52.15 51.92 50.74 51.37 52.07 50.71 48.94 47.96 47.68 45.49 43.49 44.18 41.55 37.24 34.50 36.63 36.69 42.11 46.25 47.16 47.13 46.86 47.41 47.60 48.28 48.41 48.34 49.28 49.10 48.85 48.73 48.39 48.76 49.64 49.65 48.66 48.35
50.37 50.79 51.13 51.53 50.79 50.28 50.34 50.35 50.00 50.20 50.89 48.72 47.56 45.94 49.55 49.69 50.80 51.45 51.05 50.42 51.01 51.60 49.44 48.63 45.30 42.59 41.97 42.79 39.61 37.66 35.88 34.16 39.18 42.79 46.10 46.94 46.84 47.56 47.60 47.50 48.08 48.13 48.69 47.09 47.87 48.51 48.95 48.58 47.43 47.91 48.32 47.97 47.70 47.93
51.43 51.96 51.61 51.65 50.16 49.05 49.51 50.51 49.50 46.92 46.75 47.69 48.61 51.49 50.42 51.27 51.27 52.04 51.55 50.92 51.92 48.87 46.39 46.72 40.28 39.44 43.50 40.76 38.11 42.03 39.78 42.39 44.98 46.14 47.48 47.59 47.37 48.01 47.49 46.63 46.86 48.67 48.75 48.72 48.46 48.33 48.03 48.43 48.31 48.14 46.57 47.57 47.95 47.78
51.54 52.31 52.04 51.22 50.56 49.29 50.74 50.22 50.18 50.21 47.39 50.48 48.09 51.51 52.77 53.78 52.83 52.24 53.29 51.65 50.43 48.73 47.13 45.30 45.67 41.33 39.31 36.51 39.51 44.27 44.93 46.48 46.65 46.61 47.60 48.06 48.72 48.95 47.02 48.90 48.90 47.85 47.84 47.80 47.52 47.14 47.42 47.04 47.06 47.78 47.17 47.22 47.39 46.54
49.59 50.03 50.71 50.54 49.59 49.01 49.40 50.51 50.30 46.45 48.60 51.69 52.50 53.08 54.43 54.63 54.85 53.89 52.31 51.02 50.61 50.31 47.94 46.18 42.90 41.79 42.90 44.96 45.39 46.18 46.90 47.02 47.35 48.43 48.29 48.50 49.18 48.79 47.78 47.95 47.55 47.27 46.62 46.38 46.67 46.62 46.39 45.25 44.91 45.16 45.76 47.69 48.27 47.19
50.76 50.85 51.30 50.79 49.48 46.74 46.12 49.65 52.73 49.20 49.17 52.68 53.66 53.08 54.04 53.41 53.50 51.54 50.95 49.86 49.11 48.20 45.99 44.58 44.22 46.57 47.03 48.15 49.09 48.97 49.54 49.27 48.44 47.69 47.61 47.86 48.14 46.78 46.58 46.74 46.73 47.16 47.13 47.30 47.30 45.20 47.18 45.86 44.78 44.76 45.25 47.62 46.00 45.90
49.94 50.54 50.19 49.66 48.10 48.99 49.61 50.31 51.71 53.06 53.49 52.28 52.68 52.23 52.10 52.51 52.33 50.67 49.30 49.06 47.47 47.05 45.53 47.24 47.93 49.69 49.83 50.51 49.91 50.42 49.83 49.14 49.26 48.35 48.41 47.09 45.73 46.90 46.82 46.90 47.25 47.08 46.96 46.09 45.56 45.97 44.73 43.94 44.54 45.30 44.19 44.83 47.13 48.14
49.54 51.06 50.99 49.97 50.27 49.08 47.70 50.77 48.82 51.64 52.27 52.67 52.30 52.19 51.06 50.14 50.79 51.03 49.53 47.88 47.84 49.08 48.44 48.71 49.24 49.33 48.87 48.97 49.35 50.12 51.19 50.43 49.82 48.14 44.13 44.54 46.05 45.89 45.43 45.72 45.29 44.46 44.74 45.40 46.33 45.81 46.04 46.09 46.48 45.96 45.46 46.28 46.21 47.72
50.48 51.71 52.47 51.25 49.56 45.96 45.00 53.33 50.72 51.71 49.59 50.07 50.45 48.50 49.73 50.86 51.02 50.33 48.77 49.85 50.50 50.99 49.80 49.94 49.77 50.51 50.99 50.86 49.31 49.59 50.55 50.84 50.29 48.88 46.99 46.51 46.18 46.10 45.78 45.54 45.75 44.60 44.43 44.88 46.01 45.46 45.71 42.35 45.72 47.67 46.73 46.07 46.23 46.59
50.13 51.39 50.55 49.66 47.69 43.59 51.48 50.63 53.00 51.32 50.52 48.77 47.95 46.20 47.99 50.42 50.95 48.82 46.88 49.34 51.55 50.45 49.25 49.61 49.59 48.66 49.03 48.92 48.61 48.33 47.59 49.52 50.07 48.07 46.43 45.91 45.11 44.61 45.67 44.96 45.57 45.91 45.60 45.87 45.66 45.87 45.95 45.79 43.18 47.34 47.07 46.50 46.51 45.88
42.99 44.46 45.49 37.60 48.77 49.25 49.18 49.18 49.33 49.45 47.50 47.44 46.22 47.54 49.28 50.55 47.74 46.57 46.79 50.47 49.71 49.92 49.61 50.01 50.69 50.75 49.79 48.89 46.33 44.87 45.56 49.78 48.92 46.23 45.79 47.28 45.34 44.55 44.08 44.79 45.20 45.43 46.91 45.78 44.49 45.06 45.21 45.98 47.04 47.29 46.66 45.98 45.69 45.30
36.33 43.90 42.94 48.14 48.42 47.89 48.57 47.11 47.91 47.71 47.78 47.51 48.55 50.97 50.51 49.29 46.16 46.35 49.63 50.49 49.78 50.01 49.36 49.90 49.84 48.82 47.29 47.47 44.82 46.16 48.20 48.92 48.66 46.93 46.30 47.00 46.71 44.78 43.42 42.58 42.49 43.83 47.11 46.80 45.78 44.98 45.37 45.81 45.68 44.99 44.62 43.85 39.64 44.24
38.11 43.20 47.66 51.05 50.30 49.79 49.56 51.31 51.20 49.10 47.51 46.78 48.98 48.63 47.69 44.07 44.99 50.16 51.92 50.48 50.32 51.03 51.73 51.86 51.49 50.49 47.57 44.47 44.10 46.10 46.98 47.90 48.15 47.76 48.19 47.34 46.74 46.61 45.29 43.42 43.15 44.74 46.94 46.60 46.89 46.34 45.41 45.15 45.13 45.06 45.21 46.60 45.83 45.46
47.38 48.04 45.38 48.65 49.05 51.09 48.74 48.73 48.48 48.29 49.71 52.03 50.82 47.13 46.11 46.77 48.23 52.57 51.87 49.64 48.85 48.91 49.02 49.17 50.14 50.51 48.12 46.04 45.79 44.86 43.59 43.61 44.12 45.66 45.57 44.74 45.36 45.88 45.92 45.91 46.50 37.95 46.92 47.63 47.15 47.33 47.53 46.92 45.64 44.98 45.02 44.75 45.89 46.77
45.26 48.98 49.11 46.72 47.97 48.25 49.20 49.24 50.54 53.06 54.16 52.50 50.63 49.68 50.39 53.15 54.75 53.50 49.67 47.17 47.19 47.19 46.16 45.27 44.51 45.71 45.19 44.82 45.23 45.25 43.95 44.15 43.12 42.08 42.46 41.73 42.06 43.14 45.45 45.97 45.91 46.81 47.25 46.73 37.75 43.14 46.24 46.56 46.33 46.17 45.02 45.21 45.33 46.86
45.04 48.40 47.45 46.98 45.90 45.99 50.95 53.65 53.70 54.29 53.71 54.15 54.54 54.25 53.97 54.28 54.82 52.86 46.87 45.74 46.00 47.50 47.78 47.93 45.15 45.88 44.94 43.86 43.57 42.93 43.64 44.73 45.77 45.00 43.20 42.13 43.22 45.05 45.05 45.31 45.32 45.60 46.64 46.62 46.11 45.43 39.11 44.55 42.57 46.25 45.87 45.89 45.71 45.10
47.82 47.03 46.05 45.57 45.43 49.60 53.13 55.97 55.30 54.10 53.65 53.83 54.69 53.45 54.15 54.00 52.02 49.78 47.49 48.20 48.10 46.68 45.75 44.37 44.71 45.44 43.84 43.96 44.13 43.55 42.52 43.73 43.78 45.13 46.15 46.63 45.38 45.01 45.28 45.35 44.90 45.28 45.73 45.76 45.62 45.70 46.12 46.05 46.36 45.13 44.71 43.80 43.20 42.98
47.47 46.69 46.25 45.75 48.33 53.77 55.36 54.40 53.77 52.66 53.17 52.97 52.63 53.80 54.01 52.28 49.65 49.94 48.23 46.64 46.11 45.60 44.66 45.52 44.06 43.45 44.48 46.32 46.46 46.72 40.72 47.07 45.14 44.45 45.46 45.52 45.78 46.38 46.06 45.71 45.19 44.80 44.61 44.48 44.91 45.07 44.71 44.25 45.11 45.13 44.49 43.04 43.12 43.18
47.95 47.86 47.78 47.66 49.55 50.78 53.05 52.23 51.72 51.69 52.94 52.60 52.14 53.21 52.97 52.02 49.47 52.43 51.56 50.02 47.36 46.61 47.01 46.88 47.13 46.60 45.77 45.19 45.44 45.58 41.47 46.13 44.49 40.13 39.68 40.13 40.82 42.80 45.85 46.06 45.87 45.80 45.42 45.05 45.02 45.05 44.57 44.22 44.37 44.10 43.67 43.58 43.14 43.29

GFSWCAN_sfc_wetblb_084.txt.gz
Wetbulb
55.28 55.48 55.68 55.58 55.80 56.32 56.14 54.34 52.84 52.73 53.76 54.17 54.81 55.42 55.66 55.50 55.38 55.90 57.84 59.55 56.93 53.41 54.31 53.21 52.91 50.91 50.62 50.58 49.23 48.94 47.36 46.75 46.31 43.34 43.66 42.09 42.77 39.35 40.85 43.55 41.78 41.20 40.10 39.81 41.28 38.11 35.89 48.58 46.91 42.68 47.61 49.66 49.05 48.54
54.94 55.00 55.18 55.42 55.31 55.64 56.04 54.40 52.49 52.69 53.25 53.82 54.24 54.98 55.40 55.17 55.32 53.86 57.27 58.66 59.12 54.51 54.90 57.10 56.60 56.22 55.06 54.19 54.02 50.58 48.50 46.38 49.30 46.55 46.18 45.40 42.13 42.38 41.74 39.09 44.62 39.75 44.46 43.84 43.14 44.59 48.77 49.95 49.31 50.79 49.14 46.95 48.34 48.20
54.54 54.58 54.82 54.94 55.06 55.09 55.70 54.36 52.34 52.24 52.79 53.33 53.99 54.36 54.85 55.03 54.63 53.96 58.22 58.66 58.36 55.38 55.01 54.69 53.86 57.56 58.45 57.48 58.40 51.79 52.39 50.60 49.10 50.81 48.87 48.01 40.88 45.03 40.57 41.19 42.15 44.09 45.40 42.73 42.34 46.06 47.69 47.74 47.75 48.46 48.44 48.05 48.36 48.51
54.11 54.29 54.38 54.58 54.74 54.84 55.38 54.03 52.14 52.05 52.42 52.86 53.48 53.76 54.13 54.36 53.74 53.02 58.36 58.91 58.17 55.70 50.60 51.36 57.28 55.39 57.58 57.69 57.20 56.19 54.31 53.30 52.45 50.66 48.43 46.56 44.87 45.72 45.70 44.13 43.10 47.31 45.43 43.46 43.71 45.24 46.16 48.03 48.13 48.51 48.33 48.82 48.08 48.48
52.87 53.57 53.95 54.04 54.16 54.76 55.36 53.27 51.96 51.94 52.23 52.63 53.17 53.31 53.60 53.74 53.39 56.51 60.27 60.16 60.04 54.96 50.78 52.59 55.89 56.09 57.22 56.58 55.35 54.91 53.96 52.35 50.72 48.26 47.38 46.33 49.56 45.52 46.42 44.99 43.74 46.01 44.88 42.75 43.83 47.63 47.04 47.43 49.07 49.59 48.36 48.15 48.48 47.80
52.06 52.73 53.19 53.46 53.93 54.84 54.41 51.59 51.48 52.00 52.00 52.46 52.76 52.88 53.02 52.92 52.86 57.18 55.29 59.24 61.21 58.84 53.62 50.58 55.38 54.43 55.52 55.55 55.06 54.10 53.91 53.86 51.40 47.06 47.96 49.01 49.68 47.81 44.09 43.02 46.95 48.98 48.81 49.43 46.90 49.39 48.49 49.38 50.52 50.04 49.20 49.01 49.18 48.82
52.13 52.32 52.83 53.42 53.95 54.68 52.78 51.06 51.24 51.88 51.67 51.91 51.37 51.65 52.31 52.35 55.52 54.45 53.87 56.05 54.43 59.21 53.55 50.51 50.12 54.29 54.56 54.27 54.65 53.74 54.04 52.71 50.32 46.74 44.78 44.27 43.12 44.52 42.08 40.21 45.29 46.84 48.51 48.57 49.02 48.95 46.44 48.24 47.77 50.18 49.91 49.85 49.32 49.83
52.16 52.04 52.32 53.44 53.98 54.16 52.08 50.72 51.52 51.69 51.34 51.24 50.19 50.86 52.20 52.30 52.29 55.64 57.91 53.50 55.46 56.04 54.80 49.85 49.52 51.78 56.14 54.76 52.18 55.59 51.39 50.66 48.09 46.35 45.78 43.60 42.21 41.41 33.62 41.15 44.50 45.07 45.19 46.34 46.71 48.64 49.21 50.33 49.94 49.72 50.39 49.98 48.89 48.92
51.86 51.43 52.46 53.28 54.06 52.36 50.38 51.03 51.54 51.13 51.27 50.26 50.38 51.99 55.20 54.94 56.57 56.25 54.40 54.03 58.37 55.46 51.77 52.84 48.10 46.71 56.66 55.50 53.92 50.53 51.57 42.69 49.23 42.29 41.45 42.12 35.61 33.26 40.23 41.89 41.91 42.63 42.63 43.06 44.49 45.99 46.89 46.28 47.80 49.24 49.28 49.21 48.56 48.88
51.58 51.94 52.78 53.35 51.66 50.29 50.61 51.08 51.34 50.88 50.31 50.41 53.18 55.41 53.93 57.45 54.24 55.20 55.91 53.76 54.07 55.14 54.67 51.58 53.49 49.73 53.17 53.23 50.70 48.69 48.15 43.81 41.07 44.25 43.92 40.80 40.40 47.52 47.30 44.76 44.54 44.71 45.38 46.86 44.50 43.90 45.13 46.13 47.57 48.32 48.77 49.81 50.02 50.04
52.25 52.77 52.76 51.80 50.86 50.62 50.52 51.06 51.28 50.66 49.45 54.80 55.50 55.06 57.26 53.86 56.73 54.56 49.23 50.07 52.31 49.23 52.22 52.10 51.37 50.19 54.62 49.25 47.97 48.40 44.79 45.93 37.72 41.72 40.63 39.01 40.36 45.08 48.01 45.59 46.62 48.25 49.20 49.32 49.08 49.85 50.04 50.05 49.35 49.64 49.70 49.98 50.22 50.49
52.47 51.87 51.04 50.60 50.45 50.62 50.79 50.83 51.00 52.06 55.07 53.82 55.49 56.35 57.46 54.89 52.44 48.24 49.14 50.28 48.43 48.67 52.29 52.14 52.67 53.02 51.40 52.66 48.85 48.04 43.47 44.85 36.97 47.92 42.21 39.28 45.39 47.95 49.07 48.12 48.24 49.38 50.27 50.28 51.36 50.97 51.39 51.59 51.85 51.32 51.16 51.07 51.11 51.77
50.27 50.04 49.83 50.01 50.25 50.43 50.66 50.93 50.93 51.07 51.45 56.37 54.46 52.82 53.80 52.53 42.56 46.57 44.73 48.38 49.11 52.21 53.14 52.84 51.70 52.33 50.06 50.74 47.12 47.58 42.35 40.29 49.96 42.61 41.92 44.93 46.61 49.11 49.89 50.50 50.64 51.88 51.77 51.52 51.28 51.43 51.28 51.21 52.09 51.86 51.24 52.03 52.43 51.77
49.65 49.53 50.01 50.57 50.45 50.45 50.63 50.92 51.13 51.73 53.74 52.36 50.79 40.18 48.40 48.23 50.98 52.88 52.58 52.59 53.85 55.57 54.82 54.34 51.30 49.30 51.52 48.77 50.59 42.90 47.48 47.12 40.48 37.70 38.73 45.19 48.25 48.89 50.59 51.15 50.64 50.13 50.46 50.27 50.46 50.66 50.12 50.25 50.58 51.29 51.44 52.19 51.77 51.04
49.81 50.15 51.36 51.79 51.25 50.71 51.19 51.41 51.26 54.11 54.67 49.87 50.80 41.52 49.93 55.45 56.75 57.23 57.48 56.55 56.09 57.51 54.44 52.69 52.32 51.57 49.39 46.66 48.86 45.93 41.22 38.30 40.83 39.96 45.49 48.68 50.71 50.33 50.62 51.03 50.89 50.56 50.56 50.44 50.24 50.29 50.34 50.75 50.96 50.88 51.72 52.36 52.31 51.64
50.68 51.33 52.97 50.89 50.61 50.68 50.52 50.92 52.56 54.67 54.28 51.48 50.23 48.54 54.85 54.23 54.80 54.92 55.47 55.24 56.43 55.90 55.70 52.89 49.18 45.84 45.20 47.10 42.61 40.32 39.09 36.95 42.79 47.50 48.43 51.18 50.27 51.23 51.74 51.80 51.83 51.79 51.29 51.04 50.87 50.80 51.33 51.08 50.44 50.74 51.40 51.57 51.96 51.12
51.01 55.59 51.75 50.28 49.94 50.09 50.18 53.53 53.46 50.26 49.69 48.37 49.95 52.74 52.70 52.96 55.27 56.21 56.79 55.47 57.26 53.22 48.38 49.79 42.27 41.88 48.08 43.72 41.40 46.18 42.70 44.76 47.77 49.10 49.96 52.10 51.39 51.58 52.77 51.15 51.03 51.00 51.05 51.10 50.91 50.86 50.97 51.41 52.05 51.16 49.47 50.94 51.05 50.89
56.12 54.60 52.16 50.38 50.90 50.75 54.91 54.27 52.63 51.48 48.37 51.59 50.08 54.73 56.68 56.79 56.96 57.17 57.20 56.76 54.68 53.41 51.88 46.84 49.16 43.87 42.72 38.98 43.67 47.84 48.17 50.58 52.16 51.23 50.75 52.09 53.57 52.79 53.01 52.10 51.36 51.27 51.33 50.79 51.43 51.60 51.15 49.24 48.72 49.57 50.51 51.25 50.77 50.95
52.84 52.35 51.65 51.31 51.65 51.43 51.61 53.18 53.57 49.24 51.24 54.39 55.93 57.29 57.02 57.45 59.46 59.87 58.76 57.31 57.65 56.80 53.14 50.35 45.02 44.25 45.58 49.10 47.69 49.76 50.53 51.04 49.57 50.42 51.68 52.58 53.21 52.15 51.66 51.68 52.25 52.12 51.61 51.35 51.02 49.49 49.00 49.31 48.27 48.55 49.02 49.19 50.44 50.38
50.98 51.19 51.47 51.20 50.36 51.19 48.50 52.69 57.64 53.63 52.86 56.45 57.57 57.30 57.49 57.82 59.29 58.18 57.46 55.90 54.38 52.85 49.90 47.74 48.32 49.90 48.90 51.54 52.40 51.73 52.00 52.25 50.85 49.79 48.86 50.20 52.04 51.20 50.96 50.77 50.42 51.22 50.84 50.78 50.07 44.49 49.72 48.21 47.38 44.68 45.07 46.87 49.27 48.62
50.13 52.31 50.72 52.80 52.49 51.96 52.24 53.64 53.95 56.68 57.10 56.07 58.73 56.94 56.82 57.56 55.76 55.23 54.32 55.64 52.08 51.25 50.03 52.15 52.82 53.30 54.02 53.88 53.12 53.27 53.46 52.68 51.51 49.81 49.73 49.63 51.53 52.83 51.60 51.03 50.67 49.48 49.35 47.88 47.17 47.00 46.46 47.19 46.98 46.04 43.25 45.81 47.42 47.98
54.51 51.16 55.37 54.01 53.78 53.00 51.91 54.88 52.53 55.02 54.22 55.89 55.58 56.73 54.07 53.89 54.18 54.91 56.77 52.45 52.60 54.03 54.53 54.50 54.19 54.03 53.25 53.85 53.63 54.05 54.44 54.60 54.54 51.05 45.93 45.68 49.43 49.19 49.91 49.67 48.89 47.24 47.33 48.12 48.35 46.82 48.44 48.73 49.14 48.97 46.98 47.77 47.99 48.53
51.58 53.41 54.33 53.66 50.59 47.61 47.84 57.05 53.10 54.45 51.15 54.13 55.40 52.45 53.27 54.27 56.32 55.99 52.76 54.86 55.57 58.67 57.79 56.38 56.60 56.22 53.93 55.47 55.16 54.21 54.72 54.20 52.28 52.50 51.93 52.17 51.41 50.46 49.22 49.40 49.41 48.65 47.88 46.95 49.54 48.67 48.27 42.33 46.80 49.88 48.36 48.03 46.43 48.50
50.18 53.72 51.27 51.14 49.82 45.97 55.23 53.33 56.13 55.12 55.30 53.34 52.04 49.57 51.90 54.86 56.36 53.09 51.05 53.96 57.05 56.37 54.50 55.03 54.55 53.38 54.04 54.13 52.87 52.68 53.23 53.75 52.94 52.62 52.29 50.19 48.74 48.58 50.47 49.41 49.45 48.82 49.00 49.08 48.79 48.79 49.14 48.36 45.26 49.56 49.57 49.69 48.75 48.58
45.78 46.08 47.28 39.37 51.03 48.98 50.49 50.93 52.00 52.56 49.86 51.48 49.61 50.51 52.97 54.55 51.35 50.89 50.83 55.10 55.86 55.61 55.00 54.48 53.77 53.21 51.54 52.34 53.05 51.74 51.89 51.60 50.99 49.31 49.95 51.67 49.51 47.97 47.49 48.24 48.41 49.22 50.77 48.33 47.97 47.68 47.94 48.60 48.90 48.29 48.28 47.66 47.66 46.95
37.88 46.71 44.17 49.26 50.66 50.49 51.39 48.06 49.39 50.09 51.48 50.07 51.68 55.47 55.06 52.52 48.22 48.07 53.61 55.75 56.31 55.83 54.80 54.09 53.16 52.83 52.96 52.91 50.64 49.26 51.37 53.55 51.05 48.68 49.22 50.21 49.25 48.14 46.68 45.58 45.40 46.28 50.64 50.05 48.52 47.40 47.05 47.56 46.97 45.92 46.24 45.15 41.05 45.82
39.21 45.22 49.99 54.15 53.11 52.97 52.05 53.77 54.23 52.30 50.04 49.51 53.03 51.59 51.36 47.04 47.19 52.81 56.26 56.26 55.72 56.49 56.90 56.45 54.41 53.03 51.72 50.41 50.98 52.30 52.02 51.82 51.35 50.16 50.50 50.83 50.89 50.66 48.88 46.78 45.46 46.97 49.36 49.26 49.33 48.57 47.15 46.82 46.79 46.66 46.26 47.86 46.95 47.24
48.81 49.55 46.23 50.23 50.89 52.26 49.46 50.62 49.68 49.26 52.45 56.53 55.22 49.20 48.41 49.16 50.61 56.16 56.03 54.90 53.64 55.86 55.85 54.84 54.00 52.51 50.93 50.31 51.13 50.32 50.21 50.30 50.64 50.36 49.49 49.12 49.96 49.57 49.30 49.48 49.16 39.12 49.46 49.35 49.00 49.30 50.21 48.73 47.36 47.00 45.87 45.29 45.72 46.89
48.11 51.60 51.19 47.62 49.05 50.05 50.91 50.26 50.82 55.31 58.92 56.89 53.17 52.40 52.97 57.67 59.10 58.22 54.76 53.47 54.37 53.65 50.87 50.05 50.48 50.95 49.88 50.46 50.36 49.95 49.79 48.85 47.22 45.45 44.76 44.52 44.59 45.92 48.35 48.45 48.09 48.81 49.10 48.25 37.65 42.62 47.72 48.30 48.63 48.33 46.81 47.50 48.01 49.14
47.98 51.05 48.81 47.69 46.87 46.64 50.11 53.66 53.83 57.89 59.30 57.74 57.82 57.18 57.01 57.99 60.61 60.30 54.03 50.39 51.13 50.53 50.53 49.98 50.00 49.10 47.40 47.87 47.71 48.39 49.82 49.85 48.93 47.61 46.18 45.80 46.08 47.59 48.11 48.06 48.14 48.63 49.06 48.56 47.85 47.35 39.14 45.41 42.70 47.25 46.89 47.71 47.71 47.31
52.15 50.33 47.60 48.13 46.98 49.24 51.31 54.89 56.89 57.21 55.96 55.11 57.38 55.65 55.60 58.02 57.93 57.30 56.11 52.86 52.09 51.28 50.56 48.96 48.74 49.05 47.93 47.59 48.09 47.71 47.18 49.54 49.86 49.23 49.77 50.16 49.11 48.14 48.13 48.04 47.86 48.28 48.42 48.69 48.48 48.38 47.45 47.54 49.50 48.32 47.50 46.33 45.12 43.90
50.51 48.70 47.94 46.56 48.56 55.21 57.24 55.80 56.63 56.28 56.60 55.97 55.97 57.69 57.46 56.50 53.99 54.25 51.21 48.24 45.48 45.83 47.33 49.01 48.61 48.31 50.02 49.48 50.70 50.41 40.43 50.70 48.97 48.92 49.35 48.87 49.16 48.87 48.85 48.26 47.90 47.93 47.82 47.62 48.00 48.12 47.28 46.78 48.14 48.00 47.64 45.47 45.18 45.14
50.27 50.02 49.81 49.36 49.17 50.92 55.47 55.12 54.78 54.47 55.90 55.83 56.22 56.55 56.05 54.98 52.06 55.35 54.68 51.45 48.39 46.97 49.12 50.65 52.21 53.37 51.57 50.85 50.38 50.34 44.54 50.00 48.03 42.39 41.33 41.82 42.44 45.06 48.60 48.53 48.20 47.87 47.39 47.19 47.33 47.68 46.78 46.48 47.08 46.75 46.38 46.03 45.53 45.33

GFSWCAN_sfc_wetblb_087.txt.gz
Wetbulb
55.26 55.42 55.44 55.76 56.04 56.10 55.98 56.22 53.27 52.25 53.32 54.31 54.78 55.40 56.05 55.87 55.94 56.23 60.06 61.57 58.19 54.99 55.82 54.06 54.43 52.63 52.30 52.52 51.01 51.61 49.71 49.44 48.67 46.78 46.62 46.03 44.48 45.12 43.73 46.76 45.22 43.85 42.51 42.43 43.68 41.70 39.19 51.48 49.09 44.64 50.64 52.92 52.74 52.86
54.94 54.98 55.18 55.40 55.48 55.60 55.64 56.08 53.84 52.00 52.91 53.90 54.45 54.84 55.56 55.71 55.43 54.69 59.22 61.47 60.65 56.21 56.92 58.46 57.21 57.88 56.50 55.99 55.10 52.44 51.38 48.52 50.79 50.83 49.56 49.02 46.34 46.96 44.60 41.81 48.58 43.25 47.17 45.35 45.27 46.48 52.53 53.05 51.77 54.36 54.30 52.34 51.47 51.27
53.68 54.31 54.46 54.64 54.88 55.08 55.14 55.62 53.98 51.87 52.62 53.24 54.10 54.58 54.80 55.18 55.20 54.60 59.84 61.30 60.27 56.59 56.59 56.21 55.57 58.25 59.33 57.96 59.82 52.58 53.67 53.78 51.80 53.52 51.78 49.05 43.96 47.97 43.65 44.57 45.97 47.66 49.46 46.68 46.57 49.68 50.03 51.56 52.11 52.03 51.39 51.29 51.32 51.53
52.90 52.90 53.76 54.25 54.66 54.88 55.00 55.58 53.62 51.84 52.43 52.80 53.67 54.12 54.37 54.57 54.90 54.24 59.99 60.96 59.87 57.09 52.20 54.07 58.32 56.91 59.78 59.59 58.42 58.05 56.86 57.24 56.60 53.81 50.16 48.61 46.76 49.88 46.57 47.95 46.50 49.26 49.06 46.02 46.58 49.27 50.34 50.86 50.72 50.93 50.66 51.38 50.83 51.21
52.87 52.74 52.74 53.68 54.21 54.42 54.76 55.02 52.14 51.65 52.07 52.45 53.07 53.69 54.02 54.20 54.07 56.04 61.52 63.13 63.10 57.54 53.19 54.13 57.52 58.25 58.81 58.45 57.16 57.62 56.34 54.92 53.64 50.78 48.99 46.73 49.15 50.21 49.64 48.53 46.67 49.11 47.89 45.91 45.76 49.82 49.84 50.34 52.40 52.24 51.04 50.68 51.40 50.77
52.64 52.50 52.51 53.03 53.45 54.10 55.06 53.23 51.41 51.47 51.74 52.18 52.68 53.01 53.36 53.34 53.89 58.53 57.19 61.45 63.33 60.86 55.17 50.94 57.50 56.01 58.20 57.60 56.95 56.31 56.13 54.67 52.42 50.03 50.14 51.00 51.86 49.89 45.51 44.96 50.38 52.18 52.44 51.97 49.80 52.27 52.11 51.75 52.88 52.74 51.62 51.99 52.19 51.35
52.91 52.73 52.59 52.60 53.38 54.02 53.28 51.12 50.59 51.41 51.53 51.91 51.55 51.68 52.70 52.85 55.83 55.95 55.47 57.79 55.51 61.18 55.62 52.02 51.70 56.27 56.95 57.04 57.26 56.25 56.38 52.78 51.81 48.92 47.50 49.77 44.90 45.85 42.05 39.40 47.77 50.77 51.55 51.97 52.52 51.56 49.45 50.48 50.25 52.40 52.46 52.61 50.64 51.96
52.71 52.63 52.29 52.34 53.51 54.38 52.51 50.94 51.43 51.65 51.36 51.62 51.11 50.93 52.06 52.81 52.95 55.24 58.87 54.50 55.13 57.91 57.20 51.46 50.39 53.26 57.85 54.86 53.12 56.57 51.60 51.23 51.10 48.62 46.23 43.25 42.88 41.86 35.23 43.81 45.93 47.50 46.74 47.80 50.03 51.59 50.87 52.18 51.97 52.23 52.74 52.53 51.12 50.51
52.31 52.30 51.83 52.12 53.52 53.54 51.28 51.16 51.69 51.50 51.59 51.26 50.59 51.70 56.37 55.17 56.11 57.18 55.39 55.37 60.73 57.81 52.76 53.82 49.04 47.48 57.04 55.62 57.14 55.80 54.88 48.83 50.31 45.63 43.74 42.97 37.91 33.59 44.40 47.39 47.39 46.53 44.49 45.81 46.80 46.71 48.92 48.99 50.27 50.92 51.39 51.09 50.11 50.61
51.71 51.38 51.95 53.08 52.51 51.03 50.66 51.40 51.61 51.62 50.58 50.62 54.20 56.49 53.07 57.26 55.62 56.19 57.91 55.31 54.59 56.99 56.42 52.04 55.17 52.13 54.31 53.98 52.18 52.85 52.35 47.19 41.31 45.82 47.55 43.22 44.08 49.11 49.43 50.17 48.95 46.79 45.69 46.98 44.41 42.86 44.17 45.41 47.25 48.48 49.26 50.38 51.02 51.12
52.37 52.74 52.65 51.59 50.88 51.00 50.66 51.21 51.43 50.80 49.94 56.33 56.01 55.46 59.44 54.36 57.48 54.67 51.18 50.10 54.63 51.54 54.54 55.23 53.63 51.30 56.36 51.55 50.43 52.68 47.76 48.01 40.91 44.55 45.32 45.20 42.13 48.37 51.01 49.12 50.45 50.28 50.59 49.43 50.36 49.29 49.72 48.99 48.84 48.71 49.93 50.84 50.94 51.50
52.06 51.54 50.89 50.78 50.51 50.78 51.36 51.60 51.35 53.04 58.38 55.23 56.48 58.92 59.90 54.70 52.19 49.98 48.61 53.51 51.14 50.04 54.37 53.53 53.29 54.74 55.02 57.07 51.72 52.46 44.94 47.20 37.98 48.20 44.04 41.69 47.35 50.44 50.37 49.78 50.53 51.46 51.59 50.11 51.18 51.13 51.41 51.31 52.12 52.47 52.60 51.96 52.02 51.68
50.19 50.12 49.96 50.14 50.73 51.04 51.45 51.53 50.97 51.69 51.64 59.16 56.64 53.67 52.24 51.85 45.07 46.46 46.16 49.75 48.32 52.81 53.24 53.73 51.24 54.22 54.21 55.01 51.86 49.63 43.18 41.99 51.80 44.75 43.09 45.07 49.68 50.52 51.41 51.96 50.96 51.79 51.46 52.41 52.21 52.55 52.48 52.47 52.99 52.06 51.11 52.18 52.78 51.79
50.01 50.05 50.70 51.61 51.13 50.87 50.96 51.35 51.25 52.65 55.50 54.62 52.25 41.76 49.54 49.41 52.20 54.39 53.87 52.12 54.40 55.54 55.27 52.83 53.03 52.17 53.17 49.33 50.07 44.17 48.41 48.23 41.72 39.50 39.66 46.52 50.30 50.51 51.45 51.79 51.05 49.99 50.26 50.44 50.68 51.43 51.37 51.86 51.48 51.92 51.62 52.22 51.65 52.03
50.28 50.46 51.78 51.49 51.21 51.00 51.23 51.22 51.40 56.31 56.91 52.04 51.98 42.54 51.08 55.42 56.61 58.23 57.26 56.58 56.13 56.73 54.67 52.63 52.56 53.42 49.38 47.61 49.88 47.07 42.83 39.90 42.48 40.73 45.25 50.20 51.91 51.97 51.21 50.69 50.56 50.34 50.52 50.12 51.24 50.97 51.14 51.04 51.49 50.85 51.94 51.76 52.52 52.73
50.83 51.07 54.00 50.96 51.14 51.37 51.06 51.38 54.33 58.16 56.37 52.81 51.68 50.58 55.05 54.31 54.83 54.87 55.83 55.64 56.41 56.22 54.94 52.86 50.45 47.33 46.70 48.39 44.32 42.31 41.25 39.30 43.47 47.47 49.69 51.87 52.48 52.60 52.51 53.11 52.92 52.29 51.52 51.21 50.57 51.06 50.41 51.43 49.79 51.47 52.78 51.51 51.74 51.75
49.79 58.23 51.31 50.55 50.78 50.87 50.72 54.88 56.36 52.88 51.93 50.24 50.71 53.63 56.04 56.96 57.28 54.86 56.77 55.50 56.76 54.05 49.98 50.84 44.21 44.26 49.25 44.65 42.96 48.63 44.39 46.30 48.43 49.62 51.68 53.69 52.62 52.17 52.72 52.70 52.72 52.35 52.36 51.82 51.43 50.98 51.37 51.94 51.69 51.86 51.25 52.50 51.68 52.31
57.55 55.87 51.72 50.38 50.94 52.39 57.47 55.89 54.60 52.53 49.40 52.15 50.97 54.13 56.62 58.59 57.62 57.43 57.06 57.47 55.48 55.04 53.77 48.82 49.79 45.08 44.55 41.02 44.37 49.24 50.67 50.61 52.33 51.43 51.39 52.82 54.01 54.00 52.61 52.42 52.42 52.25 52.27 52.34 52.20 51.74 51.70 50.62 49.61 49.62 51.65 52.34 52.37 52.17
53.81 54.00 52.13 51.52 52.86 52.86 53.86 54.99 55.22 50.88 52.29 54.49 56.11 56.98 59.07 58.12 60.20 59.98 58.45 58.69 58.18 58.68 55.34 52.72 46.79 45.66 46.45 49.88 49.15 50.52 52.03 52.08 50.55 51.14 52.13 53.25 53.93 53.20 52.00 51.92 51.72 52.02 51.35 51.32 50.62 49.51 49.04 49.83 48.93 48.99 48.89 49.41 50.10 52.41
51.44 51.43 51.52 51.66 51.83 54.51 51.33 53.98 59.44 54.68 53.09 57.74 58.18 56.67 57.71 58.10 59.30 59.04 57.87 57.68 56.21 54.40 52.07 49.25 49.01 53.28 50.48 50.79 53.41 52.69 52.23 52.88 51.23 49.97 50.23 51.52 52.62 52.72 52.20 51.29 50.70 50.96 50.81 50.65 50.09 46.96 48.15 47.20 49.54 49.13 47.93 47.60 48.47 50.07
49.72 54.11 52.02 53.61 53.31 54.70 54.09 54.64 54.35 55.33 56.68 56.48 58.24 59.18 56.69 57.94 57.14 55.62 55.29 57.57 55.51 53.24 51.20 53.43 53.13 55.41 56.34 55.24 54.79 53.95 53.89 53.48 51.63 50.68 50.44 50.21 52.86 52.23 51.05 53.15 51.89 50.39 48.73 48.39 47.82 47.45 44.21 48.41 49.65 48.81 46.48 48.90 48.53 48.84
56.77 51.18 57.75 55.43 55.59 56.09 54.43 56.31 53.79 55.70 54.34 55.00 56.57 56.22 54.83 54.67 55.20 55.37 57.65 55.60 54.60 55.07 55.44 55.76 57.18 56.43 55.26 54.27 54.17 54.62 55.86 55.45 54.51 52.14 46.38 48.12 50.22 50.34 51.21 50.79 49.36 48.82 49.09 48.72 48.38 47.73 47.99 47.79 50.30 51.39 49.13 49.18 48.25 49.27
51.34 54.74 56.60 55.84 51.67 49.66 48.60 58.41 52.97 55.03 51.40 55.16 58.20 54.31 55.31 56.36 57.29 60.51 54.63 55.78 55.91 58.57 60.06 60.24 60.04 59.23 56.99 56.47 56.16 56.26 56.66 55.47 53.16 52.91 53.20 52.19 53.35 52.98 52.34 51.67 49.94 48.99 48.26 48.40 50.07 49.41 49.00 43.08 47.70 49.17 49.58 49.88 50.94 48.31
50.78 54.23 51.81 50.89 51.30 47.44 55.03 53.32 56.84 55.86 56.38 54.90 54.10 51.33 53.71 54.33 58.21 55.07 52.36 53.56 56.64 59.03 58.56 59.41 58.50 55.81 55.33 56.14 54.18 54.47 55.60 55.49 53.52 54.68 54.46 52.74 51.10 50.43 51.95 51.63 51.29 50.95 49.59 51.44 51.40 49.84 48.25 49.07 46.52 51.30 50.24 50.42 49.77 46.98
47.30 47.27 49.55 41.31 51.93 49.54 50.01 51.59 52.87 53.71 50.93 53.32 51.87 52.10 53.12 56.96 53.74 52.35 51.83 54.05 56.65 57.19 57.70 57.96 56.74 55.92 52.94 54.11 53.93 54.34 56.80 54.43 51.88 51.93 52.32 52.11 52.62 50.55 49.75 50.56 50.98 50.03 50.77 50.54 48.70 48.18 47.29 47.87 48.96 49.45 48.12 47.71 46.60 46.76
40.90 48.71 44.19 49.74 50.78 50.97 51.12 48.76 50.11 50.89 52.55 51.04 52.20 57.25 58.09 55.03 49.89 49.08 52.75 55.00 56.52 57.29 56.58 56.19 55.49 54.66 53.89 55.22 53.95 52.95 53.01 53.42 53.81 51.23 51.22 51.90 50.90 49.68 49.25 48.11 47.49 48.24 51.50 51.53 49.47 48.30 48.75 48.59 48.13 47.03 47.07 45.05 41.89 46.47
42.20 47.20 51.24 54.12 53.97 54.11 52.88 53.86 55.19 53.47 50.64 50.86 53.21 52.40 52.49 48.31 47.84 52.36 57.92 59.75 57.36 57.57 57.54 57.91 57.12 55.68 54.22 53.60 53.63 53.36 53.89 53.68 52.96 52.09 52.12 52.89 52.59 52.25 51.65 49.49 48.67 49.27 51.84 52.36 52.18 50.78 49.12 47.53 47.94 48.33 47.74 48.85 47.24 47.75
50.52 51.14 47.88 51.07 51.17 52.30 50.29 51.71 50.97 50.52 53.24 55.43 54.89 49.13 48.99 48.87 50.30 56.79 58.15 59.31 58.79 60.47 57.48 58.77 58.29 55.64 53.73 52.74 53.10 52.31 52.19 52.76 52.70 51.84 51.23 50.85 51.71 50.91 50.92 51.61 50.97 41.71 49.66 50.91 51.04 50.91 50.46 49.92 49.40 48.40 46.69 46.19 48.45 49.52
50.50 52.95 52.24 49.53 50.67 51.33 51.86 51.63 52.62 55.58 57.82 55.37 52.34 51.37 52.39 55.73 58.44 59.61 58.55 58.98 58.47 56.85 54.91 53.38 52.43 52.82 51.65 51.77 52.09 51.95 51.44 50.92 48.97 46.82 45.80 46.06 46.84 47.51 50.17 50.41 49.04 49.12 50.20 48.86 39.03 43.01 47.65 48.10 48.39 48.20 48.32 48.54 49.17 49.61
50.86 53.99 51.19 51.08 48.97 48.22 51.43 53.74 53.22 56.04 59.91 58.44 57.38 57.13 57.26 57.49 58.98 62.28 59.56 58.65 54.72 52.20 53.16 51.31 50.51 49.47 47.94 48.55 49.05 49.97 51.06 50.24 50.38 48.61 47.74 47.84 47.98 49.43 49.50 49.82 49.46 50.20 50.39 49.88 49.01 48.52 41.17 45.68 44.62 48.15 47.54 48.80 48.18 49.11
54.05 52.93 51.26 51.39 50.09 52.05 52.72 53.71 55.09 56.82 57.10 56.82 54.99 55.35 57.11 57.67 59.03 60.69 58.96 56.11 53.51 51.45 49.67 49.01 49.50 49.97 49.37 49.80 49.66 49.40 48.42 49.66 50.54 50.29 50.88 51.59 51.39 49.89 49.18 50.04 50.44 50.73 50.11 49.81 49.49 48.96 48.82 47.85 48.01 48.37 47.88 46.97 46.71 44.72
53.00 51.30 49.85 48.37 49.89 53.67 55.11 55.20 55.22 55.68 56.89 57.61 57.25 59.99 58.51 57.37 54.31 56.40 56.21 54.54 53.03 48.35 47.84 49.22 49.98 49.15 53.57 53.80 53.97 53.10 44.33 52.23 50.86 50.30 51.32 50.76 50.86 50.45 49.62 50.21 50.11 50.01 49.59 49.33 49.11 49.21 48.69 47.94 47.77 48.47 47.53 47.23 47.11 46.70
52.62 52.27 51.48 50.33 50.77 51.71 54.24 55.41 55.82 55.76 56.91 56.90 56.10 58.14 57.18 56.78 53.45 56.84 56.67 55.54 53.99 54.16 52.91 50.97 51.87 52.74 54.59 54.29 54.01 52.02 48.14 52.49 49.01 42.75 42.30 42.23 41.80 46.26 48.79 49.91 49.94 49.79 49.02 49.02 48.86 48.80 48.12 47.83 47.94 48.15 47.75 47.67 47.48 46.84

GFSWCAN_sfc_wetblb_093.txt.gz
Wetbulb
53.90 53.78 53.90 53.69 54.45 54.80 55.73 56.13 56.39 57.00 55.70 53.73 54.55 55.43 56.16 56.51 56.02 54.54 55.96 60.58 56.32 52.47 53.98 53.97 54.65 52.10 50.89 50.16 47.54 48.98 46.83 47.61 45.03 41.88 42.37 42.67 41.55 42.84 39.79 42.53 40.40 39.00 36.57 36.80 36.67 33.41 34.09 50.18 47.55 43.39 47.36 49.90 51.42 51.65
54.03 53.99 53.91 53.84 53.70 54.17 55.08 55.77 56.09 56.53 55.82 53.73 54.13 54.82 55.92 55.98 55.69 55.58 57.09 61.40 61.36 56.10 54.12 57.86 57.04 57.13 56.00 54.72 51.48 50.01 48.38 49.11 47.10 45.80 44.80 45.13 42.83 42.22 40.62 36.05 45.06 38.45 42.10 40.09 42.01 41.46 47.47 50.03 48.98 50.30 50.29 49.20 49.69 50.06
53.61 53.78 53.83 53.83 53.83 53.56 54.60 55.24 55.65 56.05 55.44 53.11 53.86 54.59 55.34 55.80 55.74 54.95 55.94 59.88 58.28 55.63 54.93 55.06 52.56 56.83 56.56 55.87 56.01 49.22 51.64 52.58 50.29 50.44 46.44 45.80 41.49 44.79 39.02 39.64 41.98 44.59 47.47 42.01 42.94 47.11 49.00 49.97 50.87 51.22 50.67 49.30 50.05 50.04
53.46 53.72 53.94 54.01 53.65 53.50 53.72 54.80 55.31 55.89 54.44 52.95 53.68 54.23 54.93 55.37 55.21 54.78 55.67 59.27 58.64 56.09 50.77 52.68 58.53 56.54 58.65 57.96 57.50 56.07 54.68 54.19 52.55 51.15 45.98 44.22 43.51 47.88 42.35 44.46 43.21 46.04 46.81 42.90 42.79 47.59 49.10 50.12 49.88 49.25 50.40 50.70 50.09 49.85
53.31 53.36 53.60 53.64 53.59 53.46 53.42 54.34 55.17 55.57 52.75 52.93 53.42 53.83 54.50 54.56 54.43 53.95 55.83 59.31 60.87 55.83 51.16 52.70 55.95 57.65 56.42 56.78 56.34 56.27 54.18 52.46 51.12 48.61 46.99 45.09 47.93 46.44 47.38 46.77 43.97 46.89 43.90 41.44 41.03 46.59 46.88 49.19 48.91 50.01 48.76 48.86 48.54 48.14
52.94 53.02 53.14 53.24 53.50 53.08 53.15 53.87 54.54 51.71 52.71 52.67 53.08 53.39 53.51 54.02 53.70 56.30 56.38 59.24 57.14 58.45 53.03 48.58 56.67 56.93 56.53 56.40 56.18 54.55 54.37 53.08 51.48 48.65 47.68 48.28 48.59 45.91 42.07 39.77 47.31 48.49 49.56 48.89 45.63 48.75 49.01 49.38 52.04 50.69 48.93 49.01 49.85 48.97
52.82 52.96 52.75 53.09 53.25 53.00 53.28 54.21 53.06 52.27 52.37 52.43 52.95 52.64 52.87 52.81 53.25 54.77 53.93 55.59 52.29 58.48 54.35 51.14 48.55 55.57 57.31 55.69 54.78 54.02 54.96 52.88 51.66 49.82 48.39 47.70 45.11 46.28 43.54 38.67 46.01 48.34 48.58 49.72 50.48 48.77 47.81 50.07 48.63 51.70 51.54 51.11 52.48 50.55
52.62 52.69 52.67 52.85 52.79 52.70 53.74 53.34 51.75 51.56 52.33 52.56 52.70 52.71 52.62 52.65 52.48 54.61 57.76 54.12 53.59 55.96 56.85 49.31 48.58 51.51 57.02 52.08 50.58 54.25 51.50 51.59 51.12 48.96 47.68 44.45 44.28 42.73 35.26 42.31 45.30 47.14 48.70 48.41 49.31 49.96 48.24 48.77 50.11 51.32 51.92 50.72 49.17 48.47
52.37 52.32 52.46 52.21 52.20 52.88 53.46 52.71 52.16 51.98 52.10 52.43 52.48 52.40 54.57 53.57 56.21 57.21 57.79 57.32 58.93 57.54 52.51 52.96 46.32 46.31 55.98 52.50 51.24 50.97 52.91 47.02 50.17 46.01 44.71 44.40 37.98 33.23 39.12 43.53 45.91 47.24 46.67 45.96 47.87 47.83 48.20 48.22 48.81 48.72 50.11 50.86 48.31 48.78
52.04 51.57 51.55 51.90 53.04 53.41 52.16 51.38 51.68 51.92 52.02 51.73 52.14 54.22 54.42 57.19 57.62 57.69 58.29 56.09 55.21 56.67 55.99 51.61 52.34 49.03 52.37 52.03 50.38 49.57 50.34 46.45 42.24 45.72 47.18 42.32 40.62 43.56 47.43 48.12 49.60 48.57 47.79 47.42 46.01 44.84 45.78 46.41 46.82 47.71 47.76 48.51 48.88 49.07
52.79 52.95 52.89 52.93 52.18 51.39 51.15 51.50 51.84 51.62 50.15 53.47 55.35 55.49 59.47 56.90 57.85 55.44 52.30 51.79 53.56 51.07 54.28 53.13 52.62 49.75 55.15 48.77 48.05 50.49 46.56 46.74 41.05 43.89 42.83 42.18 42.02 47.03 50.42 49.26 49.52 49.22 48.59 47.92 48.42 48.66 48.16 48.65 47.56 47.83 48.07 49.07 48.87 49.53
51.06 51.16 51.21 51.44 51.25 51.01 51.31 51.79 51.62 50.22 55.86 51.42 50.64 54.77 59.27 55.98 52.99 50.42 49.57 52.33 50.79 49.20 53.00 51.19 51.80 53.21 53.14 53.99 48.64 49.52 45.88 45.87 39.42 47.23 43.45 39.56 45.63 49.36 49.40 49.61 50.00 49.80 49.52 49.86 50.42 49.83 49.85 49.86 49.44 48.77 48.35 48.18 48.16 49.17
50.37 50.23 50.08 50.67 51.31 51.62 51.62 51.18 51.27 51.52 51.39 57.63 54.48 54.32 52.81 52.18 42.28 45.57 45.29 49.21 49.73 52.67 53.77 52.19 50.21 53.11 52.96 52.63 48.89 46.88 44.21 41.83 48.72 43.11 41.68 43.74 48.62 50.25 50.01 49.86 50.08 50.80 50.91 50.76 51.58 51.68 52.47 51.58 51.86 50.11 48.38 48.57 48.46 47.86
51.51 50.70 51.36 51.95 52.11 51.51 51.24 51.12 51.24 52.22 52.78 53.37 51.72 38.44 48.31 47.00 49.03 52.25 51.43 52.21 54.53 54.65 53.33 52.71 51.25 51.03 52.04 48.82 48.39 45.29 46.89 47.55 41.30 38.44 40.49 46.05 46.99 46.97 49.26 51.14 50.32 49.64 50.55 50.49 50.56 51.28 51.03 51.62 50.51 50.94 50.58 51.27 50.19 48.25
51.01 51.14 51.50 52.42 51.79 51.73 51.69 51.04 51.04 53.11 54.63 52.41 52.48 41.08 48.71 52.89 55.16 53.92 53.44 54.95 55.25 54.98 53.12 50.91 51.89 51.44 49.47 48.23 48.57 46.79 43.78 40.73 41.73 40.32 44.93 48.14 49.49 50.69 50.58 50.58 50.07 50.24 49.95 49.52 50.84 50.03 49.49 50.37 49.71 48.91 50.23 50.80 50.93 50.20
52.17 50.54 53.02 51.50 51.48 51.39 50.91 50.45 51.95 55.49 55.47 52.85 52.05 49.01 52.79 51.24 50.02 51.85 53.96 55.44 57.12 54.49 54.40 53.64 50.56 47.98 46.59 47.63 45.25 43.84 41.00 39.15 42.93 46.89 49.28 51.98 51.37 51.34 50.64 50.61 50.97 50.97 50.99 50.54 49.96 50.33 50.65 49.15 48.14 49.84 50.14 49.82 49.89 50.75
49.57 55.39 51.25 51.47 51.43 51.44 51.59 52.58 55.99 53.47 51.52 50.58 49.75 52.61 52.48 51.28 49.44 51.66 54.13 55.05 59.48 54.63 49.88 51.14 46.12 45.98 48.73 43.57 43.75 46.39 43.73 45.87 49.23 50.36 51.90 52.54 51.45 50.85 50.49 51.27 50.82 50.89 50.79 50.19 50.31 50.21 50.01 49.76 49.32 48.70 47.59 49.24 49.67 49.32
54.82 54.05 51.68 50.98 50.15 53.93 54.66 52.23 54.00 52.09 48.70 50.49 48.04 50.27 55.94 56.06 52.97 54.84 54.72 54.97 56.25 54.74 54.15 51.27 52.21 46.92 44.30 42.98 43.75 47.26 48.20 49.86 51.62 50.97 51.04 52.53 52.74 51.57 51.78 50.38 50.38 50.84 49.76 49.89 49.29 48.54 48.11 48.11 46.51 46.01 45.64 45.80 45.60 45.63
52.56 52.31 52.44 52.37 51.71 50.16 52.82 54.70 55.02 48.73 51.33 52.72 53.39 54.28 57.39 57.21 58.55 55.31 54.58 55.63 60.08 59.45 55.75 53.08 49.68 45.99 47.20 49.72 48.42 49.49 50.16 50.67 49.91 50.62 52.57 53.93 53.16 51.80 50.69 50.45 51.24 51.11 49.54 49.90 49.04 47.78 47.71 47.16 46.58 46.51 46.07 45.65 44.51 45.14
51.46 52.16 52.54 51.67 51.21 51.94 52.31 52.96 58.37 53.19 49.95 54.88 56.13 54.95 56.12 58.28 57.73 57.17 57.46 57.98 58.71 56.54 53.06 50.55 49.88 52.36 51.83 52.21 52.01 51.77 51.26 51.65 50.01 49.78 49.77 50.98 51.91 52.22 51.28 50.15 48.78 49.79 50.14 50.26 50.10 46.66 47.23 46.96 47.48 46.81 46.28 46.26 46.04 46.86
53.84 54.00 52.08 52.25 51.20 51.82 52.21 53.32 54.21 54.67 54.20 52.91 55.00 54.99 56.06 59.21 57.17 56.03 53.39 57.44 55.43 53.61 52.03 54.32 53.21 52.50 55.66 56.75 55.43 54.72 53.16 52.51 51.96 51.40 50.97 50.28 51.87 51.65 51.45 51.98 50.47 48.77 47.31 46.37 46.37 44.49 46.62 46.45 46.72 46.68 46.89 46.57 46.87 48.43
55.93 53.29 55.57 53.74 53.62 55.37 53.79 55.74 52.79 54.88 53.76 53.47 53.45 55.08 52.85 53.14 51.69 52.32 57.29 54.90 51.86 54.70 56.21 56.84 55.25 54.37 55.02 55.90 55.60 55.44 55.52 54.72 54.07 49.76 47.81 46.62 48.11 48.85 50.10 48.89 47.48 46.12 46.96 46.76 46.24 46.51 45.76 46.06 46.70 47.17 46.42 46.61 46.36 47.57
52.95 53.73 54.20 55.19 52.12 47.83 46.21 56.61 52.20 53.65 49.92 52.39 54.39 51.03 51.56 53.32 54.43 58.07 53.37 55.01 55.30 58.28 58.67 56.78 57.34 57.50 57.46 57.24 56.28 56.36 56.63 55.30 52.84 52.79 51.45 51.90 52.19 51.11 49.69 48.84 48.01 46.70 46.03 46.20 47.82 46.91 46.32 44.72 46.12 46.71 46.78 46.36 46.91 46.10
51.95 52.66 51.21 50.45 50.26 45.49 52.74 51.77 53.82 52.48 52.74 52.95 51.81 50.75 52.93 54.30 58.18 54.59 51.85 54.33 54.72 56.33 56.09 56.68 57.58 56.04 55.71 55.25 53.04 53.84 55.08 54.87 53.82 53.69 53.43 52.30 50.30 49.84 50.24 49.45 48.46 48.05 47.15 47.68 48.29 47.51 47.44 47.30 45.35 47.35 47.69 46.87 46.81 45.44
45.78 45.56 47.10 39.21 51.59 48.71 48.05 48.40 49.85 50.47 49.53 51.06 49.90 50.07 50.46 54.80 52.22 51.55 50.11 52.02 54.81 55.72 56.39 57.22 57.79 55.44 53.63 53.63 54.45 54.45 56.72 54.68 52.48 51.54 52.65 52.69 51.09 49.95 48.49 48.20 48.23 48.05 48.79 47.87 47.44 47.27 46.84 47.33 48.07 47.51 47.34 46.68 46.49 46.13
39.12 47.92 42.69 48.55 49.01 47.97 48.99 48.40 50.43 49.88 51.32 49.31 49.94 51.70 50.96 49.81 49.65 48.51 49.71 51.52 52.98 53.46 55.22 56.85 55.62 55.28 55.23 55.44 53.50 53.97 54.47 56.33 53.59 50.65 52.72 52.22 51.12 49.72 47.82 46.16 45.58 46.68 49.15 49.04 48.26 47.74 48.19 47.65 47.29 47.49 45.77 44.69 40.73 43.85
40.91 46.71 51.33 54.35 51.36 51.51 51.33 52.80 52.53 51.32 48.87 49.28 49.25 49.37 48.71 45.18 47.01 50.45 53.98 53.78 53.36 54.17 58.38 58.87 59.00 56.49 54.16 54.47 54.07 54.23 53.63 53.75 53.39 52.58 53.07 52.16 51.70 50.81 48.95 48.01 48.13 48.09 49.94 49.96 49.20 48.75 47.87 47.57 47.38 46.81 46.44 47.02 46.85 46.37
48.98 51.45 48.31 51.63 51.62 51.89 48.74 49.09 49.16 49.19 52.03 51.36 50.47 46.95 47.00 47.83 48.53 55.51 55.29 57.44 56.20 55.52 59.05 56.01 54.31 53.27 52.41 52.38 52.43 52.63 52.77 52.71 53.27 51.84 50.83 50.57 50.25 49.51 49.03 47.91 46.72 43.03 47.56 48.93 48.61 48.06 47.84 47.86 48.04 47.93 47.22 46.22 46.12 47.42
48.63 51.84 51.64 49.60 50.78 51.41 51.18 50.17 49.86 53.02 54.34 53.47 49.74 48.15 50.61 54.81 55.99 56.23 57.32 58.65 60.07 58.58 55.47 51.11 51.83 52.43 51.41 52.20 53.05 53.14 52.62 51.60 49.88 47.98 46.85 45.57 45.68 46.82 49.29 48.96 48.52 49.04 47.74 45.45 41.69 45.14 47.14 46.25 46.31 46.90 47.41 47.73 47.81 47.77
48.46 52.19 49.47 49.34 48.93 48.80 52.09 53.91 52.58 54.50 55.58 54.88 56.13 54.62 55.17 56.16 56.56 57.88 57.25 57.39 56.76 55.23 51.55 50.70 50.83 50.38 49.11 49.74 49.73 51.26 51.99 51.89 50.85 49.22 47.35 47.11 48.49 48.37 49.22 48.57 48.04 48.11 48.63 47.50 46.54 45.42 41.86 43.92 43.90 45.32 45.32 47.46 47.09 46.95
52.47 51.40 50.29 50.30 49.91 52.75 54.59 55.93 55.52 55.40 55.05 54.98 54.19 53.06 53.53 54.84 58.36 60.49 56.91 57.88 54.69 52.37 51.56 51.74 51.44 51.87 49.87 50.11 50.59 49.71 49.29 51.35 51.63 51.71 51.35 51.11 50.60 49.82 49.87 49.78 49.40 49.63 49.96 48.58 47.36 46.50 45.00 44.78 46.21 47.29 47.91 48.19 47.08 44.21
52.13 51.61 50.07 49.16 50.81 54.92 56.16 54.13 52.94 52.10 53.28 54.28 53.16 55.15 53.94 53.53 51.86 55.55 56.77 56.38 54.42 52.48 50.18 52.84 52.18 51.09 52.95 52.99 54.13 53.57 47.68 51.31 51.20 50.48 51.25 51.18 51.67 50.94 51.06 50.48 49.95 49.84 50.40 49.39 49.08 48.56 47.38 47.34 47.35 47.80 47.44 47.51 47.77 47.72
52.37 52.38 52.68 51.46 51.27 51.79 54.04 53.24 52.12 52.48 52.40 52.07 52.23 52.83 52.74 53.03 51.17 54.07 56.91 56.48 57.19 55.67 54.73 55.70 54.08 53.97 54.80 54.21 53.67 51.70 51.25 52.08 47.45 43.67 42.97 42.67 43.39 46.85 49.95 49.98 49.76 49.67 50.01 49.11 48.76 48.33 48.65 48.98 47.86 49.20 48.97 48.50 48.65 47.95

GFSWCAN_sfc_wetblb_096.txt.gz
Wetbulb
54.08 54.31 54.35 54.41 54.16 53.14 54.16 54.74 55.71 55.67 56.55 55.90 54.24 54.84 55.95 56.01 56.00 52.14 50.72 54.00 50.24 45.34 47.78 51.93 51.21 47.17 47.16 45.01 41.06 43.37 42.50 44.10 39.72 37.40 38.21 33.84 33.82 36.19 35.30 38.18 36.00 35.58 31.84 31.46 33.56 30.71 29.62 48.55 47.37 43.46 44.44 46.07 52.01 51.24
54.12 54.18 54.20 54.27 54.09 54.23 53.94 54.45 55.28 55.29 55.99 56.13 54.27 54.89 55.94 55.79 55.69 54.69 51.20 55.51 56.34 49.76 49.35 53.20 52.97 52.07 51.37 49.76 46.45 43.46 43.92 42.53 41.31 39.52 38.99 39.28 35.97 36.89 34.86 30.18 40.72 36.25 38.87 37.41 38.87 38.07 44.54 46.81 46.47 48.26 47.82 48.15 47.85 49.47
53.59 53.74 53.84 54.00 54.16 54.20 53.99 53.94 55.02 55.49 55.71 55.95 54.02 54.19 55.37 55.29 55.30 54.17 49.67 52.40 52.52 49.19 49.26 49.02 48.84 50.62 53.36 50.55 51.09 44.77 45.62 46.42 44.17 44.04 40.82 39.71 37.63 38.68 32.47 33.66 37.44 41.21 42.70 39.63 40.53 43.89 44.78 46.35 47.40 48.77 48.93 47.40 48.29 49.78
53.50 53.82 53.94 53.86 54.10 54.14 53.83 53.84 54.41 54.92 55.71 54.92 53.83 54.44 55.05 55.10 54.88 53.92 48.15 52.06 52.64 50.43 46.46 48.03 54.02 50.84 51.71 53.38 52.56 51.45 49.46 48.15 47.42 44.66 39.53 39.10 38.64 42.64 37.06 38.91 37.59 41.72 41.67 38.98 39.09 43.47 45.38 48.46 47.18 47.75 47.71 48.06 47.88 48.66
53.33 53.38 53.64 53.64 53.76 53.91 53.87 53.58 54.19 54.80 55.34 53.02 53.47 54.05 54.29 54.41 53.68 51.52 49.86 51.91 53.03 50.48 46.01 48.29 50.40 51.19 50.70 52.09 51.74 51.28 49.60 47.10 44.90 42.85 41.59 40.29 42.04 41.76 41.98 41.87 38.28 42.54 40.34 37.26 36.00 42.85 42.80 44.64 46.41 48.44 47.05 46.81 46.95 47.23
52.99 53.12 53.04 53.24 53.38 53.74 53.46 53.29 53.79 54.43 52.19 52.54 52.72 53.39 53.26 53.08 52.80 52.45 51.00 53.87 51.46 53.30 47.60 44.11 50.66 48.56 50.77 51.98 51.24 49.73 48.60 46.90 45.38 43.33 42.35 43.19 43.50 41.71 36.64 31.05 42.37 44.77 46.11 45.14 42.91 45.38 45.64 46.65 48.01 47.94 46.74 46.82 48.20 46.82
52.94 52.98 52.83 52.99 53.25 53.54 53.10 53.20 54.32 52.75 52.31 52.12 52.41 52.72 52.62 52.34 49.34 50.26 50.72 53.27 50.74 52.15 49.17 45.19 43.80 50.71 52.30 49.96 49.18 48.64 49.02 47.17 46.39 43.87 41.93 41.27 40.26 41.17 37.84 32.06 41.41 43.64 44.92 45.87 47.41 46.21 44.35 45.74 44.22 46.99 47.58 48.52 49.44 47.86
52.37 52.67 52.79 53.05 53.11 52.69 52.77 54.06 53.10 51.66 52.33 52.45 52.35 52.56 52.21 52.00 51.27 50.64 52.19 51.47 51.19 50.04 50.92 45.17 46.18 47.08 50.80 47.11 48.02 47.72 46.06 45.80 45.84 42.68 41.59 38.87 38.34 39.21 34.10 37.77 40.12 43.46 44.81 44.86 46.53 46.32 44.54 46.25 47.36 47.52 49.75 48.06 46.33 45.62
52.23 52.27 52.50 52.27 52.24 52.57 53.78 52.95 52.65 52.50 51.83 51.94 52.09 52.17 50.43 49.79 50.18 52.71 57.42 55.26 52.30 52.27 47.47 46.88 44.76 43.24 49.39 49.80 47.82 47.82 46.98 41.15 44.14 39.91 39.25 38.69 34.10 32.56 35.10 37.25 40.62 43.21 42.84 43.63 44.88 45.21 45.96 45.79 47.02 47.32 48.09 47.52 45.68 45.44
53.04 52.17 51.80 52.25 53.04 53.49 52.95 51.97 51.73 51.60 51.42 51.46 48.72 49.92 50.21 53.24 57.52 56.39 53.28 50.74 49.68 50.31 49.44 45.72 48.07 45.95 50.46 46.17 45.19 43.96 43.58 40.42 36.42 39.86 41.72 36.31 34.15 38.66 39.81 40.82 43.27 45.38 44.92 44.51 41.66 40.48 41.83 41.57 44.78 47.34 47.46 47.87 47.69 47.96
51.87 52.61 52.95 52.92 52.44 51.31 51.27 51.22 51.52 51.13 50.88 48.65 51.22 51.44 54.08 56.25 52.62 50.31 46.54 46.06 46.90 44.57 47.07 46.91 47.54 46.19 48.35 43.68 42.65 44.14 40.37 40.37 32.80 37.56 37.26 35.25 35.56 42.29 44.21 45.06 45.34 45.04 44.80 44.81 44.49 44.76 44.92 45.01 45.08 47.01 47.34 48.38 48.92 48.75
50.61 50.76 51.13 51.15 50.92 51.13 51.37 51.20 51.12 48.28 49.49 47.15 46.97 49.72 52.50 50.75 49.99 44.91 44.13 46.30 45.18 44.18 46.62 44.93 45.39 46.50 46.18 46.25 42.63 43.12 39.68 40.25 33.79 42.24 38.19 30.80 39.33 44.22 45.38 46.03 46.11 45.12 45.80 46.26 47.01 46.65 46.99 46.95 46.50 47.15 45.90 45.97 47.07 48.19
50.60 50.40 50.29 50.44 50.92 51.01 51.05 50.82 50.68 50.64 49.50 50.31 49.47 48.78 48.20 48.23 41.32 42.85 41.25 43.12 43.30 46.67 47.10 45.93 43.96 45.25 45.73 45.11 41.67 41.35 39.15 37.03 43.64 38.05 35.39 37.96 42.69 45.43 45.04 46.07 46.38 46.81 47.52 47.47 48.05 48.48 48.61 48.83 48.57 47.04 45.97 46.29 46.91 46.37
51.13 50.92 50.49 51.93 52.01 51.99 51.31 50.55 50.67 49.11 49.25 48.88 47.46 37.61 43.81 42.50 45.00 45.94 45.94 47.90 50.21 48.65 47.61 46.61 45.60 44.51 44.59 41.78 41.77 39.60 41.57 41.62 36.70 32.66 35.17 40.40 42.94 44.99 45.80 46.80 46.27 46.57 47.33 47.50 47.85 48.33 47.96 48.28 48.16 48.80 48.72 47.88 49.28 47.75
51.47 50.92 51.07 51.40 52.13 51.84 51.29 50.87 50.48 48.19 49.76 48.40 48.40 37.78 44.10 48.77 50.05 50.10 50.37 52.14 49.52 47.08 48.10 45.64 45.23 44.29 42.13 41.83 42.15 41.81 40.42 37.96 36.33 34.71 39.37 42.95 44.18 44.04 43.95 46.34 45.88 45.83 46.33 47.85 47.41 49.43 49.33 49.48 48.42 48.43 48.26 48.70 49.87 49.81
51.76 51.95 50.96 51.92 51.67 50.95 50.47 49.51 48.30 49.39 50.80 48.66 47.42 44.29 47.42 47.59 48.39 50.23 51.45 50.97 50.48 45.49 45.62 45.24 43.12 41.49 41.23 41.40 40.07 39.56 37.74 34.26 36.46 39.60 43.62 44.22 44.37 45.10 44.20 45.12 46.04 46.36 45.94 46.12 48.51 47.74 46.51 46.17 45.17 45.30 46.32 47.59 47.27 49.09
51.34 53.54 51.61 51.28 51.20 50.99 50.96 49.00 50.97 49.76 49.34 47.85 44.61 46.75 46.21 48.59 46.68 48.34 49.34 48.38 52.12 49.40 44.59 44.32 41.44 40.65 40.62 37.66 37.36 39.76 37.84 40.63 44.02 44.61 45.95 45.94 45.63 44.80 44.81 45.50 45.70 46.10 45.63 45.09 45.20 45.55 45.47 46.51 45.50 44.36 42.70 41.70 43.88 45.43
50.74 50.44 51.75 50.96 49.95 50.84 50.60 48.16 50.15 49.95 46.04 45.38 42.64 44.13 46.35 49.52 49.23 48.34 50.40 52.89 51.62 49.37 49.17 46.24 43.52 38.53 37.23 37.38 37.27 39.70 41.07 45.29 46.65 47.61 47.26 46.08 45.66 44.88 46.33 44.49 45.67 45.76 44.76 44.97 43.87 43.50 42.97 43.31 41.49 40.07 40.57 40.66 40.86 40.67
50.21 50.05 51.40 51.85 49.92 46.70 48.56 50.93 49.95 45.50 46.16 46.39 46.99 47.13 47.58 50.28 52.16 53.43 53.05 51.53 51.52 52.92 52.17 46.05 42.78 38.76 38.17 41.49 41.25 41.98 44.39 46.12 46.48 45.89 45.88 46.65 45.86 45.45 45.75 45.24 45.32 45.16 44.68 44.26 43.07 42.29 41.87 41.79 41.21 41.12 41.73 41.83 41.13 42.41
50.95 51.57 51.90 52.04 51.13 47.72 48.77 48.88 51.88 47.62 45.81 47.07 48.22 48.20 48.61 49.84 51.83 50.86 50.95 50.46 50.65 51.02 48.09 44.15 43.74 44.66 46.41 46.20 46.84 46.09 47.65 47.35 47.66 45.64 45.32 46.29 45.83 45.06 44.46 43.74 44.55 44.88 43.57 43.70 44.45 43.12 42.18 41.37 41.37 42.34 42.85 42.14 41.66 41.94
51.52 51.55 51.79 49.82 47.58 47.68 47.33 47.37 48.58 49.49 48.32 46.50 48.33 49.22 48.29 51.67 52.89 50.80 50.30 52.22 49.90 49.15 46.52 49.11 48.85 48.90 48.43 50.64 51.41 49.58 46.51 45.28 46.25 45.96 46.03 44.37 46.26 45.86 45.27 45.99 44.05 41.48 41.48 42.80 41.73 42.65 42.16 41.71 41.20 42.21 42.74 41.69 42.26 43.20
50.60 53.15 50.76 49.68 50.08 51.20 48.66 50.11 47.46 48.51 46.49 47.23 47.30 47.63 46.23 45.94 47.78 48.87 51.65 51.29 49.43 50.28 50.97 50.80 50.22 51.09 50.89 50.73 50.50 47.92 47.96 47.49 46.72 44.66 44.47 45.97 45.84 44.90 44.35 46.00 44.83 42.24 41.06 41.75 43.23 41.38 40.67 41.66 42.53 42.18 41.61 41.97 42.59 42.32
50.86 50.74 50.33 51.94 50.52 45.16 43.23 50.44 47.20 48.23 44.91 45.19 47.95 44.97 44.43 46.30 48.81 53.09 48.13 49.99 50.16 51.69 52.90 53.11 53.45 53.86 53.77 52.95 51.25 50.22 48.96 48.64 46.39 43.59 43.36 43.40 44.07 44.22 42.57 42.29 43.42 41.95 41.24 41.64 43.68 42.18 41.29 41.50 43.02 42.71 41.82 41.25 41.51 41.72
51.54 48.88 49.37 48.58 47.48 42.63 48.59 46.87 49.10 47.40 47.24 45.34 45.89 45.85 47.71 49.25 52.65 50.61 46.39 48.54 50.22 51.75 51.78 51.88 52.03 51.00 50.84 49.74 49.33 48.88 48.98 47.92 45.85 46.20 46.52 45.46 43.32 43.16 43.09 42.82 42.54 43.15 43.21 44.50 43.83 42.21 42.56 42.72 42.27 42.60 43.02 42.62 42.06 41.00
44.33 42.58 43.57 37.57 47.17 46.19 45.11 45.61 46.17 45.53 44.91 46.98 46.17 46.05 46.64 51.11 48.04 47.71 47.38 47.64 50.18 51.51 52.34 51.46 51.82 51.28 49.15 48.18 47.49 48.77 49.70 48.18 46.44 46.86 47.44 46.93 46.30 41.96 42.39 41.98 41.32 41.71 42.81 45.15 42.92 42.75 42.38 42.71 43.20 43.51 43.37 42.50 41.59 42.13
39.42 44.51 41.02 45.66 45.75 44.78 45.25 45.65 46.95 45.28 47.47 46.16 48.61 49.71 49.04 46.23 45.06 44.47 48.55 49.67 50.71 52.15 53.13 53.01 53.20 52.07 51.39 51.00 48.74 49.49 51.79 51.00 48.20 46.02 45.16 45.53 46.22 44.30 42.24 41.15 41.31 41.39 42.38 45.68 43.62 43.40 43.21 44.06 45.00 44.25 42.69 40.75 39.75 41.76
39.72 43.61 47.20 48.68 46.89 46.34 46.08 47.81 50.26 49.05 47.82 46.86 49.17 47.90 47.00 43.83 43.95 48.95 51.59 51.82 50.76 52.22 53.83 55.20 54.98 54.07 50.81 49.20 51.69 52.71 51.83 49.70 47.56 47.47 45.20 43.95 43.74 44.86 44.41 42.80 41.69 42.53 43.86 45.42 45.44 45.44 44.39 43.96 43.98 43.66 42.24 42.08 41.14 42.52
45.33 46.44 43.56 46.01 47.23 47.08 44.97 44.76 45.78 45.37 49.68 49.73 48.88 45.74 44.98 45.68 44.88 50.95 53.17 54.94 55.61 55.32 53.18 49.85 47.46 49.75 49.60 49.42 50.67 49.86 48.65 46.87 45.04 44.83 44.85 42.81 42.65 43.00 42.60 42.23 42.81 42.00 44.02 44.72 44.62 44.04 44.01 43.89 43.78 43.60 43.10 42.80 41.75 42.45
44.95 47.32 46.97 44.82 46.77 47.55 47.06 46.14 45.98 46.91 50.64 48.99 47.70 47.81 49.19 52.28 54.46 53.32 52.70 54.63 55.69 52.53 46.72 46.34 47.59 47.93 49.09 48.66 48.35 50.22 49.19 46.03 42.86 40.54 39.37 38.47 38.67 40.13 40.67 41.86 41.93 42.33 42.84 42.77 41.65 42.70 43.78 42.44 43.21 43.80 44.51 42.98 42.77 42.62
44.81 47.64 45.09 45.92 45.21 44.75 47.37 49.09 48.02 50.06 51.59 51.96 52.50 52.52 53.42 54.06 54.75 54.84 55.09 54.37 53.09 49.11 49.14 47.91 45.94 44.61 44.87 46.01 45.78 45.82 44.63 45.13 45.74 43.87 40.76 39.94 41.71 42.43 42.32 42.12 41.99 41.98 41.16 40.95 40.27 39.98 40.51 40.82 39.94 40.50 41.42 42.46 42.41 41.67
47.94 47.27 45.93 45.75 45.07 47.37 49.69 50.47 51.07 51.33 52.19 51.06 52.10 51.05 50.66 52.16 55.69 57.16 56.23 54.33 49.35 48.50 47.40 46.02 44.74 44.71 43.63 42.79 42.72 42.26 41.20 42.94 45.24 45.02 44.53 43.78 45.08 44.40 43.05 42.32 42.12 42.75 43.05 42.14 41.33 39.46 38.57 39.71 41.06 41.88 41.75 42.62 43.52 42.58
48.24 47.06 47.05 45.95 46.62 49.54 50.79 49.03 48.19 47.79 50.81 50.32 49.84 51.27 51.27 51.50 50.25 52.06 55.36 55.35 50.47 46.98 46.32 46.80 45.48 44.17 45.25 45.04 45.80 44.71 43.62 44.65 44.31 46.13 47.83 47.37 46.19 44.43 44.81 43.29 43.02 43.03 44.11 43.42 42.76 41.80 41.03 41.18 41.04 42.20 43.29 44.19 44.13 44.18
48.59 48.86 48.83 47.61 46.46 48.10 50.27 49.71 49.32 49.73 50.09 49.02 51.39 52.37 52.18 50.29 45.14 49.41 54.89 54.55 51.47 48.66 47.27 47.38 47.32 47.03 47.08 47.15 46.21 45.99 46.75 48.32 46.72 44.12 44.20 43.80 44.32 43.11 43.63 43.62 43.52 44.60 44.99 43.89 43.32 42.82 43.00 42.67 42.88 43.89 44.52 44.73 45.12 45.24

GFSWCAN_sfc_wetblb_102.txt.gz
Wetbulb
53.23 53.60 53.74 53.80 54.13 54.68 54.80 54.76 54.55 53.65 54.51 55.20 56.16 56.13 54.57 55.40 55.67 51.25 50.02 51.27 47.27 43.58 45.67 48.61 48.33 44.53 44.34 41.94 39.85 40.98 40.95 41.29 38.29 36.14 35.35 30.78 30.16 32.97 33.16 34.75 33.74 34.37 30.91 30.17 29.86 29.27 29.11 45.06 45.83 40.87 43.01 48.75 54.86 53.20
53.50 53.75 54.07 54.17 54.07 54.29 54.27 54.51 54.66 53.96 53.84 55.08 55.90 55.82 54.71 55.19 55.10 53.52 48.00 51.00 51.46 47.10 46.80 49.93 51.07 49.02 48.59 48.90 43.83 40.49 41.41 39.74 40.11 37.21 36.30 35.61 32.59 33.56 30.11 27.14 37.21 34.07 36.34 35.39 35.98 34.48 41.50 44.30 43.94 46.10 45.86 48.60 50.96 51.88
53.32 53.70 54.02 54.16 54.08 54.14 54.29 54.48 54.70 54.49 53.78 54.53 55.41 55.54 54.30 54.70 54.43 52.51 46.67 48.01 49.62 47.09 46.30 46.48 46.97 49.88 49.82 48.42 48.96 44.29 42.47 42.16 39.50 41.00 39.00 37.05 35.18 35.32 30.14 31.92 34.62 38.47 39.76 38.51 38.89 41.43 43.09 44.61 46.15 47.41 49.01 49.10 51.11 51.87
53.44 53.76 54.06 53.98 54.12 54.00 54.11 54.27 54.46 54.41 53.80 54.78 55.95 53.52 53.95 54.19 53.57 52.83 46.78 48.24 49.84 48.56 42.44 45.07 52.61 47.26 49.61 49.55 49.56 47.99 45.87 43.88 42.14 40.63 38.72 36.86 37.04 38.53 33.81 35.55 34.68 38.80 38.89 37.83 38.11 41.91 43.63 45.58 45.56 46.36 49.56 50.86 51.01 52.03
53.17 53.69 53.87 53.76 53.76 53.73 53.87 54.01 54.20 54.07 53.96 54.90 54.19 53.04 53.45 53.65 52.95 50.21 47.99 50.18 50.49 49.20 44.32 44.18 47.02 47.61 47.83 49.00 49.09 48.20 46.14 43.59 41.54 41.41 39.61 37.95 38.26 38.46 37.46 38.09 35.85 40.60 38.47 36.69 37.32 41.26 41.08 42.27 45.21 46.88 47.32 49.01 50.36 50.41
53.35 53.38 53.22 53.19 53.09 53.29 53.45 53.85 54.05 53.54 53.97 53.86 52.19 52.47 52.91 52.69 52.20 51.63 49.47 52.50 49.66 50.00 45.62 41.70 46.80 46.94 49.61 49.45 48.84 47.73 46.00 43.63 42.58 41.99 38.59 39.02 40.05 38.32 34.11 29.19 38.40 42.14 43.61 41.88 41.42 44.21 44.23 45.71 46.51 48.00 46.10 47.59 49.44 49.60
53.35 53.16 52.69 53.12 53.22 53.35 53.44 53.68 53.34 53.54 53.87 51.95 51.98 52.14 52.16 51.78 48.38 50.21 49.55 51.41 50.20 49.46 46.93 41.98 41.83 46.94 49.13 47.20 46.82 45.94 45.61 44.09 43.79 39.67 38.65 38.26 37.69 38.08 34.24 30.82 38.52 42.17 43.60 44.42 45.80 44.91 43.22 45.46 44.39 46.39 47.36 48.00 49.78 48.63
53.13 52.92 52.38 52.89 53.09 52.94 52.79 52.87 53.47 53.17 51.96 51.90 51.75 51.75 51.96 52.08 51.64 51.33 50.99 51.11 49.94 49.04 48.20 41.49 41.46 43.72 47.10 44.49 43.36 45.23 43.40 43.04 41.90 38.85 38.04 36.36 34.71 38.24 31.29 36.37 38.53 41.02 41.57 42.98 44.51 45.42 44.26 45.25 45.98 46.64 47.77 46.10 46.14 45.88
52.58 52.55 52.15 52.27 52.49 52.70 53.66 53.49 52.09 52.10 51.60 51.56 51.64 52.24 52.01 50.59 50.56 51.03 55.58 53.53 51.56 49.06 45.03 43.55 40.53 39.58 46.89 44.36 44.20 44.25 42.52 39.35 40.39 37.36 36.97 36.58 33.74 26.31 34.28 35.90 38.35 40.16 41.40 41.02 43.50 43.78 44.02 44.54 45.11 45.90 47.09 44.92 43.62 43.83
51.66 52.79 52.69 53.21 53.51 53.13 52.55 51.71 51.49 51.30 51.18 51.22 51.71 51.96 48.99 52.46 56.35 55.03 51.22 48.35 47.39 47.53 46.83 44.16 44.06 42.93 45.40 43.57 43.26 42.00 40.21 37.04 34.42 37.20 38.51 34.37 33.30 36.42 37.09 37.54 39.26 41.68 43.26 43.74 41.41 40.01 41.03 42.06 43.57 45.37 45.58 46.69 47.23 46.29
50.87 51.48 52.12 52.02 51.26 51.16 51.18 51.07 51.10 50.81 51.31 50.31 51.60 51.15 52.40 53.88 50.47 47.38 44.55 43.28 43.56 42.04 43.89 45.07 44.01 43.15 45.85 42.21 40.95 40.92 37.36 36.54 30.26 34.81 35.54 33.07 33.69 38.41 42.06 39.93 39.85 41.64 42.94 44.39 44.04 43.88 43.87 43.94 43.59 45.17 47.92 49.08 48.69 48.64
51.50 50.28 50.36 50.89 51.13 50.89 50.78 50.44 50.25 47.88 45.69 47.40 47.62 47.16 48.44 48.11 44.46 41.38 40.84 42.72 42.38 41.57 43.62 42.71 43.79 43.81 43.51 43.40 42.71 39.98 37.05 36.99 32.15 38.78 35.69 29.60 37.04 40.70 43.03 42.68 43.83 43.99 44.67 44.69 45.16 44.90 45.76 46.24 45.18 45.65 46.38 47.90 49.11 50.03
51.15 51.02 50.46 50.94 51.66 51.85 51.48 50.40 50.35 50.21 48.90 48.63 48.65 46.15 45.01 43.75 35.71 39.06 38.08 39.66 40.19 43.91 44.18 43.18 42.02 42.74 41.73 42.17 40.01 38.93 37.01 35.18 40.15 35.78 33.28 36.51 39.40 41.29 43.18 44.35 44.82 44.45 44.87 45.64 46.28 46.90 47.58 47.98 47.17 46.15 45.91 48.33 49.28 48.76
51.35 51.54 50.94 50.79 51.53 51.89 51.71 51.58 50.55 48.60 48.65 47.59 45.25 35.87 41.48 39.30 41.74 41.77 42.38 42.73 45.59 45.32 43.89 42.93 42.15 41.79 40.95 39.84 38.80 37.00 38.35 39.77 35.33 31.03 34.05 38.23 40.18 42.13 43.62 44.74 44.25 43.86 44.37 45.09 45.81 46.83 47.31 47.76 47.58 48.21 46.84 46.56 46.26 45.51
51.42 51.50 51.42 51.49 51.24 51.05 50.99 51.16 50.19 47.18 48.23 46.42 46.40 38.41 41.85 44.92 45.83 47.29 47.04 46.97 47.95 46.37 44.47 43.85 43.17 41.79 39.34 39.35 39.55 39.03 37.69 35.99 36.29 35.04 37.44 39.49 40.56 42.46 43.52 44.18 43.78 43.80 44.20 44.61 45.40 45.95 46.88 48.21 48.05 48.57 49.08 48.30 48.65 47.54
51.69 51.53 49.75 50.99 51.03 50.99 49.97 48.44 46.56 47.49 48.08 46.83 46.13 43.23 43.85 44.40 44.46 45.72 45.70 45.39 46.76 43.90 43.27 43.32 40.62 39.40 39.31 39.41 38.72 38.30 37.48 34.61 37.01 38.61 40.21 40.96 42.21 42.83 43.46 44.41 44.93 45.16 44.67 45.85 46.84 48.12 48.43 47.49 47.44 47.50 48.06 47.01 46.68 47.00
51.96 50.15 51.03 51.05 51.46 50.79 50.28 47.99 47.78 46.52 45.59 46.66 44.06 44.48 44.62 44.95 45.35 45.05 46.77 47.43 44.88 43.45 41.84 40.83 39.38 39.35 39.56 37.91 37.27 39.66 37.64 39.67 40.67 40.58 41.20 42.79 43.54 43.70 43.79 44.37 44.83 45.38 45.19 44.97 46.50 47.16 46.62 45.86 44.59 44.62 44.55 43.90 42.72 42.93
51.08 51.25 51.10 51.15 50.29 49.34 48.55 46.45 47.93 48.08 45.06 45.98 42.38 41.75 43.25 44.56 44.83 45.40 46.51 47.82 48.74 45.88 43.54 42.38 40.91 37.91 36.84 35.93 35.76 38.02 39.19 40.28 42.84 42.92 43.65 43.62 45.30 44.09 44.49 43.97 45.09 45.14 44.79 44.14 44.36 44.18 44.65 44.15 43.76 43.73 42.98 41.95 41.96 42.15
48.84 49.38 50.94 51.05 50.12 44.92 45.60 47.92 46.12 42.03 43.82 44.89 44.37 43.35 43.51 43.95 44.85 46.57 48.02 49.10 49.39 49.40 48.51 44.57 43.58 37.72 38.50 38.67 39.80 40.17 39.73 43.11 43.93 45.42 45.98 45.72 45.44 44.67 44.76 44.71 45.06 43.97 43.53 43.36 42.45 43.27 43.81 44.03 42.93 41.52 41.26 41.53 41.85 42.63
51.05 51.40 51.95 51.70 50.69 45.35 45.40 46.11 48.65 44.28 42.89 44.49 44.14 43.77 43.30 43.86 46.28 47.92 47.87 48.05 48.41 47.39 45.28 43.89 42.29 42.79 41.91 42.46 42.49 43.47 43.07 45.52 46.01 45.78 44.58 44.89 45.07 44.08 43.79 44.23 43.58 42.99 42.44 42.47 42.19 41.06 40.95 40.67 40.96 41.20 42.15 42.31 42.17 42.48
49.00 49.42 50.72 47.66 45.62 45.36 44.69 44.31 45.19 46.42 46.67 45.29 45.30 45.33 45.47 46.22 48.11 47.20 46.68 47.44 46.06 45.81 44.89 46.28 45.64 46.24 45.55 44.87 44.83 45.78 47.50 48.61 48.69 49.28 46.16 45.05 45.05 45.34 44.22 43.68 42.94 42.48 42.11 41.93 41.78 41.36 41.42 41.83 41.72 42.42 42.87 42.52 42.86 43.33
46.95 51.84 47.38 48.08 47.22 47.74 43.66 45.64 44.21 45.58 43.93 43.57 43.56 43.74 42.55 42.13 42.65 45.85 47.42 46.47 46.10 47.39 47.46 47.71 47.97 49.86 47.63 48.21 50.86 50.47 50.12 50.69 50.40 47.38 45.73 46.24 44.38 43.67 42.99 43.47 42.53 42.09 42.41 43.20 43.60 43.14 42.59 42.59 42.36 42.98 43.05 42.77 42.22 42.79
49.14 48.55 46.81 47.89 47.98 45.13 42.40 48.32 45.90 46.03 42.63 42.75 43.72 42.65 41.51 41.54 43.86 47.62 45.33 46.20 46.99 48.05 49.04 49.31 49.92 50.85 51.18 51.83 51.10 49.39 47.59 47.64 47.11 47.98 46.97 47.56 46.97 46.32 44.87 44.18 43.76 43.36 41.92 41.52 42.67 42.73 42.51 41.10 41.60 42.88 43.05 42.51 42.60 42.31
49.49 46.27 44.91 43.77 43.80 39.69 45.77 44.84 46.29 44.92 44.61 43.52 41.46 41.81 42.92 45.22 47.04 45.59 43.86 45.58 47.62 49.10 49.28 49.95 50.33 49.51 49.18 49.77 48.60 49.23 49.16 47.44 46.46 45.57 45.07 45.17 44.47 44.75 45.90 45.41 44.74 46.10 44.38 42.71 41.77 41.75 42.19 42.61 41.45 42.50 42.68 42.21 42.42 42.54
40.57 38.31 40.84 35.40 43.43 45.81 43.58 43.79 44.00 43.85 43.08 43.61 43.44 43.53 43.78 45.41 42.84 42.70 42.76 45.45 48.08 49.27 50.74 51.74 51.24 49.81 49.52 48.06 47.37 46.90 45.66 44.29 43.53 43.48 43.15 45.19 43.32 41.66 41.68 43.87 44.69 45.04 43.40 42.42 41.15 41.75 41.83 42.23 42.81 42.92 43.22 43.04 42.67 42.76
37.37 39.98 39.74 42.88 43.40 43.21 43.96 43.36 44.14 44.54 43.23 42.33 44.10 45.58 45.12 43.03 41.89 41.87 44.25 47.85 48.74 50.45 51.66 52.30 51.93 51.53 50.53 50.82 49.37 47.10 46.97 47.23 48.51 47.48 47.72 47.39 45.12 43.71 43.60 42.47 41.82 40.90 42.26 44.67 44.11 43.09 42.87 43.03 43.31 43.34 43.13 43.40 40.40 42.97
35.74 38.29 42.73 45.75 44.77 44.56 42.91 44.86 48.49 45.87 44.69 44.72 45.70 44.44 43.33 41.13 42.46 46.14 47.69 49.74 49.61 50.51 51.52 52.22 53.20 53.20 53.17 50.75 51.40 51.26 49.75 51.12 51.60 51.87 52.27 49.07 46.36 45.33 44.74 44.23 43.03 43.98 43.20 44.71 44.91 45.21 44.23 43.92 44.25 44.41 43.99 44.13 43.18 43.43
41.61 42.04 40.43 42.82 43.80 44.82 43.24 42.95 43.25 43.10 46.08 46.60 47.22 44.81 44.39 44.06 43.87 47.96 49.89 51.86 52.39 52.38 52.22 52.70 51.77 49.68 49.11 51.20 51.08 49.99 49.12 45.09 43.28 42.30 42.02 41.77 40.46 41.82 43.01 43.72 44.04 39.72 43.97 45.57 45.48 45.52 45.63 45.27 45.10 45.16 44.71 43.91 42.94 42.51
41.77 43.96 43.35 40.92 42.21 42.95 43.97 43.51 43.24 45.66 47.74 47.58 44.57 43.64 45.09 48.29 51.37 51.55 51.12 50.94 51.80 47.60 45.44 45.59 45.76 46.26 44.87 44.46 44.99 45.38 45.05 44.42 43.01 40.44 40.38 39.51 40.25 41.95 41.75 42.67 42.28 42.33 42.74 43.27 40.47 43.32 45.78 45.44 45.44 45.48 45.82 44.80 44.20 43.87
40.44 43.93 41.87 42.48 42.52 42.42 44.87 46.02 45.61 47.19 48.37 48.09 48.15 49.33 49.07 49.34 51.43 51.94 51.65 49.21 48.35 46.97 47.06 46.43 46.68 46.15 44.28 43.92 42.32 42.84 42.58 42.20 43.71 43.44 40.75 40.06 41.32 42.53 42.53 42.81 42.49 41.94 42.04 42.49 41.86 41.04 39.48 42.06 41.33 43.69 43.53 43.40 43.33 43.19
43.43 42.63 41.70 41.73 41.32 43.61 46.20 46.88 48.37 50.29 50.03 49.19 49.79 48.76 48.14 49.04 50.20 52.12 52.43 50.59 47.50 47.48 46.60 44.99 44.48 44.47 44.72 42.76 42.96 42.89 42.38 43.32 42.43 43.55 43.86 43.34 42.81 42.98 43.07 43.26 42.40 42.14 42.40 42.02 41.71 41.58 41.29 41.51 41.89 42.89 43.68 43.62 43.49 42.70
42.89 42.25 41.92 41.17 42.07 45.71 46.81 45.53 46.82 49.02 48.30 47.59 47.42 48.70 48.89 48.06 46.74 49.22 51.81 51.98 51.73 49.75 44.73 44.68 43.53 43.13 42.90 42.51 43.27 43.49 41.22 44.31 44.07 44.01 44.49 43.35 43.66 43.92 43.12 43.48 42.89 42.36 42.27 41.88 41.25 41.26 42.25 42.32 41.68 41.97 42.28 42.80 43.48 44.12
46.09 44.64 43.74 44.98 45.76 46.44 48.61 48.32 49.36 48.25 47.76 47.02 47.24 48.63 48.74 46.29 44.56 47.87 50.23 51.47 51.32 50.40 47.21 45.52 45.48 44.82 45.15 45.62 44.60 43.86 41.33 43.29 42.95 40.53 41.19 41.22 41.04 41.93 43.85 42.92 43.19 43.63 43.66 42.68 42.13 41.49 41.08 41.82 41.92 42.70 43.10 43.71 44.53 45.38

GFSWCAN_sfc_wetblb_105.txt.gz
Wetbulb
52.98 53.59 54.19 54.29 54.63 54.53 54.53 54.79 54.75 55.12 54.79 54.05 55.35 56.07 55.96 54.74 55.38 54.43 55.96 56.20 54.47 51.76 53.06 52.94 51.96 50.72 50.03 49.63 48.17 47.81 48.07 48.51 48.31 45.37 45.25 43.95 43.97 44.87 42.67 42.54 42.14 42.28 40.59 41.18 39.13 39.08 37.55 50.21 50.68 46.94 50.33 53.24 56.37 60.02
52.39 53.31 53.85 54.27 54.38 54.43 54.23 54.59 54.73 54.92 54.81 54.02 54.66 55.71 55.65 54.82 55.02 54.31 54.36 55.07 55.51 53.43 53.25 54.94 56.04 54.39 53.05 53.90 51.19 48.37 49.34 47.63 49.76 47.27 46.16 45.26 44.42 43.82 41.34 40.34 45.06 42.31 44.88 44.36 43.78 43.77 49.38 50.91 49.96 52.37 52.32 51.99 55.59 58.62
53.28 53.41 53.75 53.96 54.34 54.24 54.35 54.33 54.57 54.77 54.83 54.02 54.47 55.51 54.92 54.57 54.31 53.42 53.07 53.20 55.04 53.43 53.43 53.61 52.31 55.43 55.45 53.97 54.88 52.40 50.77 49.49 48.75 49.35 49.13 47.15 43.81 45.56 42.99 43.27 44.20 46.12 46.51 46.81 46.01 47.72 49.31 50.91 53.14 54.12 54.29 54.02 55.51 57.64
53.04 53.61 54.10 54.08 54.18 54.01 54.03 54.25 54.33 54.61 54.73 53.96 54.71 56.07 53.72 54.14 53.75 53.07 53.95 53.63 55.63 53.13 49.75 50.91 55.91 53.65 55.02 55.79 54.53 54.07 52.13 50.26 49.71 50.70 48.95 47.81 46.70 45.93 45.10 45.23 45.35 47.67 47.03 45.95 46.53 49.21 49.89 50.31 51.46 52.46 54.12 55.23 55.84 56.39
53.15 53.61 54.02 53.80 53.77 53.65 53.96 53.94 54.25 54.47 54.41 54.12 55.06 53.69 53.19 53.63 52.85 53.45 53.99 54.67 55.40 54.33 50.10 50.82 52.84 53.94 54.91 55.61 54.29 54.32 53.70 52.56 51.75 50.45 49.29 47.14 47.56 47.31 46.81 46.77 46.09 48.65 47.73 47.40 46.90 48.74 49.95 49.50 51.27 51.80 52.55 53.66 55.41 55.30
52.75 53.45 53.50 53.19 53.23 53.49 53.46 53.60 53.83 54.39 53.94 54.27 53.67 52.39 52.78 52.66 52.15 56.41 54.32 55.77 54.50 55.66 53.22 48.12 53.36 53.06 54.61 55.56 54.60 53.60 53.01 51.39 51.57 50.33 47.65 47.40 46.08 46.85 45.56 44.59 46.70 48.81 49.44 49.07 48.85 50.44 49.81 51.43 51.31 51.64 51.50 53.65 54.86 55.88
52.16 53.27 53.13 52.86 53.47 53.63 53.49 53.59 53.87 53.44 53.83 53.33 51.70 52.05 52.06 51.66 52.98 54.98 53.27 54.87 52.55 55.85 54.00 48.89 49.26 53.12 54.00 54.07 53.57 53.53 52.69 50.92 51.35 48.68 48.40 48.23 46.70 47.24 44.48 43.73 46.08 49.88 50.57 50.75 51.38 50.92 49.66 50.39 50.18 52.00 52.00 51.95 52.78 54.80
51.76 53.16 52.52 52.65 52.83 52.79 52.73 52.85 53.17 53.81 52.89 51.87 51.68 51.57 51.73 51.76 52.62 54.39 56.47 52.37 53.97 55.54 54.76 48.40 48.57 50.27 53.65 52.18 51.45 51.91 51.58 51.76 48.68 47.63 47.17 46.97 44.99 43.23 38.32 46.77 46.73 49.11 48.59 48.95 50.07 51.10 50.36 51.09 51.63 51.99 52.24 51.43 52.59 52.80
51.72 52.63 52.87 52.76 52.94 53.33 53.68 53.92 53.03 51.83 52.01 51.39 51.53 52.16 54.19 54.34 55.54 55.75 55.13 55.21 57.38 55.14 52.16 51.14 47.56 46.46 53.73 51.31 52.19 51.51 50.96 48.31 47.85 47.00 46.13 45.58 40.83 35.30 45.73 46.43 46.61 48.82 47.86 48.31 49.80 50.07 49.76 49.41 50.00 50.88 51.24 50.51 51.32 51.97
51.64 51.58 52.74 53.06 53.01 52.92 52.27 51.96 51.62 51.36 51.16 51.34 52.63 52.88 53.12 55.07 56.38 56.52 56.30 53.95 53.93 54.12 54.01 51.93 50.99 49.37 52.27 51.32 49.80 49.85 48.88 46.79 43.93 45.31 46.06 44.42 43.95 47.36 46.63 46.98 49.20 49.01 49.61 50.39 48.33 47.43 48.47 48.70 49.39 49.86 50.54 51.02 51.15 51.33
51.84 50.87 51.33 51.31 51.15 51.07 51.03 50.94 50.94 50.86 51.77 54.45 53.63 53.03 54.52 54.05 55.44 53.29 50.69 48.87 49.71 48.89 51.31 52.15 51.42 49.90 52.96 49.35 49.05 48.71 46.60 45.84 42.27 43.78 44.14 43.36 42.94 47.08 49.26 48.30 47.86 50.02 50.66 50.72 51.09 50.77 50.46 49.98 49.52 49.59 50.58 51.10 51.33 50.98
51.55 51.30 50.34 50.32 50.82 50.93 51.07 50.43 50.04 51.39 50.05 49.69 49.62 50.50 53.14 52.81 50.10 47.96 47.15 48.42 48.17 47.25 49.80 50.02 50.40 51.83 50.46 51.88 49.80 47.52 45.35 44.86 39.55 45.84 43.78 41.18 46.63 50.10 49.64 48.61 48.09 49.97 50.79 50.47 50.79 50.48 50.52 50.30 50.40 50.73 51.91 51.81 52.11 52.82
51.55 51.37 50.94 50.66 51.67 52.10 51.87 51.46 50.44 50.17 50.17 51.24 53.49 50.86 50.07 48.92 40.95 42.94 41.83 45.46 46.58 49.52 49.87 49.28 48.25 50.94 49.03 50.64 47.68 47.52 43.41 42.57 46.36 43.56 42.22 45.21 49.98 49.67 50.41 50.15 49.56 51.36 50.58 50.64 50.40 51.28 51.38 51.26 51.49 51.39 51.43 52.72 52.70 51.99
51.24 51.55 51.53 51.12 51.65 51.71 51.47 51.55 50.48 50.36 51.88 52.04 49.02 36.53 45.13 44.30 45.69 46.99 47.69 49.17 51.85 51.68 50.26 50.76 48.61 49.90 49.31 47.87 47.41 43.14 44.54 45.49 40.77 39.34 41.24 48.30 51.72 51.67 50.71 51.08 50.47 49.18 49.84 50.46 50.98 51.30 51.68 52.16 52.39 52.68 52.15 52.49 52.57 52.44
51.24 51.61 51.69 51.29 51.43 50.94 50.87 51.13 50.19 50.73 52.11 49.49 49.93 40.44 45.53 49.72 50.81 51.91 51.55 51.73 53.13 52.67 50.74 49.74 49.36 50.45 47.48 45.44 46.81 44.42 41.59 40.34 42.23 42.25 46.74 50.58 51.81 51.02 50.52 50.75 50.60 49.80 49.76 50.44 51.53 51.40 51.88 52.33 52.07 51.07 51.96 52.34 51.97 51.33
51.51 51.88 50.65 51.04 51.44 51.44 50.31 49.60 49.99 51.70 51.59 49.54 49.46 47.51 49.30 48.69 50.07 50.97 51.22 51.66 53.01 51.57 51.25 52.17 48.38 46.79 45.90 46.61 43.61 42.74 41.72 40.96 45.06 48.63 51.42 50.00 50.77 50.68 51.36 51.71 51.35 51.19 50.67 51.10 51.56 52.15 52.17 51.43 52.15 51.65 50.82 51.19 51.84 52.98
51.26 52.45 51.18 51.09 51.17 50.81 50.53 52.17 51.38 48.48 47.88 47.96 47.41 50.41 49.73 49.38 50.07 51.55 52.46 52.57 52.61 50.96 49.18 49.29 45.99 45.30 46.41 44.55 43.19 46.41 44.78 48.29 50.84 50.74 50.21 50.35 52.07 51.61 52.12 52.20 51.91 51.34 51.24 51.50 51.85 51.81 50.82 51.65 51.91 51.53 50.87 51.99 51.36 50.56
50.66 52.57 51.31 50.81 51.05 50.87 52.43 50.93 51.09 50.24 46.61 48.93 46.79 47.83 48.67 50.00 50.03 50.60 51.75 51.97 50.94 50.55 49.38 49.03 48.87 44.84 44.16 42.97 44.74 48.88 49.95 51.48 50.43 50.78 51.56 50.99 51.94 52.25 52.12 52.67 52.73 52.59 52.40 52.30 52.35 51.70 51.92 51.24 50.85 50.93 51.87 50.69 49.48 48.96
50.50 51.01 51.29 51.32 51.20 49.28 48.64 50.56 49.71 45.56 47.69 50.26 49.97 49.85 48.90 50.07 50.84 51.22 52.61 53.33 54.76 54.34 50.48 48.12 47.81 46.32 47.37 48.32 48.91 50.62 49.92 48.33 50.66 51.48 50.85 50.54 51.17 51.81 52.04 52.58 52.17 51.53 51.58 51.55 51.53 51.49 51.66 52.33 51.93 51.52 50.73 49.04 48.85 48.95
51.00 51.11 51.83 52.11 51.42 48.79 46.71 48.94 52.09 47.77 46.45 49.56 49.53 48.27 48.93 49.85 51.73 52.80 52.28 52.74 54.18 53.77 50.96 49.44 49.63 51.64 51.23 53.22 52.36 52.59 51.75 50.79 50.83 50.42 49.41 49.54 50.29 51.03 52.16 52.02 51.25 51.98 51.39 50.93 50.95 46.76 50.69 50.56 50.78 50.36 49.78 49.36 48.88 48.40
49.80 51.40 51.02 50.74 50.05 49.79 48.68 48.61 49.22 50.61 50.91 49.83 51.83 50.88 51.16 51.28 51.70 51.96 52.04 53.69 52.51 52.08 50.74 53.13 54.00 56.21 56.15 53.75 52.36 51.08 51.09 52.22 53.14 54.12 51.24 52.48 52.03 50.72 50.66 51.88 51.98 50.77 50.12 49.91 49.82 49.25 46.18 49.73 50.46 49.43 49.18 49.05 49.58 50.03
50.14 51.50 51.53 50.64 49.95 49.46 47.79 50.20 48.30 50.11 48.54 49.77 48.61 49.86 49.09 48.25 49.18 51.34 52.63 51.39 51.43 53.77 54.12 54.99 55.65 55.85 55.45 54.92 54.97 54.15 54.64 54.31 54.29 52.26 49.32 49.66 50.31 49.94 49.98 50.52 50.25 49.78 49.54 50.17 50.49 50.66 50.76 50.46 50.10 49.88 49.54 49.11 47.38 49.41
49.79 50.24 50.76 49.93 47.46 45.51 44.56 52.32 49.43 50.63 46.94 47.46 48.60 47.21 47.03 47.79 49.18 52.63 50.61 52.44 53.77 55.32 55.73 55.98 56.48 56.25 56.12 56.81 55.63 55.18 54.07 53.58 53.32 53.30 51.81 51.03 53.27 53.06 51.91 50.93 50.64 50.67 49.84 50.68 51.70 51.78 51.02 46.88 46.79 49.58 49.62 48.72 48.98 48.59
49.65 49.05 47.27 46.80 44.82 41.52 49.43 47.79 50.07 49.09 48.91 47.89 46.84 45.59 47.30 50.46 52.60 51.42 50.29 52.69 54.46 56.25 55.88 56.32 56.13 55.86 55.53 55.12 55.29 54.49 53.53 53.27 52.79 51.79 51.66 49.97 51.43 51.36 51.58 50.84 50.96 52.45 52.56 52.43 50.71 50.34 50.14 49.77 46.50 48.86 49.07 48.68 48.73 48.38
42.08 42.28 42.76 34.86 46.58 46.25 45.40 45.71 47.01 47.02 45.67 47.31 46.38 47.74 49.56 51.36 48.92 48.50 48.73 52.15 54.49 55.50 56.21 56.87 56.84 56.33 55.60 54.96 53.85 52.84 52.17 52.33 51.52 50.49 50.44 52.29 52.00 50.57 50.31 51.65 51.91 52.47 52.59 50.92 49.75 49.59 49.76 50.06 49.58 49.45 48.71 48.35 48.05 48.36
37.54 42.68 39.55 44.00 45.44 45.49 46.00 44.22 45.45 46.09 46.99 46.09 47.76 50.75 50.64 49.08 45.69 45.64 50.21 54.31 55.32 54.79 54.43 54.90 55.61 54.83 54.14 54.67 53.96 51.57 50.83 50.93 51.22 50.23 49.57 49.86 50.18 50.90 50.86 50.34 50.31 50.97 51.68 52.66 52.52 50.67 49.91 49.67 49.36 49.22 48.67 47.69 41.99 47.70
35.91 40.81 45.64 48.66 48.48 47.97 46.43 47.36 48.33 48.11 46.16 46.48 48.39 48.08 47.63 43.73 44.67 50.46 54.24 55.64 55.16 56.40 56.90 56.66 56.40 56.03 55.83 55.41 55.94 56.57 54.42 53.77 53.99 54.60 53.81 52.32 51.83 54.04 54.51 53.30 51.95 53.15 50.01 51.52 52.52 52.01 50.43 49.56 49.27 48.97 48.75 49.32 49.50 49.25
44.36 45.26 42.19 46.34 47.24 48.83 45.79 46.59 46.13 46.16 48.13 50.29 50.97 46.92 45.89 46.54 47.93 53.74 55.74 57.36 57.55 56.39 54.62 54.75 53.65 54.60 53.15 54.54 55.36 53.99 52.76 51.43 50.43 50.71 50.51 50.49 51.09 52.27 51.63 52.23 51.74 41.05 50.59 51.54 51.30 51.42 51.34 50.71 50.04 49.76 49.11 48.90 49.38 50.19
44.65 47.88 46.96 43.92 45.35 46.47 47.25 47.19 48.14 49.96 51.61 52.28 49.86 48.61 49.13 52.67 56.07 56.62 56.83 55.89 55.79 53.39 51.05 50.91 49.49 48.85 49.12 51.59 52.66 52.97 51.87 52.41 52.51 50.98 49.62 49.71 49.74 49.86 50.80 50.81 50.84 50.07 50.50 49.98 41.45 46.32 50.82 50.55 50.69 50.62 50.46 50.11 50.61 50.61
44.20 47.80 44.82 44.86 44.02 43.95 48.72 50.98 51.53 52.19 53.35 53.32 53.42 54.43 54.41 55.01 56.91 57.37 56.32 53.34 53.17 50.65 50.49 51.60 51.75 50.37 48.82 49.75 50.19 50.62 51.16 52.07 52.94 52.06 49.74 49.06 49.49 50.39 50.16 49.96 50.01 50.23 49.96 49.69 49.23 48.34 40.35 46.63 44.53 49.02 48.60 49.60 49.46 49.22
47.45 46.07 44.39 44.55 44.55 48.16 50.66 52.26 52.76 54.77 54.97 54.22 54.32 53.59 53.34 54.70 56.23 57.57 56.01 55.11 53.31 51.83 49.46 50.15 50.55 51.18 51.52 51.57 52.31 52.59 52.79 53.03 51.44 50.54 51.35 51.20 50.72 50.22 50.23 50.50 50.52 50.33 50.10 49.32 49.18 48.85 48.36 48.26 48.57 48.43 48.44 48.52 48.71 47.56
46.07 44.77 44.45 43.58 45.36 49.23 49.84 48.52 50.15 52.10 52.37 51.94 52.37 53.78 53.86 53.10 51.11 54.76 56.91 56.76 55.50 52.81 48.00 50.47 51.51 50.59 50.72 50.41 51.34 51.84 41.46 50.77 51.72 51.05 50.72 51.07 50.83 50.66 50.73 50.33 49.72 49.61 49.17 48.81 48.69 48.69 48.52 47.96 47.91 48.05 48.14 48.05 48.42 48.45
46.85 46.88 46.88 46.49 47.09 47.96 50.17 50.84 50.87 50.48 51.49 51.10 51.96 53.36 52.79 50.94 48.64 53.81 55.41 55.34 55.27 55.37 54.88 53.04 52.74 52.31 51.35 51.22 50.95 50.79 45.43 50.69 47.17 40.82 41.25 41.45 42.00 45.23 48.62 48.88 48.94 49.45 49.02 48.56 48.14 47.84 47.48 47.42 47.23 47.29 47.18 47.56 48.02 48.28

GFSWCAN_sfc_wetblb_108.txt.gz
Wetbulb
53.34 53.44 53.11 53.85 54.54 54.87 54.97 54.85 54.82 54.91 55.01 55.46 54.34 55.35 55.67 55.62 55.24 55.74 61.42 62.94 59.43 56.89 55.93 56.24 54.99 54.12 54.57 54.86 51.05 52.95 51.92 52.28 51.29 47.88 46.90 48.18 46.75 50.02 46.29 48.51 46.75 46.50 44.52 44.33 46.36 41.67 40.70 53.96 53.81 50.34 53.85 57.13 57.87 60.88
53.40 53.44 53.79 53.98 54.39 54.57 54.89 54.69 54.76 54.95 54.84 55.45 54.37 54.78 55.40 55.28 54.81 54.23 59.48 61.92 61.81 57.97 57.10 59.68 58.39 57.19 56.69 56.81 56.02 55.05 53.01 51.62 53.40 51.74 51.18 52.03 48.01 48.97 46.27 43.86 50.55 45.56 49.23 47.79 47.06 47.57 52.95 54.74 54.37 57.10 58.33 57.67 57.53 60.98
53.06 53.31 53.66 54.17 54.41 54.59 54.67 54.64 54.54 54.78 55.03 55.31 54.57 54.71 55.66 54.63 54.29 53.51 59.59 61.39 60.19 58.16 56.28 56.32 55.73 58.54 60.04 58.79 59.42 53.68 55.70 55.02 55.17 56.35 54.61 53.56 46.27 51.46 45.64 46.97 47.32 50.21 52.42 50.45 49.08 51.82 52.52 53.45 56.36 57.31 58.35 58.81 60.22 61.67
52.92 53.50 54.03 54.37 54.41 54.25 54.32 54.30 54.40 54.52 54.74 55.19 54.43 54.55 55.59 53.84 53.97 52.69 59.51 61.07 60.23 58.87 53.26 54.02 59.30 57.51 59.62 60.14 59.09 58.88 57.81 57.31 56.49 56.61 53.53 51.95 50.08 52.51 50.79 50.37 49.04 52.21 52.03 48.88 49.08 52.87 53.60 54.14 55.58 56.76 57.85 59.31 59.77 60.07
52.36 52.82 53.37 54.00 54.03 53.61 53.71 53.93 54.32 54.42 54.52 54.99 54.32 55.17 53.94 53.39 53.44 55.24 60.60 61.82 61.89 58.15 53.62 53.46 57.69 58.28 59.52 59.69 58.43 58.57 57.86 57.54 56.34 53.23 52.01 51.44 54.20 51.81 53.52 52.11 48.97 52.88 50.25 48.95 49.65 53.82 54.98 53.94 55.11 56.32 56.51 57.74 59.32 59.10
52.19 52.37 53.02 53.75 53.32 53.62 53.98 54.10 53.94 54.14 54.63 54.34 54.38 54.46 52.97 53.07 52.48 59.82 55.81 61.22 62.08 62.24 56.48 50.63 57.39 56.75 58.39 59.06 58.53 57.98 57.81 57.30 57.21 54.44 54.45 54.50 52.32 52.23 49.18 49.41 51.69 53.40 54.03 54.35 53.60 55.62 54.35 55.69 55.38 55.83 55.80 57.48 58.73 59.14
52.21 52.31 53.37 53.21 53.42 53.56 53.81 53.90 53.88 54.14 53.98 54.28 53.70 52.32 52.53 52.13 56.27 57.62 55.61 58.00 55.38 61.70 57.19 52.20 51.98 56.73 58.22 58.12 58.77 58.25 58.81 57.91 56.45 55.90 54.64 54.54 52.41 51.27 51.06 47.46 50.27 53.11 55.19 54.99 55.51 55.16 53.96 54.14 54.72 55.48 55.93 56.25 56.04 59.19
52.42 52.08 53.15 53.12 53.19 53.29 53.20 53.06 53.26 53.43 54.12 52.98 52.02 52.09 51.90 51.96 52.74 56.88 59.97 55.33 57.46 59.89 59.52 51.68 52.08 53.22 57.81 54.89 54.11 59.28 56.69 57.12 55.81 55.38 54.17 52.91 51.89 51.94 44.06 51.21 52.11 53.84 54.20 54.04 54.31 55.34 54.72 55.96 55.79 55.80 56.31 55.58 56.33 57.15
52.19 51.84 52.78 53.47 53.91 53.79 53.76 54.07 53.92 52.70 52.44 51.86 51.67 52.05 56.28 57.10 57.78 58.98 55.05 55.68 63.08 59.24 54.20 53.64 50.27 49.33 57.00 56.75 57.94 55.80 57.22 52.03 55.63 52.27 52.39 50.97 48.00 37.76 48.98 51.52 51.63 53.08 51.98 50.86 52.25 52.65 52.64 51.78 52.92 53.72 54.56 54.61 54.82 56.57
51.98 51.48 51.96 52.07 51.65 51.50 51.32 51.42 51.54 51.58 51.40 51.48 53.84 55.56 53.92 58.65 55.09 56.64 58.46 55.38 56.14 57.28 57.62 53.68 57.70 51.98 55.43 54.78 53.90 54.18 55.39 52.70 47.69 50.55 52.59 48.42 48.44 52.48 52.84 52.25 53.77 53.85 53.12 52.88 50.40 49.67 50.67 50.40 51.32 52.22 52.67 54.51 55.37 55.84
51.92 51.60 50.99 51.32 51.37 51.20 51.23 51.16 51.19 50.95 50.51 54.75 54.83 55.41 59.14 54.88 58.70 56.69 52.06 50.02 51.39 50.31 53.89 54.75 55.10 53.11 58.62 52.13 52.15 55.40 52.49 52.32 45.84 48.59 47.75 48.08 46.89 50.70 54.07 52.71 54.04 54.54 54.51 54.37 54.02 54.27 53.37 52.81 52.58 52.52 53.01 54.53 54.86 55.52
51.68 51.42 51.07 50.53 50.71 51.38 51.98 51.79 50.41 53.74 54.82 51.86 55.19 55.81 59.00 56.88 54.10 49.95 48.94 51.32 49.64 47.55 53.55 52.59 54.15 56.82 55.45 58.55 53.85 52.57 49.87 49.67 42.85 50.91 47.33 45.05 49.66 54.08 54.12 53.12 53.18 54.95 54.67 53.48 53.91 52.84 52.86 53.17 53.69 53.92 55.03 54.84 55.04 55.66
51.26 51.66 51.53 51.06 51.20 52.01 52.27 51.98 50.74 50.70 50.95 51.79 53.45 51.46 50.45 49.82 43.76 44.61 43.45 46.80 48.78 52.64 54.27 53.99 52.23 54.74 54.52 55.84 53.83 50.66 45.46 45.44 51.92 46.61 45.49 47.91 53.60 54.76 55.21 54.26 53.35 54.89 54.26 53.65 53.12 53.72 53.83 53.85 54.58 55.12 54.95 55.75 55.80 55.88
50.94 51.50 51.77 51.55 51.60 51.77 51.51 51.39 51.29 51.42 50.67 52.73 49.13 40.11 46.20 45.77 47.74 48.74 49.33 50.88 54.85 55.42 54.56 54.34 53.19 52.95 54.54 51.35 52.17 45.34 49.45 49.68 44.10 42.35 43.88 49.57 54.03 55.77 55.54 55.64 54.12 53.48 53.28 53.16 53.20 53.50 53.67 53.98 54.22 54.81 55.02 55.76 55.84 55.32
51.04 51.53 51.93 51.43 51.65 51.45 50.76 51.43 50.83 51.83 52.67 50.65 51.06 43.90 47.77 52.22 55.41 55.96 56.02 56.01 56.99 57.41 55.59 54.21 53.80 53.59 51.00 49.04 50.32 48.88 44.75 42.82 45.19 45.09 49.44 53.12 56.95 56.93 55.68 55.57 54.94 53.62 53.29 53.42 53.66 53.13 53.27 54.34 54.29 54.24 55.20 55.53 55.89 55.73
51.23 51.36 51.52 51.21 51.73 51.58 51.09 50.64 51.66 51.47 51.41 51.49 51.55 50.38 53.99 52.16 52.59 54.34 54.47 55.09 57.91 56.36 56.45 55.00 51.32 49.07 47.95 50.03 46.70 45.14 43.82 43.11 48.02 51.06 54.25 56.96 57.22 56.76 56.51 56.51 55.84 54.73 54.06 54.13 54.15 53.71 53.99 54.13 53.85 54.13 55.77 55.80 55.18 55.36
50.87 52.73 51.30 51.14 51.34 51.16 50.98 54.11 53.47 49.95 47.78 49.01 49.92 53.89 53.52 54.03 54.31 55.16 56.41 56.82 58.75 55.33 51.51 52.71 47.84 47.20 52.96 47.96 46.31 50.26 47.64 51.16 54.81 55.85 57.31 57.52 57.56 57.51 57.45 56.83 56.16 55.11 54.49 54.76 54.84 54.33 54.45 55.34 55.39 54.77 53.94 54.76 54.79 54.27
49.91 52.66 51.41 51.28 51.95 52.49 55.47 53.61 51.23 49.36 46.47 49.63 48.37 50.80 52.50 53.74 55.48 55.03 55.98 57.21 56.39 55.27 54.65 51.69 54.99 48.84 47.35 45.78 48.07 52.15 53.90 54.98 56.59 56.60 57.32 57.33 57.99 57.89 56.82 56.67 56.66 55.73 55.35 55.61 55.66 55.70 55.10 54.02 53.42 53.25 54.26 54.82 53.40 53.01
50.90 51.24 51.51 51.47 52.34 52.34 51.40 52.11 52.94 47.50 48.85 51.24 52.59 53.10 52.98 53.15 55.19 56.06 56.99 57.26 58.47 59.39 57.07 54.35 50.58 49.18 50.03 52.83 52.75 54.04 55.35 55.62 54.83 57.05 56.29 56.81 56.41 55.47 55.94 57.28 57.38 56.69 56.61 56.64 56.27 55.41 55.38 55.81 54.57 53.48 52.68 52.43 50.89 52.13
50.93 51.17 51.47 52.27 52.13 52.30 49.26 51.47 55.83 50.06 47.82 51.85 52.65 51.29 51.89 51.89 55.59 54.82 54.65 55.60 55.93 55.05 52.71 51.57 51.51 53.45 54.04 55.89 57.13 56.99 57.67 58.83 55.84 53.24 50.75 53.14 54.84 54.69 56.44 56.11 55.40 56.14 55.82 56.38 56.19 51.48 54.40 53.61 53.44 52.87 52.67 52.28 52.33 51.96
50.73 52.93 51.50 53.24 53.46 52.99 52.58 52.19 51.79 53.27 53.33 51.48 55.29 54.27 52.47 54.66 52.95 53.99 54.93 56.91 54.16 53.54 52.65 55.46 56.04 57.63 60.17 60.21 60.16 57.33 58.17 56.01 55.10 55.10 55.31 52.85 56.12 56.40 56.24 56.26 55.91 54.52 53.29 53.02 52.69 51.41 49.17 51.36 52.41 53.15 53.44 53.05 53.29 53.63
54.03 51.25 54.42 53.62 52.50 52.24 51.12 54.25 51.92 54.54 52.67 53.28 53.75 53.95 51.98 50.98 51.71 54.07 57.38 54.46 54.39 55.60 56.67 56.84 57.60 58.49 58.95 60.40 60.45 60.13 59.29 58.28 58.47 56.90 51.46 52.17 55.90 55.81 55.31 55.23 53.97 52.73 52.57 52.54 52.25 51.89 51.89 52.76 53.79 54.00 53.55 53.38 50.59 52.01
49.83 51.90 53.44 52.52 48.78 46.76 46.38 55.60 50.49 51.13 47.53 49.81 52.36 49.42 50.09 51.01 53.77 55.53 52.10 53.79 54.91 57.68 59.17 59.37 60.28 61.29 60.34 61.08 61.11 60.71 60.45 58.76 57.55 57.57 56.35 55.10 57.12 57.67 56.11 55.24 54.92 53.31 52.40 52.90 53.84 53.34 53.23 49.85 51.49 53.33 53.64 52.26 51.23 50.61
49.36 50.85 48.83 48.29 47.22 43.68 52.06 49.79 52.85 51.64 51.48 49.45 48.82 46.68 48.95 52.84 55.96 53.85 50.07 51.99 56.48 60.70 59.12 60.28 59.95 58.92 59.71 59.78 59.02 59.91 59.19 56.94 56.64 56.14 56.78 54.59 54.12 54.04 56.00 55.80 55.39 54.73 54.50 54.51 54.35 54.12 54.17 53.94 50.13 52.99 52.50 50.84 50.25 49.89
42.60 43.48 45.83 38.91 49.43 47.51 46.53 47.09 48.20 49.10 46.70 48.82 47.62 48.25 51.06 54.76 50.29 49.79 50.20 54.41 58.00 58.95 59.83 60.35 60.23 59.87 58.33 58.96 59.74 58.42 57.58 56.83 55.28 54.70 56.55 55.19 54.49 55.10 55.39 55.92 55.56 55.25 55.87 54.48 53.66 53.62 53.71 54.19 53.27 52.50 51.86 50.76 50.06 49.85
38.42 45.96 41.02 45.46 47.17 46.16 46.85 44.44 46.79 47.56 48.15 47.31 48.47 53.09 53.58 51.60 47.79 47.17 53.25 56.90 58.28 58.40 58.49 58.28 58.46 58.44 58.42 58.84 56.25 54.59 54.14 55.40 55.31 53.15 54.19 54.66 55.23 54.47 53.42 53.11 53.16 54.10 56.47 56.08 55.01 53.86 53.90 53.96 52.99 51.99 51.16 49.77 43.56 49.36
39.57 43.92 48.49 51.73 50.82 50.61 49.22 50.46 51.15 48.73 46.22 46.50 50.28 50.25 49.89 45.85 46.45 51.97 57.65 59.65 59.74 59.91 60.43 59.80 59.75 59.16 59.84 59.30 58.68 58.94 60.03 55.66 54.04 54.18 54.85 54.94 54.71 55.98 54.80 53.03 52.69 55.40 57.33 56.45 56.35 55.71 54.83 53.85 52.49 51.90 51.17 51.34 50.98 50.48
46.80 47.50 43.81 47.58 48.00 50.37 47.36 48.29 47.50 46.70 49.06 52.80 52.16 46.97 46.86 47.53 48.26 56.38 58.60 59.56 59.49 59.16 58.00 57.55 57.47 57.28 56.69 55.69 55.91 55.44 54.60 55.44 54.37 54.87 55.03 55.64 56.45 56.26 55.26 55.93 56.67 42.71 56.24 55.58 55.55 55.71 55.48 54.06 52.61 52.08 51.44 51.11 51.39 52.02
46.00 49.29 48.30 45.33 47.38 48.73 48.85 48.28 48.77 52.19 53.77 53.13 48.93 49.83 50.07 55.86 58.36 58.94 58.92 57.96 58.81 58.35 56.16 55.16 54.24 54.85 53.60 54.55 54.36 55.35 54.95 53.92 53.56 52.94 53.11 52.77 53.24 53.90 56.28 55.72 54.15 54.27 54.50 53.69 42.13 47.82 54.30 53.23 52.71 52.60 52.51 52.31 52.41 52.61
45.61 49.44 46.85 46.13 45.64 45.95 49.68 52.91 53.09 55.53 57.13 57.42 56.38 56.70 57.29 57.05 59.26 60.79 58.80 57.19 56.59 55.61 55.90 55.88 53.38 52.98 55.05 55.99 55.52 55.81 57.06 58.37 57.39 54.41 51.75 51.05 51.50 53.06 53.63 53.53 53.49 53.48 53.99 53.75 52.61 51.71 41.89 49.85 48.43 52.52 51.63 52.20 52.06 52.08
51.03 48.69 45.96 46.22 46.62 49.94 51.86 55.30 56.42 56.89 57.71 57.76 58.37 56.17 54.98 56.83 57.48 59.49 58.63 58.24 57.80 56.61 55.67 54.95 54.51 55.23 55.39 55.56 56.82 55.85 53.64 56.28 56.93 55.94 54.96 55.30 53.76 53.79 54.16 54.49 54.31 53.85 53.63 53.48 52.47 51.75 50.96 50.85 51.46 51.40 51.25 51.27 51.49 49.62
48.42 47.17 46.84 44.76 47.04 50.68 52.34 52.26 52.51 52.38 54.00 54.35 55.00 56.68 55.60 55.40 53.14 56.46 59.11 59.95 58.49 54.70 48.42 53.04 54.07 52.11 53.36 53.64 54.71 55.39 41.19 54.80 55.81 55.95 55.83 54.52 54.09 54.55 54.47 54.31 54.25 53.54 52.30 51.60 51.56 51.16 51.11 50.64 50.81 50.65 50.58 50.42 50.53 50.28
49.22 49.25 49.44 49.05 49.40 49.50 50.69 49.54 49.63 51.25 52.80 52.29 54.49 55.62 55.23 54.57 51.16 55.80 59.29 58.85 57.88 57.17 55.82 55.48 55.38 55.08 55.34 54.82 55.05 54.05 49.18 54.13 46.05 39.37 40.90 42.72 43.63 47.69 53.69 54.70 54.13 53.47 51.81 51.26 51.10 50.58 49.88 49.30 49.53 49.48 49.46 49.33 49.79 50.32

GFSWCAN_sfc_wetblb_111.txt.gz
Wetbulb
53.88 53.92 53.96 53.96 54.24 54.71 54.98 55.06 55.06 55.22 55.16 55.27 55.88 55.43 55.38 55.82 55.79 55.79 62.80 65.94 61.71 57.16 58.09 57.03 56.42 55.19 54.38 53.87 51.59 55.11 52.60 53.79 52.16 48.97 48.83 49.44 47.13 51.01 48.48 49.50 49.02 48.03 45.18 44.83 47.17 40.37 40.57 55.68 54.98 50.46 55.56 58.56 58.82 61.18
53.64 53.45 53.41 53.94 54.35 54.63 54.98 55.10 54.96 55.08 55.04 55.08 55.61 55.52 54.92 55.67 55.38 54.47 60.32 64.08 64.05 60.86 58.56 60.53 60.11 59.99 57.78 56.70 55.10 55.64 54.03 54.03 54.24 53.13 52.84 52.68 49.00 49.95 48.19 44.45 52.54 45.82 49.86 48.86 49.59 48.94 55.09 56.77 56.63 58.14 59.58 59.38 60.31 60.58
52.94 53.21 53.62 53.99 54.33 54.60 54.86 54.73 54.87 54.83 54.93 55.00 55.59 55.45 55.00 56.17 54.94 53.60 60.21 63.42 61.89 59.09 57.86 57.46 56.43 59.60 60.90 59.77 59.81 54.23 57.27 56.74 55.93 57.39 53.97 53.77 48.32 52.99 47.25 47.63 48.53 51.76 53.82 49.75 50.76 53.76 54.21 55.49 57.31 58.69 59.37 59.94 61.73 62.21
52.59 52.88 52.96 53.52 54.23 54.68 54.70 54.49 54.51 54.85 54.79 54.91 55.32 55.25 54.92 56.15 54.59 53.41 59.85 63.32 61.85 60.80 53.66 55.55 61.11 59.07 61.34 60.82 59.48 59.03 58.52 59.19 58.02 56.30 53.09 51.92 51.08 55.10 50.03 52.11 50.79 53.01 54.10 50.51 51.43 54.95 55.26 55.74 56.88 57.50 58.41 60.01 60.72 62.50
52.27 52.53 52.92 53.07 54.12 54.21 54.06 54.21 54.43 54.24 54.55 54.69 55.18 54.96 55.25 55.52 54.27 54.44 60.34 62.76 63.16 60.56 55.06 55.43 59.05 59.81 60.64 60.28 59.08 60.03 60.19 57.96 56.51 54.06 52.45 51.57 55.21 53.79 52.20 52.37 50.48 54.06 51.60 50.27 49.36 55.69 55.89 56.02 57.24 57.25 57.25 58.07 59.85 60.29
51.86 52.38 52.75 53.07 53.73 53.56 53.84 54.23 54.25 54.31 54.35 54.59 54.89 54.53 55.22 53.74 53.89 58.77 56.96 61.80 63.46 63.11 58.43 52.88 59.02 58.22 59.59 60.02 58.82 59.21 60.56 58.69 57.20 54.79 56.01 56.21 55.80 52.94 50.11 49.57 53.51 55.92 55.53 56.12 54.24 57.49 55.39 57.76 57.55 57.59 57.17 58.38 59.21 59.94
52.17 52.54 52.68 53.32 53.69 53.74 53.72 53.76 54.15 54.11 54.41 54.35 54.38 54.38 52.89 52.82 54.47 57.70 56.36 59.26 56.11 63.60 57.89 53.82 53.59 58.35 59.90 59.49 59.11 58.97 59.86 60.08 57.07 56.85 54.65 54.88 54.60 52.16 51.20 50.01 53.60 54.40 56.20 56.80 57.23 57.23 54.68 56.01 55.94 57.91 57.74 58.20 57.82 60.03
52.21 52.54 52.54 53.33 54.08 54.18 54.03 53.50 53.37 53.53 53.76 54.27 53.30 52.41 52.51 52.51 52.75 56.90 61.11 55.44 57.74 60.45 58.18 52.77 53.36 55.25 59.65 55.70 55.42 60.44 56.93 57.67 56.97 55.69 56.11 52.52 54.86 53.63 48.81 53.38 54.13 54.94 55.71 55.72 55.93 56.84 56.56 58.21 57.63 57.22 57.85 57.88 57.71 57.99
52.36 52.31 52.25 52.86 53.04 53.44 53.15 53.53 53.58 53.41 52.74 51.95 52.18 52.47 55.80 55.75 56.35 59.85 57.44 56.04 63.20 60.47 53.56 52.65 51.37 50.08 58.73 56.68 58.68 57.78 58.20 52.66 58.40 52.82 53.97 54.04 51.77 40.51 49.69 52.34 53.62 53.99 53.62 52.96 54.36 54.29 54.16 53.87 54.59 55.46 56.36 56.52 56.47 56.92
52.06 52.27 51.79 51.95 51.74 51.39 51.60 51.74 51.72 51.87 51.55 51.89 53.41 53.95 52.49 58.08 55.23 57.50 57.93 55.89 57.02 57.19 58.86 54.90 55.64 53.15 56.37 55.75 54.62 54.53 55.68 52.71 50.52 52.65 55.49 49.49 49.60 53.82 54.40 55.04 55.00 55.07 54.61 53.92 51.81 51.69 52.56 52.03 52.45 53.22 53.78 55.12 56.96 57.37
51.67 52.23 51.78 51.18 51.47 51.67 51.89 51.99 51.26 51.07 50.17 53.97 54.90 55.64 59.27 55.04 58.52 56.58 52.34 51.20 52.04 50.71 54.03 54.25 55.84 54.31 58.78 53.49 52.01 55.52 51.54 54.72 47.98 51.66 48.88 49.07 48.42 53.03 55.47 55.21 56.24 56.47 56.30 55.33 55.18 55.12 54.71 54.04 53.83 53.52 53.89 55.03 55.66 57.18
51.39 52.00 52.01 51.20 51.15 51.78 52.37 52.36 51.20 53.44 55.88 52.77 54.80 59.07 59.94 56.53 53.99 50.61 49.93 50.81 50.05 48.55 53.37 52.76 54.77 57.35 56.87 59.32 54.73 54.43 49.93 51.90 44.71 53.72 48.26 46.51 51.11 55.08 54.77 54.71 55.61 56.26 55.98 55.55 55.60 54.16 53.91 54.30 54.89 54.58 56.12 55.85 56.31 57.06
51.03 51.62 51.88 51.84 51.26 51.72 52.31 51.84 51.57 50.47 51.36 56.40 56.12 52.71 53.14 53.08 44.11 45.32 44.02 47.75 48.65 52.02 54.60 54.61 53.90 56.73 57.37 56.73 53.31 52.06 47.45 47.12 54.39 47.77 47.52 49.46 54.81 55.00 55.84 55.75 55.64 56.80 56.80 55.72 54.84 54.85 54.81 55.00 55.71 56.09 55.98 57.15 57.38 57.25
50.86 51.22 51.83 51.95 51.65 52.09 51.68 51.49 51.63 51.06 52.43 51.62 47.65 38.95 46.26 44.27 48.36 49.44 49.12 51.03 54.03 54.99 55.71 55.81 55.06 54.16 55.27 52.95 53.52 47.59 51.39 53.17 45.61 44.40 45.95 51.52 55.80 56.15 56.86 56.83 56.13 55.63 56.06 55.34 55.12 54.89 54.66 55.45 55.68 56.03 56.86 56.67 56.38 55.66
51.06 51.41 51.95 51.72 51.83 51.55 51.60 51.37 51.54 52.14 51.95 49.33 49.45 42.33 47.00 52.03 52.12 52.99 53.62 55.18 56.85 57.76 56.37 55.12 54.95 55.25 53.17 50.91 52.32 50.27 47.04 44.32 46.93 47.14 50.79 55.00 57.90 58.07 58.20 57.79 56.99 56.71 56.12 55.46 55.49 54.83 54.67 55.04 54.78 55.06 55.68 56.48 56.33 56.13
51.38 51.31 51.51 51.42 51.45 51.57 51.63 50.96 52.13 52.49 50.54 50.45 51.68 48.96 51.44 50.35 51.11 53.82 54.86 55.06 58.21 57.47 57.46 56.44 52.80 51.07 49.67 50.86 48.40 47.03 45.72 45.22 49.77 52.44 56.34 58.89 59.50 59.21 59.42 58.88 58.10 57.73 56.72 56.13 55.91 55.47 55.08 55.20 54.75 54.41 55.12 55.66 55.89 54.87
50.74 53.22 51.27 51.33 51.44 51.34 51.18 52.04 53.95 50.53 48.82 49.71 49.68 52.86 52.32 53.42 53.52 54.38 55.46 56.94 59.27 56.51 52.89 53.22 48.95 48.45 52.63 49.40 48.11 51.63 49.27 51.96 55.36 56.54 57.93 60.89 60.58 60.55 60.07 59.06 58.31 57.11 56.61 56.40 56.34 56.29 55.66 56.33 55.98 54.01 53.78 54.56 55.04 55.52
51.11 52.79 51.47 51.69 51.14 51.78 54.20 52.91 51.54 49.13 47.32 50.52 49.68 51.73 54.41 55.13 54.65 54.84 57.19 58.21 57.23 55.72 54.96 51.51 54.64 49.78 48.83 47.44 48.58 52.87 54.78 56.41 58.23 58.85 58.58 60.85 60.79 61.11 59.93 58.86 58.62 58.11 57.14 56.92 56.89 56.63 56.03 55.51 54.61 53.74 55.91 55.62 55.22 54.35
52.83 51.93 51.64 51.51 51.45 52.78 51.78 52.02 52.52 47.32 49.93 51.76 52.87 53.88 54.88 55.02 57.11 58.12 58.19 60.21 59.62 59.63 56.69 54.97 51.42 50.80 51.32 53.83 53.70 55.28 55.67 57.38 56.46 59.31 59.47 61.07 61.52 60.05 58.65 58.07 58.07 57.96 57.37 57.17 56.88 55.53 55.66 56.75 55.67 54.75 54.41 54.80 53.08 52.86
51.32 51.49 51.45 51.58 51.79 51.93 50.10 51.49 55.17 50.60 48.26 50.34 52.91 52.07 53.29 53.14 55.49 57.10 57.27 57.63 57.56 57.32 54.86 52.42 52.64 53.64 54.06 58.24 58.68 58.14 58.60 60.14 58.77 56.73 57.25 58.12 59.03 58.94 58.11 57.85 57.09 58.18 57.61 57.58 57.12 52.36 55.93 55.77 56.39 56.26 55.01 53.43 52.62 52.48
50.57 53.28 52.46 53.83 53.22 52.90 52.81 52.09 51.93 52.58 52.12 51.50 53.55 53.00 52.50 53.99 53.37 54.81 55.29 57.20 55.31 54.55 54.07 56.21 56.45 58.27 61.44 62.65 61.86 61.80 60.06 60.34 58.32 58.16 57.77 57.48 57.24 56.99 57.79 58.19 58.12 57.50 56.44 55.68 55.16 54.67 51.52 54.79 54.59 54.28 53.84 53.32 53.59 53.79
54.58 51.45 54.98 54.44 52.62 52.30 51.55 54.33 53.44 54.89 53.72 53.12 54.60 54.31 52.34 51.50 52.08 53.84 56.72 56.48 54.65 56.15 57.00 57.59 58.60 58.92 59.82 60.70 60.78 62.48 62.95 62.78 62.23 59.21 53.84 53.51 55.66 55.21 56.49 57.54 57.18 55.83 55.46 54.95 54.34 53.79 53.59 53.82 54.15 54.31 54.28 54.39 52.05 54.54
50.02 53.39 54.30 53.59 49.53 48.27 46.61 55.52 50.67 51.74 48.71 50.76 52.77 50.67 50.85 51.65 54.21 58.62 53.91 55.08 56.08 58.35 58.70 58.76 61.67 62.55 61.82 62.36 62.45 62.54 63.34 62.72 61.79 60.61 60.12 59.44 59.06 58.27 56.90 58.17 57.14 54.67 53.81 54.45 54.60 54.06 53.47 50.90 52.22 54.23 54.51 54.06 53.89 52.63
50.41 51.27 49.11 48.91 49.07 45.40 52.35 50.55 53.02 51.45 52.08 50.16 49.70 48.17 50.13 51.92 55.10 52.63 49.16 51.36 53.38 55.86 57.34 60.65 60.35 59.26 59.77 62.36 60.40 59.88 61.58 62.30 60.91 60.37 60.38 58.58 55.60 56.15 56.64 55.06 55.54 55.60 55.59 55.64 54.87 54.08 54.03 54.43 51.38 53.75 53.66 53.36 52.44 51.43
42.74 43.88 46.66 39.69 50.52 47.93 47.10 48.13 49.54 50.19 47.66 50.09 48.75 48.97 51.36 55.69 50.53 49.70 49.63 52.45 54.94 58.19 59.05 60.04 61.15 60.15 58.41 59.26 59.85 59.67 63.42 61.34 59.03 57.33 56.85 56.96 56.48 54.43 53.98 55.26 54.89 55.89 56.74 55.02 54.61 53.73 54.43 54.93 54.52 53.92 53.36 52.68 51.76 51.21
40.10 47.55 43.09 47.96 48.60 47.46 47.88 45.70 47.47 48.70 49.42 48.63 49.67 53.27 54.93 51.63 48.15 47.58 53.99 56.92 57.84 60.52 59.91 59.11 60.46 60.52 60.74 61.26 60.14 59.11 59.05 62.09 59.82 56.63 56.89 57.07 57.33 55.89 54.89 53.47 53.44 55.09 56.75 56.21 54.22 54.45 54.33 54.12 53.76 53.68 52.96 51.58 46.03 50.66
41.07 46.12 50.50 53.41 52.72 50.06 49.69 51.56 52.36 50.94 47.10 46.98 49.93 49.70 49.94 46.16 46.96 52.66 57.38 60.18 59.44 60.38 61.51 61.81 61.45 61.06 61.33 61.74 62.08 62.60 60.20 57.84 55.03 54.67 54.27 55.92 58.50 58.29 56.68 53.60 53.54 54.86 57.03 56.29 55.72 54.73 54.19 54.89 54.72 53.23 53.01 51.88 52.10 51.36
47.65 49.54 46.56 49.55 49.45 50.86 47.97 48.85 47.30 46.59 48.55 52.12 51.92 47.14 47.23 48.58 49.67 56.66 58.89 59.91 61.11 62.12 60.14 59.72 59.94 59.56 59.53 59.88 59.91 55.95 53.21 53.16 53.64 54.59 55.61 55.80 56.79 57.14 57.20 57.31 56.36 44.12 55.38 58.07 56.69 56.98 53.56 53.66 51.86 53.22 52.74 51.66 51.27 52.68
48.76 51.16 50.15 47.04 48.43 49.50 49.02 48.77 49.33 50.96 53.50 53.90 50.14 49.79 51.10 56.60 58.80 59.67 60.32 60.88 61.35 59.90 57.95 57.27 58.04 59.42 58.56 57.31 57.75 57.40 57.02 57.20 54.79 53.40 52.63 50.43 51.82 54.00 57.37 56.09 56.86 56.73 56.96 56.97 39.90 47.78 56.22 55.69 55.03 54.22 53.72 52.84 52.50 53.52
48.80 51.17 48.29 47.88 46.82 47.20 50.88 53.20 51.61 51.64 54.66 54.36 55.34 55.90 57.05 58.12 59.72 62.38 61.01 60.49 58.94 57.65 57.78 57.19 57.41 57.33 56.49 55.69 55.35 56.22 57.76 57.67 55.47 55.09 53.10 52.67 53.43 54.85 55.26 55.59 55.76 56.10 56.76 56.34 54.56 54.45 43.69 51.65 49.16 53.62 51.83 52.06 52.46 52.61
52.79 50.43 48.08 48.94 48.41 51.04 52.99 54.24 55.42 55.90 55.91 54.45 57.32 55.07 55.39 56.72 58.71 60.06 58.98 59.45 57.78 57.73 57.29 56.00 55.43 56.86 57.14 56.91 54.89 53.77 53.32 57.42 56.63 56.17 55.39 55.74 55.15 55.15 55.63 56.18 56.82 56.61 55.26 54.89 55.22 53.65 52.52 51.57 52.55 52.36 51.47 51.76 51.62 50.84
50.42 48.79 48.23 46.26 48.35 52.28 54.06 53.17 52.51 52.46 53.32 55.46 55.29 56.00 56.41 56.32 53.62 55.74 60.51 60.17 57.75 55.44 51.57 53.65 54.57 53.66 55.22 55.58 56.18 55.53 43.11 55.99 57.74 57.12 56.60 55.53 55.84 56.03 56.37 56.49 56.43 56.31 56.09 54.48 53.28 53.20 52.27 52.04 50.88 50.90 51.04 50.94 51.49 51.48
50.72 50.60 50.32 50.38 51.36 49.78 51.76 52.50 51.62 51.31 52.74 53.52 55.14 55.89 55.64 54.31 52.02 55.83 59.56 60.59 58.44 57.09 56.25 56.55 56.45 56.38 56.18 56.42 56.82 55.74 52.18 55.59 47.68 40.09 41.40 40.21 39.41 45.84 54.58 57.12 56.68 56.67 54.36 53.34 53.57 52.15 51.21 50.61 51.50 50.98 50.95 51.24 51.37 51.30

GFSWCAN_sfc_wetblb_114.txt.gz
Wetbulb
54.27 54.14 53.88 53.96 53.73 53.92 54.69 55.12 55.54 55.36 55.50 55.39 55.48 55.75 56.36 55.54 56.17 55.05 58.44 64.42 61.08 58.41 58.54 57.76 56.73 55.61 54.48 52.95 50.88 55.15 54.05 53.03 51.87 48.57 48.17 48.46 48.39 48.90 48.02 49.33 47.43 42.33 42.06 45.88 47.05 44.66 41.44 54.15 52.58 47.21 55.41 57.73 58.38 58.96
53.96 53.72 53.45 53.67 54.23 54.43 54.94 55.24 55.26 55.28 55.26 55.41 55.37 55.60 56.29 55.46 56.41 55.06 56.09 64.04 63.87 59.96 59.24 60.56 60.11 60.37 58.18 57.12 54.73 55.64 53.41 55.93 54.21 51.65 52.00 51.08 49.57 49.30 48.26 44.10 53.14 46.03 49.91 47.85 46.64 47.57 55.23 56.92 55.94 57.88 58.32 58.54 58.99 59.98
53.49 53.27 53.45 53.51 53.66 54.11 54.84 55.24 55.30 55.26 55.20 55.22 55.39 55.52 56.14 55.67 56.11 54.58 55.45 59.67 61.93 58.60 59.22 58.37 56.61 58.89 60.04 58.66 59.29 53.32 56.66 57.33 56.51 57.06 53.98 52.78 49.46 52.15 47.05 48.39 49.60 51.43 54.11 49.50 50.40 53.64 54.42 56.03 57.49 58.20 58.18 58.01 59.33 61.32
53.02 52.85 53.08 53.33 53.43 53.86 54.74 54.88 55.02 54.75 54.89 55.14 55.18 55.49 56.00 55.61 56.53 54.40 55.74 60.72 61.30 59.68 53.75 54.50 60.27 58.92 61.08 60.30 58.76 59.04 58.07 59.53 57.73 57.15 51.96 51.02 49.87 54.73 50.72 51.26 51.40 53.14 54.52 50.73 50.53 54.53 56.11 56.15 57.27 57.21 57.83 59.14 59.51 61.56
52.37 52.40 52.75 52.92 53.25 53.99 54.10 54.29 54.59 54.77 54.73 54.75 55.10 55.35 55.74 55.41 55.83 54.04 55.93 59.14 62.72 59.09 55.45 54.53 59.14 60.27 60.13 60.10 58.15 59.31 59.10 57.81 55.88 53.81 52.51 50.61 54.11 54.32 53.87 51.88 49.68 53.57 51.94 49.31 49.28 56.51 56.41 56.17 57.91 57.42 56.54 57.24 58.56 59.42
52.06 52.39 52.72 53.03 53.21 54.30 54.33 54.11 54.33 54.63 54.65 54.59 54.85 55.38 55.17 55.75 54.27 54.43 55.13 60.04 63.00 62.62 58.18 51.47 58.88 58.06 59.23 59.79 58.35 58.52 59.36 57.80 56.55 54.67 53.59 55.65 57.52 54.35 48.34 48.95 54.87 55.13 56.19 57.22 55.35 58.07 56.29 58.64 57.98 57.66 56.64 57.62 58.61 59.15
52.18 52.41 52.93 53.09 53.34 54.48 54.40 54.31 54.00 54.35 54.39 54.63 54.91 54.82 55.24 53.78 52.53 53.86 54.79 58.25 53.70 62.49 58.00 54.47 53.94 58.23 59.55 59.07 58.54 58.35 59.53 58.30 57.20 55.82 54.95 53.58 54.71 52.69 49.32 49.71 54.97 55.81 56.17 56.37 57.38 57.30 55.21 55.36 54.58 57.65 57.25 57.79 57.60 59.43
51.95 52.59 52.83 52.83 53.34 53.85 54.03 54.44 53.97 53.65 53.75 54.10 54.59 54.27 53.03 52.83 51.85 53.74 60.44 55.10 56.35 58.82 58.30 51.72 52.54 55.40 59.25 55.46 54.73 59.04 56.46 57.61 56.84 54.68 56.37 53.79 54.85 54.57 50.60 53.52 55.48 55.73 55.86 55.93 55.97 56.47 55.90 57.80 57.69 57.33 57.45 57.69 56.90 57.07
52.14 52.66 52.66 52.52 52.73 52.30 52.09 52.80 52.81 53.37 53.41 53.00 52.53 52.81 53.83 53.11 53.74 56.29 58.64 58.17 62.02 59.92 53.30 52.38 50.27 49.94 58.79 55.75 56.98 57.54 58.12 51.85 58.13 53.98 53.28 54.49 51.81 41.75 50.63 52.31 53.53 54.86 54.51 54.81 55.20 55.32 54.81 54.33 55.09 55.63 56.03 55.99 55.55 56.08
52.22 52.37 52.70 52.10 51.88 52.02 51.84 52.37 51.95 51.68 51.87 52.10 52.45 52.75 51.98 55.15 57.59 58.64 56.75 54.82 55.23 56.92 58.15 54.15 54.90 52.50 56.93 55.17 54.68 54.88 56.39 52.37 49.56 52.80 55.50 51.66 50.57 55.56 55.43 54.92 57.46 56.19 55.36 54.76 52.35 51.73 52.46 52.42 52.98 53.31 53.67 54.50 55.63 56.44
51.95 52.03 52.44 51.98 51.35 51.47 52.19 52.90 52.48 51.20 50.11 51.70 53.02 55.69 60.11 55.89 58.37 55.59 50.95 49.92 51.08 48.71 52.13 55.00 56.32 54.25 58.90 53.04 52.86 55.81 52.88 52.05 47.68 50.22 50.33 48.19 48.37 54.94 57.78 56.16 57.16 57.14 56.27 55.08 54.95 55.16 55.13 55.08 54.48 54.12 54.04 54.93 55.13 55.99
51.41 51.81 52.38 52.26 51.36 51.32 52.21 52.38 52.06 50.93 54.89 51.10 50.80 55.49 59.36 54.72 53.03 49.61 49.00 50.51 49.91 47.49 52.96 51.47 53.37 56.27 57.27 59.22 55.04 55.05 50.46 51.41 45.60 54.07 49.44 45.99 52.08 57.96 56.33 55.30 55.71 56.59 55.90 55.13 55.83 54.96 54.43 54.36 54.51 54.84 54.98 55.28 56.02 56.75
51.10 51.42 51.85 52.22 51.95 51.69 52.40 51.96 51.61 51.02 51.78 55.96 53.88 51.45 51.95 51.69 43.22 45.03 43.83 47.06 47.55 51.92 53.38 53.50 51.98 56.93 57.90 57.28 54.62 52.51 48.15 47.70 54.23 49.04 46.33 49.66 56.74 57.14 57.48 56.12 55.47 56.27 56.07 55.63 55.76 55.46 54.81 54.70 55.60 55.76 55.68 56.86 56.56 56.76
50.89 51.25 51.51 52.40 52.18 51.85 52.05 51.54 51.58 51.44 54.33 51.97 48.22 38.96 46.05 45.42 47.81 48.93 49.22 50.33 52.84 53.99 54.07 53.95 53.39 54.60 55.48 52.85 53.13 48.51 50.97 51.54 46.48 44.60 46.35 52.61 57.53 57.74 57.69 56.57 55.98 55.30 56.33 55.93 55.56 55.17 54.77 55.24 55.24 56.54 56.93 57.06 56.72 56.62
51.20 51.41 51.78 51.83 52.16 52.00 52.09 51.23 51.53 52.60 51.90 48.80 48.28 41.12 45.22 50.56 52.14 53.70 54.37 53.51 55.43 55.17 55.38 53.97 54.74 54.34 52.92 51.40 51.97 50.21 47.42 45.02 47.07 47.02 51.89 56.35 59.42 59.78 59.32 58.24 56.91 56.52 56.69 56.27 55.82 55.02 54.76 55.05 55.36 55.10 56.78 56.37 57.32 57.33
51.35 51.11 53.03 51.72 51.89 51.91 51.69 51.21 50.23 52.33 49.53 47.84 48.83 47.96 50.76 49.81 50.74 52.25 53.27 53.13 56.70 55.63 56.88 55.54 52.45 50.97 50.57 50.98 48.40 47.22 46.00 45.32 49.41 53.49 56.75 60.01 61.50 62.11 62.27 60.18 59.49 58.79 57.96 57.08 56.44 55.93 55.24 55.05 55.24 55.15 55.22 55.87 56.00 56.05
50.56 51.10 51.33 51.41 51.71 51.67 51.59 51.99 51.96 48.14 47.50 47.05 48.15 52.87 51.59 50.85 50.21 53.55 55.55 54.46 56.00 53.15 51.97 53.01 49.53 48.35 53.10 49.20 47.66 51.21 48.82 52.00 54.87 56.74 59.17 62.36 63.01 63.39 61.77 60.17 59.43 58.93 59.09 57.48 57.67 57.20 56.59 56.10 56.32 55.67 54.76 56.50 55.67 55.52
51.83 51.80 51.55 52.05 51.70 52.34 53.33 52.72 50.21 49.29 46.23 48.31 46.92 51.16 53.17 53.80 50.91 52.70 54.65 57.68 54.65 56.41 55.83 52.45 54.46 50.43 48.31 47.56 49.09 53.43 55.53 57.62 59.45 59.36 59.49 63.04 64.54 64.22 61.15 60.78 60.78 60.29 59.42 58.83 58.47 57.65 57.25 56.31 56.30 54.86 55.87 55.91 55.28 54.96
51.85 52.62 51.86 51.77 51.68 50.01 49.25 49.50 50.63 46.06 48.51 50.37 52.62 53.66 53.47 54.58 57.15 57.82 57.27 57.91 56.77 59.81 57.72 54.74 52.00 50.21 51.46 54.44 55.15 55.78 56.91 57.11 57.18 59.01 60.78 62.95 62.79 61.75 62.09 61.07 60.22 59.28 59.55 59.03 58.31 55.78 55.76 57.36 55.15 54.17 55.21 55.04 53.74 54.35
51.00 51.34 51.68 51.79 51.33 50.26 48.70 49.86 54.09 49.18 47.83 51.13 53.10 52.19 52.84 52.90 55.29 56.02 53.83 56.27 56.74 57.84 54.48 53.20 53.05 54.70 55.61 57.30 57.56 58.71 58.79 59.75 58.34 55.80 58.29 59.69 60.53 61.28 61.09 59.30 57.73 59.01 58.25 58.57 57.02 52.72 55.87 55.77 55.93 55.78 55.18 55.17 53.81 53.18
50.74 52.24 52.04 51.76 50.92 51.42 50.96 51.37 50.67 51.79 51.69 49.95 53.01 52.78 51.71 53.63 52.62 53.56 54.05 57.71 54.40 53.33 52.25 55.42 56.29 57.31 57.62 61.11 61.03 56.97 61.02 57.90 58.52 58.95 58.66 57.34 57.51 59.77 59.41 58.93 58.76 58.01 57.03 54.59 55.22 54.59 51.78 55.37 56.40 56.38 55.20 55.90 55.44 54.11
53.11 52.87 54.69 52.00 50.85 52.19 51.01 53.52 50.56 52.82 52.73 50.58 52.28 53.07 51.08 50.69 51.31 52.21 55.80 53.75 53.31 54.34 56.28 56.57 58.32 58.83 59.57 60.65 60.90 59.81 63.91 63.60 62.99 60.40 53.93 54.69 58.00 58.43 57.85 57.68 57.86 56.27 55.62 54.96 55.62 55.25 55.45 55.28 56.76 56.50 54.07 53.58 51.41 54.07
51.31 53.38 53.55 52.74 48.70 46.07 46.02 54.39 50.32 51.52 47.94 50.02 51.24 48.61 50.18 51.27 53.40 55.88 51.61 53.94 55.75 58.24 58.98 59.53 64.44 64.16 62.37 62.43 61.74 62.74 63.26 62.71 59.93 59.00 58.40 59.84 58.07 59.01 58.59 58.34 56.58 56.01 52.40 54.59 55.79 54.79 55.26 51.86 52.89 53.56 53.95 53.92 53.87 52.60
49.12 51.68 49.24 48.71 48.71 44.67 51.20 49.26 51.60 50.27 50.99 49.70 49.04 47.99 49.52 50.91 54.07 52.56 50.18 53.13 55.67 57.80 58.71 63.32 59.52 58.17 59.22 62.53 58.32 58.41 60.83 61.95 60.33 59.97 62.06 60.37 57.97 55.92 57.33 55.10 54.80 55.58 55.44 56.66 55.25 55.13 55.04 54.03 51.30 53.23 54.09 53.31 53.18 52.84
42.77 43.10 46.51 40.84 50.31 47.66 46.06 46.88 48.55 48.51 45.87 48.95 48.71 48.83 50.78 53.64 49.49 49.36 49.63 52.20 53.56 54.71 58.13 60.49 59.98 57.99 58.40 58.54 59.33 57.89 59.23 59.42 57.03 55.42 59.00 59.55 57.82 57.19 55.15 54.23 55.77 56.03 56.51 54.56 53.61 54.61 54.25 54.76 54.76 53.92 53.63 52.36 52.91 52.55
39.19 46.49 42.06 47.55 47.99 46.78 46.66 45.19 47.00 47.33 48.93 47.70 48.12 52.11 53.85 51.65 47.56 47.32 52.03 55.71 58.58 59.21 59.55 58.73 58.65 59.46 59.50 60.18 60.87 56.47 58.77 61.18 60.52 59.03 58.54 58.52 57.05 56.26 55.79 55.08 53.51 54.98 56.62 57.04 55.71 55.08 54.10 54.60 54.10 53.94 52.82 52.09 47.96 51.67
39.20 45.53 50.50 53.51 51.25 50.22 48.61 51.91 52.02 49.12 45.59 46.20 49.69 49.28 50.59 46.02 46.64 53.17 59.40 59.03 59.14 60.49 61.22 61.22 59.58 58.12 58.20 59.93 60.68 60.38 60.01 58.83 57.50 55.69 55.24 55.59 55.48 55.55 56.10 54.19 54.18 55.38 56.18 56.67 56.56 55.81 54.15 54.20 53.90 53.09 51.33 51.88 53.04 52.13
47.89 49.60 45.85 48.88 49.22 51.11 48.29 49.19 48.13 47.65 50.28 53.14 52.02 48.08 46.88 47.94 48.53 55.79 57.08 54.28 55.68 60.76 60.00 60.26 60.43 60.29 59.84 59.28 59.44 58.44 57.43 57.58 58.01 57.82 57.48 57.19 57.83 57.41 57.74 57.89 57.25 48.57 57.21 55.94 55.56 56.20 55.34 55.49 54.07 53.68 51.11 50.88 50.80 52.97
49.04 51.08 50.62 47.61 48.57 48.99 49.07 48.53 49.54 51.60 53.96 53.53 50.49 48.27 49.44 53.64 56.38 57.33 59.03 59.90 60.49 59.69 57.08 57.00 57.71 58.80 58.42 58.62 58.48 58.38 57.86 57.26 55.41 53.00 53.28 54.34 55.04 55.42 57.87 58.13 57.51 57.31 57.62 56.95 44.65 50.79 55.04 56.17 55.46 54.45 52.83 51.66 51.60 52.98
48.99 52.09 48.87 48.29 47.02 46.34 49.52 52.65 52.75 53.94 54.92 53.51 52.99 53.74 56.41 58.25 59.34 60.72 59.91 59.19 57.74 57.09 57.20 57.59 57.72 57.76 56.81 56.34 56.19 56.83 58.14 57.90 57.85 56.03 54.16 53.78 54.41 56.27 56.53 56.11 56.17 56.37 55.83 55.43 55.32 53.53 45.05 53.18 50.24 54.75 52.30 50.91 50.81 51.96
52.33 51.19 48.72 48.88 48.51 50.62 52.58 54.09 53.90 55.25 54.45 53.36 55.58 54.53 55.72 56.71 58.32 59.43 58.87 58.36 58.05 57.87 56.98 55.91 55.52 56.68 56.62 56.53 55.76 55.72 55.10 56.46 56.63 56.34 55.59 55.33 55.57 55.51 55.72 55.96 56.16 55.75 55.09 54.36 53.91 53.76 53.78 52.81 52.45 52.77 52.29 52.28 52.37 50.73
50.67 49.91 48.82 46.64 48.97 52.82 54.20 53.08 53.61 52.81 50.83 50.35 49.63 55.74 56.80 56.05 53.30 56.84 59.54 59.78 57.48 54.98 53.00 54.07 54.25 53.74 55.57 55.85 56.14 55.72 45.56 56.61 55.69 55.31 55.76 56.19 56.17 56.66 56.42 56.65 56.19 55.66 54.84 54.27 53.78 53.16 52.92 51.80 51.68 51.80 51.64 52.24 52.44 52.28
50.68 51.18 50.88 50.47 50.36 50.35 51.72 52.27 51.35 51.21 52.18 51.35 53.33 52.60 52.44 54.29 51.97 56.04 60.44 60.34 57.91 56.65 56.12 56.16 56.16 56.49 57.19 57.12 57.03 56.13 53.37 55.13 48.03 40.04 41.06 39.01 38.23 45.19 54.68 55.67 55.99 55.39 54.60 53.66 53.29 52.69 51.59 51.14 51.19 51.57 51.49 51.84 52.11 52.19

GFSWCAN_sfc_wetblb_117.txt.gz
Wetbulb
55.35 54.70 54.33 54.17 54.17 54.35 54.23 54.72 55.42 55.61 55.55 55.82 55.88 55.71 55.83 56.72 56.14 54.66 53.39 56.01 57.09 55.79 57.50 59.84 58.76 55.90 53.86 51.71 48.39 53.04 51.43 50.82 47.99 44.34 44.30 45.39 44.44 43.63 44.59 47.45 44.60 40.01 39.68 40.52 41.10 38.35 38.51 53.67 53.36 46.83 50.03 54.04 56.51 59.32
54.62 54.11 53.86 53.63 53.90 53.96 54.01 54.51 55.32 55.57 55.47 55.61 55.84 55.90 55.68 56.24 56.15 55.97 50.78 59.30 60.97 58.12 57.81 61.13 60.13 59.06 57.12 55.88 52.11 51.95 52.32 53.32 52.51 48.10 48.29 48.34 45.52 45.09 43.01 39.37 47.96 41.87 44.57 43.46 43.96 42.57 51.74 53.75 52.42 52.37 54.22 53.33 54.14 58.26
54.11 53.91 53.47 53.50 53.58 53.84 53.84 54.37 55.04 55.36 55.59 55.31 55.53 55.64 55.78 56.18 56.21 55.40 52.44 54.09 56.50 56.89 56.09 57.05 56.36 59.53 57.87 57.46 56.22 50.50 53.17 56.10 54.81 54.44 49.97 49.09 48.11 48.23 43.22 45.54 47.20 49.53 50.79 44.62 46.45 49.05 52.27 53.68 55.03 55.36 55.84 55.33 56.99 59.95
53.75 53.35 53.06 53.12 53.33 53.54 53.72 54.76 54.94 54.86 55.00 55.12 55.25 55.43 55.58 56.02 55.96 55.62 52.32 55.00 54.63 56.69 52.25 53.13 60.54 57.02 59.43 58.37 57.81 56.74 54.88 56.07 55.37 54.02 49.47 46.57 45.26 51.39 46.37 48.13 46.64 50.04 49.93 47.12 45.91 50.48 52.28 54.51 54.01 54.04 55.81 57.01 57.91 60.14
53.28 52.86 52.61 52.80 53.15 53.56 53.84 54.84 54.72 54.64 55.10 55.06 55.16 55.04 55.27 55.82 55.71 55.21 54.23 54.15 56.40 54.96 54.10 54.72 58.26 58.78 58.52 58.34 57.51 58.80 57.09 55.23 53.54 50.42 49.13 46.87 52.35 50.95 50.12 48.23 45.15 50.89 48.93 45.26 45.95 52.82 51.92 52.71 54.77 56.29 54.81 54.69 56.51 59.41
53.12 52.49 52.49 52.85 53.30 53.42 54.24 54.94 54.76 54.60 54.94 54.80 55.06 55.00 55.18 55.65 55.31 51.49 52.97 56.69 57.65 59.46 55.92 51.52 57.48 57.77 58.22 58.29 57.14 57.24 56.98 55.48 54.78 52.05 50.90 53.17 54.67 50.65 45.29 43.95 51.53 52.46 54.11 54.37 52.55 55.21 56.05 56.25 56.34 57.04 54.44 55.69 56.67 59.70
52.85 52.24 52.47 53.03 53.17 53.42 54.20 54.48 54.82 54.42 54.41 54.68 54.76 54.98 55.24 55.02 52.85 50.31 52.80 56.42 52.71 53.50 56.38 52.00 50.97 56.38 59.04 57.59 56.52 56.02 56.94 55.13 55.26 52.98 52.24 51.13 50.73 49.92 44.92 42.24 52.04 53.80 53.84 54.45 54.68 54.47 52.34 54.79 51.70 55.71 55.68 57.92 56.18 59.40
52.43 52.12 52.50 52.89 52.93 53.32 52.95 53.08 53.78 54.24 53.98 54.29 54.33 54.86 54.47 53.06 51.37 49.54 53.89 53.59 53.67 57.00 56.80 51.03 50.14 52.67 57.65 53.28 52.31 56.85 54.70 55.82 54.71 52.09 53.60 50.88 51.77 51.69 43.91 49.94 51.71 53.92 54.55 53.94 53.72 53.94 52.13 53.90 55.27 55.08 55.60 54.90 54.44 57.75
52.03 52.28 52.76 52.80 52.73 52.77 52.45 52.65 52.60 52.44 52.71 53.22 53.23 53.10 52.03 49.95 51.54 55.02 59.43 56.19 58.27 58.26 52.86 51.28 49.02 47.12 56.67 54.26 55.11 55.20 56.17 50.07 55.96 51.39 51.63 51.78 46.32 37.81 46.76 50.08 50.09 52.57 50.81 51.92 53.60 53.62 53.20 51.99 54.24 53.80 53.13 53.70 51.99 55.69
52.11 52.26 52.57 52.94 52.55 52.18 52.37 53.12 53.29 52.25 51.95 51.96 50.92 50.07 50.45 54.36 58.32 59.46 56.96 55.39 54.93 55.68 56.87 52.10 54.92 51.18 54.26 53.65 53.44 53.25 54.25 50.41 47.76 51.11 53.30 49.14 48.68 52.21 53.74 53.01 53.68 54.85 53.32 52.90 49.86 49.29 49.08 48.66 49.76 50.17 50.79 51.34 51.66 53.55
51.92 52.11 52.24 52.82 52.22 51.76 51.93 53.11 52.64 51.67 51.31 51.88 51.84 54.44 59.40 57.41 58.73 55.96 51.28 49.99 49.93 47.23 51.38 53.46 53.94 52.11 55.27 51.19 52.05 54.77 50.48 50.55 45.11 48.52 48.05 46.65 45.30 51.18 54.78 53.73 54.73 55.30 54.04 52.94 52.21 52.80 52.60 51.65 51.92 51.83 51.57 52.52 52.37 52.32
51.43 51.73 51.95 52.35 52.45 51.81 51.77 52.33 51.85 51.33 51.47 49.55 49.06 52.45 56.17 55.84 53.03 49.45 48.27 49.57 48.43 45.55 50.99 47.64 50.58 53.75 54.29 56.69 53.52 53.65 50.05 50.31 44.44 52.54 48.05 43.86 49.68 54.32 54.44 54.48 54.40 54.83 54.31 53.96 54.27 53.38 53.23 55.06 52.84 52.20 52.05 52.47 52.67 52.87
50.97 51.38 51.68 52.08 52.52 52.27 51.87 52.27 51.87 51.55 51.31 54.28 52.86 50.48 50.31 49.67 42.47 44.39 42.42 45.62 46.13 50.23 51.63 50.56 48.52 54.42 54.77 54.56 53.60 52.53 47.97 46.35 52.58 47.09 45.35 47.65 53.38 55.29 54.92 53.86 54.00 55.24 55.09 54.61 54.84 54.74 54.33 53.77 54.55 53.55 52.45 54.99 55.35 55.25
50.93 51.06 51.48 51.66 52.77 52.64 52.24 51.81 51.53 51.69 52.98 50.33 47.85 39.43 44.85 43.44 46.30 47.36 47.89 49.20 51.60 52.61 51.11 52.37 50.59 54.12 55.15 52.76 52.60 49.01 50.32 50.43 45.54 43.04 44.76 50.89 52.59 53.84 54.24 54.31 53.60 53.24 53.96 54.11 54.73 54.22 53.54 53.73 53.27 54.32 55.67 54.77 54.57 53.47
51.21 51.22 51.60 52.19 52.49 52.73 52.13 51.44 51.46 53.07 51.59 47.89 47.53 39.96 43.78 48.44 49.84 50.69 52.97 52.93 53.97 53.95 54.18 52.59 51.70 53.82 51.62 50.79 51.02 50.75 47.76 45.03 46.00 45.05 49.01 53.40 54.34 54.60 54.73 54.70 54.19 53.85 54.00 54.27 54.29 53.44 53.28 53.89 53.08 53.21 55.34 55.75 54.93 53.30
51.78 51.11 50.75 52.16 52.24 52.12 51.54 51.51 51.57 52.62 49.98 47.94 47.94 46.05 49.41 48.68 48.07 49.37 51.17 52.17 55.00 55.51 55.77 54.23 51.75 50.04 50.02 50.09 48.36 47.08 45.43 44.27 47.66 52.68 54.54 55.40 55.58 55.98 56.46 56.72 56.05 55.73 55.37 54.93 54.37 54.19 53.64 53.06 52.96 53.14 54.13 54.06 53.71 53.48
50.84 50.54 51.59 51.49 51.69 51.80 51.71 52.12 50.36 47.53 47.05 45.74 45.60 49.30 48.79 48.85 49.43 50.57 53.03 53.22 56.89 55.29 50.59 51.80 48.06 47.31 52.62 48.57 47.20 49.28 46.72 50.39 55.94 55.08 56.22 57.58 58.48 59.14 59.58 59.16 58.39 57.87 56.67 55.45 54.92 54.59 53.73 54.21 54.32 53.28 51.76 52.67 53.28 53.32
49.88 52.46 51.85 52.01 51.80 51.75 52.30 51.34 49.07 47.06 43.96 46.30 45.21 47.82 50.93 52.06 50.88 52.23 54.04 55.75 54.35 53.29 51.61 50.31 53.48 50.13 48.20 46.89 47.56 51.07 53.51 57.18 58.59 58.38 58.81 60.55 61.59 61.32 60.43 59.88 59.50 58.34 57.14 56.16 55.71 54.99 54.78 53.16 52.73 52.52 54.17 53.04 52.99 53.00
51.33 52.34 51.88 51.78 51.40 49.65 48.18 48.22 49.54 45.07 47.50 49.48 49.92 50.61 50.90 51.42 53.30 55.44 55.51 55.73 57.11 56.96 53.84 52.09 50.20 49.11 49.81 54.23 53.86 55.75 56.14 57.69 57.89 58.94 60.25 61.50 62.11 61.28 60.56 60.24 59.71 58.33 57.24 56.17 55.71 54.51 54.34 53.83 53.19 53.49 53.22 53.30 50.75 51.13
50.79 50.79 51.56 51.80 51.48 48.97 47.13 48.13 52.85 47.46 46.00 50.15 50.95 49.14 50.54 51.34 54.83 55.18 53.35 54.51 55.73 54.32 51.49 50.88 49.74 55.13 55.16 58.12 59.20 57.98 58.70 58.36 58.45 56.49 58.30 59.53 61.13 61.12 60.22 59.32 58.20 58.06 57.82 56.67 55.92 52.16 54.19 53.82 53.80 53.82 53.03 52.84 51.84 51.01
50.53 52.04 51.76 51.76 50.27 49.30 48.05 49.05 49.13 50.42 50.96 50.31 53.04 52.27 50.45 53.01 53.07 52.95 52.80 54.72 51.92 49.64 47.96 53.72 55.39 57.73 59.62 61.30 61.10 60.42 57.88 57.23 55.45 55.37 55.86 55.77 58.90 59.49 59.18 59.58 59.13 57.46 56.28 55.71 53.98 53.35 50.89 53.00 53.30 53.75 52.57 52.60 53.12 53.03
52.25 53.17 51.55 50.67 48.39 49.85 49.51 52.31 49.89 52.55 50.43 50.64 51.52 53.11 50.70 49.82 50.48 51.84 53.47 51.43 51.80 53.73 55.74 57.98 60.14 59.67 57.83 58.78 57.88 58.37 56.80 52.96 52.00 52.20 51.46 54.20 56.62 58.06 58.38 58.68 57.56 56.09 56.19 55.43 55.16 54.01 53.16 53.27 54.69 54.49 53.54 52.84 52.06 51.86
51.40 52.01 51.37 50.21 46.74 44.84 43.65 53.36 48.98 49.99 47.55 49.93 51.58 49.38 50.18 51.54 52.64 56.05 51.60 52.65 54.27 59.15 58.51 59.26 60.98 63.48 61.75 61.72 61.74 60.46 58.52 55.10 53.98 55.30 57.99 58.92 57.96 58.69 55.95 56.67 56.95 54.96 52.12 52.44 53.73 53.91 53.06 50.35 53.04 52.33 53.00 52.40 50.89 49.80
50.12 49.80 47.97 46.96 46.83 42.40 50.51 49.36 50.38 49.59 51.03 47.91 47.18 45.89 49.05 51.81 55.64 53.29 50.21 51.29 55.38 58.91 59.17 61.86 61.23 59.99 60.96 61.58 60.49 60.03 60.42 60.18 59.37 59.34 58.94 56.89 55.63 54.56 54.99 54.79 55.07 54.57 54.43 54.11 53.41 53.28 53.44 53.04 50.19 50.19 51.92 51.42 50.15 48.96
42.70 42.17 45.07 38.54 48.85 46.77 45.39 46.41 47.28 47.47 45.78 48.13 47.69 47.76 50.74 54.73 49.79 49.30 49.83 53.01 55.46 55.86 58.70 61.08 59.79 59.09 57.77 58.36 58.51 60.15 61.09 60.38 56.76 55.77 58.13 57.54 55.83 55.25 55.06 55.44 55.20 54.95 55.44 53.84 53.07 52.38 52.77 53.06 52.17 50.78 51.91 51.32 50.91 50.21
36.85 45.01 40.93 46.43 46.41 45.98 46.35 45.16 46.39 46.60 47.82 47.67 48.45 52.07 50.97 50.65 47.73 47.38 51.69 52.81 51.94 53.51 58.27 58.93 58.73 57.63 56.69 58.95 58.32 58.32 58.01 60.04 59.02 57.82 57.43 57.72 56.51 55.39 53.96 53.59 54.07 55.04 56.19 55.41 54.04 52.74 52.88 53.28 53.20 52.21 51.59 50.52 47.50 51.56
39.17 43.48 48.47 52.45 49.87 49.94 48.75 49.69 50.01 48.59 46.66 46.21 48.39 48.92 47.95 44.07 45.29 51.75 53.77 52.79 52.90 53.57 57.16 59.66 59.50 57.98 57.13 57.57 58.20 58.93 58.52 57.28 57.29 56.70 56.95 56.92 57.20 56.40 55.00 54.62 54.17 55.62 56.15 55.79 54.59 53.75 53.69 53.39 52.67 51.91 52.30 52.43 51.77 50.94
45.73 48.57 45.94 49.06 49.09 50.72 47.56 48.55 47.94 47.48 48.40 52.60 52.15 47.80 46.41 47.21 48.88 54.95 55.15 56.51 57.20 59.45 58.07 59.20 59.38 59.17 58.30 58.41 57.95 56.96 56.45 57.05 57.54 57.37 57.17 57.53 57.78 57.43 58.35 57.57 57.30 49.52 55.92 55.38 54.72 55.39 54.20 53.58 52.30 52.56 52.16 51.44 51.75 52.27
47.06 50.35 49.07 46.86 48.66 49.02 48.72 48.44 49.61 51.78 53.27 52.44 50.43 47.59 47.87 52.19 55.45 57.56 54.37 55.31 58.74 59.22 57.15 56.74 57.36 57.76 57.54 57.80 57.66 57.45 57.07 56.35 54.81 53.62 53.58 52.91 53.88 55.03 57.20 56.57 54.58 55.61 55.25 54.01 47.62 52.13 54.98 54.02 52.48 52.46 52.83 51.81 52.22 52.42
48.07 51.78 48.63 48.20 46.99 45.92 49.92 52.64 53.82 54.19 54.25 53.00 52.41 51.04 50.29 51.83 53.68 60.40 57.45 55.70 55.79 56.47 57.88 57.48 57.41 56.78 55.73 55.53 55.40 56.46 57.97 57.60 57.01 55.98 54.33 52.87 53.74 55.83 56.42 56.61 55.31 54.92 55.21 56.10 54.11 53.70 45.72 49.26 49.65 52.78 52.13 50.82 50.31 50.01
51.14 50.70 48.64 48.46 47.93 50.47 53.28 54.23 54.98 53.65 52.45 52.68 54.25 52.44 51.67 53.83 55.60 57.29 57.66 60.85 59.27 58.84 57.53 56.36 56.56 56.78 56.26 55.40 55.29 54.06 52.98 54.70 55.36 55.36 54.81 54.97 54.77 55.16 55.27 55.73 55.50 55.22 54.36 53.67 53.36 52.70 52.70 53.32 53.07 51.98 51.07 50.32 50.15 49.03
50.06 49.05 47.97 46.51 48.66 53.47 55.17 53.53 52.27 51.12 51.26 51.27 51.65 54.02 55.37 54.91 53.95 57.89 61.37 60.54 58.51 55.76 52.33 54.15 53.62 54.29 55.86 55.73 55.66 54.14 48.77 52.91 52.26 52.41 53.49 54.05 53.81 56.38 56.90 55.99 55.30 54.79 54.32 53.49 53.05 52.35 52.74 51.97 51.15 51.63 51.57 51.58 51.61 50.94
50.17 50.50 50.59 49.66 49.54 49.75 52.13 52.23 51.65 49.66 50.34 49.69 51.50 53.02 53.51 53.59 51.87 57.32 62.12 61.64 57.65 55.07 54.96 55.38 55.77 56.64 58.49 57.79 55.73 53.61 50.81 51.37 45.08 40.18 40.87 39.58 39.58 45.01 53.32 53.93 54.66 54.18 54.53 53.56 52.90 52.41 52.17 53.41 51.78 52.62 52.42 52.09 52.59 52.26

GFSWCAN_sfc_wetblb_123.txt.gz
Wetbulb
55.72 55.64 55.72 55.20 54.57 54.18 53.83 53.83 54.02 54.08 54.04 55.26 55.81 56.08 56.44 56.18 55.75 53.87 49.55 51.60 48.38 47.10 49.80 53.94 54.79 51.75 49.94 45.17 43.96 46.67 46.74 46.46 41.02 37.39 36.92 38.23 38.53 40.35 38.36 39.91 38.38 35.42 35.55 34.97 35.43 33.23 33.02 49.80 49.70 43.62 45.94 48.57 51.27 55.26
55.56 55.58 55.20 54.53 54.19 53.71 53.51 53.69 53.90 53.96 54.65 55.38 55.44 55.59 55.99 55.97 55.71 55.10 48.08 50.87 52.10 47.01 48.70 54.62 57.17 57.91 55.32 53.94 48.29 44.24 46.08 44.91 45.17 41.32 39.65 40.49 38.90 39.81 36.92 34.24 41.23 37.03 40.02 38.57 38.67 38.43 44.69 48.53 47.84 49.38 50.11 52.65 52.74 53.63
55.20 54.96 54.47 53.96 53.76 53.49 53.16 53.50 53.77 54.08 54.85 55.38 55.38 55.59 55.79 55.78 55.70 55.14 50.90 48.21 47.89 49.20 50.39 49.32 50.92 52.45 53.73 54.38 51.07 46.95 47.12 48.66 45.73 44.98 43.33 42.03 39.77 39.91 36.46 37.80 41.24 43.74 43.24 41.50 40.67 42.82 46.27 50.05 51.22 51.01 52.27 54.51 55.98 55.24
54.82 54.70 54.23 53.72 53.60 53.06 53.06 53.49 53.75 53.91 54.95 55.60 55.32 55.32 55.70 55.48 55.62 55.32 50.86 48.25 47.69 46.81 45.85 48.61 55.82 54.16 56.02 51.56 51.75 51.19 50.15 47.55 46.84 44.05 40.67 38.36 38.27 42.05 38.80 41.79 41.55 43.90 43.57 42.29 41.58 45.38 47.77 50.65 51.23 51.61 55.36 57.31 57.01 57.11
54.32 54.09 53.87 53.54 53.03 52.48 52.85 53.43 53.67 54.75 55.00 55.22 55.28 55.06 55.44 55.22 54.97 54.82 52.47 50.22 50.73 46.28 46.67 47.03 51.98 52.85 51.59 51.64 53.08 51.05 49.38 47.35 44.67 42.29 40.55 39.70 40.06 43.35 40.53 40.81 38.71 44.64 42.36 41.43 41.84 46.39 46.57 48.06 51.13 53.06 56.58 57.05 57.32 57.31
53.88 53.63 53.33 53.20 52.41 52.44 52.98 53.37 53.66 53.74 54.02 55.12 54.61 55.00 55.14 54.71 54.61 51.18 43.65 49.26 52.16 49.32 47.00 44.78 51.13 51.33 52.90 50.43 51.60 50.29 49.06 47.00 45.34 44.41 42.75 44.64 46.99 42.90 38.90 37.42 44.32 46.30 47.09 45.31 47.28 48.69 49.74 51.19 52.24 52.74 53.70 57.00 58.12 57.21
53.70 53.37 53.19 52.95 52.42 52.70 52.97 53.09 53.48 53.08 53.36 54.15 54.35 54.41 54.45 54.06 52.43 45.20 43.49 47.49 48.78 48.23 48.06 46.83 46.19 49.63 52.77 48.46 48.93 48.82 47.97 46.20 46.04 43.93 43.30 44.57 43.27 41.84 38.32 36.96 45.56 47.65 49.83 50.57 50.98 51.79 49.58 51.19 50.19 51.64 55.56 58.21 57.46 57.59
53.45 53.27 53.00 52.13 52.18 52.88 52.97 53.03 52.82 52.95 53.08 52.69 53.70 54.07 53.75 53.32 50.94 46.92 48.72 51.98 49.61 45.52 50.43 45.22 45.07 46.39 50.00 45.51 46.36 46.98 45.90 46.38 45.80 43.47 44.19 43.34 44.69 41.20 35.84 41.23 42.71 46.89 48.83 48.71 50.77 50.27 50.64 50.55 50.35 50.82 53.47 57.20 56.13 55.08
53.23 53.03 52.82 51.96 52.08 52.48 52.89 52.60 52.67 53.27 53.25 52.54 52.18 52.35 48.78 45.96 43.02 45.88 55.51 54.29 49.84 49.51 45.89 45.32 42.64 42.12 49.89 45.48 46.07 47.27 45.81 42.69 45.42 42.86 42.67 44.93 38.37 36.26 42.64 43.32 45.90 47.97 48.03 48.84 48.33 49.33 50.15 49.65 49.21 49.49 53.03 55.72 53.86 53.75
53.15 52.93 52.38 51.75 51.82 52.41 52.48 52.06 52.57 52.92 52.28 52.03 47.78 44.69 42.88 46.87 53.25 55.69 49.92 48.51 47.99 48.19 49.26 46.38 47.11 43.93 47.80 44.76 44.98 46.22 44.89 42.41 40.54 43.94 45.11 42.77 41.16 44.59 45.63 46.09 48.98 48.03 48.71 48.53 45.85 44.18 44.01 45.54 48.80 48.56 48.04 50.20 52.65 53.67
52.78 52.78 52.01 51.56 51.73 52.10 52.25 51.89 52.25 52.19 51.24 46.71 45.42 46.84 51.79 54.29 50.04 47.67 44.52 43.34 43.64 41.90 45.43 47.82 46.81 44.93 49.24 46.06 43.76 46.16 43.94 45.11 38.70 42.03 43.04 38.71 39.00 43.64 47.54 46.92 47.14 47.04 47.93 48.55 48.96 49.14 47.62 46.86 46.21 46.15 46.55 47.71 48.15 53.28
52.37 52.24 51.50 51.25 51.39 51.66 52.21 51.82 51.89 49.67 48.48 47.11 46.64 48.39 49.59 49.51 47.30 44.35 42.92 43.46 41.59 39.99 42.95 44.35 46.15 47.84 48.91 50.89 46.90 46.06 45.86 44.94 38.24 43.22 40.90 37.24 41.42 44.40 47.07 48.33 47.87 46.94 48.49 48.38 49.05 48.34 47.79 48.24 48.05 47.62 47.69 47.75 48.92 52.97
52.01 51.88 51.36 50.94 51.19 51.48 51.62 51.91 51.72 51.51 50.86 50.65 50.07 49.59 47.17 44.73 37.90 41.35 38.44 39.81 38.83 43.62 43.10 43.69 45.73 47.85 48.06 49.60 48.17 46.58 44.56 43.00 44.10 40.38 39.18 40.74 42.87 46.35 47.83 47.62 47.36 47.87 48.23 48.52 48.33 48.57 48.93 49.01 49.25 48.15 48.08 48.66 49.63 50.50
51.78 51.37 50.89 50.66 51.01 51.38 52.29 51.85 51.74 50.78 50.01 48.43 46.65 37.87 43.46 40.98 41.28 41.76 41.84 42.28 45.15 44.69 44.16 42.06 43.84 45.79 47.04 45.77 46.45 43.30 45.52 43.12 38.93 35.49 38.00 41.36 44.13 46.50 47.65 48.24 48.16 47.60 47.78 48.09 48.35 48.25 48.33 48.63 48.46 49.77 50.85 50.94 51.55 51.53
51.31 50.70 50.49 50.66 51.29 51.76 52.08 51.59 51.28 50.75 50.08 46.31 46.31 39.22 42.59 44.33 44.81 45.38 45.96 45.41 47.95 49.31 45.48 42.65 43.67 46.69 44.47 44.79 45.76 44.81 42.43 40.50 39.64 38.46 40.67 43.83 44.72 47.17 47.62 47.14 47.08 47.20 47.12 47.01 47.72 47.37 47.79 48.14 48.29 49.39 50.46 50.19 50.86 51.57
51.00 50.66 49.44 50.97 52.00 52.04 51.50 50.33 48.78 50.94 49.52 47.44 46.50 43.98 45.42 42.63 43.26 45.30 47.01 46.84 49.92 50.55 48.14 45.38 41.77 42.52 42.96 43.27 41.78 41.67 41.15 38.87 40.84 42.11 44.30 44.27 45.28 47.23 48.00 47.71 47.57 47.89 47.33 46.87 47.18 46.89 47.52 47.35 47.07 48.01 49.20 48.75 48.92 50.09
50.80 47.13 51.57 51.83 51.84 51.79 50.83 48.12 48.98 47.02 46.90 45.31 43.91 46.24 43.45 43.25 43.77 44.53 46.83 48.39 51.43 50.47 45.81 47.20 43.22 42.83 44.28 42.00 40.91 43.17 41.59 42.33 43.83 44.61 46.69 47.94 47.36 47.36 47.90 47.89 47.22 47.17 46.73 46.43 46.86 46.74 47.47 47.82 46.88 48.42 48.09 48.02 47.81 48.08
47.89 50.16 51.81 51.50 51.24 51.14 49.78 49.33 48.25 46.36 43.63 44.07 39.86 42.41 43.80 44.85 44.41 46.59 48.84 50.10 50.17 50.02 49.68 47.10 47.50 43.69 43.19 42.23 41.34 43.68 44.10 44.50 47.07 47.37 47.98 48.76 47.82 47.67 49.31 49.15 48.66 48.43 47.72 47.25 47.49 48.00 46.52 46.00 46.70 49.03 49.58 49.00 47.74 46.49
51.23 51.10 51.92 51.80 51.52 49.63 47.17 47.31 48.35 42.64 44.63 44.64 43.09 42.81 47.12 46.06 48.25 51.62 52.43 52.38 53.01 53.60 51.41 48.22 46.34 44.31 44.83 45.58 46.40 46.95 46.54 49.56 49.40 49.71 50.26 50.19 48.98 49.17 49.51 48.93 49.03 49.69 49.99 49.09 47.78 48.36 48.83 48.80 49.63 49.68 50.35 48.87 48.72 48.13
50.62 51.31 51.69 51.92 51.67 48.10 45.88 46.61 49.59 44.63 42.46 44.97 45.09 46.15 47.20 46.76 48.98 49.62 50.48 50.91 51.81 50.68 48.60 47.17 47.11 48.44 48.53 48.93 49.65 50.14 50.15 50.82 51.92 50.68 50.77 51.77 52.68 51.81 51.38 51.19 51.47 51.56 51.62 50.39 49.06 47.27 47.24 46.37 46.45 47.86 50.12 50.31 50.00 48.30
49.28 49.46 50.90 51.18 49.37 48.57 46.56 46.39 46.54 47.11 44.71 42.89 46.12 46.77 45.55 45.84 46.50 49.54 50.30 52.72 50.17 48.96 47.42 49.41 50.62 50.86 52.92 51.60 51.49 51.86 50.86 52.43 52.07 51.78 51.37 51.74 52.93 54.21 54.05 54.82 54.17 52.22 51.57 50.15 49.28 48.16 47.72 50.53 51.52 49.59 49.80 50.64 51.60 51.28
49.65 51.87 49.78 49.68 47.13 48.24 47.24 46.56 45.97 48.34 46.76 47.81 45.92 45.69 44.94 45.14 45.21 48.85 51.31 49.15 49.23 50.26 50.76 49.45 48.71 49.58 51.79 53.75 54.35 54.40 52.75 52.29 50.98 49.78 49.03 50.01 50.58 51.17 51.95 52.52 52.63 52.61 51.19 50.74 50.08 50.48 51.12 52.60 51.51 51.97 51.78 51.45 50.94 51.00
49.58 50.90 49.55 47.54 44.90 43.01 41.74 48.46 46.31 47.01 43.44 46.64 48.41 44.25 43.75 44.56 45.82 50.68 45.65 48.37 49.96 51.57 51.51 50.36 50.71 52.26 52.14 54.24 54.91 54.86 53.74 51.99 50.04 47.82 48.38 49.48 50.80 50.52 51.13 50.95 50.91 49.74 48.84 49.64 50.97 51.70 51.34 48.85 50.58 52.79 52.74 51.76 51.82 51.12
50.12 48.58 45.68 45.13 43.71 41.46 46.90 45.95 46.47 45.38 45.85 45.74 44.86 43.38 43.34 43.81 47.51 45.96 44.23 44.87 48.10 50.84 50.81 49.88 50.72 52.24 53.41 54.26 53.34 54.03 54.79 52.86 51.09 51.30 51.31 50.72 49.53 49.20 50.09 52.07 50.74 50.67 51.00 52.28 53.40 51.87 51.33 50.48 49.45 53.37 53.20 52.37 51.84 51.71
41.89 40.92 43.00 36.98 45.60 43.88 43.45 44.17 43.91 43.64 43.26 46.26 43.92 42.61 44.16 45.85 43.02 44.39 44.97 46.47 48.68 49.01 50.98 52.05 51.45 51.41 50.93 52.43 53.64 54.56 54.26 53.87 52.66 51.55 51.45 51.07 49.28 48.88 49.22 49.60 49.45 49.69 50.14 49.59 49.39 49.63 49.81 50.63 52.33 52.59 52.54 52.37 51.60 51.67
37.62 41.87 38.23 43.47 43.33 42.16 44.40 43.83 44.74 44.73 43.69 43.96 45.23 45.52 45.72 45.36 43.35 42.58 44.77 46.51 48.22 49.48 50.43 52.50 52.68 52.05 52.03 51.95 50.88 50.34 51.95 53.35 53.04 52.09 51.58 51.94 51.57 50.05 48.71 48.37 48.51 49.16 50.29 49.80 49.89 49.20 49.51 49.33 50.23 51.57 51.38 49.86 45.27 49.86
36.51 39.12 42.99 45.33 45.84 47.21 46.33 47.62 48.24 46.24 43.85 42.89 43.58 43.20 42.10 40.37 41.36 43.95 47.94 48.46 47.87 48.94 50.71 51.48 53.94 52.83 51.76 51.27 51.37 50.93 53.09 53.78 53.23 52.38 52.83 52.32 51.63 51.74 51.46 49.57 48.02 49.33 51.31 51.47 51.28 50.62 49.64 49.59 49.67 50.02 49.67 48.81 48.20 47.73
42.39 42.31 40.95 44.07 45.54 47.71 44.73 45.78 46.01 44.64 45.62 46.13 45.80 43.16 42.95 44.19 43.29 48.27 50.04 50.58 50.96 53.11 53.43 54.87 54.07 54.32 52.78 51.58 50.35 50.84 50.72 50.77 50.90 50.37 49.70 49.37 49.92 50.43 50.26 50.49 50.57 46.23 51.62 52.31 51.42 51.21 50.28 49.50 49.24 49.38 49.36 49.24 49.44 49.98
41.14 43.62 44.20 42.31 44.09 44.64 45.00 45.55 46.54 48.19 48.34 48.59 46.90 46.01 45.06 46.49 49.05 49.47 49.42 51.69 55.88 54.60 53.58 53.20 52.43 53.18 50.53 49.27 49.35 50.20 50.34 49.74 48.96 46.59 44.80 44.95 45.96 47.87 48.72 49.75 50.04 49.97 50.89 50.99 44.03 47.86 50.49 49.89 49.46 49.14 48.90 48.47 48.68 48.69
41.79 45.98 44.47 44.69 43.84 42.64 44.56 49.34 48.56 48.51 48.23 48.88 49.30 48.03 47.15 47.72 49.84 53.36 54.14 53.92 53.61 51.87 51.65 49.86 50.65 50.01 48.49 48.28 47.79 48.12 48.82 48.78 48.28 48.72 47.36 47.01 47.86 48.88 48.17 49.62 49.70 49.75 49.67 49.29 49.42 49.01 44.86 47.72 45.16 48.42 47.81 47.19 46.93 46.99
44.05 44.62 43.75 43.46 42.89 46.02 48.67 49.17 49.44 50.70 52.06 51.47 50.06 47.71 47.26 49.28 51.36 52.76 52.17 53.30 53.12 52.31 51.17 50.27 50.61 49.30 48.89 48.07 47.99 45.43 44.31 44.63 44.32 45.40 45.73 46.09 47.38 47.77 48.03 48.52 49.34 48.82 48.49 48.73 48.87 48.83 47.98 47.11 47.43 46.88 47.24 47.22 47.31 45.94
43.23 43.04 42.22 41.18 43.03 49.15 50.12 49.95 49.99 48.69 49.78 49.67 48.06 50.95 50.15 48.33 47.70 49.31 52.92 51.61 51.15 51.08 49.52 49.89 49.85 46.95 47.64 47.16 46.30 44.82 42.43 43.75 43.36 43.73 44.47 45.35 45.30 45.69 46.72 45.88 45.55 46.51 48.09 48.81 48.22 47.89 47.64 47.14 46.83 47.46 47.19 47.31 46.33 46.12
43.12 43.24 43.54 44.89 45.72 46.50 50.06 50.27 49.68 48.22 48.47 47.56 49.15 49.52 48.73 47.59 48.45 49.73 51.10 48.80 47.68 46.53 46.47 47.64 47.74 46.76 46.19 45.96 45.07 43.78 42.04 43.28 40.75 39.67 39.54 39.81 40.33 42.07 44.26 44.89 45.89 46.67 46.47 44.98 44.96 45.53 46.36 46.51 46.86 47.37 47.72 47.87 46.88 46.36

GFSWCAN_sfc_wetblb_129.txt.gz
Wetbulb
55.65 56.05 56.01 55.97 55.77 55.83 55.08 54.39 53.81 53.75 54.00 54.18 54.17 55.63 56.22 56.08 56.17 54.82 52.25 53.14 50.79 47.87 49.96 52.66 55.55 53.43 53.11 50.37 48.71 49.26 50.22 49.97 47.90 46.30 44.57 44.93 45.48 47.58 45.68 46.86 46.92 45.36 44.96 45.15 44.67 43.41 40.56 54.07 52.64 48.59 53.38 55.34 57.36 59.90
55.22 55.27 55.45 55.61 55.73 55.22 54.41 54.02 53.61 53.43 53.84 53.92 53.93 55.05 56.01 55.85 55.81 55.34 50.22 52.52 53.22 48.64 49.88 52.15 53.40 55.61 56.97 56.58 53.40 49.71 51.00 51.54 51.91 48.13 46.88 47.83 46.56 46.91 46.82 43.84 48.59 44.49 48.06 47.55 48.00 47.96 51.06 55.45 54.94 56.14 57.37 59.31 59.44 60.58
54.68 54.78 55.00 55.19 55.02 54.47 54.08 53.72 53.26 53.30 53.86 53.55 54.38 55.37 56.27 55.87 55.75 55.22 51.85 52.23 51.09 48.32 49.47 50.48 51.32 56.35 57.67 56.05 57.97 51.05 52.03 53.93 52.05 52.93 50.75 49.98 48.28 48.90 45.92 46.64 48.53 49.51 49.01 50.31 48.38 49.87 51.96 54.93 56.67 57.33 58.51 59.04 60.27 61.00
53.88 54.20 54.46 54.97 54.66 54.25 54.03 53.37 52.91 53.39 53.67 54.16 54.88 54.94 55.20 55.74 55.66 55.58 52.39 52.64 51.17 48.66 45.66 51.58 57.69 56.66 59.38 58.18 57.89 58.07 55.23 52.79 52.25 52.32 50.79 50.10 48.90 49.29 48.72 48.79 49.69 51.01 50.56 50.73 49.49 50.92 52.70 55.22 57.07 58.05 58.84 60.00 60.08 60.81
52.76 53.65 54.08 54.70 54.48 54.07 53.86 52.93 52.77 53.43 53.33 54.08 53.77 53.92 55.69 55.14 55.04 55.28 54.77 53.09 52.83 48.77 46.03 49.04 53.99 56.46 57.81 56.08 55.20 57.54 55.17 53.00 52.26 50.98 50.56 49.21 48.54 49.76 49.29 49.32 48.98 51.24 51.61 49.71 48.90 55.81 56.26 56.52 58.45 58.82 59.71 59.05 59.78 59.58
51.79 52.25 53.39 54.01 54.00 53.79 53.46 52.62 52.70 53.00 53.17 53.43 53.34 53.24 54.59 54.80 54.44 52.47 47.45 53.09 53.98 52.23 46.79 46.27 55.19 55.97 55.46 53.46 53.50 53.94 54.39 53.72 53.65 52.89 50.71 49.43 51.24 52.00 48.35 48.38 53.34 53.13 53.93 55.78 54.56 55.01 56.39 56.64 59.24 59.34 60.48 60.33 60.36 59.97
52.04 52.58 53.10 53.74 53.70 53.53 53.03 52.59 52.96 53.06 53.13 53.13 53.52 52.55 54.18 53.94 54.01 49.07 48.45 49.36 52.38 53.07 47.06 47.83 51.43 55.15 54.85 54.35 54.09 53.98 53.76 52.98 54.58 51.98 52.19 53.31 51.32 51.42 49.64 48.21 53.99 53.73 55.12 55.03 54.32 56.04 54.59 56.42 56.89 58.93 61.28 61.15 59.66 60.75
51.92 52.26 52.53 53.37 53.55 53.42 52.57 52.45 52.91 52.99 52.88 52.99 53.23 52.45 53.28 53.36 53.07 50.55 54.10 51.94 51.84 50.10 48.65 48.11 50.00 51.67 54.19 52.11 51.66 52.82 53.48 53.97 52.13 51.86 50.87 52.08 49.52 49.83 48.17 52.33 54.21 53.42 55.15 55.49 56.21 56.42 56.30 58.44 57.56 58.28 61.26 61.28 59.88 59.41
51.75 51.99 52.48 53.29 53.28 53.02 52.28 52.49 52.74 52.54 52.66 52.96 52.63 51.94 50.89 50.55 48.76 50.35 53.59 53.73 53.14 48.90 47.28 48.70 47.34 47.23 54.13 50.84 52.35 53.03 53.39 50.81 51.71 51.51 51.32 51.66 48.79 42.93 52.29 54.31 53.34 53.29 55.22 57.12 57.34 56.70 55.88 56.62 56.96 57.88 59.69 60.11 59.54 59.47
51.18 51.55 51.95 52.86 53.00 52.26 51.84 52.15 52.54 52.33 52.23 52.46 49.62 45.63 43.71 47.26 52.05 55.35 51.55 47.54 47.47 48.81 48.92 47.67 51.58 49.32 52.15 50.79 50.47 52.10 51.20 50.36 48.34 51.14 50.84 49.25 49.42 54.08 56.38 55.98 57.81 56.13 56.28 57.27 55.14 54.14 54.78 55.41 55.84 56.37 58.01 59.57 60.43 60.26
50.56 51.15 51.35 52.50 52.45 51.74 51.61 51.79 52.05 51.92 51.18 47.78 45.64 46.14 52.39 53.38 52.27 50.58 47.82 46.04 46.93 45.18 48.81 50.38 51.38 50.61 53.76 49.79 50.49 51.72 49.87 49.93 46.44 49.06 48.57 48.24 47.64 52.66 56.68 55.93 56.50 56.35 56.88 57.03 59.33 59.72 59.11 58.89 57.09 56.54 56.68 58.90 60.57 60.47
50.53 50.86 51.02 52.15 51.88 51.46 51.25 51.36 51.64 50.48 49.66 48.45 48.22 50.20 50.46 50.50 48.54 45.49 45.83 46.02 44.91 43.83 47.35 48.13 50.10 52.52 53.44 54.96 52.39 51.17 48.96 48.61 44.82 49.55 48.04 45.93 51.21 55.25 54.38 54.22 54.97 55.46 55.13 55.83 56.57 56.87 57.20 57.43 58.13 57.81 57.23 57.78 59.94 60.95
49.94 50.61 50.72 51.86 51.43 51.06 51.07 51.01 51.22 51.68 51.08 50.37 49.53 49.49 49.57 47.78 40.47 41.89 39.75 43.27 43.15 47.50 48.10 48.91 48.23 52.78 53.12 55.07 52.30 51.41 46.93 46.23 49.76 46.65 46.14 49.25 54.33 54.49 54.33 53.89 54.81 54.87 55.02 55.88 55.76 56.22 56.52 56.34 55.93 56.84 56.52 56.49 56.52 56.18
49.89 50.43 51.23 51.67 51.12 50.75 50.75 51.14 51.98 51.65 49.90 47.71 46.83 37.32 44.74 42.67 44.03 45.64 45.99 46.42 48.95 49.94 51.66 48.49 50.06 50.36 51.41 51.10 51.75 46.28 49.10 48.00 44.06 41.82 44.68 51.13 54.97 56.64 55.12 55.12 54.93 54.04 54.48 55.11 55.78 55.74 55.64 55.72 55.41 55.51 56.16 56.72 56.22 55.72
50.44 51.77 51.38 50.97 51.00 51.06 50.79 51.65 51.39 52.06 50.07 46.22 47.10 39.44 43.36 47.30 47.74 48.50 49.20 48.77 50.64 52.71 51.61 47.40 50.00 51.48 49.66 48.47 49.32 47.89 44.74 43.37 45.28 45.75 50.37 53.40 55.20 54.48 54.42 55.29 55.48 54.72 54.56 54.91 55.64 55.39 55.36 55.57 55.21 55.29 56.01 56.70 57.07 57.09
51.48 50.62 49.63 50.50 50.85 51.21 51.23 51.18 51.12 52.08 50.00 47.06 46.85 44.16 46.82 46.33 46.12 47.25 48.22 48.67 52.67 52.69 52.58 49.17 47.43 47.28 47.09 47.76 45.52 44.75 43.90 42.44 47.13 50.93 54.39 53.94 54.17 54.78 55.66 56.40 56.57 56.17 55.55 55.69 55.56 55.62 55.61 55.45 55.51 56.22 56.47 56.49 56.87 57.34
50.66 48.94 51.04 50.92 51.48 51.61 50.62 50.09 48.95 47.35 46.08 45.52 43.96 48.25 47.83 46.74 46.23 48.14 50.00 51.13 53.40 51.26 49.26 49.33 44.80 44.18 47.23 45.79 44.82 48.00 46.08 49.75 52.24 54.21 54.83 54.68 56.10 57.21 56.14 56.42 56.77 55.82 55.46 55.72 55.79 55.56 55.91 56.19 56.14 55.35 55.25 56.67 56.99 57.80
49.07 50.95 51.41 51.71 51.71 50.61 49.94 49.75 47.63 45.80 43.23 45.56 43.28 46.11 46.67 47.87 47.11 48.48 50.23 51.69 52.06 51.40 51.20 48.15 51.30 46.64 45.32 43.40 44.97 49.76 50.66 51.94 53.99 53.60 53.87 54.64 55.36 56.68 56.47 56.48 57.03 56.49 55.95 55.77 56.02 56.16 55.77 54.53 54.00 54.41 56.29 57.49 56.98 56.98
50.84 51.09 51.79 51.74 51.71 49.37 45.83 46.21 47.78 42.32 44.42 46.54 47.05 46.97 46.87 47.36 48.66 50.08 51.43 53.01 54.14 54.55 52.89 51.13 47.63 45.71 46.71 50.71 51.24 52.89 53.81 54.49 54.23 55.80 56.16 56.99 57.38 56.47 56.44 55.70 56.54 55.98 55.95 55.68 55.28 54.99 55.38 55.71 55.62 56.03 56.03 55.89 55.16 56.22
51.66 51.76 51.84 52.04 51.94 47.73 45.79 46.53 49.61 44.43 42.45 45.80 47.78 46.74 46.80 46.94 48.95 49.04 49.22 51.06 51.80 52.08 49.66 47.71 48.26 50.26 52.64 54.52 54.83 55.67 55.59 55.65 55.47 55.15 55.76 56.89 57.57 55.34 55.18 55.77 55.86 56.44 55.83 55.68 55.51 50.05 55.12 54.71 55.12 55.48 55.61 55.39 55.07 55.19
49.60 50.44 51.63 51.58 49.43 49.02 46.92 46.36 45.82 45.98 45.92 45.04 47.50 47.31 47.08 48.68 48.46 49.42 49.80 52.58 49.79 48.70 47.08 50.45 51.00 53.39 57.10 57.61 57.68 57.42 55.69 55.34 54.83 55.48 55.18 55.76 57.18 57.02 56.71 56.81 57.07 57.18 57.11 57.01 56.88 56.94 51.48 56.67 58.27 55.68 54.82 54.94 55.72 56.04
49.31 51.04 49.78 49.93 47.21 47.67 46.74 48.30 46.29 48.21 46.07 46.64 47.32 47.92 46.65 45.98 47.30 48.78 52.22 49.48 49.02 50.02 52.40 52.67 52.61 53.94 54.86 55.81 55.67 56.55 57.33 56.72 56.31 54.94 50.65 52.53 56.92 57.73 57.82 58.17 59.51 58.99 59.29 59.13 59.39 59.17 59.57 59.16 58.37 57.63 56.55 56.20 53.33 55.66
50.30 50.23 48.61 47.35 43.97 42.53 41.69 49.23 44.96 46.49 42.56 45.71 48.01 46.58 47.17 47.37 49.65 52.42 48.18 49.59 50.95 55.22 53.54 52.78 53.20 55.32 54.91 56.44 57.06 57.15 57.43 56.63 56.44 55.65 55.41 56.57 56.45 57.27 57.46 57.61 58.58 58.15 57.54 56.37 57.22 57.08 56.49 49.11 53.03 56.34 56.70 56.30 56.61 56.01
49.18 46.99 44.77 43.71 42.76 39.98 46.37 44.40 46.40 45.44 46.70 45.86 44.55 44.56 46.74 48.05 50.99 49.13 47.65 48.80 52.39 53.01 52.11 51.83 53.47 53.62 54.49 54.98 55.42 56.25 56.26 57.79 57.61 57.44 57.91 57.58 56.16 55.94 56.91 56.64 56.86 57.18 57.45 57.16 57.24 56.97 56.51 55.00 50.79 56.87 56.79 56.35 55.99 54.98
40.83 40.56 42.37 36.49 45.23 42.15 42.00 42.93 43.77 44.49 42.64 44.39 43.84 44.97 47.55 50.07 47.53 46.69 47.28 49.98 52.20 52.73 53.17 53.68 53.68 54.67 52.75 54.81 56.77 56.46 58.34 57.59 55.83 56.31 56.43 57.20 55.80 54.89 54.01 54.31 54.63 55.17 56.68 56.08 55.33 55.15 54.95 55.85 55.81 55.95 56.03 55.63 54.93 53.84
35.58 42.18 38.06 42.20 43.44 42.33 42.82 41.61 43.15 43.88 45.10 44.52 45.38 47.20 49.54 48.17 45.46 45.00 48.84 50.01 51.92 52.62 53.16 54.09 53.39 53.02 55.00 56.50 56.86 55.98 57.12 58.14 58.65 57.37 56.38 56.74 56.47 55.04 53.64 54.17 54.38 55.05 56.53 57.00 55.41 54.19 54.34 55.17 54.98 54.68 55.02 53.71 46.97 53.04
36.59 39.90 44.12 46.96 44.29 45.20 44.85 46.20 46.61 45.73 44.82 44.42 46.67 46.42 46.35 43.06 43.39 48.79 52.89 53.56 52.98 54.53 54.80 55.03 56.01 55.78 56.75 56.54 57.19 57.92 58.84 59.31 58.95 58.11 57.62 57.29 56.83 57.23 56.79 54.46 53.55 55.43 56.65 56.61 56.04 55.12 54.54 54.56 54.96 54.74 54.36 54.25 54.19 54.13
42.00 43.81 41.00 44.42 45.46 47.76 43.67 44.57 44.87 45.01 46.37 49.24 48.83 44.76 44.45 45.31 47.14 52.89 54.18 54.98 54.55 56.15 56.21 55.53 56.37 57.41 57.00 56.94 57.30 56.75 56.59 57.00 57.20 56.98 56.77 56.83 57.56 57.97 57.43 57.12 57.50 45.91 57.34 58.08 57.41 56.35 55.68 55.37 55.04 54.52 54.35 54.20 54.74 55.82
41.23 44.77 44.97 42.35 44.47 45.52 46.03 45.17 46.32 49.55 50.86 49.94 47.87 47.42 48.76 51.12 53.06 54.12 55.27 56.56 58.04 57.12 55.12 53.90 53.88 55.48 55.05 55.17 55.92 56.45 56.39 56.16 54.31 52.10 51.35 51.41 52.54 54.39 57.15 57.71 57.56 57.27 58.07 57.88 46.36 50.77 55.72 55.65 55.54 55.78 55.12 55.40 55.90 56.43
41.85 45.74 44.26 44.85 44.43 44.25 47.57 49.19 48.97 50.84 51.39 50.70 51.55 52.93 52.10 52.32 53.49 55.91 57.37 56.67 55.77 55.18 54.22 54.51 53.90 54.71 54.06 54.32 53.82 54.27 55.46 55.82 55.69 54.46 52.17 51.47 52.93 55.97 56.22 56.48 56.82 57.15 57.64 57.83 57.56 55.67 41.80 49.78 48.98 55.12 54.40 55.01 54.75 54.45
46.47 45.68 44.78 45.53 44.94 47.77 50.96 52.71 52.97 52.51 53.68 51.16 51.37 51.81 50.87 53.12 54.92 57.13 57.04 57.17 55.88 55.98 54.95 53.47 53.46 54.13 54.50 54.50 54.69 54.21 52.71 52.40 52.39 52.44 53.14 54.23 55.00 56.11 57.26 57.44 57.19 57.47 57.21 57.13 56.87 56.22 55.84 54.77 55.26 54.53 54.18 53.73 53.30 51.24
45.34 44.41 45.18 43.80 46.96 50.70 51.82 50.75 50.62 50.26 51.83 52.06 51.34 52.61 52.50 52.19 51.00 54.28 56.74 57.27 56.31 55.54 52.07 54.37 54.19 53.79 55.41 55.96 55.54 52.95 43.91 51.84 51.88 52.09 51.95 53.06 53.93 54.83 55.72 55.91 56.24 56.80 56.77 56.34 56.03 55.78 54.79 54.06 53.66 53.52 53.49 53.21 53.27 53.28
46.10 46.83 46.86 46.58 48.42 47.99 50.13 50.14 49.18 48.94 49.43 49.48 51.46 51.74 51.70 52.19 50.55 54.26 54.51 54.39 56.91 57.60 56.79 57.05 56.96 56.51 56.59 55.94 53.10 50.70 47.49 51.37 44.64 38.03 38.27 37.95 38.49 45.54 53.17 54.42 54.83 55.23 54.72 54.34 53.37 52.55 51.97 51.91 51.95 52.12 51.89 51.98 51.98 52.00

GFSWCAN_sfc_wetblb_132.txt.gz
Wetbulb
55.40 55.63 56.01 56.27 56.41 56.09 55.97 55.34 54.57 53.94 53.78 54.33 54.48 54.44 55.61 56.31 56.04 55.38 54.34 55.32 52.29 52.08 54.16 55.13 56.32 56.60 56.62 54.65 50.72 53.42 50.30 51.50 51.01 49.25 48.98 48.81 48.08 50.23 48.68 50.53 48.78 47.98 46.99 47.19 48.43 45.64 43.38 56.95 55.74 51.70 56.61 59.35 59.99 60.70
54.98 55.24 55.44 55.56 55.77 55.89 55.52 54.90 54.29 53.86 53.65 54.27 54.09 53.98 55.28 56.42 55.89 55.51 51.85 55.02 54.83 50.09 52.74 56.54 57.17 58.04 57.93 58.02 56.77 54.48 54.38 53.14 53.90 51.82 52.75 53.87 49.56 51.72 49.50 45.33 54.10 47.05 50.00 49.70 48.93 50.54 57.28 59.04 57.92 59.41 59.86 60.26 60.50 60.23
53.77 54.30 54.68 54.98 55.39 55.41 54.96 54.69 54.26 53.57 53.55 54.18 54.04 54.79 55.65 56.23 55.95 55.51 53.75 53.17 51.83 49.14 53.32 54.27 53.69 57.57 59.19 58.36 59.94 53.98 55.71 56.63 56.32 59.21 56.41 55.23 49.89 53.29 48.16 48.66 50.38 54.10 54.64 51.16 51.14 54.24 55.60 58.16 59.40 60.14 61.41 59.59 59.16 59.83
52.70 53.27 54.09 54.34 54.86 54.96 54.60 54.41 53.86 53.26 53.44 53.84 54.00 55.08 54.86 55.10 56.03 55.95 53.72 53.97 51.49 50.85 49.04 53.68 60.83 58.27 60.41 59.73 58.67 58.34 58.27 58.68 60.12 58.69 55.45 53.49 51.13 56.04 51.35 52.84 52.06 54.44 55.31 53.55 53.09 55.07 56.75 58.34 59.63 60.92 60.73 60.76 60.20 60.17
52.27 52.38 52.72 53.71 54.26 54.80 54.41 54.27 53.47 52.95 53.47 53.65 53.88 53.84 53.90 55.46 55.12 55.81 56.57 54.69 54.01 50.65 47.81 52.34 56.45 58.67 60.72 60.53 59.21 59.07 57.95 57.80 56.48 54.84 53.86 52.55 55.80 54.52 56.05 54.31 50.55 56.15 54.36 52.20 50.30 56.86 56.81 56.25 60.49 61.60 60.29 60.11 61.11 60.20
52.01 52.18 52.41 52.80 54.10 54.46 54.10 53.99 53.24 52.73 53.37 53.26 53.69 53.47 53.38 54.82 54.52 54.39 48.72 54.38 54.71 52.94 50.15 48.95 58.08 58.51 59.45 58.83 58.95 58.76 59.44 58.17 57.31 56.11 55.82 56.91 56.63 55.46 50.49 49.74 55.04 56.49 58.09 58.70 56.34 59.90 59.60 60.00 60.23 61.82 61.06 61.24 61.46 61.24
52.04 52.10 52.45 53.05 53.69 54.18 53.98 53.63 52.85 53.08 53.27 53.21 53.21 53.68 52.86 53.80 54.75 50.46 49.19 52.61 53.40 53.48 50.57 50.15 53.85 58.54 57.13 57.12 57.51 58.12 59.39 57.69 57.40 56.83 54.28 56.30 55.98 54.23 51.40 48.55 54.81 56.76 58.42 59.42 60.07 59.88 58.37 59.28 58.59 61.47 61.86 62.29 60.86 62.08
51.70 52.01 52.30 52.52 53.36 53.87 53.81 52.96 52.71 52.94 52.98 52.92 53.23 52.90 52.27 53.36 53.20 51.58 55.66 53.01 53.93 51.22 52.74 49.75 53.13 54.83 57.40 54.77 53.84 58.45 55.92 56.85 56.85 57.07 57.00 54.78 55.43 54.99 51.78 54.21 56.22 57.32 58.73 59.56 59.77 60.18 59.01 60.88 61.15 61.44 62.49 62.56 61.17 60.81
50.98 51.60 52.04 52.29 53.26 53.44 53.49 52.53 52.42 52.76 52.63 52.86 53.00 52.21 52.06 51.96 49.46 53.84 54.82 54.39 55.29 52.84 49.79 52.29 50.71 49.15 57.20 56.32 56.69 56.56 57.30 52.10 57.86 53.42 54.88 55.78 53.91 47.67 53.65 55.24 56.26 58.15 58.03 57.81 59.70 60.36 59.79 59.45 60.31 61.03 61.61 61.77 60.60 60.75
50.79 51.21 51.61 51.84 52.85 53.25 52.75 52.12 52.07 52.55 52.35 52.55 51.20 47.47 43.93 51.10 54.96 54.87 52.73 52.21 51.54 52.37 51.72 49.16 55.95 52.65 55.77 54.25 53.13 53.82 55.22 52.63 50.13 53.83 56.75 52.23 51.41 56.74 57.01 57.80 59.70 59.14 59.76 59.51 57.93 58.20 58.88 59.08 59.20 60.05 61.02 61.49 61.41 60.90
50.31 50.61 51.14 51.52 52.09 52.89 51.88 51.82 52.14 52.25 51.65 50.09 45.99 46.10 52.70 54.20 53.30 53.11 50.44 49.10 49.92 48.73 52.42 52.72 53.81 53.47 58.57 52.25 52.14 56.28 51.98 53.18 48.08 51.51 51.18 50.17 50.49 54.96 58.42 58.89 60.40 60.97 60.90 60.47 60.56 60.39 60.48 59.74 59.91 60.12 60.44 60.87 61.08 61.22
50.11 50.60 51.02 51.24 52.09 52.23 51.77 51.51 51.52 52.45 51.64 50.71 49.86 50.29 51.06 50.28 49.41 48.33 48.14 50.41 49.38 47.72 51.90 51.12 52.77 54.60 57.14 58.98 54.24 54.62 51.10 52.27 46.51 54.84 50.78 47.67 53.76 57.62 58.88 58.92 59.99 61.62 60.96 60.31 61.25 60.63 60.50 59.53 60.90 61.17 60.91 61.15 61.29 62.04
50.10 50.21 50.54 51.09 51.97 51.89 51.53 51.35 51.35 51.44 51.40 50.77 49.49 48.69 50.50 48.39 40.90 42.24 41.74 46.18 47.58 51.25 52.39 52.28 50.57 53.90 57.79 58.83 55.79 54.04 49.10 48.25 55.52 49.57 47.76 51.18 56.26 58.19 59.68 59.42 59.12 60.45 60.62 60.33 60.46 61.00 60.66 60.21 61.73 61.07 59.21 59.57 61.25 61.43
49.61 49.83 50.33 51.02 52.07 51.57 50.86 51.06 51.42 51.72 50.34 46.58 47.00 40.19 46.55 44.75 46.62 47.75 48.29 49.75 52.75 54.78 55.51 54.54 52.20 51.84 55.03 53.15 54.30 48.44 52.30 53.09 46.70 45.14 47.41 53.28 57.42 59.23 60.29 59.93 59.72 59.09 59.58 59.75 60.10 60.04 59.54 60.40 59.99 60.58 60.28 60.35 60.39 60.08
49.87 50.34 51.36 51.78 51.87 51.49 51.04 51.14 51.96 53.16 49.92 46.13 47.91 42.46 45.91 51.06 52.90 54.00 54.99 53.98 54.68 57.44 57.30 51.97 52.72 53.11 51.36 50.60 52.21 50.25 47.05 44.89 47.51 47.54 52.60 56.28 60.14 60.20 60.07 60.00 59.85 59.77 59.87 59.75 60.22 59.27 59.17 60.10 59.91 59.64 60.10 60.38 59.99 59.99
50.38 51.00 51.39 51.14 51.23 51.30 50.89 51.61 52.53 53.61 50.68 47.94 47.47 45.94 49.64 49.49 49.83 51.40 51.83 51.93 56.88 56.95 56.73 53.90 49.99 47.44 47.84 49.66 47.57 46.37 45.74 44.41 48.46 53.80 55.76 58.98 60.36 60.56 60.59 60.99 60.90 60.57 60.68 60.16 59.97 59.45 59.41 59.84 59.17 59.21 60.00 59.76 59.95 60.22
50.52 49.52 51.01 50.94 51.51 51.66 51.53 52.04 50.96 48.94 47.32 46.83 45.06 50.74 49.16 50.01 50.56 52.60 54.03 54.55 57.06 54.03 49.86 51.06 46.19 45.01 51.84 47.02 46.05 49.52 47.75 51.15 54.54 56.58 57.42 60.79 60.48 60.69 61.44 61.24 61.21 60.91 60.73 60.40 60.20 60.28 60.21 60.55 59.89 59.33 58.71 59.73 59.87 60.66
49.97 53.04 51.40 51.39 52.12 50.92 51.14 51.60 48.21 46.69 43.87 46.41 45.29 49.19 51.14 51.53 50.69 51.15 52.76 53.60 52.45 52.83 52.98 48.94 52.85 47.26 45.66 44.02 46.45 51.27 53.91 56.35 57.58 58.66 58.59 60.69 61.74 61.94 61.61 61.11 61.76 61.26 61.11 60.97 60.84 60.81 60.62 59.89 59.24 58.72 59.91 60.59 60.53 60.58
51.85 52.08 51.94 51.96 51.82 50.14 46.92 46.81 49.30 43.23 44.44 48.11 49.16 50.50 50.77 50.72 52.14 52.56 52.87 53.76 54.04 55.75 54.33 52.93 48.21 46.68 47.84 52.72 54.08 56.16 57.53 57.96 56.72 58.20 59.70 62.26 62.55 61.86 61.57 61.08 61.55 61.72 61.30 61.08 60.70 59.56 59.81 60.81 59.69 59.42 59.56 59.85 59.07 59.75
51.09 51.77 52.05 52.19 52.41 48.53 45.92 47.25 50.48 46.95 45.35 48.03 49.81 48.79 49.66 49.58 51.40 51.71 51.54 51.48 51.44 52.81 50.25 48.59 49.03 51.66 53.11 54.75 57.63 57.49 58.68 59.33 58.72 56.86 58.04 59.87 61.80 60.64 60.72 60.51 60.40 61.31 61.06 60.97 60.51 53.17 59.67 59.62 60.22 60.18 59.75 59.32 59.22 59.48
50.52 51.59 51.93 52.11 50.33 49.30 47.81 46.64 45.81 46.04 48.62 46.59 49.32 49.76 48.59 50.35 48.96 50.06 50.67 52.55 49.95 49.10 48.96 52.20 53.31 55.11 57.09 58.06 59.35 60.15 59.34 59.63 58.56 57.95 58.05 58.64 59.66 61.14 59.73 60.41 60.66 60.25 59.69 59.29 58.57 57.94 53.72 59.02 60.63 61.84 61.11 60.07 60.16 59.78
49.95 51.47 50.52 51.33 47.59 48.02 47.86 51.12 48.86 50.89 48.49 48.56 48.26 49.26 46.67 45.67 47.68 49.55 54.81 49.86 49.60 51.46 53.21 53.90 55.15 55.20 55.55 56.49 57.20 58.80 59.57 60.29 60.50 58.67 52.54 54.84 60.56 60.71 60.59 61.58 60.99 60.36 61.24 61.82 63.03 62.84 62.78 62.92 61.85 63.34 62.05 62.03 57.37 60.67
50.57 50.56 49.68 48.42 45.42 44.55 44.02 52.01 46.46 48.14 43.46 45.63 48.58 46.31 47.20 49.84 52.46 54.91 49.39 51.83 52.92 56.10 56.58 56.58 56.23 56.99 55.45 56.34 58.44 59.10 59.94 59.78 60.05 58.87 59.02 59.64 60.59 61.84 61.77 62.24 62.17 61.11 60.10 60.32 61.72 60.93 59.48 51.28 56.27 61.24 60.79 61.08 61.19 60.76
50.04 47.96 44.70 44.02 43.32 40.67 47.13 45.09 46.44 45.29 46.71 46.14 45.52 45.18 47.70 51.04 54.09 51.22 48.98 52.64 56.59 57.53 54.20 53.43 53.42 53.01 54.69 56.97 57.08 58.07 58.59 61.01 61.00 60.29 60.54 60.04 59.89 60.24 61.58 60.27 60.22 60.18 60.21 60.18 59.70 59.27 58.99 58.80 52.30 59.32 59.02 58.99 58.89 58.24
40.95 41.12 43.00 36.90 45.35 42.50 42.21 43.19 44.04 44.06 42.78 44.83 43.57 44.98 50.33 53.51 49.77 49.30 49.42 52.27 54.37 54.11 54.36 55.71 56.49 55.84 55.37 55.73 57.60 59.05 60.18 59.32 59.17 58.49 60.26 61.61 60.68 58.29 57.79 57.29 58.11 58.59 59.90 57.73 56.19 56.21 56.91 57.71 57.46 57.44 57.05 56.86 56.30 56.04
36.82 42.31 39.15 42.38 44.04 42.38 43.10 41.57 42.76 43.46 44.87 44.85 47.47 51.14 53.91 51.18 46.50 45.78 50.91 53.36 54.13 53.87 54.01 55.75 56.23 55.51 56.12 58.61 58.61 58.87 58.09 59.19 60.70 57.31 57.28 57.99 58.56 56.70 55.56 54.76 54.99 56.30 59.61 58.42 57.21 55.98 55.77 55.98 55.70 55.44 55.94 54.38 46.11 54.28
37.11 39.98 45.07 49.12 44.54 44.45 44.25 46.12 46.03 43.48 45.22 45.72 48.33 48.93 50.01 45.05 45.88 51.69 55.43 55.73 57.08 56.78 56.41 56.25 56.92 57.36 57.78 58.16 57.89 59.02 59.07 60.80 61.62 60.57 60.17 60.34 60.47 60.12 58.71 56.05 54.22 56.52 58.28 57.46 56.86 56.00 55.25 55.24 55.09 55.30 55.60 56.51 56.29 55.69
43.30 44.32 41.82 45.35 45.71 47.70 44.17 43.82 44.66 46.36 48.64 52.70 51.84 46.59 46.35 47.08 48.62 55.11 55.51 57.27 58.57 58.61 57.30 57.30 59.13 59.75 58.22 59.95 60.73 60.25 60.32 60.53 59.83 59.72 59.41 59.35 59.37 58.46 57.74 57.19 58.12 45.82 57.38 57.96 57.63 57.84 57.77 57.04 56.23 56.14 55.97 55.60 56.14 57.03
43.98 47.22 47.04 44.42 44.68 44.80 45.40 45.24 46.61 51.54 53.18 52.76 50.16 49.44 50.71 54.55 56.53 57.59 57.84 58.30 58.65 58.13 57.05 57.15 58.29 59.99 59.82 60.00 59.95 59.94 59.68 58.61 56.27 53.79 52.30 52.31 53.40 54.75 57.18 57.51 58.52 58.93 59.31 58.70 45.02 49.83 57.71 57.82 57.93 57.30 56.83 56.82 57.25 57.74
43.82 46.53 44.94 44.81 43.71 43.26 46.94 49.25 49.12 53.05 54.75 54.76 55.42 55.98 55.58 55.58 57.54 60.52 59.75 59.18 57.73 56.06 56.83 56.80 57.16 56.73 56.03 56.09 56.00 56.42 57.47 57.08 55.84 54.05 52.23 52.20 53.19 55.82 56.93 57.77 58.41 58.25 58.35 58.28 57.54 57.87 42.91 52.47 51.53 57.35 55.84 56.12 55.78 55.62
50.57 48.75 45.16 45.68 46.24 48.48 51.79 54.07 55.45 54.02 55.62 51.80 55.70 55.21 54.33 56.08 58.35 59.78 57.19 56.62 55.78 56.52 56.03 55.48 55.82 56.28 55.90 55.92 55.78 55.16 54.14 56.20 56.62 56.89 56.59 58.06 59.26 58.16 57.68 58.00 58.45 59.04 58.87 57.91 57.43 56.48 56.30 55.70 55.65 55.11 54.83 54.83 54.92 53.46
47.47 45.73 46.25 45.64 47.46 51.07 52.52 51.16 52.16 52.76 53.72 52.97 53.09 53.90 54.04 53.97 52.26 57.80 60.69 59.00 56.87 55.91 52.07 55.37 56.21 56.59 58.36 57.39 55.84 55.23 48.49 55.17 55.41 55.59 55.45 57.68 59.30 59.87 59.64 59.66 59.35 58.84 59.73 58.28 57.68 57.08 56.17 54.85 54.78 54.50 54.41 54.24 54.54 54.50
48.63 49.70 49.29 48.55 47.70 46.99 50.19 50.81 51.33 50.16 50.77 50.22 52.08 52.80 52.92 53.08 51.35 56.05 57.96 60.47 59.24 57.54 57.51 58.21 58.94 59.14 58.08 56.45 55.83 54.06 51.23 54.02 45.95 37.14 38.98 38.32 37.98 45.86 57.74 58.58 58.65 58.30 57.07 56.58 55.86 54.80 54.25 53.78 53.83 53.92 53.85 53.65 53.54 53.52

GFSWCAN_sfc_wetblb_135.txt.gz
Wetbulb
54.86 55.51 55.69 56.21 56.37 56.69 56.65 56.45 55.63 55.15 54.36 54.24 54.57 54.65 54.79 55.94 56.58 56.07 55.88 57.84 54.46 52.67 55.45 57.29 57.21 55.35 57.31 58.17 53.94 55.66 52.76 53.25 51.78 49.85 49.50 49.54 49.31 51.51 49.44 51.16 50.72 49.31 48.53 47.48 48.87 46.33 43.64 57.85 56.39 50.91 58.59 60.68 60.78 61.41
53.72 54.29 55.15 55.31 55.65 55.91 56.01 55.61 55.16 54.82 54.09 53.80 54.54 54.36 54.54 55.71 56.57 55.66 53.56 57.84 56.80 51.23 54.07 57.37 58.18 59.28 59.00 60.75 58.46 57.51 53.71 53.91 53.09 51.10 51.95 52.09 50.83 51.82 51.34 46.60 53.76 47.99 51.14 49.65 51.69 50.23 57.75 59.13 58.64 61.04 60.38 60.43 61.55 61.77
52.90 53.25 54.03 54.50 54.90 55.43 55.85 55.26 54.92 54.67 53.84 53.60 54.52 54.54 55.28 56.06 56.02 55.78 55.32 55.50 53.49 50.25 53.92 55.12 54.72 58.59 59.63 60.33 62.40 57.19 56.71 58.06 57.07 59.72 56.07 54.50 50.24 53.75 49.08 50.38 52.16 54.48 55.65 52.03 51.95 54.74 55.81 56.78 59.01 59.71 60.89 60.88 60.84 60.62
52.41 52.71 52.85 53.78 54.30 54.89 55.19 54.74 54.67 54.43 53.49 53.37 54.19 54.38 55.23 55.07 55.29 56.13 55.61 55.63 52.76 50.86 49.80 54.12 60.76 58.36 60.54 59.68 60.94 61.06 60.12 60.33 59.86 58.81 54.50 53.42 52.39 56.54 52.39 53.19 53.10 53.89 54.91 53.63 53.54 56.35 57.01 57.67 58.63 59.52 60.03 60.63 60.03 60.16
52.06 52.26 52.46 52.63 53.32 54.13 55.06 54.76 54.49 53.86 53.06 53.36 53.88 54.23 54.23 54.23 55.26 56.17 58.03 56.32 54.92 50.50 47.73 53.06 57.44 59.69 61.00 60.20 59.54 59.59 58.55 57.83 57.02 54.41 53.89 51.85 55.26 54.45 55.81 54.61 51.49 55.31 54.60 52.58 51.39 57.22 58.06 56.21 60.19 59.82 59.93 59.86 60.80 60.27
51.96 52.40 52.52 52.68 53.00 53.81 54.85 54.50 54.09 53.54 53.04 53.31 53.63 53.90 53.73 53.86 54.50 55.61 50.07 55.83 55.98 53.64 50.49 49.83 58.66 59.15 59.40 59.54 59.05 58.91 59.10 58.36 58.21 56.24 54.74 56.06 59.01 56.48 51.58 50.18 56.13 57.20 57.43 58.16 57.27 59.88 59.69 58.64 60.43 60.74 60.16 60.61 61.62 61.47
51.37 52.19 52.45 52.51 53.13 53.74 54.42 54.20 53.91 53.10 53.12 53.41 53.37 53.39 53.98 52.78 55.42 51.49 49.80 52.04 54.36 54.22 50.33 51.06 53.05 58.66 60.82 59.01 58.27 58.46 59.61 58.25 58.50 56.16 55.64 54.17 57.29 55.00 52.80 50.22 55.98 57.20 58.14 58.82 59.44 59.90 58.60 59.13 57.51 60.51 60.81 61.40 61.24 62.05
51.51 51.68 52.29 52.45 52.86 53.33 53.99 53.99 53.22 52.65 52.81 53.06 53.00 53.37 52.50 52.48 52.99 51.57 55.46 53.28 54.91 52.19 54.03 50.35 52.64 55.92 59.08 54.42 53.99 58.85 57.36 58.36 58.09 56.46 56.90 55.49 57.81 56.97 53.48 56.07 57.21 57.90 58.18 58.35 59.07 60.40 59.35 60.55 60.76 60.42 61.29 61.39 61.30 60.35
51.22 51.15 51.54 52.07 52.49 53.21 53.81 53.79 52.63 52.39 52.89 52.58 52.89 52.71 52.77 52.24 49.82 52.38 56.15 55.33 56.11 51.91 49.92 52.35 51.17 49.04 57.80 56.32 56.51 56.80 57.70 53.72 58.40 54.53 54.91 55.47 54.97 52.29 55.11 56.48 56.49 57.78 57.28 58.11 59.25 60.07 59.75 58.57 59.48 59.81 60.67 60.72 60.38 60.06
51.09 50.95 51.34 51.58 51.86 52.67 53.58 53.17 52.08 52.29 52.52 52.32 52.95 48.59 44.68 51.55 55.79 55.76 53.54 51.12 50.45 53.43 54.10 51.56 56.05 50.75 55.65 55.53 54.51 54.18 55.75 52.50 49.71 54.35 56.52 54.09 53.24 58.31 58.97 59.83 59.64 59.45 59.48 59.43 57.57 57.49 58.96 58.50 58.46 59.77 60.44 61.06 61.37 60.73
51.01 50.49 50.68 51.24 51.61 52.12 53.17 52.03 51.98 52.15 51.54 52.03 47.60 46.83 52.01 55.10 54.02 52.01 49.32 50.15 51.64 49.08 53.12 53.17 54.73 55.30 59.45 52.45 52.00 55.07 52.31 52.93 48.29 51.55 51.18 51.60 51.14 55.95 59.64 59.99 60.65 60.90 60.55 60.12 60.54 60.63 60.87 60.53 59.87 60.11 60.61 61.35 61.52 61.51
50.49 50.22 50.68 50.91 51.30 52.11 52.13 51.84 51.85 52.55 52.73 50.57 50.18 51.45 51.16 50.08 49.69 48.24 48.41 49.99 48.49 48.19 53.62 52.67 53.63 56.31 57.66 59.73 54.14 54.35 51.02 50.80 48.02 55.03 50.90 49.00 54.25 58.80 59.55 59.26 60.32 60.84 60.42 60.07 60.79 60.63 60.97 60.67 60.68 61.08 61.27 61.39 61.68 62.22
50.07 50.43 50.53 50.82 51.13 52.04 52.13 51.82 51.71 51.63 51.55 51.52 48.90 46.70 49.04 48.23 41.23 44.17 42.88 47.25 46.69 52.36 54.28 54.01 52.89 55.34 57.92 57.97 55.33 52.70 49.46 48.15 55.41 49.97 48.53 51.71 58.58 59.10 59.92 59.81 59.74 61.19 61.64 61.73 60.96 61.32 61.66 61.42 60.89 61.50 61.40 62.18 62.51 61.95
50.09 50.23 50.01 50.42 51.09 52.11 51.77 51.34 51.44 51.77 50.58 46.18 45.57 39.40 44.27 44.60 46.71 48.67 48.60 48.80 52.51 53.85 53.57 54.40 53.49 53.48 55.20 53.37 53.28 48.27 51.86 53.18 47.17 45.69 47.54 53.13 60.08 59.34 60.21 61.00 60.19 59.93 60.57 60.80 60.84 61.36 61.69 61.38 60.22 61.92 61.80 61.14 60.33 61.03
49.87 50.01 50.41 50.82 51.69 52.18 51.69 51.32 51.79 52.72 49.01 45.41 46.90 41.51 44.73 50.50 51.89 52.79 54.76 54.45 55.40 56.03 56.07 54.58 54.81 53.92 52.57 51.28 51.95 50.45 47.64 45.46 47.36 47.74 52.21 57.28 60.81 60.99 61.04 61.21 60.47 60.25 60.25 60.78 61.43 61.36 61.28 60.65 60.31 60.91 60.85 60.63 61.05 61.53
49.73 50.23 51.81 52.46 52.33 51.97 51.18 51.06 52.20 52.95 50.30 47.03 47.38 47.12 50.98 50.46 51.13 52.46 52.82 52.36 55.15 54.74 56.63 55.34 50.69 49.47 48.99 49.02 46.47 45.76 45.19 44.42 49.90 54.55 54.74 60.46 62.22 62.06 62.09 61.52 60.96 61.15 61.37 61.51 61.82 61.73 60.79 60.16 60.77 60.80 60.83 61.00 61.07 60.96
49.38 48.83 52.05 51.52 51.22 51.24 50.86 51.59 52.04 48.62 48.17 47.96 48.07 51.88 51.42 51.64 51.44 53.14 53.41 56.62 57.75 56.91 50.87 52.88 46.81 46.78 51.36 46.91 45.65 48.85 46.71 50.18 55.14 53.90 57.58 62.46 62.57 62.98 62.98 62.56 61.40 61.15 61.67 61.69 61.46 61.12 60.69 61.59 61.56 60.64 59.86 60.79 61.01 61.87
48.12 53.08 51.87 51.27 52.31 51.44 50.69 50.34 48.36 47.29 45.35 49.63 48.09 50.53 52.94 53.91 52.56 53.54 53.65 56.74 55.62 53.97 53.49 50.38 53.87 48.73 46.25 44.80 46.55 51.09 54.18 55.06 55.40 57.05 59.73 62.88 64.17 63.91 63.53 63.37 62.58 62.40 62.17 61.94 61.70 61.46 61.43 61.10 60.59 59.77 61.22 61.48 61.03 61.42
50.92 53.43 51.59 51.69 52.44 50.95 47.79 48.19 51.25 44.38 47.90 50.17 50.38 51.78 50.64 51.42 53.53 54.80 54.11 55.23 55.77 57.36 56.02 54.18 48.89 47.02 47.96 52.52 53.34 54.72 55.42 54.90 56.19 59.04 60.38 63.42 64.19 63.77 63.96 63.79 64.12 62.95 62.55 62.38 62.09 60.82 61.21 62.15 61.12 60.89 60.85 61.38 60.42 61.08
50.88 51.47 51.94 52.06 52.02 49.08 47.01 49.12 51.50 48.78 46.51 49.48 49.90 49.16 49.26 49.66 52.34 53.20 53.43 53.53 53.30 52.63 50.64 49.07 49.25 51.75 52.33 55.17 57.74 56.82 59.06 59.75 58.42 57.26 57.12 59.82 63.19 63.40 63.31 62.97 62.35 63.73 62.71 62.79 62.51 55.72 61.49 61.41 61.66 61.60 61.41 60.95 60.84 60.63
50.47 51.88 52.07 52.02 50.67 50.85 47.49 47.38 47.47 48.81 50.73 49.74 53.38 51.82 49.83 52.86 49.97 49.53 49.85 53.10 50.32 49.49 49.29 52.56 53.30 55.35 58.75 58.46 60.74 60.55 60.07 59.26 58.71 59.32 58.62 58.01 61.04 61.58 61.75 62.40 63.03 62.85 62.17 61.19 60.32 59.38 56.82 60.72 61.44 61.92 61.79 61.28 61.49 61.58
50.49 52.28 51.32 51.26 48.01 48.34 49.07 51.86 49.69 52.63 50.31 50.50 50.10 49.92 49.46 47.21 48.12 50.13 52.77 49.52 50.22 51.80 53.11 53.47 54.30 55.40 56.92 57.79 58.07 59.39 59.74 61.07 60.97 58.81 51.39 55.65 59.83 61.18 60.93 61.13 61.00 60.54 60.61 60.89 60.57 59.90 60.50 61.96 64.01 64.54 63.94 64.22 60.00 62.51
50.91 51.23 49.58 50.22 46.26 46.08 45.36 54.14 48.03 48.96 45.11 46.38 49.93 47.51 48.92 49.56 52.88 54.67 49.93 51.96 53.11 54.81 55.44 55.75 58.27 59.71 58.74 58.96 58.66 58.76 60.23 60.09 59.46 59.47 59.79 59.73 62.10 63.42 63.14 63.66 63.09 62.33 61.46 62.10 63.06 62.76 62.07 53.41 59.16 62.09 62.49 61.89 62.22 61.70
49.95 48.36 45.54 44.80 46.11 41.16 48.80 46.65 50.71 48.16 48.55 46.65 45.57 44.89 47.50 51.18 55.13 50.96 48.81 53.66 56.91 58.28 59.06 58.79 58.24 56.65 57.46 57.96 56.57 57.51 59.02 60.00 59.11 59.97 61.38 59.90 60.25 61.73 62.13 61.64 61.88 62.23 62.15 62.10 61.66 61.31 61.34 60.29 52.78 60.53 60.92 60.99 60.32 59.10
41.99 41.71 43.55 37.44 46.87 43.82 43.52 44.10 45.17 44.80 43.27 46.39 45.70 47.15 49.75 54.03 49.78 49.00 49.18 53.17 54.25 55.33 55.59 55.79 55.73 55.44 55.76 56.53 57.60 60.85 62.00 60.83 59.40 59.30 61.14 62.63 61.40 59.77 60.07 60.21 60.21 60.62 61.50 59.73 58.54 58.30 58.25 58.84 58.96 58.70 58.26 57.31 56.77 56.92
36.61 44.19 41.96 44.65 44.88 43.99 44.32 41.70 42.94 43.18 44.62 44.07 47.31 51.58 54.25 51.74 48.09 46.51 52.33 54.45 55.62 55.43 55.39 56.37 56.69 56.50 57.47 59.94 58.45 59.29 60.19 62.79 62.72 59.56 59.96 60.42 60.44 59.41 58.09 57.02 56.55 56.64 58.95 58.52 57.47 56.57 56.55 57.13 56.69 56.65 56.95 54.97 46.81 55.16
38.23 42.69 47.18 50.60 49.14 44.75 44.58 46.44 46.65 44.12 42.68 45.23 49.64 50.21 50.56 45.97 45.75 52.10 56.48 58.64 57.99 57.99 59.00 59.62 60.83 60.10 59.64 57.67 57.66 59.68 59.82 61.44 59.62 58.16 58.84 60.51 61.51 60.94 59.72 57.37 56.40 57.46 59.09 58.19 57.51 56.74 55.77 55.85 56.09 56.62 56.72 57.45 56.65 55.95
44.38 45.99 42.79 45.88 46.15 47.74 44.55 45.41 42.90 45.94 48.10 52.42 52.98 48.04 47.42 48.46 50.11 56.86 58.52 60.53 60.45 58.11 61.31 60.91 61.76 61.81 60.81 58.23 59.95 59.19 59.74 62.38 62.22 61.32 60.61 60.72 60.94 58.96 58.30 57.91 58.15 48.05 57.62 58.39 57.97 57.88 57.99 56.91 56.32 55.90 56.20 56.13 56.52 56.75
44.48 47.91 48.33 45.22 45.87 45.96 45.13 44.48 47.19 51.52 54.74 54.04 51.40 50.98 52.64 56.73 59.70 59.46 59.59 60.39 58.22 61.85 61.22 59.89 60.23 61.38 61.46 61.87 61.63 61.21 60.34 59.37 57.96 55.96 55.02 54.37 54.35 54.80 57.11 56.95 57.79 58.49 57.66 56.74 43.58 49.87 57.08 56.75 56.95 56.44 55.95 56.58 57.61 57.10
45.75 49.80 45.81 44.72 42.61 41.39 45.67 49.76 49.85 53.49 55.58 56.50 57.64 57.99 57.19 58.35 60.70 62.67 60.48 59.47 58.88 58.04 59.42 60.09 60.08 59.58 58.66 58.19 57.65 57.81 58.07 57.48 56.63 54.96 53.29 53.22 54.45 56.78 58.05 58.25 58.20 58.22 58.64 58.38 57.21 56.76 45.10 53.32 52.10 56.56 55.65 56.69 55.35 55.54
48.83 46.90 44.94 45.81 45.63 49.06 50.99 54.40 55.43 55.44 56.84 56.39 57.31 55.96 55.26 57.11 58.60 60.07 59.07 58.96 57.56 57.21 56.56 55.86 56.07 56.46 56.03 55.65 55.64 55.04 54.97 57.75 58.51 58.47 57.89 58.27 57.54 57.63 57.72 58.50 58.84 58.76 58.14 58.93 57.94 57.68 55.91 55.30 55.78 55.31 54.88 54.91 55.28 53.67
50.34 48.33 47.75 45.38 47.47 51.68 53.24 53.62 53.92 53.49 53.18 55.04 53.52 55.59 54.92 54.23 50.13 53.07 56.75 58.62 56.35 55.18 53.35 55.99 56.36 56.22 57.21 56.90 57.18 56.60 49.31 56.69 56.98 57.48 57.49 58.40 59.23 59.60 60.04 59.23 59.02 58.90 58.97 59.24 57.87 56.91 55.59 55.39 54.05 54.51 54.23 54.38 54.79 54.05
49.10 49.38 49.76 49.75 48.08 47.49 51.01 51.70 50.82 50.25 51.20 51.31 51.15 51.59 52.54 51.76 51.00 56.03 61.56 61.50 58.38 57.57 56.94 58.13 58.62 57.77 57.76 56.45 55.57 54.18 52.12 54.82 47.37 38.40 40.11 38.82 37.66 45.44 56.31 59.58 59.88 59.46 58.54 57.33 56.14 55.66 54.88 54.71 54.38 54.21 53.71 53.48 52.83 52.64